<?xml version="1.0" encoding="UTF-8" standalone="no" ?>
<gpx xmlns="http://www.topografix.com/GPX/1/1" xmlns:xsi="http://www.w3.org/2001/XMLSchema-instance" xsi:schemaLocation="http://www.topografix.com/GPX/1/1 http://www.topografix.com/GPX/1/1/gpx.xsd" version="1.1" creator="VisuGPX - https://www.visugpx.com">
  <metadata>
    <name>ski le Morbié</name>
  </metadata>
  <trk>
    <name><![CDATA[ski le Morbié]]></name>
    <extensions>
      <line xmlns="http://www.topografix.com/GPX/gpx_style/0/2">
        <color>0000FF</color>
        <width>4</width>
      </line>
    </extensions>
    <trkseg>
      <trkpt lat="45.60932" lon="6.10902">
        <ele>966.20001220703</ele>
        <time>2021-01-16T08:03:02.000Z</time>
      </trkpt>
      <trkpt lat="45.60932" lon="6.10902">
        <ele>965.59997558594</ele>
        <time>2021-01-16T08:03:13.000Z</time>
      </trkpt>
      <trkpt lat="45.60932" lon="6.10902">
        <ele>965.20001220703</ele>
        <time>2021-01-16T08:03:16.000Z</time>
      </trkpt>
      <trkpt lat="45.60932" lon="6.10902">
        <ele>965.20001220703</ele>
        <time>2021-01-16T08:03:21.000Z</time>
      </trkpt>
      <trkpt lat="45.60932" lon="6.10902">
        <ele>965.59997558594</ele>
        <time>2021-01-16T08:03:35.000Z</time>
      </trkpt>
      <trkpt lat="45.60932" lon="6.10902">
        <ele>965.59997558594</ele>
        <time>2021-01-16T08:03:43.000Z</time>
      </trkpt>
      <trkpt lat="45.60932" lon="6.10902">
        <ele>965.59997558594</ele>
        <time>2021-01-16T08:03:51.000Z</time>
      </trkpt>
      <trkpt lat="45.60933" lon="6.10901">
        <ele>965.40002441406</ele>
        <time>2021-01-16T08:04:03.000Z</time>
      </trkpt>
      <trkpt lat="45.60933" lon="6.10901">
        <ele>963</ele>
        <time>2021-01-16T08:04:07.000Z</time>
      </trkpt>
      <trkpt lat="45.60933" lon="6.10901">
        <ele>961.79998779297</ele>
        <time>2021-01-16T08:04:09.000Z</time>
      </trkpt>
      <trkpt lat="45.60933" lon="6.10901">
        <ele>965.20001220703</ele>
        <time>2021-01-16T08:04:11.000Z</time>
      </trkpt>
      <trkpt lat="45.60933" lon="6.10901">
        <ele>967.59997558594</ele>
        <time>2021-01-16T08:04:12.000Z</time>
      </trkpt>
      <trkpt lat="45.60933" lon="6.10901">
        <ele>969.20001220703</ele>
        <time>2021-01-16T08:04:13.000Z</time>
      </trkpt>
      <trkpt lat="45.60933" lon="6.10901">
        <ele>968</ele>
        <time>2021-01-16T08:04:15.000Z</time>
      </trkpt>
      <trkpt lat="45.60932" lon="6.10901">
        <ele>966.79998779297</ele>
        <time>2021-01-16T08:04:17.000Z</time>
      </trkpt>
      <trkpt lat="45.60932" lon="6.10901">
        <ele>966</ele>
        <time>2021-01-16T08:04:20.000Z</time>
      </trkpt>
      <trkpt lat="45.60932" lon="6.10901">
        <ele>965.79998779297</ele>
        <time>2021-01-16T08:04:22.000Z</time>
      </trkpt>
      <trkpt lat="45.60932" lon="6.10901">
        <ele>965.40002441406</ele>
        <time>2021-01-16T08:04:32.000Z</time>
      </trkpt>
      <trkpt lat="45.60932" lon="6.10901">
        <ele>965.59997558594</ele>
        <time>2021-01-16T08:04:44.000Z</time>
      </trkpt>
      <trkpt lat="45.60932" lon="6.10901">
        <ele>965.59997558594</ele>
        <time>2021-01-16T08:04:55.000Z</time>
      </trkpt>
      <trkpt lat="45.60932" lon="6.10901">
        <ele>964.20001220703</ele>
        <time>2021-01-16T08:05:04.000Z</time>
      </trkpt>
      <trkpt lat="45.60932" lon="6.10901">
        <ele>963.59997558594</ele>
        <time>2021-01-16T08:05:05.000Z</time>
      </trkpt>
      <trkpt lat="45.60932" lon="6.10901">
        <ele>966.79998779297</ele>
        <time>2021-01-16T08:05:09.000Z</time>
      </trkpt>
      <trkpt lat="45.60932" lon="6.10901">
        <ele>967.79998779297</ele>
        <time>2021-01-16T08:05:10.000Z</time>
      </trkpt>
      <trkpt lat="45.60932" lon="6.10901">
        <ele>968</ele>
        <time>2021-01-16T08:05:12.000Z</time>
      </trkpt>
      <trkpt lat="45.60932" lon="6.10901">
        <ele>966.40002441406</ele>
        <time>2021-01-16T08:05:14.000Z</time>
      </trkpt>
      <trkpt lat="45.60932" lon="6.10901">
        <ele>965.79998779297</ele>
        <time>2021-01-16T08:05:23.000Z</time>
      </trkpt>
      <trkpt lat="45.60932" lon="6.10901">
        <ele>965.59997558594</ele>
        <time>2021-01-16T08:05:37.000Z</time>
      </trkpt>
      <trkpt lat="45.60932" lon="6.10901">
        <ele>965.40002441406</ele>
        <time>2021-01-16T08:05:46.000Z</time>
      </trkpt>
      <trkpt lat="45.60932" lon="6.10901">
        <ele>966</ele>
        <time>2021-01-16T08:05:54.000Z</time>
      </trkpt>
      <trkpt lat="45.60932" lon="6.10901">
        <ele>964.59997558594</ele>
        <time>2021-01-16T08:06:05.000Z</time>
      </trkpt>
      <trkpt lat="45.60932" lon="6.10901">
        <ele>964.40002441406</ele>
        <time>2021-01-16T08:06:13.000Z</time>
      </trkpt>
      <trkpt lat="45.60932" lon="6.10901">
        <ele>964.20001220703</ele>
        <time>2021-01-16T08:06:19.000Z</time>
      </trkpt>
      <trkpt lat="45.60932" lon="6.10901">
        <ele>965.59997558594</ele>
        <time>2021-01-16T08:06:23.000Z</time>
      </trkpt>
      <trkpt lat="45.60932" lon="6.10901">
        <ele>965</ele>
        <time>2021-01-16T08:06:30.000Z</time>
      </trkpt>
      <trkpt lat="45.60931" lon="6.109">
        <ele>965.79998779297</ele>
        <time>2021-01-16T08:06:42.000Z</time>
      </trkpt>
      <trkpt lat="45.60928" lon="6.10903">
        <ele>965.59997558594</ele>
        <time>2021-01-16T08:06:47.000Z</time>
      </trkpt>
      <trkpt lat="45.60926" lon="6.10907">
        <ele>965.79998779297</ele>
        <time>2021-01-16T08:06:55.000Z</time>
      </trkpt>
      <trkpt lat="45.60925" lon="6.10908">
        <ele>967.20001220703</ele>
        <time>2021-01-16T08:07:01.000Z</time>
      </trkpt>
      <trkpt lat="45.60925" lon="6.10908">
        <ele>967.20001220703</ele>
        <time>2021-01-16T08:07:02.000Z</time>
      </trkpt>
      <trkpt lat="45.60925" lon="6.10908">
        <ele>966.59997558594</ele>
        <time>2021-01-16T08:07:11.000Z</time>
      </trkpt>
      <trkpt lat="45.60925" lon="6.10908">
        <ele>967.40002441406</ele>
        <time>2021-01-16T08:07:24.000Z</time>
      </trkpt>
      <trkpt lat="45.60925" lon="6.10908">
        <ele>964.59997558594</ele>
        <time>2021-01-16T08:07:37.000Z</time>
      </trkpt>
      <trkpt lat="45.60926" lon="6.10908">
        <ele>963</ele>
        <time>2021-01-16T08:07:38.000Z</time>
      </trkpt>
      <trkpt lat="45.60929" lon="6.10906">
        <ele>967</ele>
        <time>2021-01-16T08:07:45.000Z</time>
      </trkpt>
      <trkpt lat="45.60929" lon="6.10905">
        <ele>968.20001220703</ele>
        <time>2021-01-16T08:07:49.000Z</time>
      </trkpt>
      <trkpt lat="45.60929" lon="6.10905">
        <ele>969.40002441406</ele>
        <time>2021-01-16T08:07:50.000Z</time>
      </trkpt>
      <trkpt lat="45.60929" lon="6.10905">
        <ele>970.20001220703</ele>
        <time>2021-01-16T08:07:51.000Z</time>
      </trkpt>
      <trkpt lat="45.60929" lon="6.10905">
        <ele>970.59997558594</ele>
        <time>2021-01-16T08:07:52.000Z</time>
      </trkpt>
      <trkpt lat="45.60929" lon="6.10905">
        <ele>969</ele>
        <time>2021-01-16T08:07:55.000Z</time>
      </trkpt>
      <trkpt lat="45.60929" lon="6.10905">
        <ele>967.79998779297</ele>
        <time>2021-01-16T08:07:57.000Z</time>
      </trkpt>
      <trkpt lat="45.60929" lon="6.10905">
        <ele>967.40002441406</ele>
        <time>2021-01-16T08:08:05.000Z</time>
      </trkpt>
      <trkpt lat="45.60929" lon="6.10905">
        <ele>967.20001220703</ele>
        <time>2021-01-16T08:08:17.000Z</time>
      </trkpt>
      <trkpt lat="45.60918" lon="6.10906">
        <ele>967.79998779297</ele>
        <time>2021-01-16T08:08:24.000Z</time>
      </trkpt>
      <trkpt lat="45.60914" lon="6.10904">
        <ele>968.40002441406</ele>
        <time>2021-01-16T08:08:33.000Z</time>
      </trkpt>
      <trkpt lat="45.60913" lon="6.1091">
        <ele>969</ele>
        <time>2021-01-16T08:08:44.000Z</time>
      </trkpt>
      <trkpt lat="45.60912" lon="6.10922">
        <ele>969.20001220703</ele>
        <time>2021-01-16T08:08:52.000Z</time>
      </trkpt>
      <trkpt lat="45.60912" lon="6.10931">
        <ele>969.59997558594</ele>
        <time>2021-01-16T08:08:59.000Z</time>
      </trkpt>
      <trkpt lat="45.60913" lon="6.1094">
        <ele>970</ele>
        <time>2021-01-16T08:09:06.000Z</time>
      </trkpt>
      <trkpt lat="45.60913" lon="6.10942">
        <ele>970.59997558594</ele>
        <time>2021-01-16T08:09:14.000Z</time>
      </trkpt>
      <trkpt lat="45.60914" lon="6.10952">
        <ele>971.20001220703</ele>
        <time>2021-01-16T08:09:21.000Z</time>
      </trkpt>
      <trkpt lat="45.60914" lon="6.10954">
        <ele>971.20001220703</ele>
        <time>2021-01-16T08:09:22.000Z</time>
      </trkpt>
      <trkpt lat="45.60914" lon="6.10963">
        <ele>972.20001220703</ele>
        <time>2021-01-16T08:09:29.000Z</time>
      </trkpt>
      <trkpt lat="45.60915" lon="6.10966">
        <ele>972.40002441406</ele>
        <time>2021-01-16T08:09:31.000Z</time>
      </trkpt>
      <trkpt lat="45.60916" lon="6.10973">
        <ele>973.20001220703</ele>
        <time>2021-01-16T08:09:37.000Z</time>
      </trkpt>
      <trkpt lat="45.60916" lon="6.10976">
        <ele>973.79998779297</ele>
        <time>2021-01-16T08:09:39.000Z</time>
      </trkpt>
      <trkpt lat="45.60916" lon="6.10985">
        <ele>974.20001220703</ele>
        <time>2021-01-16T08:09:46.000Z</time>
      </trkpt>
      <trkpt lat="45.60917" lon="6.10985">
        <ele>974.20001220703</ele>
        <time>2021-01-16T08:09:47.000Z</time>
      </trkpt>
      <trkpt lat="45.60918" lon="6.10989">
        <ele>975.20001220703</ele>
        <time>2021-01-16T08:09:51.000Z</time>
      </trkpt>
      <trkpt lat="45.60918" lon="6.10989">
        <ele>975.59997558594</ele>
        <time>2021-01-16T08:09:54.000Z</time>
      </trkpt>
      <trkpt lat="45.60918" lon="6.10989">
        <ele>975.79998779297</ele>
        <time>2021-01-16T08:10:04.000Z</time>
      </trkpt>
      <trkpt lat="45.60917" lon="6.10997">
        <ele>976.20001220703</ele>
        <time>2021-01-16T08:10:09.000Z</time>
      </trkpt>
      <trkpt lat="45.60917" lon="6.10999">
        <ele>976.20001220703</ele>
        <time>2021-01-16T08:10:10.000Z</time>
      </trkpt>
      <trkpt lat="45.60917" lon="6.11001">
        <ele>976.20001220703</ele>
        <time>2021-01-16T08:10:11.000Z</time>
      </trkpt>
      <trkpt lat="45.60918" lon="6.11005">
        <ele>976.20001220703</ele>
        <time>2021-01-16T08:10:14.000Z</time>
      </trkpt>
      <trkpt lat="45.60918" lon="6.11007">
        <ele>976.20001220703</ele>
        <time>2021-01-16T08:10:16.000Z</time>
      </trkpt>
      <trkpt lat="45.60919" lon="6.11015">
        <ele>976.79998779297</ele>
        <time>2021-01-16T08:10:22.000Z</time>
      </trkpt>
      <trkpt lat="45.6092" lon="6.11022">
        <ele>976.20001220703</ele>
        <time>2021-01-16T08:10:30.000Z</time>
      </trkpt>
      <trkpt lat="45.6092" lon="6.11022">
        <ele>977.40002441406</ele>
        <time>2021-01-16T08:10:34.000Z</time>
      </trkpt>
      <trkpt lat="45.6092" lon="6.11022">
        <ele>978.79998779297</ele>
        <time>2021-01-16T08:10:37.000Z</time>
      </trkpt>
      <trkpt lat="45.60921" lon="6.11023">
        <ele>978.79998779297</ele>
        <time>2021-01-16T08:10:38.000Z</time>
      </trkpt>
      <trkpt lat="45.60921" lon="6.11024">
        <ele>978.79998779297</ele>
        <time>2021-01-16T08:10:39.000Z</time>
      </trkpt>
      <trkpt lat="45.60922" lon="6.11033">
        <ele>978.79998779297</ele>
        <time>2021-01-16T08:10:45.000Z</time>
      </trkpt>
      <trkpt lat="45.60923" lon="6.1104">
        <ele>979.40002441406</ele>
        <time>2021-01-16T08:10:51.000Z</time>
      </trkpt>
      <trkpt lat="45.60923" lon="6.1104">
        <ele>980</ele>
        <time>2021-01-16T08:10:53.000Z</time>
      </trkpt>
      <trkpt lat="45.60923" lon="6.11043">
        <ele>980.59997558594</ele>
        <time>2021-01-16T08:10:57.000Z</time>
      </trkpt>
      <trkpt lat="45.60923" lon="6.11044">
        <ele>981</ele>
        <time>2021-01-16T08:11:01.000Z</time>
      </trkpt>
      <trkpt lat="45.60924" lon="6.11043">
        <ele>981.40002441406</ele>
        <time>2021-01-16T08:11:06.000Z</time>
      </trkpt>
      <trkpt lat="45.60923" lon="6.11045">
        <ele>981</ele>
        <time>2021-01-16T08:11:16.000Z</time>
      </trkpt>
      <trkpt lat="45.60924" lon="6.11049">
        <ele>981</ele>
        <time>2021-01-16T08:11:23.000Z</time>
      </trkpt>
      <trkpt lat="45.60924" lon="6.11054">
        <ele>981.79998779297</ele>
        <time>2021-01-16T08:11:30.000Z</time>
      </trkpt>
      <trkpt lat="45.60924" lon="6.11058">
        <ele>982</ele>
        <time>2021-01-16T08:11:34.000Z</time>
      </trkpt>
      <trkpt lat="45.60925" lon="6.11062">
        <ele>982.40002441406</ele>
        <time>2021-01-16T08:11:37.000Z</time>
      </trkpt>
      <trkpt lat="45.60924" lon="6.11066">
        <ele>983</ele>
        <time>2021-01-16T08:11:42.000Z</time>
      </trkpt>
      <trkpt lat="45.60924" lon="6.11067">
        <ele>983</ele>
        <time>2021-01-16T08:11:43.000Z</time>
      </trkpt>
      <trkpt lat="45.60925" lon="6.11071">
        <ele>983.20001220703</ele>
        <time>2021-01-16T08:11:52.000Z</time>
      </trkpt>
      <trkpt lat="45.60927" lon="6.11078">
        <ele>984.20001220703</ele>
        <time>2021-01-16T08:11:59.000Z</time>
      </trkpt>
      <trkpt lat="45.60927" lon="6.1108">
        <ele>984.79998779297</ele>
        <time>2021-01-16T08:12:02.000Z</time>
      </trkpt>
      <trkpt lat="45.60927" lon="6.1108">
        <ele>985.20001220703</ele>
        <time>2021-01-16T08:12:05.000Z</time>
      </trkpt>
      <trkpt lat="45.60927" lon="6.1108">
        <ele>985.40002441406</ele>
        <time>2021-01-16T08:12:12.000Z</time>
      </trkpt>
      <trkpt lat="45.60928" lon="6.11082">
        <ele>985.59997558594</ele>
        <time>2021-01-16T08:12:25.000Z</time>
      </trkpt>
      <trkpt lat="45.60933" lon="6.1109">
        <ele>985.59997558594</ele>
        <time>2021-01-16T08:12:34.000Z</time>
      </trkpt>
      <trkpt lat="45.6094" lon="6.111">
        <ele>986.40002441406</ele>
        <time>2021-01-16T08:12:43.000Z</time>
      </trkpt>
      <trkpt lat="45.60941" lon="6.11102">
        <ele>986.59997558594</ele>
        <time>2021-01-16T08:12:44.000Z</time>
      </trkpt>
      <trkpt lat="45.60943" lon="6.11111">
        <ele>987.59997558594</ele>
        <time>2021-01-16T08:12:50.000Z</time>
      </trkpt>
      <trkpt lat="45.60943" lon="6.11115">
        <ele>987.79998779297</ele>
        <time>2021-01-16T08:12:52.000Z</time>
      </trkpt>
      <trkpt lat="45.60944" lon="6.11124">
        <ele>988.40002441406</ele>
        <time>2021-01-16T08:13:00.000Z</time>
      </trkpt>
      <trkpt lat="45.60945" lon="6.11126">
        <ele>988.79998779297</ele>
        <time>2021-01-16T08:13:02.000Z</time>
      </trkpt>
      <trkpt lat="45.60948" lon="6.11134">
        <ele>989.59997558594</ele>
        <time>2021-01-16T08:13:09.000Z</time>
      </trkpt>
      <trkpt lat="45.60948" lon="6.11135">
        <ele>990</ele>
        <time>2021-01-16T08:13:10.000Z</time>
      </trkpt>
      <trkpt lat="45.60951" lon="6.11142">
        <ele>991</ele>
        <time>2021-01-16T08:13:16.000Z</time>
      </trkpt>
      <trkpt lat="45.60951" lon="6.11143">
        <ele>991</ele>
        <time>2021-01-16T08:13:17.000Z</time>
      </trkpt>
      <trkpt lat="45.60955" lon="6.11149">
        <ele>992.20001220703</ele>
        <time>2021-01-16T08:13:23.000Z</time>
      </trkpt>
      <trkpt lat="45.60957" lon="6.11151">
        <ele>992.40002441406</ele>
        <time>2021-01-16T08:13:25.000Z</time>
      </trkpt>
      <trkpt lat="45.6096" lon="6.11156">
        <ele>993.40002441406</ele>
        <time>2021-01-16T08:13:30.000Z</time>
      </trkpt>
      <trkpt lat="45.60962" lon="6.11159">
        <ele>994</ele>
        <time>2021-01-16T08:13:33.000Z</time>
      </trkpt>
      <trkpt lat="45.60962" lon="6.11162">
        <ele>994.40002441406</ele>
        <time>2021-01-16T08:13:36.000Z</time>
      </trkpt>
      <trkpt lat="45.60962" lon="6.11163">
        <ele>994.79998779297</ele>
        <time>2021-01-16T08:13:41.000Z</time>
      </trkpt>
      <trkpt lat="45.60966" lon="6.11171">
        <ele>995.40002441406</ele>
        <time>2021-01-16T08:13:48.000Z</time>
      </trkpt>
      <trkpt lat="45.60967" lon="6.11171">
        <ele>995.59997558594</ele>
        <time>2021-01-16T08:13:49.000Z</time>
      </trkpt>
      <trkpt lat="45.60967" lon="6.11177">
        <ele>996.40002441406</ele>
        <time>2021-01-16T08:13:55.000Z</time>
      </trkpt>
      <trkpt lat="45.60968" lon="6.1118">
        <ele>996.59997558594</ele>
        <time>2021-01-16T08:13:57.000Z</time>
      </trkpt>
      <trkpt lat="45.60969" lon="6.11184">
        <ele>996.59997558594</ele>
        <time>2021-01-16T08:14:01.000Z</time>
      </trkpt>
      <trkpt lat="45.60972" lon="6.11191">
        <ele>997.79998779297</ele>
        <time>2021-01-16T08:14:06.000Z</time>
      </trkpt>
      <trkpt lat="45.60972" lon="6.11192">
        <ele>998.20001220703</ele>
        <time>2021-01-16T08:14:08.000Z</time>
      </trkpt>
      <trkpt lat="45.60973" lon="6.11195">
        <ele>998.79998779297</ele>
        <time>2021-01-16T08:14:10.000Z</time>
      </trkpt>
      <trkpt lat="45.60975" lon="6.11201">
        <ele>999.59997558594</ele>
        <time>2021-01-16T08:14:15.000Z</time>
      </trkpt>
      <trkpt lat="45.60975" lon="6.11202">
        <ele>999.79998779297</ele>
        <time>2021-01-16T08:14:17.000Z</time>
      </trkpt>
      <trkpt lat="45.60976" lon="6.11204">
        <ele>1000.799987793</ele>
        <time>2021-01-16T08:14:20.000Z</time>
      </trkpt>
      <trkpt lat="45.60977" lon="6.11206">
        <ele>1001.5999755859</ele>
        <time>2021-01-16T08:14:24.000Z</time>
      </trkpt>
      <trkpt lat="45.60978" lon="6.11209">
        <ele>1002</ele>
        <time>2021-01-16T08:14:28.000Z</time>
      </trkpt>
      <trkpt lat="45.6098" lon="6.11216">
        <ele>1003.200012207</ele>
        <time>2021-01-16T08:14:35.000Z</time>
      </trkpt>
      <trkpt lat="45.6098" lon="6.1122">
        <ele>1004.4000244141</ele>
        <time>2021-01-16T08:14:38.000Z</time>
      </trkpt>
      <trkpt lat="45.60981" lon="6.11225">
        <ele>1005.200012207</ele>
        <time>2021-01-16T08:14:43.000Z</time>
      </trkpt>
      <trkpt lat="45.60981" lon="6.11227">
        <ele>1005.4000244141</ele>
        <time>2021-01-16T08:14:45.000Z</time>
      </trkpt>
      <trkpt lat="45.60983" lon="6.11233">
        <ele>1005.799987793</ele>
        <time>2021-01-16T08:14:50.000Z</time>
      </trkpt>
      <trkpt lat="45.60984" lon="6.11236">
        <ele>1006.4000244141</ele>
        <time>2021-01-16T08:14:54.000Z</time>
      </trkpt>
      <trkpt lat="45.60985" lon="6.11241">
        <ele>1007.4000244141</ele>
        <time>2021-01-16T08:14:59.000Z</time>
      </trkpt>
      <trkpt lat="45.60985" lon="6.11242">
        <ele>1007.5999755859</ele>
        <time>2021-01-16T08:15:00.000Z</time>
      </trkpt>
      <trkpt lat="45.60986" lon="6.11247">
        <ele>1008.4000244141</ele>
        <time>2021-01-16T08:15:06.000Z</time>
      </trkpt>
      <trkpt lat="45.60987" lon="6.11248">
        <ele>1008.5999755859</ele>
        <time>2021-01-16T08:15:07.000Z</time>
      </trkpt>
      <trkpt lat="45.60988" lon="6.11253">
        <ele>1009.799987793</ele>
        <time>2021-01-16T08:15:12.000Z</time>
      </trkpt>
      <trkpt lat="45.60989" lon="6.11254">
        <ele>1010</ele>
        <time>2021-01-16T08:15:14.000Z</time>
      </trkpt>
      <trkpt lat="45.6099" lon="6.11258">
        <ele>1010.799987793</ele>
        <time>2021-01-16T08:15:18.000Z</time>
      </trkpt>
      <trkpt lat="45.60993" lon="6.11264">
        <ele>1011.5999755859</ele>
        <time>2021-01-16T08:15:23.000Z</time>
      </trkpt>
      <trkpt lat="45.60993" lon="6.11266">
        <ele>1011.799987793</ele>
        <time>2021-01-16T08:15:25.000Z</time>
      </trkpt>
      <trkpt lat="45.60994" lon="6.11272">
        <ele>1013</ele>
        <time>2021-01-16T08:15:31.000Z</time>
      </trkpt>
      <trkpt lat="45.60995" lon="6.11281">
        <ele>1014.200012207</ele>
        <time>2021-01-16T08:15:39.000Z</time>
      </trkpt>
      <trkpt lat="45.60995" lon="6.11282">
        <ele>1014.200012207</ele>
        <time>2021-01-16T08:15:40.000Z</time>
      </trkpt>
      <trkpt lat="45.60996" lon="6.11285">
        <ele>1015.200012207</ele>
        <time>2021-01-16T08:15:45.000Z</time>
      </trkpt>
      <trkpt lat="45.60994" lon="6.11287">
        <ele>1016</ele>
        <time>2021-01-16T08:15:49.000Z</time>
      </trkpt>
      <trkpt lat="45.60993" lon="6.11288">
        <ele>1016.200012207</ele>
        <time>2021-01-16T08:15:53.000Z</time>
      </trkpt>
      <trkpt lat="45.60991" lon="6.1129">
        <ele>1017</ele>
        <time>2021-01-16T08:15:57.000Z</time>
      </trkpt>
      <trkpt lat="45.60991" lon="6.1129">
        <ele>1017.200012207</ele>
        <time>2021-01-16T08:15:59.000Z</time>
      </trkpt>
      <trkpt lat="45.60991" lon="6.1129">
        <ele>1017.5999755859</ele>
        <time>2021-01-16T08:16:07.000Z</time>
      </trkpt>
      <trkpt lat="45.60991" lon="6.11295">
        <ele>1018.200012207</ele>
        <time>2021-01-16T08:16:13.000Z</time>
      </trkpt>
      <trkpt lat="45.60991" lon="6.11295">
        <ele>1018.5999755859</ele>
        <time>2021-01-16T08:16:14.000Z</time>
      </trkpt>
      <trkpt lat="45.60993" lon="6.11299">
        <ele>1019.4000244141</ele>
        <time>2021-01-16T08:16:19.000Z</time>
      </trkpt>
      <trkpt lat="45.60993" lon="6.11302">
        <ele>1020.200012207</ele>
        <time>2021-01-16T08:16:22.000Z</time>
      </trkpt>
      <trkpt lat="45.60993" lon="6.11302">
        <ele>1020.5999755859</ele>
        <time>2021-01-16T08:16:24.000Z</time>
      </trkpt>
      <trkpt lat="45.60993" lon="6.11302">
        <ele>1021.5999755859</ele>
        <time>2021-01-16T08:16:31.000Z</time>
      </trkpt>
      <trkpt lat="45.60993" lon="6.11302">
        <ele>1021.5999755859</ele>
        <time>2021-01-16T08:16:32.000Z</time>
      </trkpt>
      <trkpt lat="45.60993" lon="6.11302">
        <ele>1022.799987793</ele>
        <time>2021-01-16T08:16:37.000Z</time>
      </trkpt>
      <trkpt lat="45.60993" lon="6.11302">
        <ele>1023.200012207</ele>
        <time>2021-01-16T08:16:39.000Z</time>
      </trkpt>
      <trkpt lat="45.60993" lon="6.11302">
        <ele>1024</ele>
        <time>2021-01-16T08:16:43.000Z</time>
      </trkpt>
      <trkpt lat="45.60993" lon="6.11302">
        <ele>1024.5999755859</ele>
        <time>2021-01-16T08:16:48.000Z</time>
      </trkpt>
      <trkpt lat="45.60993" lon="6.11302">
        <ele>1025</ele>
        <time>2021-01-16T08:16:52.000Z</time>
      </trkpt>
      <trkpt lat="45.60993" lon="6.11302">
        <ele>1025.5999755859</ele>
        <time>2021-01-16T08:16:55.000Z</time>
      </trkpt>
      <trkpt lat="45.60993" lon="6.11302">
        <ele>1026.1999511719</ele>
        <time>2021-01-16T08:16:58.000Z</time>
      </trkpt>
      <trkpt lat="45.60993" lon="6.11302">
        <ele>1027.5999755859</ele>
        <time>2021-01-16T08:17:02.000Z</time>
      </trkpt>
      <trkpt lat="45.60994" lon="6.11304">
        <ele>1027.8000488281</ele>
        <time>2021-01-16T08:17:03.000Z</time>
      </trkpt>
      <trkpt lat="45.60994" lon="6.11304">
        <ele>1028.5999755859</ele>
        <time>2021-01-16T08:17:08.000Z</time>
      </trkpt>
      <trkpt lat="45.60994" lon="6.11304">
        <ele>1029.1999511719</ele>
        <time>2021-01-16T08:17:12.000Z</time>
      </trkpt>
      <trkpt lat="45.60994" lon="6.11304">
        <ele>1029.5999755859</ele>
        <time>2021-01-16T08:17:14.000Z</time>
      </trkpt>
      <trkpt lat="45.60994" lon="6.11304">
        <ele>1030.4000244141</ele>
        <time>2021-01-16T08:17:19.000Z</time>
      </trkpt>
      <trkpt lat="45.60994" lon="6.11304">
        <ele>1030.8000488281</ele>
        <time>2021-01-16T08:17:21.000Z</time>
      </trkpt>
      <trkpt lat="45.60994" lon="6.11304">
        <ele>1031.5999755859</ele>
        <time>2021-01-16T08:17:27.000Z</time>
      </trkpt>
      <trkpt lat="45.60994" lon="6.11304">
        <ele>1031.8000488281</ele>
        <time>2021-01-16T08:17:28.000Z</time>
      </trkpt>
      <trkpt lat="45.60994" lon="6.11304">
        <ele>1033</ele>
        <time>2021-01-16T08:17:34.000Z</time>
      </trkpt>
      <trkpt lat="45.60994" lon="6.11304">
        <ele>1033</ele>
        <time>2021-01-16T08:17:35.000Z</time>
      </trkpt>
      <trkpt lat="45.60994" lon="6.11304">
        <ele>1034</ele>
        <time>2021-01-16T08:17:40.000Z</time>
      </trkpt>
      <trkpt lat="45.60998" lon="6.11324">
        <ele>1035.1999511719</ele>
        <time>2021-01-16T08:17:47.000Z</time>
      </trkpt>
      <trkpt lat="45.61" lon="6.11344">
        <ele>1036.1999511719</ele>
        <time>2021-01-16T08:17:53.000Z</time>
      </trkpt>
      <trkpt lat="45.61001" lon="6.11352">
        <ele>1037</ele>
        <time>2021-01-16T08:17:56.000Z</time>
      </trkpt>
      <trkpt lat="45.61001" lon="6.11357">
        <ele>1037.4000244141</ele>
        <time>2021-01-16T08:17:58.000Z</time>
      </trkpt>
      <trkpt lat="45.61002" lon="6.11361">
        <ele>1037.5999755859</ele>
        <time>2021-01-16T08:18:00.000Z</time>
      </trkpt>
      <trkpt lat="45.61003" lon="6.1137">
        <ele>1038.4000244141</ele>
        <time>2021-01-16T08:18:05.000Z</time>
      </trkpt>
      <trkpt lat="45.61005" lon="6.11381">
        <ele>1039.5999755859</ele>
        <time>2021-01-16T08:18:13.000Z</time>
      </trkpt>
      <trkpt lat="45.61006" lon="6.11385">
        <ele>1040.5999755859</ele>
        <time>2021-01-16T08:18:16.000Z</time>
      </trkpt>
      <trkpt lat="45.61009" lon="6.11394">
        <ele>1041.1999511719</ele>
        <time>2021-01-16T08:18:22.000Z</time>
      </trkpt>
      <trkpt lat="45.61011" lon="6.11398">
        <ele>1041.8000488281</ele>
        <time>2021-01-16T08:18:25.000Z</time>
      </trkpt>
      <trkpt lat="45.61012" lon="6.11405">
        <ele>1042.5999755859</ele>
        <time>2021-01-16T08:18:30.000Z</time>
      </trkpt>
      <trkpt lat="45.61013" lon="6.11407">
        <ele>1042.8000488281</ele>
        <time>2021-01-16T08:18:31.000Z</time>
      </trkpt>
      <trkpt lat="45.61015" lon="6.11417">
        <ele>1044</ele>
        <time>2021-01-16T08:18:38.000Z</time>
      </trkpt>
      <trkpt lat="45.61015" lon="6.11418">
        <ele>1044.1999511719</ele>
        <time>2021-01-16T08:18:39.000Z</time>
      </trkpt>
      <trkpt lat="45.61014" lon="6.11424">
        <ele>1045</ele>
        <time>2021-01-16T08:18:43.000Z</time>
      </trkpt>
      <trkpt lat="45.61014" lon="6.1143">
        <ele>1045.5999755859</ele>
        <time>2021-01-16T08:18:47.000Z</time>
      </trkpt>
      <trkpt lat="45.61013" lon="6.11436">
        <ele>1046.1999511719</ele>
        <time>2021-01-16T08:18:51.000Z</time>
      </trkpt>
      <trkpt lat="45.61013" lon="6.11441">
        <ele>1046.5999755859</ele>
        <time>2021-01-16T08:18:54.000Z</time>
      </trkpt>
      <trkpt lat="45.61012" lon="6.11444">
        <ele>1047.4000244141</ele>
        <time>2021-01-16T08:18:57.000Z</time>
      </trkpt>
      <trkpt lat="45.61012" lon="6.11451">
        <ele>1048.8000488281</ele>
        <time>2021-01-16T08:19:02.000Z</time>
      </trkpt>
      <trkpt lat="45.61012" lon="6.11454">
        <ele>1049.5999755859</ele>
        <time>2021-01-16T08:19:09.000Z</time>
      </trkpt>
      <trkpt lat="45.61012" lon="6.11454">
        <ele>1049.8000488281</ele>
        <time>2021-01-16T08:19:15.000Z</time>
      </trkpt>
      <trkpt lat="45.61012" lon="6.11454">
        <ele>1050</ele>
        <time>2021-01-16T08:19:16.000Z</time>
      </trkpt>
      <trkpt lat="45.61012" lon="6.11454">
        <ele>1051</ele>
        <time>2021-01-16T08:19:22.000Z</time>
      </trkpt>
      <trkpt lat="45.61012" lon="6.11454">
        <ele>1051.5999755859</ele>
        <time>2021-01-16T08:19:25.000Z</time>
      </trkpt>
      <trkpt lat="45.61012" lon="6.11454">
        <ele>1052</ele>
        <time>2021-01-16T08:19:26.000Z</time>
      </trkpt>
      <trkpt lat="45.61012" lon="6.11454">
        <ele>1053</ele>
        <time>2021-01-16T08:19:31.000Z</time>
      </trkpt>
      <trkpt lat="45.61012" lon="6.11454">
        <ele>1053.1999511719</ele>
        <time>2021-01-16T08:19:32.000Z</time>
      </trkpt>
      <trkpt lat="45.61012" lon="6.11454">
        <ele>1053.8000488281</ele>
        <time>2021-01-16T08:19:41.000Z</time>
      </trkpt>
      <trkpt lat="45.61012" lon="6.11454">
        <ele>1054.4000244141</ele>
        <time>2021-01-16T08:19:42.000Z</time>
      </trkpt>
      <trkpt lat="45.61012" lon="6.11454">
        <ele>1053.4000244141</ele>
        <time>2021-01-16T08:19:51.000Z</time>
      </trkpt>
      <trkpt lat="45.61018" lon="6.11474">
        <ele>1053.1999511719</ele>
        <time>2021-01-16T08:19:56.000Z</time>
      </trkpt>
      <trkpt lat="45.61026" lon="6.11477">
        <ele>1053</ele>
        <time>2021-01-16T08:20:03.000Z</time>
      </trkpt>
      <trkpt lat="45.61031" lon="6.11476">
        <ele>1051.8000488281</ele>
        <time>2021-01-16T08:20:16.000Z</time>
      </trkpt>
      <trkpt lat="45.6103" lon="6.11478">
        <ele>1052.8000488281</ele>
        <time>2021-01-16T08:20:20.000Z</time>
      </trkpt>
      <trkpt lat="45.6103" lon="6.11479">
        <ele>1054.4000244141</ele>
        <time>2021-01-16T08:20:21.000Z</time>
      </trkpt>
      <trkpt lat="45.61031" lon="6.11481">
        <ele>1055.8000488281</ele>
        <time>2021-01-16T08:20:23.000Z</time>
      </trkpt>
      <trkpt lat="45.61031" lon="6.11482">
        <ele>1054.8000488281</ele>
        <time>2021-01-16T08:20:24.000Z</time>
      </trkpt>
      <trkpt lat="45.61032" lon="6.11483">
        <ele>1054.1999511719</ele>
        <time>2021-01-16T08:20:25.000Z</time>
      </trkpt>
      <trkpt lat="45.61036" lon="6.11492">
        <ele>1053.5999755859</ele>
        <time>2021-01-16T08:20:34.000Z</time>
      </trkpt>
      <trkpt lat="45.61043" lon="6.115">
        <ele>1054.1999511719</ele>
        <time>2021-01-16T08:20:44.000Z</time>
      </trkpt>
      <trkpt lat="45.61052" lon="6.11502">
        <ele>1054.8000488281</ele>
        <time>2021-01-16T08:20:54.000Z</time>
      </trkpt>
      <trkpt lat="45.6106" lon="6.11504">
        <ele>1055.1999511719</ele>
        <time>2021-01-16T08:20:59.000Z</time>
      </trkpt>
      <trkpt lat="45.61063" lon="6.11507">
        <ele>1056.4000244141</ele>
        <time>2021-01-16T08:21:03.000Z</time>
      </trkpt>
      <trkpt lat="45.61068" lon="6.11515">
        <ele>1057.1999511719</ele>
        <time>2021-01-16T08:21:12.000Z</time>
      </trkpt>
      <trkpt lat="45.61068" lon="6.11515">
        <ele>1057.4000244141</ele>
        <time>2021-01-16T08:21:13.000Z</time>
      </trkpt>
      <trkpt lat="45.61072" lon="6.11522">
        <ele>1058.5999755859</ele>
        <time>2021-01-16T08:21:21.000Z</time>
      </trkpt>
      <trkpt lat="45.61073" lon="6.11524">
        <ele>1059</ele>
        <time>2021-01-16T08:21:23.000Z</time>
      </trkpt>
      <trkpt lat="45.61077" lon="6.1153">
        <ele>1059.5999755859</ele>
        <time>2021-01-16T08:21:28.000Z</time>
      </trkpt>
      <trkpt lat="45.61083" lon="6.11531">
        <ele>1060.1999511719</ele>
        <time>2021-01-16T08:21:32.000Z</time>
      </trkpt>
      <trkpt lat="45.61085" lon="6.11532">
        <ele>1060.8000488281</ele>
        <time>2021-01-16T08:21:35.000Z</time>
      </trkpt>
      <trkpt lat="45.61091" lon="6.11534">
        <ele>1061.8000488281</ele>
        <time>2021-01-16T08:21:40.000Z</time>
      </trkpt>
      <trkpt lat="45.61093" lon="6.11534">
        <ele>1062</ele>
        <time>2021-01-16T08:21:42.000Z</time>
      </trkpt>
      <trkpt lat="45.61096" lon="6.1154">
        <ele>1063</ele>
        <time>2021-01-16T08:21:48.000Z</time>
      </trkpt>
      <trkpt lat="45.61097" lon="6.11541">
        <ele>1063</ele>
        <time>2021-01-16T08:21:49.000Z</time>
      </trkpt>
      <trkpt lat="45.61097" lon="6.11544">
        <ele>1064</ele>
        <time>2021-01-16T08:21:57.000Z</time>
      </trkpt>
      <trkpt lat="45.61097" lon="6.11544">
        <ele>1064</ele>
        <time>2021-01-16T08:21:58.000Z</time>
      </trkpt>
      <trkpt lat="45.61097" lon="6.11544">
        <ele>1062.8000488281</ele>
        <time>2021-01-16T08:22:08.000Z</time>
      </trkpt>
      <trkpt lat="45.61097" lon="6.11544">
        <ele>1065.8000488281</ele>
        <time>2021-01-16T08:22:13.000Z</time>
      </trkpt>
      <trkpt lat="45.61097" lon="6.11544">
        <ele>1067</ele>
        <time>2021-01-16T08:22:14.000Z</time>
      </trkpt>
      <trkpt lat="45.61097" lon="6.11544">
        <ele>1065.5999755859</ele>
        <time>2021-01-16T08:22:17.000Z</time>
      </trkpt>
      <trkpt lat="45.61097" lon="6.11544">
        <ele>1064.1999511719</ele>
        <time>2021-01-16T08:22:19.000Z</time>
      </trkpt>
      <trkpt lat="45.61097" lon="6.11544">
        <ele>1063.8000488281</ele>
        <time>2021-01-16T08:22:20.000Z</time>
      </trkpt>
      <trkpt lat="45.61097" lon="6.11544">
        <ele>1064.4000244141</ele>
        <time>2021-01-16T08:22:33.000Z</time>
      </trkpt>
      <trkpt lat="45.61097" lon="6.11544">
        <ele>1062.5999755859</ele>
        <time>2021-01-16T08:22:34.000Z</time>
      </trkpt>
      <trkpt lat="45.61097" lon="6.11544">
        <ele>1060.8000488281</ele>
        <time>2021-01-16T08:22:35.000Z</time>
      </trkpt>
      <trkpt lat="45.61097" lon="6.11544">
        <ele>1059.4000244141</ele>
        <time>2021-01-16T08:22:37.000Z</time>
      </trkpt>
      <trkpt lat="45.61097" lon="6.11544">
        <ele>1060.5999755859</ele>
        <time>2021-01-16T08:22:38.000Z</time>
      </trkpt>
      <trkpt lat="45.61097" lon="6.11544">
        <ele>1066.5999755859</ele>
        <time>2021-01-16T08:22:39.000Z</time>
      </trkpt>
      <trkpt lat="45.61097" lon="6.11544">
        <ele>1068</ele>
        <time>2021-01-16T08:22:40.000Z</time>
      </trkpt>
      <trkpt lat="45.611" lon="6.11543">
        <ele>1066.4000244141</ele>
        <time>2021-01-16T08:22:43.000Z</time>
      </trkpt>
      <trkpt lat="45.61104" lon="6.11543">
        <ele>1065.1999511719</ele>
        <time>2021-01-16T08:22:46.000Z</time>
      </trkpt>
      <trkpt lat="45.6111" lon="6.11544">
        <ele>1065.5999755859</ele>
        <time>2021-01-16T08:22:54.000Z</time>
      </trkpt>
      <trkpt lat="45.61111" lon="6.11543">
        <ele>1066.1999511719</ele>
        <time>2021-01-16T08:22:57.000Z</time>
      </trkpt>
      <trkpt lat="45.61111" lon="6.11543">
        <ele>1066.4000244141</ele>
        <time>2021-01-16T08:23:01.000Z</time>
      </trkpt>
      <trkpt lat="45.61111" lon="6.11543">
        <ele>1067.1999511719</ele>
        <time>2021-01-16T08:23:12.000Z</time>
      </trkpt>
      <trkpt lat="45.61111" lon="6.11543">
        <ele>1066.1999511719</ele>
        <time>2021-01-16T08:23:27.000Z</time>
      </trkpt>
      <trkpt lat="45.61111" lon="6.11543">
        <ele>1066.1999511719</ele>
        <time>2021-01-16T08:23:39.000Z</time>
      </trkpt>
      <trkpt lat="45.61111" lon="6.11543">
        <ele>1066.4000244141</ele>
        <time>2021-01-16T08:23:53.000Z</time>
      </trkpt>
      <trkpt lat="45.61111" lon="6.11543">
        <ele>1066.5999755859</ele>
        <time>2021-01-16T08:24:02.000Z</time>
      </trkpt>
      <trkpt lat="45.6111" lon="6.11543">
        <ele>1066.1999511719</ele>
        <time>2021-01-16T08:24:16.000Z</time>
      </trkpt>
      <trkpt lat="45.61112" lon="6.11539">
        <ele>1066.1999511719</ele>
        <time>2021-01-16T08:24:26.000Z</time>
      </trkpt>
      <trkpt lat="45.61121" lon="6.11536">
        <ele>1067</ele>
        <time>2021-01-16T08:24:35.000Z</time>
      </trkpt>
      <trkpt lat="45.61124" lon="6.11536">
        <ele>1067.4000244141</ele>
        <time>2021-01-16T08:24:38.000Z</time>
      </trkpt>
      <trkpt lat="45.61129" lon="6.11537">
        <ele>1068</ele>
        <time>2021-01-16T08:24:44.000Z</time>
      </trkpt>
      <trkpt lat="45.61133" lon="6.11537">
        <ele>1068.4000244141</ele>
        <time>2021-01-16T08:24:47.000Z</time>
      </trkpt>
      <trkpt lat="45.61141" lon="6.11541">
        <ele>1069.4000244141</ele>
        <time>2021-01-16T08:24:53.000Z</time>
      </trkpt>
      <trkpt lat="45.61149" lon="6.1154">
        <ele>1070.4000244141</ele>
        <time>2021-01-16T08:25:00.000Z</time>
      </trkpt>
      <trkpt lat="45.61156" lon="6.11542">
        <ele>1071.1999511719</ele>
        <time>2021-01-16T08:25:03.000Z</time>
      </trkpt>
      <trkpt lat="45.61159" lon="6.11543">
        <ele>1071.5999755859</ele>
        <time>2021-01-16T08:25:05.000Z</time>
      </trkpt>
      <trkpt lat="45.61165" lon="6.11544">
        <ele>1072.5999755859</ele>
        <time>2021-01-16T08:25:10.000Z</time>
      </trkpt>
      <trkpt lat="45.61169" lon="6.11545">
        <ele>1072.8000488281</ele>
        <time>2021-01-16T08:25:13.000Z</time>
      </trkpt>
      <trkpt lat="45.61172" lon="6.11545">
        <ele>1073.8000488281</ele>
        <time>2021-01-16T08:25:16.000Z</time>
      </trkpt>
      <trkpt lat="45.61181" lon="6.11546">
        <ele>1074.1999511719</ele>
        <time>2021-01-16T08:25:22.000Z</time>
      </trkpt>
      <trkpt lat="45.61183" lon="6.11547">
        <ele>1074.8000488281</ele>
        <time>2021-01-16T08:25:25.000Z</time>
      </trkpt>
      <trkpt lat="45.61186" lon="6.11549">
        <ele>1076.1999511719</ele>
        <time>2021-01-16T08:25:29.000Z</time>
      </trkpt>
      <trkpt lat="45.61189" lon="6.11551">
        <ele>1077.1999511719</ele>
        <time>2021-01-16T08:25:34.000Z</time>
      </trkpt>
      <trkpt lat="45.61192" lon="6.11559">
        <ele>1078.1999511719</ele>
        <time>2021-01-16T08:25:40.000Z</time>
      </trkpt>
      <trkpt lat="45.61191" lon="6.11564">
        <ele>1079.4000244141</ele>
        <time>2021-01-16T08:25:43.000Z</time>
      </trkpt>
      <trkpt lat="45.61191" lon="6.11565">
        <ele>1080</ele>
        <time>2021-01-16T08:25:44.000Z</time>
      </trkpt>
      <trkpt lat="45.61189" lon="6.11566">
        <ele>1080.5999755859</ele>
        <time>2021-01-16T08:25:46.000Z</time>
      </trkpt>
      <trkpt lat="45.61183" lon="6.11573">
        <ele>1081.8000488281</ele>
        <time>2021-01-16T08:25:53.000Z</time>
      </trkpt>
      <trkpt lat="45.6118" lon="6.11577">
        <ele>1082.8000488281</ele>
        <time>2021-01-16T08:25:58.000Z</time>
      </trkpt>
      <trkpt lat="45.61178" lon="6.1158">
        <ele>1084</ele>
        <time>2021-01-16T08:26:02.000Z</time>
      </trkpt>
      <trkpt lat="45.61176" lon="6.11581">
        <ele>1084.4000244141</ele>
        <time>2021-01-16T08:26:04.000Z</time>
      </trkpt>
      <trkpt lat="45.61173" lon="6.11584">
        <ele>1085.1999511719</ele>
        <time>2021-01-16T08:26:08.000Z</time>
      </trkpt>
      <trkpt lat="45.61169" lon="6.11588">
        <ele>1086.1999511719</ele>
        <time>2021-01-16T08:26:13.000Z</time>
      </trkpt>
      <trkpt lat="45.61168" lon="6.11589">
        <ele>1087</ele>
        <time>2021-01-16T08:26:15.000Z</time>
      </trkpt>
      <trkpt lat="45.61167" lon="6.11589">
        <ele>1087.1999511719</ele>
        <time>2021-01-16T08:26:16.000Z</time>
      </trkpt>
      <trkpt lat="45.61165" lon="6.11596">
        <ele>1088.5999755859</ele>
        <time>2021-01-16T08:26:23.000Z</time>
      </trkpt>
      <trkpt lat="45.61165" lon="6.11597">
        <ele>1088.8000488281</ele>
        <time>2021-01-16T08:26:25.000Z</time>
      </trkpt>
      <trkpt lat="45.61169" lon="6.116">
        <ele>1089.5999755859</ele>
        <time>2021-01-16T08:26:31.000Z</time>
      </trkpt>
      <trkpt lat="45.61173" lon="6.11603">
        <ele>1090.4000244141</ele>
        <time>2021-01-16T08:26:35.000Z</time>
      </trkpt>
      <trkpt lat="45.61178" lon="6.11607">
        <ele>1091</ele>
        <time>2021-01-16T08:26:40.000Z</time>
      </trkpt>
      <trkpt lat="45.6118" lon="6.1161">
        <ele>1092.1999511719</ele>
        <time>2021-01-16T08:26:43.000Z</time>
      </trkpt>
      <trkpt lat="45.61182" lon="6.11611">
        <ele>1092.4000244141</ele>
        <time>2021-01-16T08:26:45.000Z</time>
      </trkpt>
      <trkpt lat="45.61187" lon="6.11614">
        <ele>1093.1999511719</ele>
        <time>2021-01-16T08:26:51.000Z</time>
      </trkpt>
      <trkpt lat="45.61187" lon="6.11615">
        <ele>1093.8000488281</ele>
        <time>2021-01-16T08:26:55.000Z</time>
      </trkpt>
      <trkpt lat="45.61187" lon="6.11615">
        <ele>1095</ele>
        <time>2021-01-16T08:27:03.000Z</time>
      </trkpt>
      <trkpt lat="45.61187" lon="6.11615">
        <ele>1096.4000244141</ele>
        <time>2021-01-16T08:27:04.000Z</time>
      </trkpt>
      <trkpt lat="45.61187" lon="6.11615">
        <ele>1096.1999511719</ele>
        <time>2021-01-16T08:27:05.000Z</time>
      </trkpt>
      <trkpt lat="45.61181" lon="6.11623">
        <ele>1096.1999511719</ele>
        <time>2021-01-16T08:27:13.000Z</time>
      </trkpt>
      <trkpt lat="45.61172" lon="6.11629">
        <ele>1097.4000244141</ele>
        <time>2021-01-16T08:27:22.000Z</time>
      </trkpt>
      <trkpt lat="45.61172" lon="6.11629">
        <ele>1097.8000488281</ele>
        <time>2021-01-16T08:27:23.000Z</time>
      </trkpt>
      <trkpt lat="45.61172" lon="6.11632">
        <ele>1098.5999755859</ele>
        <time>2021-01-16T08:27:26.000Z</time>
      </trkpt>
      <trkpt lat="45.61172" lon="6.11639">
        <ele>1099.4000244141</ele>
        <time>2021-01-16T08:27:33.000Z</time>
      </trkpt>
      <trkpt lat="45.61173" lon="6.1164">
        <ele>1099.8000488281</ele>
        <time>2021-01-16T08:27:35.000Z</time>
      </trkpt>
      <trkpt lat="45.61173" lon="6.11644">
        <ele>1101</ele>
        <time>2021-01-16T08:27:40.000Z</time>
      </trkpt>
      <trkpt lat="45.61173" lon="6.11646">
        <ele>1102</ele>
        <time>2021-01-16T08:27:44.000Z</time>
      </trkpt>
      <trkpt lat="45.61173" lon="6.11653">
        <ele>1103.1999511719</ele>
        <time>2021-01-16T08:27:52.000Z</time>
      </trkpt>
      <trkpt lat="45.61172" lon="6.11657">
        <ele>1104.1999511719</ele>
        <time>2021-01-16T08:27:56.000Z</time>
      </trkpt>
      <trkpt lat="45.61172" lon="6.11662">
        <ele>1105.1999511719</ele>
        <time>2021-01-16T08:28:03.000Z</time>
      </trkpt>
      <trkpt lat="45.61175" lon="6.11663">
        <ele>1106.4000244141</ele>
        <time>2021-01-16T08:28:08.000Z</time>
      </trkpt>
      <trkpt lat="45.61179" lon="6.11664">
        <ele>1107.4000244141</ele>
        <time>2021-01-16T08:28:12.000Z</time>
      </trkpt>
      <trkpt lat="45.61181" lon="6.11666">
        <ele>1108.5999755859</ele>
        <time>2021-01-16T08:28:15.000Z</time>
      </trkpt>
      <trkpt lat="45.61181" lon="6.11668">
        <ele>1109.4000244141</ele>
        <time>2021-01-16T08:28:18.000Z</time>
      </trkpt>
      <trkpt lat="45.61181" lon="6.11669">
        <ele>1109.8000488281</ele>
        <time>2021-01-16T08:28:20.000Z</time>
      </trkpt>
      <trkpt lat="45.61181" lon="6.11671">
        <ele>1110.5999755859</ele>
        <time>2021-01-16T08:28:27.000Z</time>
      </trkpt>
      <trkpt lat="45.61181" lon="6.11671">
        <ele>1111</ele>
        <time>2021-01-16T08:28:32.000Z</time>
      </trkpt>
      <trkpt lat="45.61181" lon="6.11671">
        <ele>1112</ele>
        <time>2021-01-16T08:28:36.000Z</time>
      </trkpt>
      <trkpt lat="45.61181" lon="6.11671">
        <ele>1112.1999511719</ele>
        <time>2021-01-16T08:28:38.000Z</time>
      </trkpt>
      <trkpt lat="45.61181" lon="6.11671">
        <ele>1113.4000244141</ele>
        <time>2021-01-16T08:28:44.000Z</time>
      </trkpt>
      <trkpt lat="45.61181" lon="6.11671">
        <ele>1114.1999511719</ele>
        <time>2021-01-16T08:28:46.000Z</time>
      </trkpt>
      <trkpt lat="45.61181" lon="6.11671">
        <ele>1114.4000244141</ele>
        <time>2021-01-16T08:28:47.000Z</time>
      </trkpt>
      <trkpt lat="45.61183" lon="6.11687">
        <ele>1115.5999755859</ele>
        <time>2021-01-16T08:28:58.000Z</time>
      </trkpt>
      <trkpt lat="45.61178" lon="6.11701">
        <ele>1117</ele>
        <time>2021-01-16T08:29:05.000Z</time>
      </trkpt>
      <trkpt lat="45.61178" lon="6.11703">
        <ele>1117.8000488281</ele>
        <time>2021-01-16T08:29:07.000Z</time>
      </trkpt>
      <trkpt lat="45.61178" lon="6.11704">
        <ele>1118</ele>
        <time>2021-01-16T08:29:08.000Z</time>
      </trkpt>
      <trkpt lat="45.61179" lon="6.11711">
        <ele>1119.1999511719</ele>
        <time>2021-01-16T08:29:13.000Z</time>
      </trkpt>
      <trkpt lat="45.61179" lon="6.11711">
        <ele>1119.1999511719</ele>
        <time>2021-01-16T08:29:14.000Z</time>
      </trkpt>
      <trkpt lat="45.61181" lon="6.11722">
        <ele>1120.1999511719</ele>
        <time>2021-01-16T08:29:22.000Z</time>
      </trkpt>
      <trkpt lat="45.6118" lon="6.11725">
        <ele>1120.5999755859</ele>
        <time>2021-01-16T08:29:23.000Z</time>
      </trkpt>
      <trkpt lat="45.61179" lon="6.11731">
        <ele>1121.8000488281</ele>
        <time>2021-01-16T08:29:28.000Z</time>
      </trkpt>
      <trkpt lat="45.61178" lon="6.11734">
        <ele>1122.1999511719</ele>
        <time>2021-01-16T08:29:30.000Z</time>
      </trkpt>
      <trkpt lat="45.61178" lon="6.11737">
        <ele>1123</ele>
        <time>2021-01-16T08:29:33.000Z</time>
      </trkpt>
      <trkpt lat="45.61176" lon="6.11742">
        <ele>1124</ele>
        <time>2021-01-16T08:29:39.000Z</time>
      </trkpt>
      <trkpt lat="45.61173" lon="6.11746">
        <ele>1125.1999511719</ele>
        <time>2021-01-16T08:29:44.000Z</time>
      </trkpt>
      <trkpt lat="45.6117" lon="6.11751">
        <ele>1126.1999511719</ele>
        <time>2021-01-16T08:29:49.000Z</time>
      </trkpt>
      <trkpt lat="45.61169" lon="6.11758">
        <ele>1127.1999511719</ele>
        <time>2021-01-16T08:29:56.000Z</time>
      </trkpt>
      <trkpt lat="45.61169" lon="6.1176">
        <ele>1127.4000244141</ele>
        <time>2021-01-16T08:29:57.000Z</time>
      </trkpt>
      <trkpt lat="45.61168" lon="6.11762">
        <ele>1128.5999755859</ele>
        <time>2021-01-16T08:30:00.000Z</time>
      </trkpt>
      <trkpt lat="45.61166" lon="6.11764">
        <ele>1129.4000244141</ele>
        <time>2021-01-16T08:30:05.000Z</time>
      </trkpt>
      <trkpt lat="45.61168" lon="6.11762">
        <ele>1129.5999755859</ele>
        <time>2021-01-16T08:30:08.000Z</time>
      </trkpt>
      <trkpt lat="45.61172" lon="6.1176">
        <ele>1130</ele>
        <time>2021-01-16T08:30:12.000Z</time>
      </trkpt>
      <trkpt lat="45.61176" lon="6.11758">
        <ele>1130.8000488281</ele>
        <time>2021-01-16T08:30:16.000Z</time>
      </trkpt>
      <trkpt lat="45.61182" lon="6.11756">
        <ele>1131.8000488281</ele>
        <time>2021-01-16T08:30:21.000Z</time>
      </trkpt>
      <trkpt lat="45.61192" lon="6.11755">
        <ele>1133</ele>
        <time>2021-01-16T08:30:30.000Z</time>
      </trkpt>
      <trkpt lat="45.61192" lon="6.11754">
        <ele>1133.1999511719</ele>
        <time>2021-01-16T08:30:31.000Z</time>
      </trkpt>
      <trkpt lat="45.61193" lon="6.11755">
        <ele>1134.1999511719</ele>
        <time>2021-01-16T08:30:35.000Z</time>
      </trkpt>
      <trkpt lat="45.61191" lon="6.11761">
        <ele>1134.5999755859</ele>
        <time>2021-01-16T08:30:40.000Z</time>
      </trkpt>
      <trkpt lat="45.61189" lon="6.11765">
        <ele>1135.1999511719</ele>
        <time>2021-01-16T08:30:43.000Z</time>
      </trkpt>
      <trkpt lat="45.61188" lon="6.11769">
        <ele>1136.4000244141</ele>
        <time>2021-01-16T08:30:46.000Z</time>
      </trkpt>
      <trkpt lat="45.61186" lon="6.11776">
        <ele>1137.4000244141</ele>
        <time>2021-01-16T08:30:51.000Z</time>
      </trkpt>
      <trkpt lat="45.61183" lon="6.11782">
        <ele>1138.8000488281</ele>
        <time>2021-01-16T08:30:56.000Z</time>
      </trkpt>
      <trkpt lat="45.61182" lon="6.11787">
        <ele>1140</ele>
        <time>2021-01-16T08:31:00.000Z</time>
      </trkpt>
      <trkpt lat="45.6118" lon="6.11791">
        <ele>1140.8000488281</ele>
        <time>2021-01-16T08:31:04.000Z</time>
      </trkpt>
      <trkpt lat="45.6118" lon="6.11792">
        <ele>1141</ele>
        <time>2021-01-16T08:31:05.000Z</time>
      </trkpt>
      <trkpt lat="45.61181" lon="6.11794">
        <ele>1142</ele>
        <time>2021-01-16T08:31:10.000Z</time>
      </trkpt>
      <trkpt lat="45.61181" lon="6.11796">
        <ele>1142.1999511719</ele>
        <time>2021-01-16T08:31:12.000Z</time>
      </trkpt>
      <trkpt lat="45.61179" lon="6.11801">
        <ele>1143</ele>
        <time>2021-01-16T08:31:19.000Z</time>
      </trkpt>
      <trkpt lat="45.61179" lon="6.11801">
        <ele>1143.5999755859</ele>
        <time>2021-01-16T08:31:33.000Z</time>
      </trkpt>
      <trkpt lat="45.61179" lon="6.11802">
        <ele>1143.5999755859</ele>
        <time>2021-01-16T08:31:43.000Z</time>
      </trkpt>
      <trkpt lat="45.61178" lon="6.11807">
        <ele>1144.1999511719</ele>
        <time>2021-01-16T08:31:47.000Z</time>
      </trkpt>
      <trkpt lat="45.61176" lon="6.11812">
        <ele>1145.1999511719</ele>
        <time>2021-01-16T08:31:51.000Z</time>
      </trkpt>
      <trkpt lat="45.61176" lon="6.11813">
        <ele>1145.5999755859</ele>
        <time>2021-01-16T08:31:52.000Z</time>
      </trkpt>
      <trkpt lat="45.61172" lon="6.11819">
        <ele>1145.8000488281</ele>
        <time>2021-01-16T08:32:00.000Z</time>
      </trkpt>
      <trkpt lat="45.61163" lon="6.11833">
        <ele>1146</ele>
        <time>2021-01-16T08:32:11.000Z</time>
      </trkpt>
      <trkpt lat="45.61155" lon="6.1184">
        <ele>1146</ele>
        <time>2021-01-16T08:32:21.000Z</time>
      </trkpt>
      <trkpt lat="45.61153" lon="6.11842">
        <ele>1146.1999511719</ele>
        <time>2021-01-16T08:32:30.000Z</time>
      </trkpt>
      <trkpt lat="45.61153" lon="6.11842">
        <ele>1146.4000244141</ele>
        <time>2021-01-16T08:32:49.000Z</time>
      </trkpt>
      <trkpt lat="45.61152" lon="6.11842">
        <ele>1146.8000488281</ele>
        <time>2021-01-16T08:32:59.000Z</time>
      </trkpt>
      <trkpt lat="45.61151" lon="6.11843">
        <ele>1147.1999511719</ele>
        <time>2021-01-16T08:33:00.000Z</time>
      </trkpt>
      <trkpt lat="45.61143" lon="6.1184">
        <ele>1145.8000488281</ele>
        <time>2021-01-16T08:33:07.000Z</time>
      </trkpt>
      <trkpt lat="45.61141" lon="6.11839">
        <ele>1145.5999755859</ele>
        <time>2021-01-16T08:33:08.000Z</time>
      </trkpt>
      <trkpt lat="45.61139" lon="6.11838">
        <ele>1145</ele>
        <time>2021-01-16T08:33:09.000Z</time>
      </trkpt>
      <trkpt lat="45.61136" lon="6.11837">
        <ele>1144.4000244141</ele>
        <time>2021-01-16T08:33:10.000Z</time>
      </trkpt>
      <trkpt lat="45.6112" lon="6.11829">
        <ele>1143.1999511719</ele>
        <time>2021-01-16T08:33:14.000Z</time>
      </trkpt>
      <trkpt lat="45.61113" lon="6.11827">
        <ele>1141</ele>
        <time>2021-01-16T08:33:16.000Z</time>
      </trkpt>
      <trkpt lat="45.61111" lon="6.11824">
        <ele>1139.1999511719</ele>
        <time>2021-01-16T08:33:18.000Z</time>
      </trkpt>
      <trkpt lat="45.6111" lon="6.11824">
        <ele>1138.4000244141</ele>
        <time>2021-01-16T08:33:19.000Z</time>
      </trkpt>
      <trkpt lat="45.6111" lon="6.11823">
        <ele>1137.8000488281</ele>
        <time>2021-01-16T08:33:20.000Z</time>
      </trkpt>
      <trkpt lat="45.61108" lon="6.11822">
        <ele>1136.8000488281</ele>
        <time>2021-01-16T08:33:24.000Z</time>
      </trkpt>
      <trkpt lat="45.61107" lon="6.11822">
        <ele>1136.5999755859</ele>
        <time>2021-01-16T08:33:25.000Z</time>
      </trkpt>
      <trkpt lat="45.611" lon="6.11827">
        <ele>1138</ele>
        <time>2021-01-16T08:33:34.000Z</time>
      </trkpt>
      <trkpt lat="45.61098" lon="6.11829">
        <ele>1139.1999511719</ele>
        <time>2021-01-16T08:33:37.000Z</time>
      </trkpt>
      <trkpt lat="45.61095" lon="6.11831">
        <ele>1140.1999511719</ele>
        <time>2021-01-16T08:33:40.000Z</time>
      </trkpt>
      <trkpt lat="45.61092" lon="6.11832">
        <ele>1140.8000488281</ele>
        <time>2021-01-16T08:33:44.000Z</time>
      </trkpt>
      <trkpt lat="45.6109" lon="6.11838">
        <ele>1141.4000244141</ele>
        <time>2021-01-16T08:33:51.000Z</time>
      </trkpt>
      <trkpt lat="45.61091" lon="6.11839">
        <ele>1141.8000488281</ele>
        <time>2021-01-16T08:33:52.000Z</time>
      </trkpt>
      <trkpt lat="45.61092" lon="6.11843">
        <ele>1142.8000488281</ele>
        <time>2021-01-16T08:33:55.000Z</time>
      </trkpt>
      <trkpt lat="45.61091" lon="6.11848">
        <ele>1143.8000488281</ele>
        <time>2021-01-16T08:33:59.000Z</time>
      </trkpt>
      <trkpt lat="45.61089" lon="6.11849">
        <ele>1144.4000244141</ele>
        <time>2021-01-16T08:34:02.000Z</time>
      </trkpt>
      <trkpt lat="45.61088" lon="6.11849">
        <ele>1144.8000488281</ele>
        <time>2021-01-16T08:34:03.000Z</time>
      </trkpt>
      <trkpt lat="45.61084" lon="6.11849">
        <ele>1146</ele>
        <time>2021-01-16T08:34:10.000Z</time>
      </trkpt>
      <trkpt lat="45.61084" lon="6.11849">
        <ele>1146.5999755859</ele>
        <time>2021-01-16T08:34:12.000Z</time>
      </trkpt>
      <trkpt lat="45.61084" lon="6.11849">
        <ele>1146.4000244141</ele>
        <time>2021-01-16T08:34:26.000Z</time>
      </trkpt>
      <trkpt lat="45.61084" lon="6.11849">
        <ele>1147</ele>
        <time>2021-01-16T08:34:32.000Z</time>
      </trkpt>
      <trkpt lat="45.61084" lon="6.11849">
        <ele>1147</ele>
        <time>2021-01-16T08:34:41.000Z</time>
      </trkpt>
      <trkpt lat="45.61084" lon="6.11848">
        <ele>1145.4000244141</ele>
        <time>2021-01-16T08:34:50.000Z</time>
      </trkpt>
      <trkpt lat="45.61084" lon="6.11847">
        <ele>1146.1999511719</ele>
        <time>2021-01-16T08:34:54.000Z</time>
      </trkpt>
      <trkpt lat="45.61084" lon="6.11847">
        <ele>1147.5999755859</ele>
        <time>2021-01-16T08:34:55.000Z</time>
      </trkpt>
      <trkpt lat="45.61078" lon="6.1185">
        <ele>1147</ele>
        <time>2021-01-16T08:35:03.000Z</time>
      </trkpt>
      <trkpt lat="45.61076" lon="6.11861">
        <ele>1147.4000244141</ele>
        <time>2021-01-16T08:35:14.000Z</time>
      </trkpt>
      <trkpt lat="45.61076" lon="6.11863">
        <ele>1147.8000488281</ele>
        <time>2021-01-16T08:35:24.000Z</time>
      </trkpt>
      <trkpt lat="45.61076" lon="6.11863">
        <ele>1148</ele>
        <time>2021-01-16T08:35:38.000Z</time>
      </trkpt>
      <trkpt lat="45.61076" lon="6.11878">
        <ele>1148.5999755859</ele>
        <time>2021-01-16T08:35:48.000Z</time>
      </trkpt>
      <trkpt lat="45.61076" lon="6.11878">
        <ele>1148.5999755859</ele>
        <time>2021-01-16T08:35:49.000Z</time>
      </trkpt>
      <trkpt lat="45.61077" lon="6.11879">
        <ele>1149.5999755859</ele>
        <time>2021-01-16T08:35:52.000Z</time>
      </trkpt>
      <trkpt lat="45.61076" lon="6.11886">
        <ele>1150.8000488281</ele>
        <time>2021-01-16T08:35:59.000Z</time>
      </trkpt>
      <trkpt lat="45.61076" lon="6.11889">
        <ele>1151.8000488281</ele>
        <time>2021-01-16T08:36:01.000Z</time>
      </trkpt>
      <trkpt lat="45.61077" lon="6.11891">
        <ele>1152.1999511719</ele>
        <time>2021-01-16T08:36:02.000Z</time>
      </trkpt>
      <trkpt lat="45.61078" lon="6.11895">
        <ele>1153.1999511719</ele>
        <time>2021-01-16T08:36:07.000Z</time>
      </trkpt>
      <trkpt lat="45.61079" lon="6.11897">
        <ele>1154.5999755859</ele>
        <time>2021-01-16T08:36:10.000Z</time>
      </trkpt>
      <trkpt lat="45.61079" lon="6.119">
        <ele>1155.1999511719</ele>
        <time>2021-01-16T08:36:13.000Z</time>
      </trkpt>
      <trkpt lat="45.6108" lon="6.11901">
        <ele>1156</ele>
        <time>2021-01-16T08:36:16.000Z</time>
      </trkpt>
      <trkpt lat="45.61084" lon="6.11904">
        <ele>1157.1999511719</ele>
        <time>2021-01-16T08:36:23.000Z</time>
      </trkpt>
      <trkpt lat="45.61086" lon="6.11907">
        <ele>1158.1999511719</ele>
        <time>2021-01-16T08:36:26.000Z</time>
      </trkpt>
      <trkpt lat="45.61086" lon="6.11907">
        <ele>1158.4000244141</ele>
        <time>2021-01-16T08:36:27.000Z</time>
      </trkpt>
      <trkpt lat="45.61089" lon="6.1191">
        <ele>1159.4000244141</ele>
        <time>2021-01-16T08:36:32.000Z</time>
      </trkpt>
      <trkpt lat="45.61092" lon="6.11912">
        <ele>1160</ele>
        <time>2021-01-16T08:36:36.000Z</time>
      </trkpt>
      <trkpt lat="45.61094" lon="6.11913">
        <ele>1160.4000244141</ele>
        <time>2021-01-16T08:36:38.000Z</time>
      </trkpt>
      <trkpt lat="45.61098" lon="6.11917">
        <ele>1161.5999755859</ele>
        <time>2021-01-16T08:36:46.000Z</time>
      </trkpt>
      <trkpt lat="45.61099" lon="6.11921">
        <ele>1161.8000488281</ele>
        <time>2021-01-16T08:36:49.000Z</time>
      </trkpt>
      <trkpt lat="45.61103" lon="6.11931">
        <ele>1162.4000244141</ele>
        <time>2021-01-16T08:36:59.000Z</time>
      </trkpt>
      <trkpt lat="45.6111" lon="6.11936">
        <ele>1162.8000488281</ele>
        <time>2021-01-16T08:37:06.000Z</time>
      </trkpt>
      <trkpt lat="45.6111" lon="6.11936">
        <ele>1163.1999511719</ele>
        <time>2021-01-16T08:37:09.000Z</time>
      </trkpt>
      <trkpt lat="45.61121" lon="6.1194">
        <ele>1163.1999511719</ele>
        <time>2021-01-16T08:37:18.000Z</time>
      </trkpt>
      <trkpt lat="45.61126" lon="6.11941">
        <ele>1163.8000488281</ele>
        <time>2021-01-16T08:37:22.000Z</time>
      </trkpt>
      <trkpt lat="45.61136" lon="6.11939">
        <ele>1165</ele>
        <time>2021-01-16T08:37:30.000Z</time>
      </trkpt>
      <trkpt lat="45.61137" lon="6.11939">
        <ele>1165</ele>
        <time>2021-01-16T08:37:31.000Z</time>
      </trkpt>
      <trkpt lat="45.61143" lon="6.11937">
        <ele>1165</ele>
        <time>2021-01-16T08:37:40.000Z</time>
      </trkpt>
      <trkpt lat="45.61154" lon="6.11934">
        <ele>1165.4000244141</ele>
        <time>2021-01-16T08:37:51.000Z</time>
      </trkpt>
      <trkpt lat="45.61155" lon="6.11934">
        <ele>1166.1999511719</ele>
        <time>2021-01-16T08:37:59.000Z</time>
      </trkpt>
      <trkpt lat="45.61156" lon="6.11934">
        <ele>1167</ele>
        <time>2021-01-16T08:38:03.000Z</time>
      </trkpt>
      <trkpt lat="45.61159" lon="6.11929">
        <ele>1166.8000488281</ele>
        <time>2021-01-16T08:38:13.000Z</time>
      </trkpt>
      <trkpt lat="45.61165" lon="6.11922">
        <ele>1167.1999511719</ele>
        <time>2021-01-16T08:38:23.000Z</time>
      </trkpt>
      <trkpt lat="45.61165" lon="6.11922">
        <ele>1167.1999511719</ele>
        <time>2021-01-16T08:38:25.000Z</time>
      </trkpt>
      <trkpt lat="45.61168" lon="6.11916">
        <ele>1166.8000488281</ele>
        <time>2021-01-16T08:38:31.000Z</time>
      </trkpt>
      <trkpt lat="45.61173" lon="6.11909">
        <ele>1166.1999511719</ele>
        <time>2021-01-16T08:38:39.000Z</time>
      </trkpt>
      <trkpt lat="45.61174" lon="6.11908">
        <ele>1166.1999511719</ele>
        <time>2021-01-16T08:38:47.000Z</time>
      </trkpt>
      <trkpt lat="45.61176" lon="6.11905">
        <ele>1166.8000488281</ele>
        <time>2021-01-16T08:38:54.000Z</time>
      </trkpt>
      <trkpt lat="45.61181" lon="6.11904">
        <ele>1166.8000488281</ele>
        <time>2021-01-16T08:39:03.000Z</time>
      </trkpt>
      <trkpt lat="45.61181" lon="6.11904">
        <ele>1167.1999511719</ele>
        <time>2021-01-16T08:39:06.000Z</time>
      </trkpt>
      <trkpt lat="45.61182" lon="6.11906">
        <ele>1167.4000244141</ele>
        <time>2021-01-16T08:39:15.000Z</time>
      </trkpt>
      <trkpt lat="45.61182" lon="6.11908">
        <ele>1168</ele>
        <time>2021-01-16T08:39:24.000Z</time>
      </trkpt>
      <trkpt lat="45.61184" lon="6.11909">
        <ele>1168.1999511719</ele>
        <time>2021-01-16T08:39:28.000Z</time>
      </trkpt>
      <trkpt lat="45.61185" lon="6.11909">
        <ele>1169.4000244141</ele>
        <time>2021-01-16T08:39:30.000Z</time>
      </trkpt>
      <trkpt lat="45.61187" lon="6.1191">
        <ele>1169.8000488281</ele>
        <time>2021-01-16T08:39:32.000Z</time>
      </trkpt>
      <trkpt lat="45.61191" lon="6.11909">
        <ele>1170.4000244141</ele>
        <time>2021-01-16T08:39:35.000Z</time>
      </trkpt>
      <trkpt lat="45.61195" lon="6.11909">
        <ele>1171.1999511719</ele>
        <time>2021-01-16T08:39:39.000Z</time>
      </trkpt>
      <trkpt lat="45.61197" lon="6.11904">
        <ele>1171.8000488281</ele>
        <time>2021-01-16T08:39:42.000Z</time>
      </trkpt>
      <trkpt lat="45.61198" lon="6.11902">
        <ele>1173</ele>
        <time>2021-01-16T08:39:45.000Z</time>
      </trkpt>
      <trkpt lat="45.612" lon="6.119">
        <ele>1173.1999511719</ele>
        <time>2021-01-16T08:39:46.000Z</time>
      </trkpt>
      <trkpt lat="45.61201" lon="6.11899">
        <ele>1174</ele>
        <time>2021-01-16T08:39:50.000Z</time>
      </trkpt>
      <trkpt lat="45.61203" lon="6.11898">
        <ele>1175.1999511719</ele>
        <time>2021-01-16T08:39:55.000Z</time>
      </trkpt>
      <trkpt lat="45.61204" lon="6.11898">
        <ele>1175.4000244141</ele>
        <time>2021-01-16T08:39:56.000Z</time>
      </trkpt>
      <trkpt lat="45.61208" lon="6.11898">
        <ele>1176.4000244141</ele>
        <time>2021-01-16T08:40:02.000Z</time>
      </trkpt>
      <trkpt lat="45.61209" lon="6.11898">
        <ele>1176.4000244141</ele>
        <time>2021-01-16T08:40:03.000Z</time>
      </trkpt>
      <trkpt lat="45.61212" lon="6.11899">
        <ele>1177.4000244141</ele>
        <time>2021-01-16T08:40:09.000Z</time>
      </trkpt>
      <trkpt lat="45.61215" lon="6.11899">
        <ele>1177.8000488281</ele>
        <time>2021-01-16T08:40:14.000Z</time>
      </trkpt>
      <trkpt lat="45.61217" lon="6.11899">
        <ele>1179</ele>
        <time>2021-01-16T08:40:17.000Z</time>
      </trkpt>
      <trkpt lat="45.61221" lon="6.11901">
        <ele>1180</ele>
        <time>2021-01-16T08:40:24.000Z</time>
      </trkpt>
      <trkpt lat="45.61221" lon="6.11901">
        <ele>1180.1999511719</ele>
        <time>2021-01-16T08:40:27.000Z</time>
      </trkpt>
      <trkpt lat="45.6122" lon="6.11906">
        <ele>1181.1999511719</ele>
        <time>2021-01-16T08:40:32.000Z</time>
      </trkpt>
      <trkpt lat="45.61219" lon="6.11907">
        <ele>1181.4000244141</ele>
        <time>2021-01-16T08:40:33.000Z</time>
      </trkpt>
      <trkpt lat="45.61217" lon="6.11911">
        <ele>1182.4000244141</ele>
        <time>2021-01-16T08:40:36.000Z</time>
      </trkpt>
      <trkpt lat="45.61214" lon="6.11919">
        <ele>1183.4000244141</ele>
        <time>2021-01-16T08:40:43.000Z</time>
      </trkpt>
      <trkpt lat="45.61213" lon="6.11921">
        <ele>1184.4000244141</ele>
        <time>2021-01-16T08:40:46.000Z</time>
      </trkpt>
      <trkpt lat="45.61214" lon="6.11926">
        <ele>1185.5999755859</ele>
        <time>2021-01-16T08:40:50.000Z</time>
      </trkpt>
      <trkpt lat="45.61214" lon="6.11927">
        <ele>1185.8000488281</ele>
        <time>2021-01-16T08:40:52.000Z</time>
      </trkpt>
      <trkpt lat="45.6122" lon="6.11925">
        <ele>1186</ele>
        <time>2021-01-16T08:40:58.000Z</time>
      </trkpt>
      <trkpt lat="45.61222" lon="6.11924">
        <ele>1186.5999755859</ele>
        <time>2021-01-16T08:41:03.000Z</time>
      </trkpt>
      <trkpt lat="45.61225" lon="6.11922">
        <ele>1187.1999511719</ele>
        <time>2021-01-16T08:41:07.000Z</time>
      </trkpt>
      <trkpt lat="45.61229" lon="6.11922">
        <ele>1187.5999755859</ele>
        <time>2021-01-16T08:41:09.000Z</time>
      </trkpt>
      <trkpt lat="45.61233" lon="6.11923">
        <ele>1188.4000244141</ele>
        <time>2021-01-16T08:41:16.000Z</time>
      </trkpt>
      <trkpt lat="45.61237" lon="6.11922">
        <ele>1188.8000488281</ele>
        <time>2021-01-16T08:41:20.000Z</time>
      </trkpt>
      <trkpt lat="45.61239" lon="6.11922">
        <ele>1189.8000488281</ele>
        <time>2021-01-16T08:41:24.000Z</time>
      </trkpt>
      <trkpt lat="45.6124" lon="6.11921">
        <ele>1190</ele>
        <time>2021-01-16T08:41:26.000Z</time>
      </trkpt>
      <trkpt lat="45.6124" lon="6.11924">
        <ele>1191</ele>
        <time>2021-01-16T08:41:31.000Z</time>
      </trkpt>
      <trkpt lat="45.61238" lon="6.1193">
        <ele>1191.8000488281</ele>
        <time>2021-01-16T08:41:36.000Z</time>
      </trkpt>
      <trkpt lat="45.61238" lon="6.11932">
        <ele>1192.1999511719</ele>
        <time>2021-01-16T08:41:38.000Z</time>
      </trkpt>
      <trkpt lat="45.61236" lon="6.11936">
        <ele>1193.1999511719</ele>
        <time>2021-01-16T08:41:45.000Z</time>
      </trkpt>
      <trkpt lat="45.61233" lon="6.11944">
        <ele>1193.5999755859</ele>
        <time>2021-01-16T08:41:52.000Z</time>
      </trkpt>
      <trkpt lat="45.61232" lon="6.11946">
        <ele>1194.1999511719</ele>
        <time>2021-01-16T08:41:54.000Z</time>
      </trkpt>
      <trkpt lat="45.6123" lon="6.11953">
        <ele>1195.1999511719</ele>
        <time>2021-01-16T08:41:59.000Z</time>
      </trkpt>
      <trkpt lat="45.61229" lon="6.11955">
        <ele>1195.5999755859</ele>
        <time>2021-01-16T08:42:01.000Z</time>
      </trkpt>
      <trkpt lat="45.61229" lon="6.11958">
        <ele>1196.1999511719</ele>
        <time>2021-01-16T08:42:05.000Z</time>
      </trkpt>
      <trkpt lat="45.61228" lon="6.11962">
        <ele>1196.8000488281</ele>
        <time>2021-01-16T08:42:09.000Z</time>
      </trkpt>
      <trkpt lat="45.61228" lon="6.11964">
        <ele>1197.1999511719</ele>
        <time>2021-01-16T08:42:11.000Z</time>
      </trkpt>
      <trkpt lat="45.61228" lon="6.11965">
        <ele>1197.5999755859</ele>
        <time>2021-01-16T08:42:12.000Z</time>
      </trkpt>
      <trkpt lat="45.61226" lon="6.11969">
        <ele>1197.8000488281</ele>
        <time>2021-01-16T08:42:19.000Z</time>
      </trkpt>
      <trkpt lat="45.61233" lon="6.11963">
        <ele>1198.4000244141</ele>
        <time>2021-01-16T08:42:22.000Z</time>
      </trkpt>
      <trkpt lat="45.61236" lon="6.11962">
        <ele>1199.4000244141</ele>
        <time>2021-01-16T08:42:24.000Z</time>
      </trkpt>
      <trkpt lat="45.61239" lon="6.1196">
        <ele>1200</ele>
        <time>2021-01-16T08:42:27.000Z</time>
      </trkpt>
      <trkpt lat="45.61244" lon="6.11958">
        <ele>1200.8000488281</ele>
        <time>2021-01-16T08:42:34.000Z</time>
      </trkpt>
      <trkpt lat="45.61246" lon="6.11958">
        <ele>1201</ele>
        <time>2021-01-16T08:42:36.000Z</time>
      </trkpt>
      <trkpt lat="45.61247" lon="6.11957">
        <ele>1201.8000488281</ele>
        <time>2021-01-16T08:42:40.000Z</time>
      </trkpt>
      <trkpt lat="45.61248" lon="6.11957">
        <ele>1202</ele>
        <time>2021-01-16T08:42:43.000Z</time>
      </trkpt>
      <trkpt lat="45.61247" lon="6.11963">
        <ele>1202.4000244141</ele>
        <time>2021-01-16T08:42:50.000Z</time>
      </trkpt>
      <trkpt lat="45.61247" lon="6.11966">
        <ele>1203</ele>
        <time>2021-01-16T08:42:53.000Z</time>
      </trkpt>
      <trkpt lat="45.61244" lon="6.11972">
        <ele>1204.1999511719</ele>
        <time>2021-01-16T08:42:59.000Z</time>
      </trkpt>
      <trkpt lat="45.61244" lon="6.11973">
        <ele>1204.4000244141</ele>
        <time>2021-01-16T08:43:01.000Z</time>
      </trkpt>
      <trkpt lat="45.61244" lon="6.11976">
        <ele>1205.1999511719</ele>
        <time>2021-01-16T08:43:06.000Z</time>
      </trkpt>
      <trkpt lat="45.61246" lon="6.11975">
        <ele>1206.1999511719</ele>
        <time>2021-01-16T08:43:10.000Z</time>
      </trkpt>
      <trkpt lat="45.61255" lon="6.11973">
        <ele>1207.4000244141</ele>
        <time>2021-01-16T08:43:19.000Z</time>
      </trkpt>
      <trkpt lat="45.61256" lon="6.11973">
        <ele>1207.5999755859</ele>
        <time>2021-01-16T08:43:20.000Z</time>
      </trkpt>
      <trkpt lat="45.61258" lon="6.11972">
        <ele>1208.5999755859</ele>
        <time>2021-01-16T08:43:23.000Z</time>
      </trkpt>
      <trkpt lat="45.61261" lon="6.11974">
        <ele>1208.5999755859</ele>
        <time>2021-01-16T08:43:29.000Z</time>
      </trkpt>
      <trkpt lat="45.61261" lon="6.11977">
        <ele>1209.5999755859</ele>
        <time>2021-01-16T08:43:33.000Z</time>
      </trkpt>
      <trkpt lat="45.61261" lon="6.11982">
        <ele>1210</ele>
        <time>2021-01-16T08:43:38.000Z</time>
      </trkpt>
      <trkpt lat="45.61261" lon="6.11984">
        <ele>1210.5999755859</ele>
        <time>2021-01-16T08:43:40.000Z</time>
      </trkpt>
      <trkpt lat="45.61261" lon="6.1199">
        <ele>1212</ele>
        <time>2021-01-16T08:43:45.000Z</time>
      </trkpt>
      <trkpt lat="45.6126" lon="6.11993">
        <ele>1212.5999755859</ele>
        <time>2021-01-16T08:43:48.000Z</time>
      </trkpt>
      <trkpt lat="45.61261" lon="6.11994">
        <ele>1213</ele>
        <time>2021-01-16T08:43:49.000Z</time>
      </trkpt>
      <trkpt lat="45.61259" lon="6.11998">
        <ele>1214.4000244141</ele>
        <time>2021-01-16T08:43:53.000Z</time>
      </trkpt>
      <trkpt lat="45.61257" lon="6.12004">
        <ele>1215</ele>
        <time>2021-01-16T08:43:59.000Z</time>
      </trkpt>
      <trkpt lat="45.61258" lon="6.12013">
        <ele>1215.5999755859</ele>
        <time>2021-01-16T08:44:07.000Z</time>
      </trkpt>
      <trkpt lat="45.6126" lon="6.12016">
        <ele>1216.5999755859</ele>
        <time>2021-01-16T08:44:11.000Z</time>
      </trkpt>
      <trkpt lat="45.61263" lon="6.12018">
        <ele>1218</ele>
        <time>2021-01-16T08:44:16.000Z</time>
      </trkpt>
      <trkpt lat="45.61264" lon="6.12019">
        <ele>1218.8000488281</ele>
        <time>2021-01-16T08:44:18.000Z</time>
      </trkpt>
      <trkpt lat="45.61264" lon="6.1202">
        <ele>1219.1999511719</ele>
        <time>2021-01-16T08:44:19.000Z</time>
      </trkpt>
      <trkpt lat="45.61267" lon="6.12027">
        <ele>1219.8000488281</ele>
        <time>2021-01-16T08:44:28.000Z</time>
      </trkpt>
      <trkpt lat="45.61269" lon="6.1203">
        <ele>1220.4000244141</ele>
        <time>2021-01-16T08:44:33.000Z</time>
      </trkpt>
      <trkpt lat="45.61272" lon="6.12034">
        <ele>1221.1999511719</ele>
        <time>2021-01-16T08:44:39.000Z</time>
      </trkpt>
      <trkpt lat="45.61273" lon="6.12036">
        <ele>1221.5999755859</ele>
        <time>2021-01-16T08:44:41.000Z</time>
      </trkpt>
      <trkpt lat="45.61276" lon="6.1204">
        <ele>1223</ele>
        <time>2021-01-16T08:44:48.000Z</time>
      </trkpt>
      <trkpt lat="45.61278" lon="6.12042">
        <ele>1223.4000244141</ele>
        <time>2021-01-16T08:44:50.000Z</time>
      </trkpt>
      <trkpt lat="45.6128" lon="6.12042">
        <ele>1224.1999511719</ele>
        <time>2021-01-16T08:44:52.000Z</time>
      </trkpt>
      <trkpt lat="45.61285" lon="6.12043">
        <ele>1225.4000244141</ele>
        <time>2021-01-16T08:44:58.000Z</time>
      </trkpt>
      <trkpt lat="45.61286" lon="6.12043">
        <ele>1225.8000488281</ele>
        <time>2021-01-16T08:45:00.000Z</time>
      </trkpt>
      <trkpt lat="45.61287" lon="6.12043">
        <ele>1226.5999755859</ele>
        <time>2021-01-16T08:45:02.000Z</time>
      </trkpt>
      <trkpt lat="45.61289" lon="6.12045">
        <ele>1227.8000488281</ele>
        <time>2021-01-16T08:45:06.000Z</time>
      </trkpt>
      <trkpt lat="45.61293" lon="6.12052">
        <ele>1228.8000488281</ele>
        <time>2021-01-16T08:45:12.000Z</time>
      </trkpt>
      <trkpt lat="45.61293" lon="6.12058">
        <ele>1229.8000488281</ele>
        <time>2021-01-16T08:45:19.000Z</time>
      </trkpt>
      <trkpt lat="45.61297" lon="6.12061">
        <ele>1230.1999511719</ele>
        <time>2021-01-16T08:45:23.000Z</time>
      </trkpt>
      <trkpt lat="45.61302" lon="6.12063">
        <ele>1231</ele>
        <time>2021-01-16T08:45:31.000Z</time>
      </trkpt>
      <trkpt lat="45.61303" lon="6.12063">
        <ele>1231.1999511719</ele>
        <time>2021-01-16T08:45:33.000Z</time>
      </trkpt>
      <trkpt lat="45.61307" lon="6.12062">
        <ele>1232</ele>
        <time>2021-01-16T08:45:38.000Z</time>
      </trkpt>
      <trkpt lat="45.61316" lon="6.12063">
        <ele>1233.1999511719</ele>
        <time>2021-01-16T08:45:45.000Z</time>
      </trkpt>
      <trkpt lat="45.61328" lon="6.12066">
        <ele>1234.1999511719</ele>
        <time>2021-01-16T08:45:57.000Z</time>
      </trkpt>
      <trkpt lat="45.61329" lon="6.12067">
        <ele>1234.4000244141</ele>
        <time>2021-01-16T08:45:58.000Z</time>
      </trkpt>
      <trkpt lat="45.61334" lon="6.12067">
        <ele>1235.1999511719</ele>
        <time>2021-01-16T08:46:06.000Z</time>
      </trkpt>
      <trkpt lat="45.61335" lon="6.12069">
        <ele>1235.4000244141</ele>
        <time>2021-01-16T08:46:08.000Z</time>
      </trkpt>
      <trkpt lat="45.61342" lon="6.12072">
        <ele>1236.4000244141</ele>
        <time>2021-01-16T08:46:16.000Z</time>
      </trkpt>
      <trkpt lat="45.61343" lon="6.12073">
        <ele>1236.5999755859</ele>
        <time>2021-01-16T08:46:17.000Z</time>
      </trkpt>
      <trkpt lat="45.61346" lon="6.12073">
        <ele>1236.8000488281</ele>
        <time>2021-01-16T08:46:26.000Z</time>
      </trkpt>
      <trkpt lat="45.61353" lon="6.12084">
        <ele>1237.1999511719</ele>
        <time>2021-01-16T08:46:37.000Z</time>
      </trkpt>
      <trkpt lat="45.61353" lon="6.12085">
        <ele>1237.5999755859</ele>
        <time>2021-01-16T08:46:38.000Z</time>
      </trkpt>
      <trkpt lat="45.61353" lon="6.12089">
        <ele>1238.5999755859</ele>
        <time>2021-01-16T08:46:41.000Z</time>
      </trkpt>
      <trkpt lat="45.61353" lon="6.12092">
        <ele>1239.1999511719</ele>
        <time>2021-01-16T08:46:47.000Z</time>
      </trkpt>
      <trkpt lat="45.61347" lon="6.12097">
        <ele>1239.5999755859</ele>
        <time>2021-01-16T08:46:54.000Z</time>
      </trkpt>
      <trkpt lat="45.61347" lon="6.12097">
        <ele>1239.8000488281</ele>
        <time>2021-01-16T08:46:58.000Z</time>
      </trkpt>
      <trkpt lat="45.61347" lon="6.12097">
        <ele>1239.5999755859</ele>
        <time>2021-01-16T08:47:11.000Z</time>
      </trkpt>
      <trkpt lat="45.61347" lon="6.12097">
        <ele>1239.5999755859</ele>
        <time>2021-01-16T08:47:27.000Z</time>
      </trkpt>
      <trkpt lat="45.61347" lon="6.12097">
        <ele>1239.5999755859</ele>
        <time>2021-01-16T08:47:40.000Z</time>
      </trkpt>
      <trkpt lat="45.61348" lon="6.12096">
        <ele>1239.4000244141</ele>
        <time>2021-01-16T08:47:54.000Z</time>
      </trkpt>
      <trkpt lat="45.61348" lon="6.12096">
        <ele>1239.4000244141</ele>
        <time>2021-01-16T08:48:08.000Z</time>
      </trkpt>
      <trkpt lat="45.61348" lon="6.12096">
        <ele>1239.4000244141</ele>
        <time>2021-01-16T08:48:25.000Z</time>
      </trkpt>
      <trkpt lat="45.61349" lon="6.12097">
        <ele>1239.4000244141</ele>
        <time>2021-01-16T08:48:41.000Z</time>
      </trkpt>
      <trkpt lat="45.61349" lon="6.12097">
        <ele>1239.1999511719</ele>
        <time>2021-01-16T08:48:55.000Z</time>
      </trkpt>
      <trkpt lat="45.61349" lon="6.12097">
        <ele>1239.4000244141</ele>
        <time>2021-01-16T08:49:13.000Z</time>
      </trkpt>
      <trkpt lat="45.61349" lon="6.12097">
        <ele>1239.5999755859</ele>
        <time>2021-01-16T08:49:30.000Z</time>
      </trkpt>
      <trkpt lat="45.61353" lon="6.121">
        <ele>1239.4000244141</ele>
        <time>2021-01-16T08:49:41.000Z</time>
      </trkpt>
      <trkpt lat="45.61362" lon="6.12108">
        <ele>1240</ele>
        <time>2021-01-16T08:49:52.000Z</time>
      </trkpt>
      <trkpt lat="45.6137" lon="6.12112">
        <ele>1240.5999755859</ele>
        <time>2021-01-16T08:49:57.000Z</time>
      </trkpt>
      <trkpt lat="45.61373" lon="6.12114">
        <ele>1241</ele>
        <time>2021-01-16T08:50:03.000Z</time>
      </trkpt>
      <trkpt lat="45.61381" lon="6.12123">
        <ele>1241.4000244141</ele>
        <time>2021-01-16T08:50:14.000Z</time>
      </trkpt>
      <trkpt lat="45.61382" lon="6.12124">
        <ele>1241.5999755859</ele>
        <time>2021-01-16T08:50:15.000Z</time>
      </trkpt>
      <trkpt lat="45.61387" lon="6.12129">
        <ele>1242.8000488281</ele>
        <time>2021-01-16T08:50:21.000Z</time>
      </trkpt>
      <trkpt lat="45.61389" lon="6.12133">
        <ele>1243</ele>
        <time>2021-01-16T08:50:24.000Z</time>
      </trkpt>
      <trkpt lat="45.61395" lon="6.12143">
        <ele>1243</ele>
        <time>2021-01-16T08:50:33.000Z</time>
      </trkpt>
      <trkpt lat="45.61405" lon="6.12151">
        <ele>1243.4000244141</ele>
        <time>2021-01-16T08:50:43.000Z</time>
      </trkpt>
      <trkpt lat="45.61411" lon="6.12153">
        <ele>1243.1999511719</ele>
        <time>2021-01-16T08:50:52.000Z</time>
      </trkpt>
      <trkpt lat="45.61412" lon="6.12154">
        <ele>1244.1999511719</ele>
        <time>2021-01-16T08:50:54.000Z</time>
      </trkpt>
      <trkpt lat="45.61415" lon="6.12155">
        <ele>1245.1999511719</ele>
        <time>2021-01-16T08:50:58.000Z</time>
      </trkpt>
      <trkpt lat="45.61417" lon="6.12158">
        <ele>1246.4000244141</ele>
        <time>2021-01-16T08:51:02.000Z</time>
      </trkpt>
      <trkpt lat="45.61423" lon="6.12157">
        <ele>1247.4000244141</ele>
        <time>2021-01-16T08:51:10.000Z</time>
      </trkpt>
      <trkpt lat="45.61423" lon="6.12157">
        <ele>1248.1999511719</ele>
        <time>2021-01-16T08:51:13.000Z</time>
      </trkpt>
      <trkpt lat="45.61423" lon="6.12157">
        <ele>1248.4000244141</ele>
        <time>2021-01-16T08:51:14.000Z</time>
      </trkpt>
      <trkpt lat="45.61422" lon="6.12163">
        <ele>1249.8000488281</ele>
        <time>2021-01-16T08:51:24.000Z</time>
      </trkpt>
      <trkpt lat="45.61421" lon="6.12165">
        <ele>1251</ele>
        <time>2021-01-16T08:51:27.000Z</time>
      </trkpt>
      <trkpt lat="45.61418" lon="6.12171">
        <ele>1251.4000244141</ele>
        <time>2021-01-16T08:51:33.000Z</time>
      </trkpt>
      <trkpt lat="45.61418" lon="6.12171">
        <ele>1252</ele>
        <time>2021-01-16T08:51:37.000Z</time>
      </trkpt>
      <trkpt lat="45.61418" lon="6.12171">
        <ele>1253</ele>
        <time>2021-01-16T08:51:43.000Z</time>
      </trkpt>
      <trkpt lat="45.61418" lon="6.12171">
        <ele>1254.4000244141</ele>
        <time>2021-01-16T08:51:46.000Z</time>
      </trkpt>
      <trkpt lat="45.61418" lon="6.12172">
        <ele>1255.4000244141</ele>
        <time>2021-01-16T08:51:50.000Z</time>
      </trkpt>
      <trkpt lat="45.61421" lon="6.12176">
        <ele>1255.8000488281</ele>
        <time>2021-01-16T08:51:53.000Z</time>
      </trkpt>
      <trkpt lat="45.61427" lon="6.12181">
        <ele>1256.8000488281</ele>
        <time>2021-01-16T08:51:59.000Z</time>
      </trkpt>
      <trkpt lat="45.61431" lon="6.12184">
        <ele>1257</ele>
        <time>2021-01-16T08:52:03.000Z</time>
      </trkpt>
      <trkpt lat="45.61434" lon="6.12188">
        <ele>1258.4000244141</ele>
        <time>2021-01-16T08:52:08.000Z</time>
      </trkpt>
      <trkpt lat="45.61437" lon="6.12189">
        <ele>1259.5999755859</ele>
        <time>2021-01-16T08:52:11.000Z</time>
      </trkpt>
      <trkpt lat="45.6144" lon="6.12189">
        <ele>1260.5999755859</ele>
        <time>2021-01-16T08:52:15.000Z</time>
      </trkpt>
      <trkpt lat="45.61443" lon="6.12188">
        <ele>1261</ele>
        <time>2021-01-16T08:52:20.000Z</time>
      </trkpt>
      <trkpt lat="45.61443" lon="6.12189">
        <ele>1262.1999511719</ele>
        <time>2021-01-16T08:52:23.000Z</time>
      </trkpt>
      <trkpt lat="45.61445" lon="6.12193">
        <ele>1262.8000488281</ele>
        <time>2021-01-16T08:52:28.000Z</time>
      </trkpt>
      <trkpt lat="45.61447" lon="6.12196">
        <ele>1263.5999755859</ele>
        <time>2021-01-16T08:52:36.000Z</time>
      </trkpt>
      <trkpt lat="45.61447" lon="6.12196">
        <ele>1264</ele>
        <time>2021-01-16T08:52:38.000Z</time>
      </trkpt>
      <trkpt lat="45.6145" lon="6.12195">
        <ele>1265</ele>
        <time>2021-01-16T08:52:41.000Z</time>
      </trkpt>
      <trkpt lat="45.6145" lon="6.12195">
        <ele>1266.1999511719</ele>
        <time>2021-01-16T08:52:43.000Z</time>
      </trkpt>
      <trkpt lat="45.6145" lon="6.12195">
        <ele>1267</ele>
        <time>2021-01-16T08:52:48.000Z</time>
      </trkpt>
      <trkpt lat="45.61458" lon="6.12201">
        <ele>1267.1999511719</ele>
        <time>2021-01-16T08:52:54.000Z</time>
      </trkpt>
      <trkpt lat="45.61463" lon="6.12203">
        <ele>1267.5999755859</ele>
        <time>2021-01-16T08:52:58.000Z</time>
      </trkpt>
      <trkpt lat="45.61465" lon="6.12206">
        <ele>1267.8000488281</ele>
        <time>2021-01-16T08:53:06.000Z</time>
      </trkpt>
      <trkpt lat="45.61464" lon="6.12208">
        <ele>1268.4000244141</ele>
        <time>2021-01-16T08:53:08.000Z</time>
      </trkpt>
      <trkpt lat="45.61463" lon="6.1221">
        <ele>1269.5999755859</ele>
        <time>2021-01-16T08:53:12.000Z</time>
      </trkpt>
      <trkpt lat="45.61463" lon="6.1221">
        <ele>1270.4000244141</ele>
        <time>2021-01-16T08:53:15.000Z</time>
      </trkpt>
      <trkpt lat="45.61463" lon="6.1221">
        <ele>1270.8000488281</ele>
        <time>2021-01-16T08:53:17.000Z</time>
      </trkpt>
      <trkpt lat="45.61457" lon="6.12216">
        <ele>1271</ele>
        <time>2021-01-16T08:53:24.000Z</time>
      </trkpt>
      <trkpt lat="45.61455" lon="6.12217">
        <ele>1271.8000488281</ele>
        <time>2021-01-16T08:53:27.000Z</time>
      </trkpt>
      <trkpt lat="45.61453" lon="6.1222">
        <ele>1273</ele>
        <time>2021-01-16T08:53:31.000Z</time>
      </trkpt>
      <trkpt lat="45.6145" lon="6.12223">
        <ele>1273.8000488281</ele>
        <time>2021-01-16T08:53:35.000Z</time>
      </trkpt>
      <trkpt lat="45.6145" lon="6.12223">
        <ele>1274</ele>
        <time>2021-01-16T08:53:36.000Z</time>
      </trkpt>
      <trkpt lat="45.61447" lon="6.12227">
        <ele>1275.1999511719</ele>
        <time>2021-01-16T08:53:41.000Z</time>
      </trkpt>
      <trkpt lat="45.61443" lon="6.12231">
        <ele>1276.1999511719</ele>
        <time>2021-01-16T08:53:45.000Z</time>
      </trkpt>
      <trkpt lat="45.6144" lon="6.12233">
        <ele>1277.1999511719</ele>
        <time>2021-01-16T08:53:48.000Z</time>
      </trkpt>
      <trkpt lat="45.61439" lon="6.12235">
        <ele>1278.5999755859</ele>
        <time>2021-01-16T08:53:51.000Z</time>
      </trkpt>
      <trkpt lat="45.61438" lon="6.12236">
        <ele>1279.5999755859</ele>
        <time>2021-01-16T08:53:56.000Z</time>
      </trkpt>
      <trkpt lat="45.61438" lon="6.12236">
        <ele>1279.8000488281</ele>
        <time>2021-01-16T08:53:57.000Z</time>
      </trkpt>
      <trkpt lat="45.61438" lon="6.12236">
        <ele>1280.8000488281</ele>
        <time>2021-01-16T08:54:01.000Z</time>
      </trkpt>
      <trkpt lat="45.61436" lon="6.12237">
        <ele>1281.1999511719</ele>
        <time>2021-01-16T08:54:09.000Z</time>
      </trkpt>
      <trkpt lat="45.61433" lon="6.12241">
        <ele>1282</ele>
        <time>2021-01-16T08:54:14.000Z</time>
      </trkpt>
      <trkpt lat="45.6143" lon="6.12245">
        <ele>1283.1999511719</ele>
        <time>2021-01-16T08:54:18.000Z</time>
      </trkpt>
      <trkpt lat="45.6143" lon="6.12245">
        <ele>1283.5999755859</ele>
        <time>2021-01-16T08:54:20.000Z</time>
      </trkpt>
      <trkpt lat="45.61428" lon="6.12246">
        <ele>1284.5999755859</ele>
        <time>2021-01-16T08:54:23.000Z</time>
      </trkpt>
      <trkpt lat="45.61424" lon="6.12247">
        <ele>1285.8000488281</ele>
        <time>2021-01-16T08:54:29.000Z</time>
      </trkpt>
      <trkpt lat="45.61424" lon="6.12247">
        <ele>1285.8000488281</ele>
        <time>2021-01-16T08:54:30.000Z</time>
      </trkpt>
      <trkpt lat="45.61424" lon="6.12247">
        <ele>1286.8000488281</ele>
        <time>2021-01-16T08:54:33.000Z</time>
      </trkpt>
      <trkpt lat="45.61424" lon="6.12247">
        <ele>1288</ele>
        <time>2021-01-16T08:54:39.000Z</time>
      </trkpt>
      <trkpt lat="45.61424" lon="6.12247">
        <ele>1288.1999511719</ele>
        <time>2021-01-16T08:54:41.000Z</time>
      </trkpt>
      <trkpt lat="45.61424" lon="6.12249">
        <ele>1289.1999511719</ele>
        <time>2021-01-16T08:54:46.000Z</time>
      </trkpt>
      <trkpt lat="45.61423" lon="6.12253">
        <ele>1290.1999511719</ele>
        <time>2021-01-16T08:54:50.000Z</time>
      </trkpt>
      <trkpt lat="45.61422" lon="6.12254">
        <ele>1290.4000244141</ele>
        <time>2021-01-16T08:54:52.000Z</time>
      </trkpt>
      <trkpt lat="45.61412" lon="6.12262">
        <ele>1291.5999755859</ele>
        <time>2021-01-16T08:54:58.000Z</time>
      </trkpt>
      <trkpt lat="45.6141" lon="6.12264">
        <ele>1292.5999755859</ele>
        <time>2021-01-16T08:55:00.000Z</time>
      </trkpt>
      <trkpt lat="45.61408" lon="6.12266">
        <ele>1293.8000488281</ele>
        <time>2021-01-16T08:55:02.000Z</time>
      </trkpt>
      <trkpt lat="45.61407" lon="6.12266">
        <ele>1294.8000488281</ele>
        <time>2021-01-16T08:55:10.000Z</time>
      </trkpt>
      <trkpt lat="45.61407" lon="6.12266">
        <ele>1296.1999511719</ele>
        <time>2021-01-16T08:55:12.000Z</time>
      </trkpt>
      <trkpt lat="45.61407" lon="6.12266">
        <ele>1297</ele>
        <time>2021-01-16T08:55:13.000Z</time>
      </trkpt>
      <trkpt lat="45.61407" lon="6.12266">
        <ele>1297.4000244141</ele>
        <time>2021-01-16T08:55:14.000Z</time>
      </trkpt>
      <trkpt lat="45.61407" lon="6.12266">
        <ele>1298.4000244141</ele>
        <time>2021-01-16T08:55:26.000Z</time>
      </trkpt>
      <trkpt lat="45.61406" lon="6.12268">
        <ele>1299.8000488281</ele>
        <time>2021-01-16T08:55:28.000Z</time>
      </trkpt>
      <trkpt lat="45.61406" lon="6.12268">
        <ele>1300.1999511719</ele>
        <time>2021-01-16T08:55:29.000Z</time>
      </trkpt>
      <trkpt lat="45.61404" lon="6.1227">
        <ele>1300.8000488281</ele>
        <time>2021-01-16T08:55:30.000Z</time>
      </trkpt>
      <trkpt lat="45.61397" lon="6.12281">
        <ele>1299.8000488281</ele>
        <time>2021-01-16T08:55:36.000Z</time>
      </trkpt>
      <trkpt lat="45.61396" lon="6.12286">
        <ele>1301.1999511719</ele>
        <time>2021-01-16T08:55:40.000Z</time>
      </trkpt>
      <trkpt lat="45.61395" lon="6.12287">
        <ele>1302.5999755859</ele>
        <time>2021-01-16T08:55:42.000Z</time>
      </trkpt>
      <trkpt lat="45.61393" lon="6.12287">
        <ele>1303.8000488281</ele>
        <time>2021-01-16T08:55:44.000Z</time>
      </trkpt>
      <trkpt lat="45.61383" lon="6.12296">
        <ele>1304.5999755859</ele>
        <time>2021-01-16T08:55:54.000Z</time>
      </trkpt>
      <trkpt lat="45.61383" lon="6.12296">
        <ele>1305</ele>
        <time>2021-01-16T08:55:55.000Z</time>
      </trkpt>
      <trkpt lat="45.61383" lon="6.12296">
        <ele>1306.1999511719</ele>
        <time>2021-01-16T08:55:59.000Z</time>
      </trkpt>
      <trkpt lat="45.61378" lon="6.12298">
        <ele>1306.5999755859</ele>
        <time>2021-01-16T08:56:04.000Z</time>
      </trkpt>
      <trkpt lat="45.61373" lon="6.12299">
        <ele>1307.1999511719</ele>
        <time>2021-01-16T08:56:09.000Z</time>
      </trkpt>
      <trkpt lat="45.61366" lon="6.123">
        <ele>1308.5999755859</ele>
        <time>2021-01-16T08:56:15.000Z</time>
      </trkpt>
      <trkpt lat="45.61365" lon="6.123">
        <ele>1309.4000244141</ele>
        <time>2021-01-16T08:56:17.000Z</time>
      </trkpt>
      <trkpt lat="45.61365" lon="6.123">
        <ele>1310.1999511719</ele>
        <time>2021-01-16T08:56:18.000Z</time>
      </trkpt>
      <trkpt lat="45.61365" lon="6.123">
        <ele>1311.4000244141</ele>
        <time>2021-01-16T08:56:25.000Z</time>
      </trkpt>
      <trkpt lat="45.61365" lon="6.123">
        <ele>1311.1999511719</ele>
        <time>2021-01-16T08:56:26.000Z</time>
      </trkpt>
      <trkpt lat="45.61364" lon="6.12301">
        <ele>1312.5999755859</ele>
        <time>2021-01-16T08:56:33.000Z</time>
      </trkpt>
      <trkpt lat="45.61364" lon="6.12301">
        <ele>1313.5999755859</ele>
        <time>2021-01-16T08:56:37.000Z</time>
      </trkpt>
      <trkpt lat="45.61364" lon="6.12301">
        <ele>1314.4000244141</ele>
        <time>2021-01-16T08:56:39.000Z</time>
      </trkpt>
      <trkpt lat="45.61364" lon="6.12301">
        <ele>1314.8000488281</ele>
        <time>2021-01-16T08:56:41.000Z</time>
      </trkpt>
      <trkpt lat="45.61364" lon="6.12301">
        <ele>1316</ele>
        <time>2021-01-16T08:56:45.000Z</time>
      </trkpt>
      <trkpt lat="45.61361" lon="6.12307">
        <ele>1317.1999511719</ele>
        <time>2021-01-16T08:56:49.000Z</time>
      </trkpt>
      <trkpt lat="45.61359" lon="6.12308">
        <ele>1317.4000244141</ele>
        <time>2021-01-16T08:56:50.000Z</time>
      </trkpt>
      <trkpt lat="45.61356" lon="6.1231">
        <ele>1318.1999511719</ele>
        <time>2021-01-16T08:56:53.000Z</time>
      </trkpt>
      <trkpt lat="45.61355" lon="6.12313">
        <ele>1319.1999511719</ele>
        <time>2021-01-16T08:56:57.000Z</time>
      </trkpt>
      <trkpt lat="45.61354" lon="6.12314">
        <ele>1319.8000488281</ele>
        <time>2021-01-16T08:56:59.000Z</time>
      </trkpt>
      <trkpt lat="45.61351" lon="6.12315">
        <ele>1320.4000244141</ele>
        <time>2021-01-16T08:57:03.000Z</time>
      </trkpt>
      <trkpt lat="45.61346" lon="6.12317">
        <ele>1321</ele>
        <time>2021-01-16T08:57:10.000Z</time>
      </trkpt>
      <trkpt lat="45.61344" lon="6.12317">
        <ele>1321.5999755859</ele>
        <time>2021-01-16T08:57:11.000Z</time>
      </trkpt>
      <trkpt lat="45.61336" lon="6.12312">
        <ele>1322.5999755859</ele>
        <time>2021-01-16T08:57:20.000Z</time>
      </trkpt>
      <trkpt lat="45.61334" lon="6.12312">
        <ele>1323.1999511719</ele>
        <time>2021-01-16T08:57:22.000Z</time>
      </trkpt>
      <trkpt lat="45.61332" lon="6.12313">
        <ele>1323.8000488281</ele>
        <time>2021-01-16T08:57:24.000Z</time>
      </trkpt>
      <trkpt lat="45.61328" lon="6.12313">
        <ele>1325</ele>
        <time>2021-01-16T08:57:31.000Z</time>
      </trkpt>
      <trkpt lat="45.61327" lon="6.12313">
        <ele>1325</ele>
        <time>2021-01-16T08:57:32.000Z</time>
      </trkpt>
      <trkpt lat="45.61326" lon="6.12314">
        <ele>1326</ele>
        <time>2021-01-16T08:57:37.000Z</time>
      </trkpt>
      <trkpt lat="45.61326" lon="6.12314">
        <ele>1327.1999511719</ele>
        <time>2021-01-16T08:57:42.000Z</time>
      </trkpt>
      <trkpt lat="45.61326" lon="6.12314">
        <ele>1327.5999755859</ele>
        <time>2021-01-16T08:57:43.000Z</time>
      </trkpt>
      <trkpt lat="45.61326" lon="6.12314">
        <ele>1328.4000244141</ele>
        <time>2021-01-16T08:57:46.000Z</time>
      </trkpt>
      <trkpt lat="45.61323" lon="6.12313">
        <ele>1329.4000244141</ele>
        <time>2021-01-16T08:57:53.000Z</time>
      </trkpt>
      <trkpt lat="45.61318" lon="6.12312">
        <ele>1330.5999755859</ele>
        <time>2021-01-16T08:57:57.000Z</time>
      </trkpt>
      <trkpt lat="45.61309" lon="6.12311">
        <ele>1331.8000488281</ele>
        <time>2021-01-16T08:58:04.000Z</time>
      </trkpt>
      <trkpt lat="45.61307" lon="6.12311">
        <ele>1332</ele>
        <time>2021-01-16T08:58:05.000Z</time>
      </trkpt>
      <trkpt lat="45.61295" lon="6.12307">
        <ele>1333</ele>
        <time>2021-01-16T08:58:13.000Z</time>
      </trkpt>
      <trkpt lat="45.61291" lon="6.12305">
        <ele>1333.5999755859</ele>
        <time>2021-01-16T08:58:17.000Z</time>
      </trkpt>
      <trkpt lat="45.6129" lon="6.12304">
        <ele>1334.1999511719</ele>
        <time>2021-01-16T08:58:19.000Z</time>
      </trkpt>
      <trkpt lat="45.61286" lon="6.12303">
        <ele>1335.1999511719</ele>
        <time>2021-01-16T08:58:26.000Z</time>
      </trkpt>
      <trkpt lat="45.61286" lon="6.12303">
        <ele>1335.5999755859</ele>
        <time>2021-01-16T08:58:29.000Z</time>
      </trkpt>
      <trkpt lat="45.61286" lon="6.12303">
        <ele>1336.1999511719</ele>
        <time>2021-01-16T08:58:32.000Z</time>
      </trkpt>
      <trkpt lat="45.6128" lon="6.12304">
        <ele>1337.1999511719</ele>
        <time>2021-01-16T08:58:39.000Z</time>
      </trkpt>
      <trkpt lat="45.61278" lon="6.12304">
        <ele>1337.1999511719</ele>
        <time>2021-01-16T08:58:40.000Z</time>
      </trkpt>
      <trkpt lat="45.61275" lon="6.12302">
        <ele>1338.4000244141</ele>
        <time>2021-01-16T08:58:43.000Z</time>
      </trkpt>
      <trkpt lat="45.6127" lon="6.12301">
        <ele>1339.5999755859</ele>
        <time>2021-01-16T08:58:50.000Z</time>
      </trkpt>
      <trkpt lat="45.61268" lon="6.12302">
        <ele>1340</ele>
        <time>2021-01-16T08:58:52.000Z</time>
      </trkpt>
      <trkpt lat="45.61266" lon="6.12302">
        <ele>1340.5999755859</ele>
        <time>2021-01-16T08:58:58.000Z</time>
      </trkpt>
      <trkpt lat="45.61266" lon="6.12302">
        <ele>1341</ele>
        <time>2021-01-16T08:59:00.000Z</time>
      </trkpt>
      <trkpt lat="45.61261" lon="6.12302">
        <ele>1341.8000488281</ele>
        <time>2021-01-16T08:59:07.000Z</time>
      </trkpt>
      <trkpt lat="45.61258" lon="6.12302">
        <ele>1342</ele>
        <time>2021-01-16T08:59:10.000Z</time>
      </trkpt>
      <trkpt lat="45.61247" lon="6.12306">
        <ele>1342.8000488281</ele>
        <time>2021-01-16T08:59:20.000Z</time>
      </trkpt>
      <trkpt lat="45.61247" lon="6.12306">
        <ele>1343.8000488281</ele>
        <time>2021-01-16T08:59:27.000Z</time>
      </trkpt>
      <trkpt lat="45.61247" lon="6.12306">
        <ele>1344.5999755859</ele>
        <time>2021-01-16T08:59:31.000Z</time>
      </trkpt>
      <trkpt lat="45.61246" lon="6.12306">
        <ele>1345</ele>
        <time>2021-01-16T08:59:32.000Z</time>
      </trkpt>
      <trkpt lat="45.61229" lon="6.1231">
        <ele>1345.8000488281</ele>
        <time>2021-01-16T08:59:42.000Z</time>
      </trkpt>
      <trkpt lat="45.61229" lon="6.1231">
        <ele>1346.1999511719</ele>
        <time>2021-01-16T08:59:43.000Z</time>
      </trkpt>
      <trkpt lat="45.61229" lon="6.1231">
        <ele>1347.4000244141</ele>
        <time>2021-01-16T08:59:46.000Z</time>
      </trkpt>
      <trkpt lat="45.61224" lon="6.12308">
        <ele>1348.4000244141</ele>
        <time>2021-01-16T08:59:50.000Z</time>
      </trkpt>
      <trkpt lat="45.61221" lon="6.12307">
        <ele>1349.4000244141</ele>
        <time>2021-01-16T08:59:53.000Z</time>
      </trkpt>
      <trkpt lat="45.61221" lon="6.12307">
        <ele>1350</ele>
        <time>2021-01-16T08:59:54.000Z</time>
      </trkpt>
      <trkpt lat="45.61215" lon="6.12307">
        <ele>1351.1999511719</ele>
        <time>2021-01-16T09:00:00.000Z</time>
      </trkpt>
      <trkpt lat="45.6121" lon="6.12308">
        <ele>1352</ele>
        <time>2021-01-16T09:00:05.000Z</time>
      </trkpt>
      <trkpt lat="45.6121" lon="6.12308">
        <ele>1352.1999511719</ele>
        <time>2021-01-16T09:00:06.000Z</time>
      </trkpt>
      <trkpt lat="45.6121" lon="6.12308">
        <ele>1353</ele>
        <time>2021-01-16T09:00:14.000Z</time>
      </trkpt>
      <trkpt lat="45.6121" lon="6.12308">
        <ele>1353.1999511719</ele>
        <time>2021-01-16T09:00:17.000Z</time>
      </trkpt>
      <trkpt lat="45.61206" lon="6.1231">
        <ele>1354.8000488281</ele>
        <time>2021-01-16T09:00:21.000Z</time>
      </trkpt>
      <trkpt lat="45.61205" lon="6.1231">
        <ele>1355.4000244141</ele>
        <time>2021-01-16T09:00:24.000Z</time>
      </trkpt>
      <trkpt lat="45.61205" lon="6.1231">
        <ele>1355.8000488281</ele>
        <time>2021-01-16T09:00:34.000Z</time>
      </trkpt>
      <trkpt lat="45.61205" lon="6.1231">
        <ele>1357.4000244141</ele>
        <time>2021-01-16T09:00:37.000Z</time>
      </trkpt>
      <trkpt lat="45.61205" lon="6.12315">
        <ele>1358.5999755859</ele>
        <time>2021-01-16T09:00:42.000Z</time>
      </trkpt>
      <trkpt lat="45.61205" lon="6.12315">
        <ele>1359.4000244141</ele>
        <time>2021-01-16T09:00:47.000Z</time>
      </trkpt>
      <trkpt lat="45.61205" lon="6.12315">
        <ele>1359.5999755859</ele>
        <time>2021-01-16T09:00:48.000Z</time>
      </trkpt>
      <trkpt lat="45.61207" lon="6.12319">
        <ele>1360.8000488281</ele>
        <time>2021-01-16T09:00:56.000Z</time>
      </trkpt>
      <trkpt lat="45.61207" lon="6.12321">
        <ele>1361.1999511719</ele>
        <time>2021-01-16T09:00:57.000Z</time>
      </trkpt>
      <trkpt lat="45.61207" lon="6.12323">
        <ele>1361.8000488281</ele>
        <time>2021-01-16T09:00:59.000Z</time>
      </trkpt>
      <trkpt lat="45.61207" lon="6.12323">
        <ele>1362.8000488281</ele>
        <time>2021-01-16T09:01:06.000Z</time>
      </trkpt>
      <trkpt lat="45.61207" lon="6.12323">
        <ele>1363.1999511719</ele>
        <time>2021-01-16T09:01:09.000Z</time>
      </trkpt>
      <trkpt lat="45.61206" lon="6.12331">
        <ele>1363.8000488281</ele>
        <time>2021-01-16T09:01:15.000Z</time>
      </trkpt>
      <trkpt lat="45.61204" lon="6.12335">
        <ele>1364.8000488281</ele>
        <time>2021-01-16T09:01:18.000Z</time>
      </trkpt>
      <trkpt lat="45.61203" lon="6.12336">
        <ele>1365.1999511719</ele>
        <time>2021-01-16T09:01:19.000Z</time>
      </trkpt>
      <trkpt lat="45.61203" lon="6.12336">
        <ele>1366.4000244141</ele>
        <time>2021-01-16T09:01:23.000Z</time>
      </trkpt>
      <trkpt lat="45.61203" lon="6.12336">
        <ele>1367.4000244141</ele>
        <time>2021-01-16T09:01:28.000Z</time>
      </trkpt>
      <trkpt lat="45.61202" lon="6.12338">
        <ele>1368</ele>
        <time>2021-01-16T09:01:38.000Z</time>
      </trkpt>
      <trkpt lat="45.61202" lon="6.12338">
        <ele>1368.4000244141</ele>
        <time>2021-01-16T09:01:43.000Z</time>
      </trkpt>
      <trkpt lat="45.61202" lon="6.12338">
        <ele>1368.4000244141</ele>
        <time>2021-01-16T09:01:48.000Z</time>
      </trkpt>
      <trkpt lat="45.61202" lon="6.12343">
        <ele>1369.8000488281</ele>
        <time>2021-01-16T09:01:56.000Z</time>
      </trkpt>
      <trkpt lat="45.61202" lon="6.12343">
        <ele>1369.8000488281</ele>
        <time>2021-01-16T09:02:13.000Z</time>
      </trkpt>
      <trkpt lat="45.61203" lon="6.12345">
        <ele>1369.8000488281</ele>
        <time>2021-01-16T09:02:35.000Z</time>
      </trkpt>
      <trkpt lat="45.6121" lon="6.12353">
        <ele>1371.1999511719</ele>
        <time>2021-01-16T09:02:42.000Z</time>
      </trkpt>
      <trkpt lat="45.61213" lon="6.1236">
        <ele>1372.4000244141</ele>
        <time>2021-01-16T09:02:47.000Z</time>
      </trkpt>
      <trkpt lat="45.61213" lon="6.12361">
        <ele>1373.5999755859</ele>
        <time>2021-01-16T09:02:53.000Z</time>
      </trkpt>
      <trkpt lat="45.61213" lon="6.12362">
        <ele>1374.8000488281</ele>
        <time>2021-01-16T09:02:55.000Z</time>
      </trkpt>
      <trkpt lat="45.61213" lon="6.12363">
        <ele>1375.4000244141</ele>
        <time>2021-01-16T09:02:56.000Z</time>
      </trkpt>
      <trkpt lat="45.61213" lon="6.12364">
        <ele>1376</ele>
        <time>2021-01-16T09:02:57.000Z</time>
      </trkpt>
      <trkpt lat="45.61212" lon="6.1237">
        <ele>1376.8000488281</ele>
        <time>2021-01-16T09:03:05.000Z</time>
      </trkpt>
      <trkpt lat="45.61212" lon="6.12371">
        <ele>1377</ele>
        <time>2021-01-16T09:03:06.000Z</time>
      </trkpt>
      <trkpt lat="45.61215" lon="6.12375">
        <ele>1378.1999511719</ele>
        <time>2021-01-16T09:03:10.000Z</time>
      </trkpt>
      <trkpt lat="45.61218" lon="6.12378">
        <ele>1378.8000488281</ele>
        <time>2021-01-16T09:03:16.000Z</time>
      </trkpt>
      <trkpt lat="45.61218" lon="6.12378">
        <ele>1379.1999511719</ele>
        <time>2021-01-16T09:03:19.000Z</time>
      </trkpt>
      <trkpt lat="45.61218" lon="6.12378">
        <ele>1379</ele>
        <time>2021-01-16T09:03:32.000Z</time>
      </trkpt>
      <trkpt lat="45.61219" lon="6.12379">
        <ele>1379</ele>
        <time>2021-01-16T09:03:45.000Z</time>
      </trkpt>
      <trkpt lat="45.61223" lon="6.12385">
        <ele>1379.5999755859</ele>
        <time>2021-01-16T09:03:52.000Z</time>
      </trkpt>
      <trkpt lat="45.6123" lon="6.12391">
        <ele>1380.4000244141</ele>
        <time>2021-01-16T09:04:00.000Z</time>
      </trkpt>
      <trkpt lat="45.6123" lon="6.12393">
        <ele>1380.8000488281</ele>
        <time>2021-01-16T09:04:01.000Z</time>
      </trkpt>
      <trkpt lat="45.61235" lon="6.124">
        <ele>1381.5999755859</ele>
        <time>2021-01-16T09:04:09.000Z</time>
      </trkpt>
      <trkpt lat="45.61235" lon="6.124">
        <ele>1381.8000488281</ele>
        <time>2021-01-16T09:04:19.000Z</time>
      </trkpt>
      <trkpt lat="45.61235" lon="6.124">
        <ele>1381.8000488281</ele>
        <time>2021-01-16T09:04:33.000Z</time>
      </trkpt>
      <trkpt lat="45.61235" lon="6.124">
        <ele>1380.5999755859</ele>
        <time>2021-01-16T09:04:45.000Z</time>
      </trkpt>
      <trkpt lat="45.61236" lon="6.12401">
        <ele>1382.5999755859</ele>
        <time>2021-01-16T09:04:50.000Z</time>
      </trkpt>
      <trkpt lat="45.61237" lon="6.12402">
        <ele>1383.8000488281</ele>
        <time>2021-01-16T09:04:52.000Z</time>
      </trkpt>
      <trkpt lat="45.61238" lon="6.12403">
        <ele>1384</ele>
        <time>2021-01-16T09:04:53.000Z</time>
      </trkpt>
      <trkpt lat="45.6124" lon="6.12409">
        <ele>1383.8000488281</ele>
        <time>2021-01-16T09:05:00.000Z</time>
      </trkpt>
      <trkpt lat="45.61243" lon="6.1242">
        <ele>1385.1999511719</ele>
        <time>2021-01-16T09:05:07.000Z</time>
      </trkpt>
      <trkpt lat="45.61243" lon="6.12422">
        <ele>1385.5999755859</ele>
        <time>2021-01-16T09:05:08.000Z</time>
      </trkpt>
      <trkpt lat="45.61244" lon="6.12424">
        <ele>1386.4000244141</ele>
        <time>2021-01-16T09:05:11.000Z</time>
      </trkpt>
      <trkpt lat="45.61243" lon="6.12429">
        <ele>1387.1999511719</ele>
        <time>2021-01-16T09:05:15.000Z</time>
      </trkpt>
      <trkpt lat="45.61243" lon="6.12431">
        <ele>1387.4000244141</ele>
        <time>2021-01-16T09:05:18.000Z</time>
      </trkpt>
      <trkpt lat="45.61241" lon="6.12434">
        <ele>1387.5999755859</ele>
        <time>2021-01-16T09:05:23.000Z</time>
      </trkpt>
      <trkpt lat="45.61241" lon="6.12434">
        <ele>1387.5999755859</ele>
        <time>2021-01-16T09:05:33.000Z</time>
      </trkpt>
      <trkpt lat="45.61241" lon="6.12434">
        <ele>1387.8000488281</ele>
        <time>2021-01-16T09:05:43.000Z</time>
      </trkpt>
      <trkpt lat="45.61239" lon="6.12435">
        <ele>1385.8000488281</ele>
        <time>2021-01-16T09:05:48.000Z</time>
      </trkpt>
      <trkpt lat="45.61238" lon="6.12436">
        <ele>1384</ele>
        <time>2021-01-16T09:05:50.000Z</time>
      </trkpt>
      <trkpt lat="45.61238" lon="6.12437">
        <ele>1385.1999511719</ele>
        <time>2021-01-16T09:05:53.000Z</time>
      </trkpt>
      <trkpt lat="45.61238" lon="6.12437">
        <ele>1387.5999755859</ele>
        <time>2021-01-16T09:05:54.000Z</time>
      </trkpt>
      <trkpt lat="45.61239" lon="6.12437">
        <ele>1390.4000244141</ele>
        <time>2021-01-16T09:05:55.000Z</time>
      </trkpt>
      <trkpt lat="45.61242" lon="6.1244">
        <ele>1389.1999511719</ele>
        <time>2021-01-16T09:05:59.000Z</time>
      </trkpt>
      <trkpt lat="45.61244" lon="6.12441">
        <ele>1388</ele>
        <time>2021-01-16T09:06:02.000Z</time>
      </trkpt>
      <trkpt lat="45.61246" lon="6.1244">
        <ele>1388</ele>
        <time>2021-01-16T09:06:14.000Z</time>
      </trkpt>
      <trkpt lat="45.61246" lon="6.1244">
        <ele>1387.8000488281</ele>
        <time>2021-01-16T09:06:23.000Z</time>
      </trkpt>
      <trkpt lat="45.61246" lon="6.1244">
        <ele>1387.4000244141</ele>
        <time>2021-01-16T09:06:39.000Z</time>
      </trkpt>
      <trkpt lat="45.61245" lon="6.1244">
        <ele>1388.5999755859</ele>
        <time>2021-01-16T09:06:52.000Z</time>
      </trkpt>
      <trkpt lat="45.61244" lon="6.1244">
        <ele>1388.1999511719</ele>
        <time>2021-01-16T09:07:00.000Z</time>
      </trkpt>
      <trkpt lat="45.61244" lon="6.1244">
        <ele>1388</ele>
        <time>2021-01-16T09:07:14.000Z</time>
      </trkpt>
      <trkpt lat="45.61239" lon="6.12439">
        <ele>1387.5999755859</ele>
        <time>2021-01-16T09:07:21.000Z</time>
      </trkpt>
      <trkpt lat="45.61238" lon="6.12439">
        <ele>1387.4000244141</ele>
        <time>2021-01-16T09:07:31.000Z</time>
      </trkpt>
      <trkpt lat="45.61237" lon="6.12438">
        <ele>1387.4000244141</ele>
        <time>2021-01-16T09:07:42.000Z</time>
      </trkpt>
      <trkpt lat="45.61236" lon="6.12437">
        <ele>1387</ele>
        <time>2021-01-16T09:07:51.000Z</time>
      </trkpt>
      <trkpt lat="45.61236" lon="6.12437">
        <ele>1387.8000488281</ele>
        <time>2021-01-16T09:07:57.000Z</time>
      </trkpt>
      <trkpt lat="45.61236" lon="6.12437">
        <ele>1386.8000488281</ele>
        <time>2021-01-16T09:08:11.000Z</time>
      </trkpt>
      <trkpt lat="45.61236" lon="6.12437">
        <ele>1386.8000488281</ele>
        <time>2021-01-16T09:08:12.000Z</time>
      </trkpt>
      <trkpt lat="45.61236" lon="6.12437">
        <ele>1388</ele>
        <time>2021-01-16T09:08:18.000Z</time>
      </trkpt>
      <trkpt lat="45.61236" lon="6.12437">
        <ele>1387.1999511719</ele>
        <time>2021-01-16T09:08:25.000Z</time>
      </trkpt>
      <trkpt lat="45.61236" lon="6.12437">
        <ele>1387.1999511719</ele>
        <time>2021-01-16T09:08:36.000Z</time>
      </trkpt>
      <trkpt lat="45.61236" lon="6.12437">
        <ele>1387.4000244141</ele>
        <time>2021-01-16T09:08:54.000Z</time>
      </trkpt>
      <trkpt lat="45.61236" lon="6.12437">
        <ele>1387.1999511719</ele>
        <time>2021-01-16T09:09:10.000Z</time>
      </trkpt>
      <trkpt lat="45.61236" lon="6.12437">
        <ele>1387.4000244141</ele>
        <time>2021-01-16T09:09:27.000Z</time>
      </trkpt>
      <trkpt lat="45.61236" lon="6.12437">
        <ele>1387.4000244141</ele>
        <time>2021-01-16T09:09:32.000Z</time>
      </trkpt>
      <trkpt lat="45.61236" lon="6.12437">
        <ele>1387.4000244141</ele>
        <time>2021-01-16T09:09:44.000Z</time>
      </trkpt>
      <trkpt lat="45.61236" lon="6.12437">
        <ele>1387.4000244141</ele>
        <time>2021-01-16T09:09:58.000Z</time>
      </trkpt>
      <trkpt lat="45.61236" lon="6.12437">
        <ele>1387.4000244141</ele>
        <time>2021-01-16T09:10:13.000Z</time>
      </trkpt>
      <trkpt lat="45.61235" lon="6.12437">
        <ele>1387.1999511719</ele>
        <time>2021-01-16T09:10:26.000Z</time>
      </trkpt>
      <trkpt lat="45.61234" lon="6.12437">
        <ele>1387.1999511719</ele>
        <time>2021-01-16T09:10:36.000Z</time>
      </trkpt>
      <trkpt lat="45.61233" lon="6.12437">
        <ele>1387.1999511719</ele>
        <time>2021-01-16T09:10:54.000Z</time>
      </trkpt>
      <trkpt lat="45.61233" lon="6.12435">
        <ele>1387.1999511719</ele>
        <time>2021-01-16T09:11:04.000Z</time>
      </trkpt>
      <trkpt lat="45.61235" lon="6.12435">
        <ele>1387</ele>
        <time>2021-01-16T09:11:14.000Z</time>
      </trkpt>
      <trkpt lat="45.61235" lon="6.12435">
        <ele>1387</ele>
        <time>2021-01-16T09:11:30.000Z</time>
      </trkpt>
      <trkpt lat="45.61235" lon="6.12435">
        <ele>1387.4000244141</ele>
        <time>2021-01-16T09:11:45.000Z</time>
      </trkpt>
      <trkpt lat="45.61235" lon="6.12435">
        <ele>1387</ele>
        <time>2021-01-16T09:11:56.000Z</time>
      </trkpt>
      <trkpt lat="45.61235" lon="6.12435">
        <ele>1386.8000488281</ele>
        <time>2021-01-16T09:11:59.000Z</time>
      </trkpt>
      <trkpt lat="45.61235" lon="6.12435">
        <ele>1386.8000488281</ele>
        <time>2021-01-16T09:12:14.000Z</time>
      </trkpt>
      <trkpt lat="45.61235" lon="6.12435">
        <ele>1385.8000488281</ele>
        <time>2021-01-16T09:12:24.000Z</time>
      </trkpt>
      <trkpt lat="45.61235" lon="6.12435">
        <ele>1386</ele>
        <time>2021-01-16T09:12:27.000Z</time>
      </trkpt>
      <trkpt lat="45.61236" lon="6.12435">
        <ele>1387.1999511719</ele>
        <time>2021-01-16T09:12:28.000Z</time>
      </trkpt>
      <trkpt lat="45.61236" lon="6.12435">
        <ele>1388.4000244141</ele>
        <time>2021-01-16T09:12:31.000Z</time>
      </trkpt>
      <trkpt lat="45.61236" lon="6.12435">
        <ele>1387.1999511719</ele>
        <time>2021-01-16T09:12:34.000Z</time>
      </trkpt>
      <trkpt lat="45.61236" lon="6.12435">
        <ele>1387</ele>
        <time>2021-01-16T09:12:39.000Z</time>
      </trkpt>
      <trkpt lat="45.61236" lon="6.12435">
        <ele>1386.8000488281</ele>
        <time>2021-01-16T09:12:56.000Z</time>
      </trkpt>
      <trkpt lat="45.61236" lon="6.12435">
        <ele>1386.5999755859</ele>
        <time>2021-01-16T09:13:09.000Z</time>
      </trkpt>
      <trkpt lat="45.61236" lon="6.12435">
        <ele>1386.8000488281</ele>
        <time>2021-01-16T09:13:25.000Z</time>
      </trkpt>
      <trkpt lat="45.61236" lon="6.12435">
        <ele>1386.5999755859</ele>
        <time>2021-01-16T09:13:40.000Z</time>
      </trkpt>
      <trkpt lat="45.61236" lon="6.12434">
        <ele>1384.5999755859</ele>
        <time>2021-01-16T09:13:53.000Z</time>
      </trkpt>
      <trkpt lat="45.61236" lon="6.12434">
        <ele>1383.1999511719</ele>
        <time>2021-01-16T09:13:54.000Z</time>
      </trkpt>
      <trkpt lat="45.61236" lon="6.12431">
        <ele>1384.4000244141</ele>
        <time>2021-01-16T09:13:59.000Z</time>
      </trkpt>
      <trkpt lat="45.61236" lon="6.12431">
        <ele>1386</ele>
        <time>2021-01-16T09:14:01.000Z</time>
      </trkpt>
      <trkpt lat="45.61236" lon="6.12431">
        <ele>1387.5999755859</ele>
        <time>2021-01-16T09:14:03.000Z</time>
      </trkpt>
      <trkpt lat="45.61236" lon="6.12431">
        <ele>1389.4000244141</ele>
        <time>2021-01-16T09:14:04.000Z</time>
      </trkpt>
      <trkpt lat="45.61236" lon="6.12431">
        <ele>1390.8000488281</ele>
        <time>2021-01-16T09:14:06.000Z</time>
      </trkpt>
      <trkpt lat="45.61236" lon="6.12431">
        <ele>1391</ele>
        <time>2021-01-16T09:14:07.000Z</time>
      </trkpt>
      <trkpt lat="45.61236" lon="6.12431">
        <ele>1388.8000488281</ele>
        <time>2021-01-16T09:14:09.000Z</time>
      </trkpt>
      <trkpt lat="45.61236" lon="6.12431">
        <ele>1387.4000244141</ele>
        <time>2021-01-16T09:14:11.000Z</time>
      </trkpt>
      <trkpt lat="45.61236" lon="6.12431">
        <ele>1386.4000244141</ele>
        <time>2021-01-16T09:14:21.000Z</time>
      </trkpt>
      <trkpt lat="45.61236" lon="6.12431">
        <ele>1386.5999755859</ele>
        <time>2021-01-16T09:14:34.000Z</time>
      </trkpt>
      <trkpt lat="45.61236" lon="6.12431">
        <ele>1386.4000244141</ele>
        <time>2021-01-16T09:14:37.000Z</time>
      </trkpt>
      <trkpt lat="45.61236" lon="6.12432">
        <ele>1386.5999755859</ele>
        <time>2021-01-16T09:14:47.000Z</time>
      </trkpt>
      <trkpt lat="45.61238" lon="6.12432">
        <ele>1386.5999755859</ele>
        <time>2021-01-16T09:15:00.000Z</time>
      </trkpt>
      <trkpt lat="45.61238" lon="6.12432">
        <ele>1386.8000488281</ele>
        <time>2021-01-16T09:15:09.000Z</time>
      </trkpt>
      <trkpt lat="45.61234" lon="6.12438">
        <ele>1386.4000244141</ele>
        <time>2021-01-16T09:15:18.000Z</time>
      </trkpt>
      <trkpt lat="45.61235" lon="6.12437">
        <ele>1386.5999755859</ele>
        <time>2021-01-16T09:15:26.000Z</time>
      </trkpt>
      <trkpt lat="45.61235" lon="6.12437">
        <ele>1386.4000244141</ele>
        <time>2021-01-16T09:15:34.000Z</time>
      </trkpt>
      <trkpt lat="45.61235" lon="6.12437">
        <ele>1385</ele>
        <time>2021-01-16T09:15:40.000Z</time>
      </trkpt>
      <trkpt lat="45.61236" lon="6.12436">
        <ele>1384</ele>
        <time>2021-01-16T09:15:42.000Z</time>
      </trkpt>
      <trkpt lat="45.61236" lon="6.12435">
        <ele>1386.4000244141</ele>
        <time>2021-01-16T09:15:45.000Z</time>
      </trkpt>
      <trkpt lat="45.61236" lon="6.12435">
        <ele>1387.5999755859</ele>
        <time>2021-01-16T09:15:46.000Z</time>
      </trkpt>
      <trkpt lat="45.61236" lon="6.12435">
        <ele>1389</ele>
        <time>2021-01-16T09:15:47.000Z</time>
      </trkpt>
      <trkpt lat="45.61236" lon="6.12435">
        <ele>1387.8000488281</ele>
        <time>2021-01-16T09:15:49.000Z</time>
      </trkpt>
      <trkpt lat="45.61236" lon="6.12435">
        <ele>1386.4000244141</ele>
        <time>2021-01-16T09:15:51.000Z</time>
      </trkpt>
      <trkpt lat="45.61236" lon="6.12435">
        <ele>1386.4000244141</ele>
        <time>2021-01-16T09:15:54.000Z</time>
      </trkpt>
      <trkpt lat="45.61236" lon="6.12435">
        <ele>1387.4000244141</ele>
        <time>2021-01-16T09:15:57.000Z</time>
      </trkpt>
      <trkpt lat="45.61233" lon="6.12436">
        <ele>1386.4000244141</ele>
        <time>2021-01-16T09:16:01.000Z</time>
      </trkpt>
      <trkpt lat="45.61233" lon="6.12436">
        <ele>1386</ele>
        <time>2021-01-16T09:16:02.000Z</time>
      </trkpt>
      <trkpt lat="45.61233" lon="6.12436">
        <ele>1385.1999511719</ele>
        <time>2021-01-16T09:16:05.000Z</time>
      </trkpt>
      <trkpt lat="45.61232" lon="6.12437">
        <ele>1387</ele>
        <time>2021-01-16T09:16:10.000Z</time>
      </trkpt>
      <trkpt lat="45.6123" lon="6.12436">
        <ele>1387.4000244141</ele>
        <time>2021-01-16T09:16:12.000Z</time>
      </trkpt>
      <trkpt lat="45.61221" lon="6.12433">
        <ele>1386</ele>
        <time>2021-01-16T09:16:21.000Z</time>
      </trkpt>
      <trkpt lat="45.6122" lon="6.12433">
        <ele>1386</ele>
        <time>2021-01-16T09:16:22.000Z</time>
      </trkpt>
      <trkpt lat="45.61213" lon="6.12428">
        <ele>1385.8000488281</ele>
        <time>2021-01-16T09:16:30.000Z</time>
      </trkpt>
      <trkpt lat="45.61205" lon="6.12423">
        <ele>1385.5999755859</ele>
        <time>2021-01-16T09:16:38.000Z</time>
      </trkpt>
      <trkpt lat="45.61195" lon="6.1242">
        <ele>1385.5999755859</ele>
        <time>2021-01-16T09:16:47.000Z</time>
      </trkpt>
      <trkpt lat="45.61185" lon="6.12414">
        <ele>1386</ele>
        <time>2021-01-16T09:16:55.000Z</time>
      </trkpt>
      <trkpt lat="45.61176" lon="6.12407">
        <ele>1385.8000488281</ele>
        <time>2021-01-16T09:17:03.000Z</time>
      </trkpt>
      <trkpt lat="45.61166" lon="6.124">
        <ele>1386.8000488281</ele>
        <time>2021-01-16T09:17:12.000Z</time>
      </trkpt>
      <trkpt lat="45.61164" lon="6.124">
        <ele>1387</ele>
        <time>2021-01-16T09:17:15.000Z</time>
      </trkpt>
      <trkpt lat="45.61159" lon="6.12395">
        <ele>1387.4000244141</ele>
        <time>2021-01-16T09:17:21.000Z</time>
      </trkpt>
      <trkpt lat="45.61154" lon="6.12395">
        <ele>1388</ele>
        <time>2021-01-16T09:17:28.000Z</time>
      </trkpt>
      <trkpt lat="45.61153" lon="6.12395">
        <ele>1388.1999511719</ele>
        <time>2021-01-16T09:17:29.000Z</time>
      </trkpt>
      <trkpt lat="45.61153" lon="6.12395">
        <ele>1387</ele>
        <time>2021-01-16T09:17:41.000Z</time>
      </trkpt>
      <trkpt lat="45.61152" lon="6.12395">
        <ele>1388</ele>
        <time>2021-01-16T09:17:45.000Z</time>
      </trkpt>
      <trkpt lat="45.61151" lon="6.12393">
        <ele>1388.5999755859</ele>
        <time>2021-01-16T09:17:47.000Z</time>
      </trkpt>
      <trkpt lat="45.6115" lon="6.12393">
        <ele>1388.5999755859</ele>
        <time>2021-01-16T09:17:51.000Z</time>
      </trkpt>
      <trkpt lat="45.6115" lon="6.12393">
        <ele>1388.5999755859</ele>
        <time>2021-01-16T09:17:52.000Z</time>
      </trkpt>
      <trkpt lat="45.6115" lon="6.12393">
        <ele>1388.8000488281</ele>
        <time>2021-01-16T09:18:02.000Z</time>
      </trkpt>
      <trkpt lat="45.61147" lon="6.1239">
        <ele>1389</ele>
        <time>2021-01-16T09:18:10.000Z</time>
      </trkpt>
      <trkpt lat="45.61144" lon="6.12388">
        <ele>1389.8000488281</ele>
        <time>2021-01-16T09:18:19.000Z</time>
      </trkpt>
      <trkpt lat="45.61143" lon="6.12388">
        <ele>1389.5999755859</ele>
        <time>2021-01-16T09:18:36.000Z</time>
      </trkpt>
      <trkpt lat="45.61136" lon="6.12382">
        <ele>1389.5999755859</ele>
        <time>2021-01-16T09:18:43.000Z</time>
      </trkpt>
      <trkpt lat="45.61126" lon="6.12377">
        <ele>1389.8000488281</ele>
        <time>2021-01-16T09:18:53.000Z</time>
      </trkpt>
      <trkpt lat="45.61121" lon="6.12376">
        <ele>1390</ele>
        <time>2021-01-16T09:18:56.000Z</time>
      </trkpt>
      <trkpt lat="45.61112" lon="6.12378">
        <ele>1390.1999511719</ele>
        <time>2021-01-16T09:19:01.000Z</time>
      </trkpt>
      <trkpt lat="45.61102" lon="6.12383">
        <ele>1389</ele>
        <time>2021-01-16T09:19:09.000Z</time>
      </trkpt>
      <trkpt lat="45.61097" lon="6.1238">
        <ele>1388.4000244141</ele>
        <time>2021-01-16T09:19:15.000Z</time>
      </trkpt>
      <trkpt lat="45.61091" lon="6.12378">
        <ele>1387.8000488281</ele>
        <time>2021-01-16T09:19:19.000Z</time>
      </trkpt>
      <trkpt lat="45.61086" lon="6.12378">
        <ele>1387.4000244141</ele>
        <time>2021-01-16T09:19:22.000Z</time>
      </trkpt>
      <trkpt lat="45.61082" lon="6.12377">
        <ele>1386.8000488281</ele>
        <time>2021-01-16T09:19:24.000Z</time>
      </trkpt>
      <trkpt lat="45.61069" lon="6.12374">
        <ele>1385.4000244141</ele>
        <time>2021-01-16T09:19:29.000Z</time>
      </trkpt>
      <trkpt lat="45.61065" lon="6.12374">
        <ele>1385</ele>
        <time>2021-01-16T09:19:31.000Z</time>
      </trkpt>
      <trkpt lat="45.61062" lon="6.12373">
        <ele>1384.1999511719</ele>
        <time>2021-01-16T09:19:33.000Z</time>
      </trkpt>
      <trkpt lat="45.61052" lon="6.12373">
        <ele>1383.5999755859</ele>
        <time>2021-01-16T09:19:39.000Z</time>
      </trkpt>
      <trkpt lat="45.61038" lon="6.12375">
        <ele>1383</ele>
        <time>2021-01-16T09:19:47.000Z</time>
      </trkpt>
      <trkpt lat="45.61037" lon="6.12375">
        <ele>1382.8000488281</ele>
        <time>2021-01-16T09:19:48.000Z</time>
      </trkpt>
      <trkpt lat="45.61034" lon="6.12374">
        <ele>1381.8000488281</ele>
        <time>2021-01-16T09:19:51.000Z</time>
      </trkpt>
      <trkpt lat="45.61027" lon="6.12375">
        <ele>1382.5999755859</ele>
        <time>2021-01-16T09:19:56.000Z</time>
      </trkpt>
      <trkpt lat="45.61017" lon="6.12376">
        <ele>1383.1999511719</ele>
        <time>2021-01-16T09:20:04.000Z</time>
      </trkpt>
      <trkpt lat="45.61016" lon="6.12376">
        <ele>1383.4000244141</ele>
        <time>2021-01-16T09:20:05.000Z</time>
      </trkpt>
      <trkpt lat="45.61003" lon="6.12381">
        <ele>1382.4000244141</ele>
        <time>2021-01-16T09:20:13.000Z</time>
      </trkpt>
      <trkpt lat="45.60998" lon="6.12379">
        <ele>1382.1999511719</ele>
        <time>2021-01-16T09:20:16.000Z</time>
      </trkpt>
      <trkpt lat="45.60997" lon="6.12377">
        <ele>1381.8000488281</ele>
        <time>2021-01-16T09:20:17.000Z</time>
      </trkpt>
      <trkpt lat="45.60994" lon="6.12375">
        <ele>1380.5999755859</ele>
        <time>2021-01-16T09:20:19.000Z</time>
      </trkpt>
      <trkpt lat="45.6099" lon="6.12372">
        <ele>1379.8000488281</ele>
        <time>2021-01-16T09:20:21.000Z</time>
      </trkpt>
      <trkpt lat="45.60987" lon="6.1237">
        <ele>1379.1999511719</ele>
        <time>2021-01-16T09:20:23.000Z</time>
      </trkpt>
      <trkpt lat="45.60983" lon="6.12366">
        <ele>1378</ele>
        <time>2021-01-16T09:20:26.000Z</time>
      </trkpt>
      <trkpt lat="45.60979" lon="6.12363">
        <ele>1377.5999755859</ele>
        <time>2021-01-16T09:20:29.000Z</time>
      </trkpt>
      <trkpt lat="45.60973" lon="6.12358">
        <ele>1377</ele>
        <time>2021-01-16T09:20:34.000Z</time>
      </trkpt>
      <trkpt lat="45.60968" lon="6.12353">
        <ele>1376.5999755859</ele>
        <time>2021-01-16T09:20:38.000Z</time>
      </trkpt>
      <trkpt lat="45.60963" lon="6.1235">
        <ele>1376</ele>
        <time>2021-01-16T09:20:41.000Z</time>
      </trkpt>
      <trkpt lat="45.60957" lon="6.12349">
        <ele>1374.8000488281</ele>
        <time>2021-01-16T09:20:46.000Z</time>
      </trkpt>
      <trkpt lat="45.60956" lon="6.12348">
        <ele>1374.5999755859</ele>
        <time>2021-01-16T09:20:47.000Z</time>
      </trkpt>
      <trkpt lat="45.60947" lon="6.12335">
        <ele>1374.5999755859</ele>
        <time>2021-01-16T09:20:55.000Z</time>
      </trkpt>
      <trkpt lat="45.60939" lon="6.12333">
        <ele>1374.1999511719</ele>
        <time>2021-01-16T09:21:02.000Z</time>
      </trkpt>
      <trkpt lat="45.60932" lon="6.12332">
        <ele>1374.8000488281</ele>
        <time>2021-01-16T09:21:11.000Z</time>
      </trkpt>
      <trkpt lat="45.60929" lon="6.12328">
        <ele>1374.8000488281</ele>
        <time>2021-01-16T09:21:20.000Z</time>
      </trkpt>
      <trkpt lat="45.60921" lon="6.12323">
        <ele>1373.8000488281</ele>
        <time>2021-01-16T09:21:25.000Z</time>
      </trkpt>
      <trkpt lat="45.60916" lon="6.12323">
        <ele>1373.4000244141</ele>
        <time>2021-01-16T09:21:28.000Z</time>
      </trkpt>
      <trkpt lat="45.60913" lon="6.12323">
        <ele>1372.8000488281</ele>
        <time>2021-01-16T09:21:30.000Z</time>
      </trkpt>
      <trkpt lat="45.60906" lon="6.12322">
        <ele>1371.5999755859</ele>
        <time>2021-01-16T09:21:34.000Z</time>
      </trkpt>
      <trkpt lat="45.60897" lon="6.12319">
        <ele>1371.1999511719</ele>
        <time>2021-01-16T09:21:38.000Z</time>
      </trkpt>
      <trkpt lat="45.60889" lon="6.12315">
        <ele>1370.5999755859</ele>
        <time>2021-01-16T09:21:42.000Z</time>
      </trkpt>
      <trkpt lat="45.60886" lon="6.1231">
        <ele>1369.8000488281</ele>
        <time>2021-01-16T09:21:44.000Z</time>
      </trkpt>
      <trkpt lat="45.60885" lon="6.12307">
        <ele>1369.1999511719</ele>
        <time>2021-01-16T09:21:45.000Z</time>
      </trkpt>
      <trkpt lat="45.60882" lon="6.12303">
        <ele>1368</ele>
        <time>2021-01-16T09:21:47.000Z</time>
      </trkpt>
      <trkpt lat="45.60879" lon="6.12299">
        <ele>1366.5999755859</ele>
        <time>2021-01-16T09:21:49.000Z</time>
      </trkpt>
      <trkpt lat="45.60876" lon="6.12291">
        <ele>1365.5999755859</ele>
        <time>2021-01-16T09:21:52.000Z</time>
      </trkpt>
      <trkpt lat="45.60876" lon="6.1229">
        <ele>1365.4000244141</ele>
        <time>2021-01-16T09:21:53.000Z</time>
      </trkpt>
      <trkpt lat="45.60865" lon="6.12281">
        <ele>1366.4000244141</ele>
        <time>2021-01-16T09:22:01.000Z</time>
      </trkpt>
      <trkpt lat="45.60864" lon="6.1228">
        <ele>1366.8000488281</ele>
        <time>2021-01-16T09:22:02.000Z</time>
      </trkpt>
      <trkpt lat="45.60854" lon="6.12277">
        <ele>1367.5999755859</ele>
        <time>2021-01-16T09:22:10.000Z</time>
      </trkpt>
      <trkpt lat="45.60851" lon="6.12275">
        <ele>1367.8000488281</ele>
        <time>2021-01-16T09:22:12.000Z</time>
      </trkpt>
      <trkpt lat="45.60841" lon="6.12274">
        <ele>1368</ele>
        <time>2021-01-16T09:22:18.000Z</time>
      </trkpt>
      <trkpt lat="45.60837" lon="6.12272">
        <ele>1368.4000244141</ele>
        <time>2021-01-16T09:22:21.000Z</time>
      </trkpt>
      <trkpt lat="45.60835" lon="6.12272">
        <ele>1368.8000488281</ele>
        <time>2021-01-16T09:22:22.000Z</time>
      </trkpt>
      <trkpt lat="45.60825" lon="6.12266">
        <ele>1369</ele>
        <time>2021-01-16T09:22:28.000Z</time>
      </trkpt>
      <trkpt lat="45.60815" lon="6.1226">
        <ele>1367.8000488281</ele>
        <time>2021-01-16T09:22:35.000Z</time>
      </trkpt>
      <trkpt lat="45.60814" lon="6.1226">
        <ele>1367.4000244141</ele>
        <time>2021-01-16T09:22:36.000Z</time>
      </trkpt>
      <trkpt lat="45.60814" lon="6.1226">
        <ele>1366.5999755859</ele>
        <time>2021-01-16T09:22:38.000Z</time>
      </trkpt>
      <trkpt lat="45.60814" lon="6.12259">
        <ele>1365.8000488281</ele>
        <time>2021-01-16T09:22:44.000Z</time>
      </trkpt>
      <trkpt lat="45.60812" lon="6.12256">
        <ele>1365.5999755859</ele>
        <time>2021-01-16T09:22:51.000Z</time>
      </trkpt>
      <trkpt lat="45.6081" lon="6.12253">
        <ele>1365.1999511719</ele>
        <time>2021-01-16T09:22:54.000Z</time>
      </trkpt>
      <trkpt lat="45.60804" lon="6.12248">
        <ele>1364.4000244141</ele>
        <time>2021-01-16T09:22:59.000Z</time>
      </trkpt>
      <trkpt lat="45.60802" lon="6.12246">
        <ele>1363.1999511719</ele>
        <time>2021-01-16T09:23:01.000Z</time>
      </trkpt>
      <trkpt lat="45.60801" lon="6.12244">
        <ele>1362.8000488281</ele>
        <time>2021-01-16T09:23:02.000Z</time>
      </trkpt>
      <trkpt lat="45.60797" lon="6.1224">
        <ele>1364.5999755859</ele>
        <time>2021-01-16T09:23:07.000Z</time>
      </trkpt>
      <trkpt lat="45.60796" lon="6.12239">
        <ele>1362.8000488281</ele>
        <time>2021-01-16T09:23:10.000Z</time>
      </trkpt>
      <trkpt lat="45.60794" lon="6.12237">
        <ele>1361.8000488281</ele>
        <time>2021-01-16T09:23:16.000Z</time>
      </trkpt>
      <trkpt lat="45.60794" lon="6.12237">
        <ele>1361.4000244141</ele>
        <time>2021-01-16T09:23:18.000Z</time>
      </trkpt>
      <trkpt lat="45.60792" lon="6.12231">
        <ele>1360.5999755859</ele>
        <time>2021-01-16T09:23:23.000Z</time>
      </trkpt>
      <trkpt lat="45.60791" lon="6.12228">
        <ele>1360.5999755859</ele>
        <time>2021-01-16T09:23:24.000Z</time>
      </trkpt>
      <trkpt lat="45.60789" lon="6.12225">
        <ele>1360.8000488281</ele>
        <time>2021-01-16T09:23:26.000Z</time>
      </trkpt>
      <trkpt lat="45.60787" lon="6.1222">
        <ele>1361.5999755859</ele>
        <time>2021-01-16T09:23:28.000Z</time>
      </trkpt>
      <trkpt lat="45.60783" lon="6.12212">
        <ele>1360.5999755859</ele>
        <time>2021-01-16T09:23:31.000Z</time>
      </trkpt>
      <trkpt lat="45.60781" lon="6.12207">
        <ele>1359.1999511719</ele>
        <time>2021-01-16T09:23:33.000Z</time>
      </trkpt>
      <trkpt lat="45.6078" lon="6.12205">
        <ele>1358.4000244141</ele>
        <time>2021-01-16T09:23:34.000Z</time>
      </trkpt>
      <trkpt lat="45.60779" lon="6.12204">
        <ele>1358</ele>
        <time>2021-01-16T09:23:35.000Z</time>
      </trkpt>
      <trkpt lat="45.60771" lon="6.12201">
        <ele>1356.8000488281</ele>
        <time>2021-01-16T09:23:40.000Z</time>
      </trkpt>
      <trkpt lat="45.60769" lon="6.12199">
        <ele>1355.8000488281</ele>
        <time>2021-01-16T09:23:42.000Z</time>
      </trkpt>
      <trkpt lat="45.60767" lon="6.12198">
        <ele>1354.4000244141</ele>
        <time>2021-01-16T09:23:45.000Z</time>
      </trkpt>
      <trkpt lat="45.60766" lon="6.12196">
        <ele>1354.1999511719</ele>
        <time>2021-01-16T09:23:47.000Z</time>
      </trkpt>
      <trkpt lat="45.60757" lon="6.12189">
        <ele>1353.8000488281</ele>
        <time>2021-01-16T09:23:57.000Z</time>
      </trkpt>
      <trkpt lat="45.60756" lon="6.12189">
        <ele>1353.1999511719</ele>
        <time>2021-01-16T09:23:58.000Z</time>
      </trkpt>
      <trkpt lat="45.60741" lon="6.12182">
        <ele>1352.1999511719</ele>
        <time>2021-01-16T09:24:06.000Z</time>
      </trkpt>
      <trkpt lat="45.60738" lon="6.1218">
        <ele>1351</ele>
        <time>2021-01-16T09:24:09.000Z</time>
      </trkpt>
      <trkpt lat="45.60735" lon="6.12176">
        <ele>1350</ele>
        <time>2021-01-16T09:24:13.000Z</time>
      </trkpt>
      <trkpt lat="45.60733" lon="6.12175">
        <ele>1349.8000488281</ele>
        <time>2021-01-16T09:24:14.000Z</time>
      </trkpt>
      <trkpt lat="45.60728" lon="6.12172">
        <ele>1349.1999511719</ele>
        <time>2021-01-16T09:24:22.000Z</time>
      </trkpt>
      <trkpt lat="45.60726" lon="6.12168">
        <ele>1349.1999511719</ele>
        <time>2021-01-16T09:24:31.000Z</time>
      </trkpt>
      <trkpt lat="45.6072" lon="6.12158">
        <ele>1350.4000244141</ele>
        <time>2021-01-16T09:24:41.000Z</time>
      </trkpt>
      <trkpt lat="45.60718" lon="6.12157">
        <ele>1349.8000488281</ele>
        <time>2021-01-16T09:24:50.000Z</time>
      </trkpt>
      <trkpt lat="45.60706" lon="6.12156">
        <ele>1350.4000244141</ele>
        <time>2021-01-16T09:25:00.000Z</time>
      </trkpt>
      <trkpt lat="45.60696" lon="6.12146">
        <ele>1351</ele>
        <time>2021-01-16T09:25:11.000Z</time>
      </trkpt>
      <trkpt lat="45.60693" lon="6.12146">
        <ele>1351.4000244141</ele>
        <time>2021-01-16T09:25:13.000Z</time>
      </trkpt>
      <trkpt lat="45.60689" lon="6.12145">
        <ele>1352.1999511719</ele>
        <time>2021-01-16T09:25:17.000Z</time>
      </trkpt>
      <trkpt lat="45.60683" lon="6.12146">
        <ele>1352.5999755859</ele>
        <time>2021-01-16T09:25:22.000Z</time>
      </trkpt>
      <trkpt lat="45.60673" lon="6.12143">
        <ele>1353</ele>
        <time>2021-01-16T09:25:32.000Z</time>
      </trkpt>
      <trkpt lat="45.6067" lon="6.12141">
        <ele>1353.4000244141</ele>
        <time>2021-01-16T09:25:35.000Z</time>
      </trkpt>
      <trkpt lat="45.60665" lon="6.12137">
        <ele>1354.1999511719</ele>
        <time>2021-01-16T09:25:41.000Z</time>
      </trkpt>
      <trkpt lat="45.60664" lon="6.12135">
        <ele>1354.4000244141</ele>
        <time>2021-01-16T09:25:42.000Z</time>
      </trkpt>
      <trkpt lat="45.60654" lon="6.12128">
        <ele>1355</ele>
        <time>2021-01-16T09:25:50.000Z</time>
      </trkpt>
      <trkpt lat="45.60649" lon="6.12124">
        <ele>1355.4000244141</ele>
        <time>2021-01-16T09:25:56.000Z</time>
      </trkpt>
      <trkpt lat="45.60646" lon="6.12122">
        <ele>1355.5999755859</ele>
        <time>2021-01-16T09:25:58.000Z</time>
      </trkpt>
      <trkpt lat="45.60634" lon="6.12117">
        <ele>1356</ele>
        <time>2021-01-16T09:26:08.000Z</time>
      </trkpt>
      <trkpt lat="45.60628" lon="6.12115">
        <ele>1356.4000244141</ele>
        <time>2021-01-16T09:26:14.000Z</time>
      </trkpt>
      <trkpt lat="45.60627" lon="6.12113">
        <ele>1356.5999755859</ele>
        <time>2021-01-16T09:26:16.000Z</time>
      </trkpt>
      <trkpt lat="45.60616" lon="6.12106">
        <ele>1357.1999511719</ele>
        <time>2021-01-16T09:26:26.000Z</time>
      </trkpt>
      <trkpt lat="45.60612" lon="6.12104">
        <ele>1357.4000244141</ele>
        <time>2021-01-16T09:26:29.000Z</time>
      </trkpt>
      <trkpt lat="45.60602" lon="6.12099">
        <ele>1357.8000488281</ele>
        <time>2021-01-16T09:26:36.000Z</time>
      </trkpt>
      <trkpt lat="45.60592" lon="6.12091">
        <ele>1357</ele>
        <time>2021-01-16T09:26:44.000Z</time>
      </trkpt>
      <trkpt lat="45.60584" lon="6.12083">
        <ele>1357.8000488281</ele>
        <time>2021-01-16T09:26:54.000Z</time>
      </trkpt>
      <trkpt lat="45.60581" lon="6.1208">
        <ele>1358.5999755859</ele>
        <time>2021-01-16T09:26:58.000Z</time>
      </trkpt>
      <trkpt lat="45.60577" lon="6.12078">
        <ele>1358.8000488281</ele>
        <time>2021-01-16T09:27:02.000Z</time>
      </trkpt>
      <trkpt lat="45.60568" lon="6.1207">
        <ele>1359.4000244141</ele>
        <time>2021-01-16T09:27:09.000Z</time>
      </trkpt>
      <trkpt lat="45.60559" lon="6.12063">
        <ele>1359.1999511719</ele>
        <time>2021-01-16T09:27:18.000Z</time>
      </trkpt>
      <trkpt lat="45.60553" lon="6.12057">
        <ele>1359</ele>
        <time>2021-01-16T09:27:26.000Z</time>
      </trkpt>
      <trkpt lat="45.60544" lon="6.12055">
        <ele>1358.5999755859</ele>
        <time>2021-01-16T09:27:35.000Z</time>
      </trkpt>
      <trkpt lat="45.60539" lon="6.12057">
        <ele>1359.8000488281</ele>
        <time>2021-01-16T09:27:42.000Z</time>
      </trkpt>
      <trkpt lat="45.60539" lon="6.12057">
        <ele>1360.1999511719</ele>
        <time>2021-01-16T09:27:43.000Z</time>
      </trkpt>
      <trkpt lat="45.60536" lon="6.12058">
        <ele>1360.8000488281</ele>
        <time>2021-01-16T09:27:47.000Z</time>
      </trkpt>
      <trkpt lat="45.60534" lon="6.1206">
        <ele>1361</ele>
        <time>2021-01-16T09:27:50.000Z</time>
      </trkpt>
      <trkpt lat="45.60535" lon="6.12065">
        <ele>1362</ele>
        <time>2021-01-16T09:27:54.000Z</time>
      </trkpt>
      <trkpt lat="45.60535" lon="6.12068">
        <ele>1362.5999755859</ele>
        <time>2021-01-16T09:27:57.000Z</time>
      </trkpt>
      <trkpt lat="45.60534" lon="6.1207">
        <ele>1363.1999511719</ele>
        <time>2021-01-16T09:27:59.000Z</time>
      </trkpt>
      <trkpt lat="45.60529" lon="6.1207">
        <ele>1363.8000488281</ele>
        <time>2021-01-16T09:28:03.000Z</time>
      </trkpt>
      <trkpt lat="45.60522" lon="6.12069">
        <ele>1364</ele>
        <time>2021-01-16T09:28:10.000Z</time>
      </trkpt>
      <trkpt lat="45.60513" lon="6.12067">
        <ele>1363.8000488281</ele>
        <time>2021-01-16T09:28:19.000Z</time>
      </trkpt>
      <trkpt lat="45.6051" lon="6.12066">
        <ele>1364.1999511719</ele>
        <time>2021-01-16T09:28:22.000Z</time>
      </trkpt>
      <trkpt lat="45.60505" lon="6.12064">
        <ele>1364.8000488281</ele>
        <time>2021-01-16T09:28:27.000Z</time>
      </trkpt>
      <trkpt lat="45.60502" lon="6.12062">
        <ele>1365.4000244141</ele>
        <time>2021-01-16T09:28:30.000Z</time>
      </trkpt>
      <trkpt lat="45.60497" lon="6.12058">
        <ele>1366</ele>
        <time>2021-01-16T09:28:34.000Z</time>
      </trkpt>
      <trkpt lat="45.6049" lon="6.12055">
        <ele>1366.4000244141</ele>
        <time>2021-01-16T09:28:40.000Z</time>
      </trkpt>
      <trkpt lat="45.60489" lon="6.12055">
        <ele>1366.5999755859</ele>
        <time>2021-01-16T09:28:42.000Z</time>
      </trkpt>
      <trkpt lat="45.60482" lon="6.12053">
        <ele>1367.1999511719</ele>
        <time>2021-01-16T09:28:50.000Z</time>
      </trkpt>
      <trkpt lat="45.60479" lon="6.12051">
        <ele>1367.4000244141</ele>
        <time>2021-01-16T09:28:54.000Z</time>
      </trkpt>
      <trkpt lat="45.60479" lon="6.1205">
        <ele>1367.4000244141</ele>
        <time>2021-01-16T09:28:57.000Z</time>
      </trkpt>
      <trkpt lat="45.60473" lon="6.12048">
        <ele>1367.1999511719</ele>
        <time>2021-01-16T09:29:03.000Z</time>
      </trkpt>
      <trkpt lat="45.60465" lon="6.12045">
        <ele>1367.5999755859</ele>
        <time>2021-01-16T09:29:09.000Z</time>
      </trkpt>
      <trkpt lat="45.60464" lon="6.12044">
        <ele>1367.5999755859</ele>
        <time>2021-01-16T09:29:10.000Z</time>
      </trkpt>
      <trkpt lat="45.60454" lon="6.12039">
        <ele>1367.8000488281</ele>
        <time>2021-01-16T09:29:17.000Z</time>
      </trkpt>
      <trkpt lat="45.60444" lon="6.12037">
        <ele>1367.4000244141</ele>
        <time>2021-01-16T09:29:24.000Z</time>
      </trkpt>
      <trkpt lat="45.60434" lon="6.12032">
        <ele>1367.5999755859</ele>
        <time>2021-01-16T09:29:31.000Z</time>
      </trkpt>
      <trkpt lat="45.60425" lon="6.12027">
        <ele>1367.5999755859</ele>
        <time>2021-01-16T09:29:38.000Z</time>
      </trkpt>
      <trkpt lat="45.60416" lon="6.12022">
        <ele>1368</ele>
        <time>2021-01-16T09:29:46.000Z</time>
      </trkpt>
      <trkpt lat="45.60412" lon="6.12021">
        <ele>1368.4000244141</ele>
        <time>2021-01-16T09:29:51.000Z</time>
      </trkpt>
      <trkpt lat="45.60408" lon="6.1202">
        <ele>1368.8000488281</ele>
        <time>2021-01-16T09:29:55.000Z</time>
      </trkpt>
      <trkpt lat="45.60398" lon="6.12015">
        <ele>1369.1999511719</ele>
        <time>2021-01-16T09:30:04.000Z</time>
      </trkpt>
      <trkpt lat="45.60395" lon="6.12014">
        <ele>1369.4000244141</ele>
        <time>2021-01-16T09:30:07.000Z</time>
      </trkpt>
      <trkpt lat="45.60388" lon="6.12009">
        <ele>1370.1999511719</ele>
        <time>2021-01-16T09:30:14.000Z</time>
      </trkpt>
      <trkpt lat="45.60388" lon="6.12008">
        <ele>1370.5999755859</ele>
        <time>2021-01-16T09:30:15.000Z</time>
      </trkpt>
      <trkpt lat="45.60382" lon="6.12005">
        <ele>1371.8000488281</ele>
        <time>2021-01-16T09:30:22.000Z</time>
      </trkpt>
      <trkpt lat="45.6038" lon="6.12004">
        <ele>1372.1999511719</ele>
        <time>2021-01-16T09:30:24.000Z</time>
      </trkpt>
      <trkpt lat="45.60379" lon="6.12003">
        <ele>1372.8000488281</ele>
        <time>2021-01-16T09:30:26.000Z</time>
      </trkpt>
      <trkpt lat="45.60375" lon="6.12001">
        <ele>1374</ele>
        <time>2021-01-16T09:30:31.000Z</time>
      </trkpt>
      <trkpt lat="45.60373" lon="6.11999">
        <ele>1374</ele>
        <time>2021-01-16T09:30:34.000Z</time>
      </trkpt>
      <trkpt lat="45.60366" lon="6.11995">
        <ele>1374.8000488281</ele>
        <time>2021-01-16T09:30:42.000Z</time>
      </trkpt>
      <trkpt lat="45.60365" lon="6.11994">
        <ele>1375</ele>
        <time>2021-01-16T09:30:43.000Z</time>
      </trkpt>
      <trkpt lat="45.60358" lon="6.11993">
        <ele>1375.4000244141</ele>
        <time>2021-01-16T09:30:51.000Z</time>
      </trkpt>
      <trkpt lat="45.60355" lon="6.11992">
        <ele>1376</ele>
        <time>2021-01-16T09:30:54.000Z</time>
      </trkpt>
      <trkpt lat="45.6035" lon="6.11991">
        <ele>1376.5999755859</ele>
        <time>2021-01-16T09:31:01.000Z</time>
      </trkpt>
      <trkpt lat="45.60347" lon="6.11989">
        <ele>1377</ele>
        <time>2021-01-16T09:31:03.000Z</time>
      </trkpt>
      <trkpt lat="45.60339" lon="6.11984">
        <ele>1378.1999511719</ele>
        <time>2021-01-16T09:31:10.000Z</time>
      </trkpt>
      <trkpt lat="45.60338" lon="6.11983">
        <ele>1378.4000244141</ele>
        <time>2021-01-16T09:31:11.000Z</time>
      </trkpt>
      <trkpt lat="45.60328" lon="6.1198">
        <ele>1378.8000488281</ele>
        <time>2021-01-16T09:31:21.000Z</time>
      </trkpt>
      <trkpt lat="45.60326" lon="6.11977">
        <ele>1379.4000244141</ele>
        <time>2021-01-16T09:31:24.000Z</time>
      </trkpt>
      <trkpt lat="45.60324" lon="6.11975">
        <ele>1380.4000244141</ele>
        <time>2021-01-16T09:31:29.000Z</time>
      </trkpt>
      <trkpt lat="45.60324" lon="6.11975">
        <ele>1381.1999511719</ele>
        <time>2021-01-16T09:31:33.000Z</time>
      </trkpt>
      <trkpt lat="45.60322" lon="6.11976">
        <ele>1381.5999755859</ele>
        <time>2021-01-16T09:31:35.000Z</time>
      </trkpt>
      <trkpt lat="45.6032" lon="6.1198">
        <ele>1381.5999755859</ele>
        <time>2021-01-16T09:31:40.000Z</time>
      </trkpt>
      <trkpt lat="45.60315" lon="6.11983">
        <ele>1380.8000488281</ele>
        <time>2021-01-16T09:31:49.000Z</time>
      </trkpt>
      <trkpt lat="45.60315" lon="6.11983">
        <ele>1381</ele>
        <time>2021-01-16T09:32:00.000Z</time>
      </trkpt>
      <trkpt lat="45.60315" lon="6.11983">
        <ele>1381.1999511719</ele>
        <time>2021-01-16T09:32:12.000Z</time>
      </trkpt>
      <trkpt lat="45.60314" lon="6.11981">
        <ele>1380.5999755859</ele>
        <time>2021-01-16T09:32:22.000Z</time>
      </trkpt>
      <trkpt lat="45.60313" lon="6.1198">
        <ele>1379.1999511719</ele>
        <time>2021-01-16T09:32:24.000Z</time>
      </trkpt>
      <trkpt lat="45.60311" lon="6.11978">
        <ele>1380.4000244141</ele>
        <time>2021-01-16T09:32:29.000Z</time>
      </trkpt>
      <trkpt lat="45.60308" lon="6.11973">
        <ele>1381.8000488281</ele>
        <time>2021-01-16T09:32:37.000Z</time>
      </trkpt>
      <trkpt lat="45.60308" lon="6.11973">
        <ele>1382.4000244141</ele>
        <time>2021-01-16T09:32:38.000Z</time>
      </trkpt>
      <trkpt lat="45.60308" lon="6.11973">
        <ele>1382.8000488281</ele>
        <time>2021-01-16T09:32:40.000Z</time>
      </trkpt>
      <trkpt lat="45.60308" lon="6.11973">
        <ele>1381.5999755859</ele>
        <time>2021-01-16T09:32:44.000Z</time>
      </trkpt>
      <trkpt lat="45.60308" lon="6.11973">
        <ele>1381</ele>
        <time>2021-01-16T09:32:51.000Z</time>
      </trkpt>
      <trkpt lat="45.6031" lon="6.11976">
        <ele>1380.8000488281</ele>
        <time>2021-01-16T09:33:05.000Z</time>
      </trkpt>
      <trkpt lat="45.6031" lon="6.11976">
        <ele>1380.4000244141</ele>
        <time>2021-01-16T09:33:13.000Z</time>
      </trkpt>
      <trkpt lat="45.6031" lon="6.11976">
        <ele>1378.8000488281</ele>
        <time>2021-01-16T09:33:16.000Z</time>
      </trkpt>
      <trkpt lat="45.6031" lon="6.11976">
        <ele>1380.1999511719</ele>
        <time>2021-01-16T09:33:22.000Z</time>
      </trkpt>
      <trkpt lat="45.6031" lon="6.11976">
        <ele>1380.5999755859</ele>
        <time>2021-01-16T09:33:35.000Z</time>
      </trkpt>
      <trkpt lat="45.6031" lon="6.11976">
        <ele>1380.8000488281</ele>
        <time>2021-01-16T09:33:50.000Z</time>
      </trkpt>
      <trkpt lat="45.6031" lon="6.11976">
        <ele>1380.5999755859</ele>
        <time>2021-01-16T09:34:06.000Z</time>
      </trkpt>
      <trkpt lat="45.60311" lon="6.11977">
        <ele>1380.5999755859</ele>
        <time>2021-01-16T09:34:21.000Z</time>
      </trkpt>
      <trkpt lat="45.60311" lon="6.11977">
        <ele>1380.4000244141</ele>
        <time>2021-01-16T09:34:35.000Z</time>
      </trkpt>
      <trkpt lat="45.60311" lon="6.11977">
        <ele>1380.5999755859</ele>
        <time>2021-01-16T09:34:50.000Z</time>
      </trkpt>
      <trkpt lat="45.60311" lon="6.11977">
        <ele>1381.4000244141</ele>
        <time>2021-01-16T09:34:54.000Z</time>
      </trkpt>
      <trkpt lat="45.60313" lon="6.11978">
        <ele>1381.1999511719</ele>
        <time>2021-01-16T09:35:03.000Z</time>
      </trkpt>
      <trkpt lat="45.60313" lon="6.11978">
        <ele>1380.8000488281</ele>
        <time>2021-01-16T09:35:15.000Z</time>
      </trkpt>
      <trkpt lat="45.60313" lon="6.11978">
        <ele>1380</ele>
        <time>2021-01-16T09:35:21.000Z</time>
      </trkpt>
      <trkpt lat="45.60313" lon="6.11978">
        <ele>1379.4000244141</ele>
        <time>2021-01-16T09:35:25.000Z</time>
      </trkpt>
      <trkpt lat="45.60313" lon="6.11978">
        <ele>1381.5999755859</ele>
        <time>2021-01-16T09:35:29.000Z</time>
      </trkpt>
      <trkpt lat="45.60313" lon="6.11978">
        <ele>1381</ele>
        <time>2021-01-16T09:35:36.000Z</time>
      </trkpt>
      <trkpt lat="45.60313" lon="6.11978">
        <ele>1380.5999755859</ele>
        <time>2021-01-16T09:35:42.000Z</time>
      </trkpt>
      <trkpt lat="45.60313" lon="6.11978">
        <ele>1381</ele>
        <time>2021-01-16T09:35:51.000Z</time>
      </trkpt>
      <trkpt lat="45.60313" lon="6.11978">
        <ele>1380.8000488281</ele>
        <time>2021-01-16T09:36:05.000Z</time>
      </trkpt>
      <trkpt lat="45.60313" lon="6.11978">
        <ele>1381</ele>
        <time>2021-01-16T09:36:16.000Z</time>
      </trkpt>
      <trkpt lat="45.60313" lon="6.11979">
        <ele>1381</ele>
        <time>2021-01-16T09:36:27.000Z</time>
      </trkpt>
      <trkpt lat="45.60313" lon="6.11979">
        <ele>1382</ele>
        <time>2021-01-16T09:36:29.000Z</time>
      </trkpt>
      <trkpt lat="45.60316" lon="6.11978">
        <ele>1381.1999511719</ele>
        <time>2021-01-16T09:36:36.000Z</time>
      </trkpt>
      <trkpt lat="45.60316" lon="6.11977">
        <ele>1380.8000488281</ele>
        <time>2021-01-16T09:36:37.000Z</time>
      </trkpt>
      <trkpt lat="45.60315" lon="6.11971">
        <ele>1381.5999755859</ele>
        <time>2021-01-16T09:36:43.000Z</time>
      </trkpt>
      <trkpt lat="45.60312" lon="6.11969">
        <ele>1382</ele>
        <time>2021-01-16T09:36:46.000Z</time>
      </trkpt>
      <trkpt lat="45.60309" lon="6.11966">
        <ele>1383</ele>
        <time>2021-01-16T09:36:50.000Z</time>
      </trkpt>
      <trkpt lat="45.60306" lon="6.11962">
        <ele>1384.5999755859</ele>
        <time>2021-01-16T09:36:54.000Z</time>
      </trkpt>
      <trkpt lat="45.60305" lon="6.11961">
        <ele>1385.1999511719</ele>
        <time>2021-01-16T09:36:55.000Z</time>
      </trkpt>
      <trkpt lat="45.60304" lon="6.11959">
        <ele>1385.8000488281</ele>
        <time>2021-01-16T09:36:56.000Z</time>
      </trkpt>
      <trkpt lat="45.60299" lon="6.11954">
        <ele>1386.8000488281</ele>
        <time>2021-01-16T09:37:02.000Z</time>
      </trkpt>
      <trkpt lat="45.60293" lon="6.1195">
        <ele>1388</ele>
        <time>2021-01-16T09:37:08.000Z</time>
      </trkpt>
      <trkpt lat="45.60292" lon="6.11949">
        <ele>1389</ele>
        <time>2021-01-16T09:37:10.000Z</time>
      </trkpt>
      <trkpt lat="45.60291" lon="6.11947">
        <ele>1390.1999511719</ele>
        <time>2021-01-16T09:37:12.000Z</time>
      </trkpt>
      <trkpt lat="45.60285" lon="6.1194">
        <ele>1391.1999511719</ele>
        <time>2021-01-16T09:37:19.000Z</time>
      </trkpt>
      <trkpt lat="45.60284" lon="6.11939">
        <ele>1391.4000244141</ele>
        <time>2021-01-16T09:37:20.000Z</time>
      </trkpt>
      <trkpt lat="45.60275" lon="6.11935">
        <ele>1392.4000244141</ele>
        <time>2021-01-16T09:37:27.000Z</time>
      </trkpt>
      <trkpt lat="45.60268" lon="6.11928">
        <ele>1393.5999755859</ele>
        <time>2021-01-16T09:37:33.000Z</time>
      </trkpt>
      <trkpt lat="45.60263" lon="6.11925">
        <ele>1393.8000488281</ele>
        <time>2021-01-16T09:37:38.000Z</time>
      </trkpt>
      <trkpt lat="45.60255" lon="6.11916">
        <ele>1393.8000488281</ele>
        <time>2021-01-16T09:37:46.000Z</time>
      </trkpt>
      <trkpt lat="45.60249" lon="6.11911">
        <ele>1394.5999755859</ele>
        <time>2021-01-16T09:37:55.000Z</time>
      </trkpt>
      <trkpt lat="45.60247" lon="6.1191">
        <ele>1394.8000488281</ele>
        <time>2021-01-16T09:37:56.000Z</time>
      </trkpt>
      <trkpt lat="45.60246" lon="6.11909">
        <ele>1395.5999755859</ele>
        <time>2021-01-16T09:37:59.000Z</time>
      </trkpt>
      <trkpt lat="45.6024" lon="6.11902">
        <ele>1396.4000244141</ele>
        <time>2021-01-16T09:38:04.000Z</time>
      </trkpt>
      <trkpt lat="45.60237" lon="6.11899">
        <ele>1396.5999755859</ele>
        <time>2021-01-16T09:38:06.000Z</time>
      </trkpt>
      <trkpt lat="45.60232" lon="6.11895">
        <ele>1397.8000488281</ele>
        <time>2021-01-16T09:38:10.000Z</time>
      </trkpt>
      <trkpt lat="45.6023" lon="6.11892">
        <ele>1398.1999511719</ele>
        <time>2021-01-16T09:38:12.000Z</time>
      </trkpt>
      <trkpt lat="45.60229" lon="6.1189">
        <ele>1399</ele>
        <time>2021-01-16T09:38:14.000Z</time>
      </trkpt>
      <trkpt lat="45.60225" lon="6.11885">
        <ele>1400</ele>
        <time>2021-01-16T09:38:20.000Z</time>
      </trkpt>
      <trkpt lat="45.60224" lon="6.1188">
        <ele>1400.5999755859</ele>
        <time>2021-01-16T09:38:24.000Z</time>
      </trkpt>
      <trkpt lat="45.60224" lon="6.11877">
        <ele>1401.1999511719</ele>
        <time>2021-01-16T09:38:26.000Z</time>
      </trkpt>
      <trkpt lat="45.60222" lon="6.11873">
        <ele>1402.1999511719</ele>
        <time>2021-01-16T09:38:29.000Z</time>
      </trkpt>
      <trkpt lat="45.60221" lon="6.11873">
        <ele>1403.4000244141</ele>
        <time>2021-01-16T09:38:34.000Z</time>
      </trkpt>
      <trkpt lat="45.60215" lon="6.1187">
        <ele>1404.4000244141</ele>
        <time>2021-01-16T09:38:41.000Z</time>
      </trkpt>
      <trkpt lat="45.60212" lon="6.11866">
        <ele>1405.5999755859</ele>
        <time>2021-01-16T09:38:45.000Z</time>
      </trkpt>
      <trkpt lat="45.6021" lon="6.11863">
        <ele>1407</ele>
        <time>2021-01-16T09:38:48.000Z</time>
      </trkpt>
      <trkpt lat="45.60207" lon="6.11859">
        <ele>1408.1999511719</ele>
        <time>2021-01-16T09:38:53.000Z</time>
      </trkpt>
      <trkpt lat="45.60207" lon="6.11859">
        <ele>1409</ele>
        <time>2021-01-16T09:38:56.000Z</time>
      </trkpt>
      <trkpt lat="45.60206" lon="6.11858">
        <ele>1409.4000244141</ele>
        <time>2021-01-16T09:38:58.000Z</time>
      </trkpt>
      <trkpt lat="45.60203" lon="6.11854">
        <ele>1410.4000244141</ele>
        <time>2021-01-16T09:39:01.000Z</time>
      </trkpt>
      <trkpt lat="45.60199" lon="6.11851">
        <ele>1411.5999755859</ele>
        <time>2021-01-16T09:39:05.000Z</time>
      </trkpt>
      <trkpt lat="45.60198" lon="6.11851">
        <ele>1411.5999755859</ele>
        <time>2021-01-16T09:39:06.000Z</time>
      </trkpt>
      <trkpt lat="45.60197" lon="6.11846">
        <ele>1412.8000488281</ele>
        <time>2021-01-16T09:39:11.000Z</time>
      </trkpt>
      <trkpt lat="45.60196" lon="6.11841">
        <ele>1414</ele>
        <time>2021-01-16T09:39:15.000Z</time>
      </trkpt>
      <trkpt lat="45.60194" lon="6.1184">
        <ele>1414.4000244141</ele>
        <time>2021-01-16T09:39:17.000Z</time>
      </trkpt>
      <trkpt lat="45.60189" lon="6.11838">
        <ele>1415.1999511719</ele>
        <time>2021-01-16T09:39:22.000Z</time>
      </trkpt>
      <trkpt lat="45.60186" lon="6.11837">
        <ele>1415.5999755859</ele>
        <time>2021-01-16T09:39:25.000Z</time>
      </trkpt>
      <trkpt lat="45.60182" lon="6.11832">
        <ele>1416.1999511719</ele>
        <time>2021-01-16T09:39:30.000Z</time>
      </trkpt>
      <trkpt lat="45.60179" lon="6.11828">
        <ele>1417.5999755859</ele>
        <time>2021-01-16T09:39:34.000Z</time>
      </trkpt>
      <trkpt lat="45.60176" lon="6.11824">
        <ele>1418.5999755859</ele>
        <time>2021-01-16T09:39:37.000Z</time>
      </trkpt>
      <trkpt lat="45.60166" lon="6.11813">
        <ele>1419.4000244141</ele>
        <time>2021-01-16T09:39:47.000Z</time>
      </trkpt>
      <trkpt lat="45.60163" lon="6.11809">
        <ele>1419.5999755859</ele>
        <time>2021-01-16T09:39:51.000Z</time>
      </trkpt>
      <trkpt lat="45.60161" lon="6.11803">
        <ele>1420.4000244141</ele>
        <time>2021-01-16T09:39:57.000Z</time>
      </trkpt>
      <trkpt lat="45.60157" lon="6.11798">
        <ele>1420.5999755859</ele>
        <time>2021-01-16T09:40:01.000Z</time>
      </trkpt>
      <trkpt lat="45.6015" lon="6.11793">
        <ele>1421</ele>
        <time>2021-01-16T09:40:07.000Z</time>
      </trkpt>
      <trkpt lat="45.60144" lon="6.1179">
        <ele>1421.8000488281</ele>
        <time>2021-01-16T09:40:13.000Z</time>
      </trkpt>
      <trkpt lat="45.60141" lon="6.11788">
        <ele>1422.4000244141</ele>
        <time>2021-01-16T09:40:16.000Z</time>
      </trkpt>
      <trkpt lat="45.60139" lon="6.11786">
        <ele>1423</ele>
        <time>2021-01-16T09:40:19.000Z</time>
      </trkpt>
      <trkpt lat="45.60139" lon="6.11781">
        <ele>1424.1999511719</ele>
        <time>2021-01-16T09:40:24.000Z</time>
      </trkpt>
      <trkpt lat="45.60138" lon="6.1178">
        <ele>1424.5999755859</ele>
        <time>2021-01-16T09:40:26.000Z</time>
      </trkpt>
      <trkpt lat="45.60136" lon="6.11777">
        <ele>1425.4000244141</ele>
        <time>2021-01-16T09:40:29.000Z</time>
      </trkpt>
      <trkpt lat="45.60134" lon="6.11773">
        <ele>1426.4000244141</ele>
        <time>2021-01-16T09:40:33.000Z</time>
      </trkpt>
      <trkpt lat="45.60133" lon="6.11769">
        <ele>1427</ele>
        <time>2021-01-16T09:40:37.000Z</time>
      </trkpt>
      <trkpt lat="45.60132" lon="6.11768">
        <ele>1427.4000244141</ele>
        <time>2021-01-16T09:40:38.000Z</time>
      </trkpt>
      <trkpt lat="45.60131" lon="6.11765">
        <ele>1428.5999755859</ele>
        <time>2021-01-16T09:40:42.000Z</time>
      </trkpt>
      <trkpt lat="45.60127" lon="6.11765">
        <ele>1429.1999511719</ele>
        <time>2021-01-16T09:40:44.000Z</time>
      </trkpt>
      <trkpt lat="45.60124" lon="6.11766">
        <ele>1429.8000488281</ele>
        <time>2021-01-16T09:40:48.000Z</time>
      </trkpt>
      <trkpt lat="45.60122" lon="6.11765">
        <ele>1430.4000244141</ele>
        <time>2021-01-16T09:40:50.000Z</time>
      </trkpt>
      <trkpt lat="45.60121" lon="6.11764">
        <ele>1431.1999511719</ele>
        <time>2021-01-16T09:40:52.000Z</time>
      </trkpt>
      <trkpt lat="45.6012" lon="6.11761">
        <ele>1432.1999511719</ele>
        <time>2021-01-16T09:40:56.000Z</time>
      </trkpt>
      <trkpt lat="45.6012" lon="6.11759">
        <ele>1432.8000488281</ele>
        <time>2021-01-16T09:40:58.000Z</time>
      </trkpt>
      <trkpt lat="45.6012" lon="6.11759">
        <ele>1433.1999511719</ele>
        <time>2021-01-16T09:40:59.000Z</time>
      </trkpt>
      <trkpt lat="45.60117" lon="6.11758">
        <ele>1434.1999511719</ele>
        <time>2021-01-16T09:41:08.000Z</time>
      </trkpt>
      <trkpt lat="45.60113" lon="6.11753">
        <ele>1436</ele>
        <time>2021-01-16T09:41:12.000Z</time>
      </trkpt>
      <trkpt lat="45.60108" lon="6.11751">
        <ele>1437</ele>
        <time>2021-01-16T09:41:16.000Z</time>
      </trkpt>
      <trkpt lat="45.60107" lon="6.1175">
        <ele>1437</ele>
        <time>2021-01-16T09:41:17.000Z</time>
      </trkpt>
      <trkpt lat="45.60101" lon="6.11745">
        <ele>1438.4000244141</ele>
        <time>2021-01-16T09:41:24.000Z</time>
      </trkpt>
      <trkpt lat="45.60099" lon="6.11742">
        <ele>1439.5999755859</ele>
        <time>2021-01-16T09:41:28.000Z</time>
      </trkpt>
      <trkpt lat="45.60095" lon="6.11742">
        <ele>1440.8000488281</ele>
        <time>2021-01-16T09:41:34.000Z</time>
      </trkpt>
      <trkpt lat="45.60094" lon="6.11742">
        <ele>1441.1999511719</ele>
        <time>2021-01-16T09:41:35.000Z</time>
      </trkpt>
      <trkpt lat="45.60092" lon="6.11743">
        <ele>1441.8000488281</ele>
        <time>2021-01-16T09:41:37.000Z</time>
      </trkpt>
      <trkpt lat="45.60089" lon="6.11744">
        <ele>1443</ele>
        <time>2021-01-16T09:41:41.000Z</time>
      </trkpt>
      <trkpt lat="45.60088" lon="6.11743">
        <ele>1443.8000488281</ele>
        <time>2021-01-16T09:41:43.000Z</time>
      </trkpt>
      <trkpt lat="45.60087" lon="6.11742">
        <ele>1444.1999511719</ele>
        <time>2021-01-16T09:41:45.000Z</time>
      </trkpt>
      <trkpt lat="45.60083" lon="6.11738">
        <ele>1445.4000244141</ele>
        <time>2021-01-16T09:41:52.000Z</time>
      </trkpt>
      <trkpt lat="45.60082" lon="6.11736">
        <ele>1446.5999755859</ele>
        <time>2021-01-16T09:41:55.000Z</time>
      </trkpt>
      <trkpt lat="45.6008" lon="6.11738">
        <ele>1447.5999755859</ele>
        <time>2021-01-16T09:42:00.000Z</time>
      </trkpt>
      <trkpt lat="45.60077" lon="6.11739">
        <ele>1448.5999755859</ele>
        <time>2021-01-16T09:42:03.000Z</time>
      </trkpt>
      <trkpt lat="45.60075" lon="6.11737">
        <ele>1449.4000244141</ele>
        <time>2021-01-16T09:42:08.000Z</time>
      </trkpt>
      <trkpt lat="45.60074" lon="6.11735">
        <ele>1449.8000488281</ele>
        <time>2021-01-16T09:42:10.000Z</time>
      </trkpt>
      <trkpt lat="45.60072" lon="6.11734">
        <ele>1451</ele>
        <time>2021-01-16T09:42:13.000Z</time>
      </trkpt>
      <trkpt lat="45.60069" lon="6.11733">
        <ele>1451.8000488281</ele>
        <time>2021-01-16T09:42:16.000Z</time>
      </trkpt>
      <trkpt lat="45.60066" lon="6.11732">
        <ele>1452.1999511719</ele>
        <time>2021-01-16T09:42:20.000Z</time>
      </trkpt>
      <trkpt lat="45.60063" lon="6.11731">
        <ele>1453.8000488281</ele>
        <time>2021-01-16T09:42:24.000Z</time>
      </trkpt>
      <trkpt lat="45.60062" lon="6.11731">
        <ele>1454.4000244141</ele>
        <time>2021-01-16T09:42:26.000Z</time>
      </trkpt>
      <trkpt lat="45.60059" lon="6.1173">
        <ele>1455</ele>
        <time>2021-01-16T09:42:30.000Z</time>
      </trkpt>
      <trkpt lat="45.60056" lon="6.1173">
        <ele>1456.4000244141</ele>
        <time>2021-01-16T09:42:34.000Z</time>
      </trkpt>
      <trkpt lat="45.60054" lon="6.1173">
        <ele>1457.5999755859</ele>
        <time>2021-01-16T09:42:37.000Z</time>
      </trkpt>
      <trkpt lat="45.6005" lon="6.1173">
        <ele>1458.5999755859</ele>
        <time>2021-01-16T09:42:41.000Z</time>
      </trkpt>
      <trkpt lat="45.60046" lon="6.11731">
        <ele>1459.5999755859</ele>
        <time>2021-01-16T09:42:46.000Z</time>
      </trkpt>
      <trkpt lat="45.60044" lon="6.11732">
        <ele>1459.5999755859</ele>
        <time>2021-01-16T09:42:48.000Z</time>
      </trkpt>
      <trkpt lat="45.6004" lon="6.11734">
        <ele>1460.8000488281</ele>
        <time>2021-01-16T09:42:53.000Z</time>
      </trkpt>
      <trkpt lat="45.60037" lon="6.11733">
        <ele>1461.8000488281</ele>
        <time>2021-01-16T09:42:58.000Z</time>
      </trkpt>
      <trkpt lat="45.60036" lon="6.11733">
        <ele>1462.1999511719</ele>
        <time>2021-01-16T09:43:00.000Z</time>
      </trkpt>
      <trkpt lat="45.60034" lon="6.11734">
        <ele>1463.1999511719</ele>
        <time>2021-01-16T09:43:03.000Z</time>
      </trkpt>
      <trkpt lat="45.60029" lon="6.11733">
        <ele>1464.4000244141</ele>
        <time>2021-01-16T09:43:09.000Z</time>
      </trkpt>
      <trkpt lat="45.60025" lon="6.11733">
        <ele>1465.5999755859</ele>
        <time>2021-01-16T09:43:13.000Z</time>
      </trkpt>
      <trkpt lat="45.60021" lon="6.11733">
        <ele>1466.1999511719</ele>
        <time>2021-01-16T09:43:17.000Z</time>
      </trkpt>
      <trkpt lat="45.60019" lon="6.11733">
        <ele>1466.8000488281</ele>
        <time>2021-01-16T09:43:20.000Z</time>
      </trkpt>
      <trkpt lat="45.60015" lon="6.11733">
        <ele>1467.8000488281</ele>
        <time>2021-01-16T09:43:25.000Z</time>
      </trkpt>
      <trkpt lat="45.60012" lon="6.11733">
        <ele>1469.1999511719</ele>
        <time>2021-01-16T09:43:28.000Z</time>
      </trkpt>
      <trkpt lat="45.60007" lon="6.11731">
        <ele>1470.1999511719</ele>
        <time>2021-01-16T09:43:33.000Z</time>
      </trkpt>
      <trkpt lat="45.60006" lon="6.11731">
        <ele>1470.4000244141</ele>
        <time>2021-01-16T09:43:34.000Z</time>
      </trkpt>
      <trkpt lat="45.60004" lon="6.1173">
        <ele>1471.1999511719</ele>
        <time>2021-01-16T09:43:37.000Z</time>
      </trkpt>
      <trkpt lat="45.6" lon="6.11729">
        <ele>1472</ele>
        <time>2021-01-16T09:43:42.000Z</time>
      </trkpt>
      <trkpt lat="45.59998" lon="6.11727">
        <ele>1472.4000244141</ele>
        <time>2021-01-16T09:43:44.000Z</time>
      </trkpt>
      <trkpt lat="45.59996" lon="6.11725">
        <ele>1473.5999755859</ele>
        <time>2021-01-16T09:43:47.000Z</time>
      </trkpt>
      <trkpt lat="45.59993" lon="6.11721">
        <ele>1474.1999511719</ele>
        <time>2021-01-16T09:43:50.000Z</time>
      </trkpt>
      <trkpt lat="45.5999" lon="6.11718">
        <ele>1474.5999755859</ele>
        <time>2021-01-16T09:43:54.000Z</time>
      </trkpt>
      <trkpt lat="45.59988" lon="6.11718">
        <ele>1474.5999755859</ele>
        <time>2021-01-16T09:43:57.000Z</time>
      </trkpt>
      <trkpt lat="45.59983" lon="6.11721">
        <ele>1476</ele>
        <time>2021-01-16T09:44:03.000Z</time>
      </trkpt>
      <trkpt lat="45.59979" lon="6.11723">
        <ele>1477</ele>
        <time>2021-01-16T09:44:08.000Z</time>
      </trkpt>
      <trkpt lat="45.59971" lon="6.11726">
        <ele>1478.1999511719</ele>
        <time>2021-01-16T09:44:16.000Z</time>
      </trkpt>
      <trkpt lat="45.59969" lon="6.11726">
        <ele>1478.1999511719</ele>
        <time>2021-01-16T09:44:18.000Z</time>
      </trkpt>
      <trkpt lat="45.5996" lon="6.11723">
        <ele>1479.1999511719</ele>
        <time>2021-01-16T09:44:26.000Z</time>
      </trkpt>
      <trkpt lat="45.5995" lon="6.11718">
        <ele>1480.1999511719</ele>
        <time>2021-01-16T09:44:35.000Z</time>
      </trkpt>
      <trkpt lat="45.59949" lon="6.11718">
        <ele>1480.4000244141</ele>
        <time>2021-01-16T09:44:36.000Z</time>
      </trkpt>
      <trkpt lat="45.59941" lon="6.11715">
        <ele>1481.1999511719</ele>
        <time>2021-01-16T09:44:44.000Z</time>
      </trkpt>
      <trkpt lat="45.59938" lon="6.11714">
        <ele>1481.4000244141</ele>
        <time>2021-01-16T09:44:47.000Z</time>
      </trkpt>
      <trkpt lat="45.59934" lon="6.11712">
        <ele>1482.1999511719</ele>
        <time>2021-01-16T09:44:51.000Z</time>
      </trkpt>
      <trkpt lat="45.5993" lon="6.1171">
        <ele>1482.4000244141</ele>
        <time>2021-01-16T09:44:54.000Z</time>
      </trkpt>
      <trkpt lat="45.59924" lon="6.11706">
        <ele>1483</ele>
        <time>2021-01-16T09:45:01.000Z</time>
      </trkpt>
      <trkpt lat="45.5992" lon="6.11703">
        <ele>1483.4000244141</ele>
        <time>2021-01-16T09:45:05.000Z</time>
      </trkpt>
      <trkpt lat="45.59917" lon="6.11703">
        <ele>1483.5999755859</ele>
        <time>2021-01-16T09:45:08.000Z</time>
      </trkpt>
      <trkpt lat="45.5991" lon="6.117">
        <ele>1483.1999511719</ele>
        <time>2021-01-16T09:45:16.000Z</time>
      </trkpt>
      <trkpt lat="45.599" lon="6.11696">
        <ele>1483.4000244141</ele>
        <time>2021-01-16T09:45:25.000Z</time>
      </trkpt>
      <trkpt lat="45.59893" lon="6.11692">
        <ele>1484</ele>
        <time>2021-01-16T09:45:33.000Z</time>
      </trkpt>
      <trkpt lat="45.59885" lon="6.11689">
        <ele>1484.1999511719</ele>
        <time>2021-01-16T09:45:41.000Z</time>
      </trkpt>
      <trkpt lat="45.59884" lon="6.11689">
        <ele>1484.4000244141</ele>
        <time>2021-01-16T09:45:42.000Z</time>
      </trkpt>
      <trkpt lat="45.59879" lon="6.11687">
        <ele>1484.8000488281</ele>
        <time>2021-01-16T09:45:48.000Z</time>
      </trkpt>
      <trkpt lat="45.59873" lon="6.11686">
        <ele>1485</ele>
        <time>2021-01-16T09:45:55.000Z</time>
      </trkpt>
      <trkpt lat="45.59869" lon="6.11685">
        <ele>1485.4000244141</ele>
        <time>2021-01-16T09:45:58.000Z</time>
      </trkpt>
      <trkpt lat="45.59863" lon="6.11683">
        <ele>1485.5999755859</ele>
        <time>2021-01-16T09:46:04.000Z</time>
      </trkpt>
      <trkpt lat="45.59856" lon="6.11679">
        <ele>1486.1999511719</ele>
        <time>2021-01-16T09:46:11.000Z</time>
      </trkpt>
      <trkpt lat="45.59854" lon="6.11678">
        <ele>1486.5999755859</ele>
        <time>2021-01-16T09:46:13.000Z</time>
      </trkpt>
      <trkpt lat="45.59849" lon="6.11679">
        <ele>1486.5999755859</ele>
        <time>2021-01-16T09:46:19.000Z</time>
      </trkpt>
      <trkpt lat="45.59847" lon="6.11681">
        <ele>1486.8000488281</ele>
        <time>2021-01-16T09:46:25.000Z</time>
      </trkpt>
      <trkpt lat="45.59846" lon="6.11679">
        <ele>1486.8000488281</ele>
        <time>2021-01-16T09:46:33.000Z</time>
      </trkpt>
      <trkpt lat="45.59838" lon="6.11674">
        <ele>1487</ele>
        <time>2021-01-16T09:46:41.000Z</time>
      </trkpt>
      <trkpt lat="45.59832" lon="6.11669">
        <ele>1487.5999755859</ele>
        <time>2021-01-16T09:46:47.000Z</time>
      </trkpt>
      <trkpt lat="45.59828" lon="6.11666">
        <ele>1488</ele>
        <time>2021-01-16T09:46:51.000Z</time>
      </trkpt>
      <trkpt lat="45.5982" lon="6.1166">
        <ele>1488.4000244141</ele>
        <time>2021-01-16T09:46:59.000Z</time>
      </trkpt>
      <trkpt lat="45.5981" lon="6.11653">
        <ele>1488.8000488281</ele>
        <time>2021-01-16T09:47:08.000Z</time>
      </trkpt>
      <trkpt lat="45.59801" lon="6.11649">
        <ele>1489.5999755859</ele>
        <time>2021-01-16T09:47:16.000Z</time>
      </trkpt>
      <trkpt lat="45.59799" lon="6.11648">
        <ele>1489.8000488281</ele>
        <time>2021-01-16T09:47:18.000Z</time>
      </trkpt>
      <trkpt lat="45.59793" lon="6.11644">
        <ele>1490.1999511719</ele>
        <time>2021-01-16T09:47:24.000Z</time>
      </trkpt>
      <trkpt lat="45.59784" lon="6.11638">
        <ele>1490.8000488281</ele>
        <time>2021-01-16T09:47:32.000Z</time>
      </trkpt>
      <trkpt lat="45.59781" lon="6.11637">
        <ele>1491</ele>
        <time>2021-01-16T09:47:35.000Z</time>
      </trkpt>
      <trkpt lat="45.59775" lon="6.11633">
        <ele>1491.1999511719</ele>
        <time>2021-01-16T09:47:41.000Z</time>
      </trkpt>
      <trkpt lat="45.59769" lon="6.1163">
        <ele>1492</ele>
        <time>2021-01-16T09:47:48.000Z</time>
      </trkpt>
      <trkpt lat="45.59768" lon="6.11629">
        <ele>1492.1999511719</ele>
        <time>2021-01-16T09:47:49.000Z</time>
      </trkpt>
      <trkpt lat="45.59767" lon="6.11628">
        <ele>1492.4000244141</ele>
        <time>2021-01-16T09:47:50.000Z</time>
      </trkpt>
      <trkpt lat="45.59765" lon="6.11627">
        <ele>1492.8000488281</ele>
        <time>2021-01-16T09:47:55.000Z</time>
      </trkpt>
      <trkpt lat="45.59765" lon="6.11627">
        <ele>1493</ele>
        <time>2021-01-16T09:47:56.000Z</time>
      </trkpt>
      <trkpt lat="45.59763" lon="6.11625">
        <ele>1493.1999511719</ele>
        <time>2021-01-16T09:48:01.000Z</time>
      </trkpt>
      <trkpt lat="45.59756" lon="6.11622">
        <ele>1493.4000244141</ele>
        <time>2021-01-16T09:48:08.000Z</time>
      </trkpt>
      <trkpt lat="45.59751" lon="6.11617">
        <ele>1494</ele>
        <time>2021-01-16T09:48:16.000Z</time>
      </trkpt>
      <trkpt lat="45.5975" lon="6.11616">
        <ele>1494</ele>
        <time>2021-01-16T09:48:17.000Z</time>
      </trkpt>
      <trkpt lat="45.59744" lon="6.11612">
        <ele>1494.8000488281</ele>
        <time>2021-01-16T09:48:25.000Z</time>
      </trkpt>
      <trkpt lat="45.59742" lon="6.1161">
        <ele>1495</ele>
        <time>2021-01-16T09:48:28.000Z</time>
      </trkpt>
      <trkpt lat="45.59739" lon="6.11608">
        <ele>1495.5999755859</ele>
        <time>2021-01-16T09:48:32.000Z</time>
      </trkpt>
      <trkpt lat="45.59735" lon="6.11604">
        <ele>1496.1999511719</ele>
        <time>2021-01-16T09:48:37.000Z</time>
      </trkpt>
      <trkpt lat="45.59731" lon="6.116">
        <ele>1496.8000488281</ele>
        <time>2021-01-16T09:48:43.000Z</time>
      </trkpt>
      <trkpt lat="45.59731" lon="6.11599">
        <ele>1497.4000244141</ele>
        <time>2021-01-16T09:48:46.000Z</time>
      </trkpt>
      <trkpt lat="45.59728" lon="6.11597">
        <ele>1497.5999755859</ele>
        <time>2021-01-16T09:48:50.000Z</time>
      </trkpt>
      <trkpt lat="45.59723" lon="6.11592">
        <ele>1498.4000244141</ele>
        <time>2021-01-16T09:48:56.000Z</time>
      </trkpt>
      <trkpt lat="45.59723" lon="6.11591">
        <ele>1498.5999755859</ele>
        <time>2021-01-16T09:48:57.000Z</time>
      </trkpt>
      <trkpt lat="45.59721" lon="6.11589">
        <ele>1498.8000488281</ele>
        <time>2021-01-16T09:49:05.000Z</time>
      </trkpt>
      <trkpt lat="45.59718" lon="6.11587">
        <ele>1498.5999755859</ele>
        <time>2021-01-16T09:49:13.000Z</time>
      </trkpt>
      <trkpt lat="45.59712" lon="6.11581">
        <ele>1499.4000244141</ele>
        <time>2021-01-16T09:49:20.000Z</time>
      </trkpt>
      <trkpt lat="45.59712" lon="6.11581">
        <ele>1499.5999755859</ele>
        <time>2021-01-16T09:49:21.000Z</time>
      </trkpt>
      <trkpt lat="45.59705" lon="6.11573">
        <ele>1500.5999755859</ele>
        <time>2021-01-16T09:49:31.000Z</time>
      </trkpt>
      <trkpt lat="45.597" lon="6.1157">
        <ele>1501.5999755859</ele>
        <time>2021-01-16T09:49:38.000Z</time>
      </trkpt>
      <trkpt lat="45.59696" lon="6.11568">
        <ele>1502.8000488281</ele>
        <time>2021-01-16T09:49:43.000Z</time>
      </trkpt>
      <trkpt lat="45.59696" lon="6.11568">
        <ele>1503</ele>
        <time>2021-01-16T09:49:45.000Z</time>
      </trkpt>
      <trkpt lat="45.59694" lon="6.11567">
        <ele>1503.8000488281</ele>
        <time>2021-01-16T09:49:50.000Z</time>
      </trkpt>
      <trkpt lat="45.59694" lon="6.11567">
        <ele>1504</ele>
        <time>2021-01-16T09:49:54.000Z</time>
      </trkpt>
      <trkpt lat="45.59694" lon="6.11567">
        <ele>1503.1999511719</ele>
        <time>2021-01-16T09:50:09.000Z</time>
      </trkpt>
      <trkpt lat="45.59694" lon="6.11567">
        <ele>1503.5999755859</ele>
        <time>2021-01-16T09:50:26.000Z</time>
      </trkpt>
      <trkpt lat="45.59692" lon="6.11566">
        <ele>1503.4000244141</ele>
        <time>2021-01-16T09:50:32.000Z</time>
      </trkpt>
      <trkpt lat="45.59686" lon="6.11563">
        <ele>1504</ele>
        <time>2021-01-16T09:50:38.000Z</time>
      </trkpt>
      <trkpt lat="45.59685" lon="6.11563">
        <ele>1505.1999511719</ele>
        <time>2021-01-16T09:50:41.000Z</time>
      </trkpt>
      <trkpt lat="45.59685" lon="6.11563">
        <ele>1505.5999755859</ele>
        <time>2021-01-16T09:50:43.000Z</time>
      </trkpt>
      <trkpt lat="45.59679" lon="6.11559">
        <ele>1506</ele>
        <time>2021-01-16T09:50:50.000Z</time>
      </trkpt>
      <trkpt lat="45.59678" lon="6.11558">
        <ele>1506.1999511719</ele>
        <time>2021-01-16T09:50:51.000Z</time>
      </trkpt>
      <trkpt lat="45.59674" lon="6.11552">
        <ele>1507.1999511719</ele>
        <time>2021-01-16T09:50:57.000Z</time>
      </trkpt>
      <trkpt lat="45.59673" lon="6.11551">
        <ele>1507.4000244141</ele>
        <time>2021-01-16T09:50:58.000Z</time>
      </trkpt>
      <trkpt lat="45.59669" lon="6.11549">
        <ele>1508.1999511719</ele>
        <time>2021-01-16T09:51:03.000Z</time>
      </trkpt>
      <trkpt lat="45.59667" lon="6.11548">
        <ele>1508.5999755859</ele>
        <time>2021-01-16T09:51:05.000Z</time>
      </trkpt>
      <trkpt lat="45.59664" lon="6.11547">
        <ele>1509.8000488281</ele>
        <time>2021-01-16T09:51:08.000Z</time>
      </trkpt>
      <trkpt lat="45.59659" lon="6.11546">
        <ele>1510.8000488281</ele>
        <time>2021-01-16T09:51:13.000Z</time>
      </trkpt>
      <trkpt lat="45.59657" lon="6.11545">
        <ele>1511.1999511719</ele>
        <time>2021-01-16T09:51:15.000Z</time>
      </trkpt>
      <trkpt lat="45.59653" lon="6.11543">
        <ele>1511.8000488281</ele>
        <time>2021-01-16T09:51:19.000Z</time>
      </trkpt>
      <trkpt lat="45.59648" lon="6.11541">
        <ele>1513</ele>
        <time>2021-01-16T09:51:24.000Z</time>
      </trkpt>
      <trkpt lat="45.59646" lon="6.11541">
        <ele>1513.1999511719</ele>
        <time>2021-01-16T09:51:25.000Z</time>
      </trkpt>
      <trkpt lat="45.59639" lon="6.11538">
        <ele>1514</ele>
        <time>2021-01-16T09:51:32.000Z</time>
      </trkpt>
      <trkpt lat="45.59637" lon="6.11538">
        <ele>1515</ele>
        <time>2021-01-16T09:51:34.000Z</time>
      </trkpt>
      <trkpt lat="45.59634" lon="6.11537">
        <ele>1515.8000488281</ele>
        <time>2021-01-16T09:51:36.000Z</time>
      </trkpt>
      <trkpt lat="45.59633" lon="6.11536">
        <ele>1516.1999511719</ele>
        <time>2021-01-16T09:51:37.000Z</time>
      </trkpt>
      <trkpt lat="45.59627" lon="6.11535">
        <ele>1517.1999511719</ele>
        <time>2021-01-16T09:51:44.000Z</time>
      </trkpt>
      <trkpt lat="45.59624" lon="6.11535">
        <ele>1518</ele>
        <time>2021-01-16T09:51:47.000Z</time>
      </trkpt>
      <trkpt lat="45.59623" lon="6.11535">
        <ele>1518.4000244141</ele>
        <time>2021-01-16T09:51:48.000Z</time>
      </trkpt>
      <trkpt lat="45.59619" lon="6.11534">
        <ele>1519.5999755859</ele>
        <time>2021-01-16T09:51:52.000Z</time>
      </trkpt>
      <trkpt lat="45.59615" lon="6.11533">
        <ele>1520.4000244141</ele>
        <time>2021-01-16T09:51:56.000Z</time>
      </trkpt>
      <trkpt lat="45.59614" lon="6.11532">
        <ele>1520.5999755859</ele>
        <time>2021-01-16T09:51:57.000Z</time>
      </trkpt>
      <trkpt lat="45.5961" lon="6.1153">
        <ele>1521.8000488281</ele>
        <time>2021-01-16T09:52:02.000Z</time>
      </trkpt>
      <trkpt lat="45.59608" lon="6.11528">
        <ele>1522.1999511719</ele>
        <time>2021-01-16T09:52:04.000Z</time>
      </trkpt>
      <trkpt lat="45.59607" lon="6.11526">
        <ele>1522.8000488281</ele>
        <time>2021-01-16T09:52:06.000Z</time>
      </trkpt>
      <trkpt lat="45.59604" lon="6.11522">
        <ele>1523.4000244141</ele>
        <time>2021-01-16T09:52:10.000Z</time>
      </trkpt>
      <trkpt lat="45.59602" lon="6.11521">
        <ele>1523.8000488281</ele>
        <time>2021-01-16T09:52:12.000Z</time>
      </trkpt>
      <trkpt lat="45.59597" lon="6.11515">
        <ele>1524.5999755859</ele>
        <time>2021-01-16T09:52:18.000Z</time>
      </trkpt>
      <trkpt lat="45.59595" lon="6.11514">
        <ele>1524.8000488281</ele>
        <time>2021-01-16T09:52:20.000Z</time>
      </trkpt>
      <trkpt lat="45.59592" lon="6.1151">
        <ele>1526</ele>
        <time>2021-01-16T09:52:24.000Z</time>
      </trkpt>
      <trkpt lat="45.5959" lon="6.11508">
        <ele>1526.1999511719</ele>
        <time>2021-01-16T09:52:26.000Z</time>
      </trkpt>
      <trkpt lat="45.59585" lon="6.115">
        <ele>1527</ele>
        <time>2021-01-16T09:52:33.000Z</time>
      </trkpt>
      <trkpt lat="45.59584" lon="6.11499">
        <ele>1527</ele>
        <time>2021-01-16T09:52:34.000Z</time>
      </trkpt>
      <trkpt lat="45.5958" lon="6.11496">
        <ele>1528</ele>
        <time>2021-01-16T09:52:38.000Z</time>
      </trkpt>
      <trkpt lat="45.59577" lon="6.11492">
        <ele>1528.8000488281</ele>
        <time>2021-01-16T09:52:42.000Z</time>
      </trkpt>
      <trkpt lat="45.59576" lon="6.11491">
        <ele>1529</ele>
        <time>2021-01-16T09:52:43.000Z</time>
      </trkpt>
      <trkpt lat="45.59569" lon="6.11488">
        <ele>1530.1999511719</ele>
        <time>2021-01-16T09:52:50.000Z</time>
      </trkpt>
      <trkpt lat="45.59567" lon="6.11487">
        <ele>1530.5999755859</ele>
        <time>2021-01-16T09:52:52.000Z</time>
      </trkpt>
      <trkpt lat="45.59565" lon="6.11486">
        <ele>1531.1999511719</ele>
        <time>2021-01-16T09:52:55.000Z</time>
      </trkpt>
      <trkpt lat="45.5956" lon="6.11485">
        <ele>1532.4000244141</ele>
        <time>2021-01-16T09:52:59.000Z</time>
      </trkpt>
      <trkpt lat="45.59559" lon="6.11484">
        <ele>1532.5999755859</ele>
        <time>2021-01-16T09:53:01.000Z</time>
      </trkpt>
      <trkpt lat="45.59554" lon="6.11483">
        <ele>1533.5999755859</ele>
        <time>2021-01-16T09:53:06.000Z</time>
      </trkpt>
      <trkpt lat="45.59548" lon="6.1148">
        <ele>1534.4000244141</ele>
        <time>2021-01-16T09:53:12.000Z</time>
      </trkpt>
      <trkpt lat="45.59547" lon="6.11479">
        <ele>1535.1999511719</ele>
        <time>2021-01-16T09:53:13.000Z</time>
      </trkpt>
      <trkpt lat="45.59542" lon="6.11475">
        <ele>1536.1999511719</ele>
        <time>2021-01-16T09:53:17.000Z</time>
      </trkpt>
      <trkpt lat="45.59537" lon="6.11471">
        <ele>1537</ele>
        <time>2021-01-16T09:53:22.000Z</time>
      </trkpt>
      <trkpt lat="45.59536" lon="6.11471">
        <ele>1537.1999511719</ele>
        <time>2021-01-16T09:53:23.000Z</time>
      </trkpt>
      <trkpt lat="45.5953" lon="6.11465">
        <ele>1538.4000244141</ele>
        <time>2021-01-16T09:53:30.000Z</time>
      </trkpt>
      <trkpt lat="45.59527" lon="6.11463">
        <ele>1539.1999511719</ele>
        <time>2021-01-16T09:53:33.000Z</time>
      </trkpt>
      <trkpt lat="45.59525" lon="6.11461">
        <ele>1539.4000244141</ele>
        <time>2021-01-16T09:53:36.000Z</time>
      </trkpt>
      <trkpt lat="45.5952" lon="6.11457">
        <ele>1540.5999755859</ele>
        <time>2021-01-16T09:53:40.000Z</time>
      </trkpt>
      <trkpt lat="45.59518" lon="6.11456">
        <ele>1541.8000488281</ele>
        <time>2021-01-16T09:53:43.000Z</time>
      </trkpt>
      <trkpt lat="45.59514" lon="6.11453">
        <ele>1542.8000488281</ele>
        <time>2021-01-16T09:53:47.000Z</time>
      </trkpt>
      <trkpt lat="45.59513" lon="6.11453">
        <ele>1543.5999755859</ele>
        <time>2021-01-16T09:53:52.000Z</time>
      </trkpt>
      <trkpt lat="45.5951" lon="6.11448">
        <ele>1543.1999511719</ele>
        <time>2021-01-16T09:53:59.000Z</time>
      </trkpt>
      <trkpt lat="45.59509" lon="6.11444">
        <ele>1544</ele>
        <time>2021-01-16T09:54:02.000Z</time>
      </trkpt>
      <trkpt lat="45.59506" lon="6.11437">
        <ele>1545.1999511719</ele>
        <time>2021-01-16T09:54:07.000Z</time>
      </trkpt>
      <trkpt lat="45.59505" lon="6.11434">
        <ele>1545.4000244141</ele>
        <time>2021-01-16T09:54:09.000Z</time>
      </trkpt>
      <trkpt lat="45.59502" lon="6.11429">
        <ele>1546.4000244141</ele>
        <time>2021-01-16T09:54:14.000Z</time>
      </trkpt>
      <trkpt lat="45.59499" lon="6.11426">
        <ele>1547.4000244141</ele>
        <time>2021-01-16T09:54:17.000Z</time>
      </trkpt>
      <trkpt lat="45.59495" lon="6.11421">
        <ele>1548.5999755859</ele>
        <time>2021-01-16T09:54:22.000Z</time>
      </trkpt>
      <trkpt lat="45.5949" lon="6.11418">
        <ele>1549.5999755859</ele>
        <time>2021-01-16T09:54:27.000Z</time>
      </trkpt>
      <trkpt lat="45.59489" lon="6.11418">
        <ele>1549.8000488281</ele>
        <time>2021-01-16T09:54:28.000Z</time>
      </trkpt>
      <trkpt lat="45.59481" lon="6.11417">
        <ele>1551</ele>
        <time>2021-01-16T09:54:35.000Z</time>
      </trkpt>
      <trkpt lat="45.5948" lon="6.11417">
        <ele>1551.1999511719</ele>
        <time>2021-01-16T09:54:36.000Z</time>
      </trkpt>
      <trkpt lat="45.59475" lon="6.11418">
        <ele>1552.1999511719</ele>
        <time>2021-01-16T09:54:41.000Z</time>
      </trkpt>
      <trkpt lat="45.59471" lon="6.11419">
        <ele>1553</ele>
        <time>2021-01-16T09:54:44.000Z</time>
      </trkpt>
      <trkpt lat="45.59469" lon="6.1142">
        <ele>1553.1999511719</ele>
        <time>2021-01-16T09:54:46.000Z</time>
      </trkpt>
      <trkpt lat="45.59466" lon="6.11419">
        <ele>1554.4000244141</ele>
        <time>2021-01-16T09:54:49.000Z</time>
      </trkpt>
      <trkpt lat="45.59461" lon="6.11419">
        <ele>1555.5999755859</ele>
        <time>2021-01-16T09:54:54.000Z</time>
      </trkpt>
      <trkpt lat="45.59457" lon="6.11419">
        <ele>1557</ele>
        <time>2021-01-16T09:54:57.000Z</time>
      </trkpt>
      <trkpt lat="45.59452" lon="6.11417">
        <ele>1557.5999755859</ele>
        <time>2021-01-16T09:55:02.000Z</time>
      </trkpt>
      <trkpt lat="45.59448" lon="6.11417">
        <ele>1558</ele>
        <time>2021-01-16T09:55:07.000Z</time>
      </trkpt>
      <trkpt lat="45.59446" lon="6.11416">
        <ele>1558.5999755859</ele>
        <time>2021-01-16T09:55:10.000Z</time>
      </trkpt>
      <trkpt lat="45.59446" lon="6.11416">
        <ele>1559</ele>
        <time>2021-01-16T09:55:13.000Z</time>
      </trkpt>
      <trkpt lat="45.59448" lon="6.11414">
        <ele>1559.5999755859</ele>
        <time>2021-01-16T09:55:20.000Z</time>
      </trkpt>
      <trkpt lat="45.59448" lon="6.11412">
        <ele>1560</ele>
        <time>2021-01-16T09:55:22.000Z</time>
      </trkpt>
      <trkpt lat="45.59448" lon="6.11408">
        <ele>1561.4000244141</ele>
        <time>2021-01-16T09:55:27.000Z</time>
      </trkpt>
      <trkpt lat="45.59448" lon="6.11408">
        <ele>1562</ele>
        <time>2021-01-16T09:55:29.000Z</time>
      </trkpt>
      <trkpt lat="45.59448" lon="6.11408">
        <ele>1562.1999511719</ele>
        <time>2021-01-16T09:55:40.000Z</time>
      </trkpt>
      <trkpt lat="45.59448" lon="6.11408">
        <ele>1562.4000244141</ele>
        <time>2021-01-16T09:55:41.000Z</time>
      </trkpt>
      <trkpt lat="45.59448" lon="6.11408">
        <ele>1562.5999755859</ele>
        <time>2021-01-16T09:55:52.000Z</time>
      </trkpt>
      <trkpt lat="45.59447" lon="6.11407">
        <ele>1561.8000488281</ele>
        <time>2021-01-16T09:56:08.000Z</time>
      </trkpt>
      <trkpt lat="45.59447" lon="6.11407">
        <ele>1561.4000244141</ele>
        <time>2021-01-16T09:56:11.000Z</time>
      </trkpt>
      <trkpt lat="45.59447" lon="6.11407">
        <ele>1561.5999755859</ele>
        <time>2021-01-16T09:56:15.000Z</time>
      </trkpt>
      <trkpt lat="45.59446" lon="6.11405">
        <ele>1561.8000488281</ele>
        <time>2021-01-16T09:56:19.000Z</time>
      </trkpt>
      <trkpt lat="45.59444" lon="6.11405">
        <ele>1561.8000488281</ele>
        <time>2021-01-16T09:56:21.000Z</time>
      </trkpt>
      <trkpt lat="45.59435" lon="6.114">
        <ele>1561.8000488281</ele>
        <time>2021-01-16T09:56:28.000Z</time>
      </trkpt>
      <trkpt lat="45.59426" lon="6.11394">
        <ele>1561.1999511719</ele>
        <time>2021-01-16T09:56:34.000Z</time>
      </trkpt>
      <trkpt lat="45.59418" lon="6.11389">
        <ele>1560.4000244141</ele>
        <time>2021-01-16T09:56:41.000Z</time>
      </trkpt>
      <trkpt lat="45.59415" lon="6.11388">
        <ele>1560.4000244141</ele>
        <time>2021-01-16T09:56:43.000Z</time>
      </trkpt>
      <trkpt lat="45.5941" lon="6.11387">
        <ele>1560.4000244141</ele>
        <time>2021-01-16T09:56:48.000Z</time>
      </trkpt>
      <trkpt lat="45.59407" lon="6.11385">
        <ele>1560.4000244141</ele>
        <time>2021-01-16T09:56:51.000Z</time>
      </trkpt>
      <trkpt lat="45.59405" lon="6.11383">
        <ele>1560.4000244141</ele>
        <time>2021-01-16T09:56:55.000Z</time>
      </trkpt>
      <trkpt lat="45.59402" lon="6.11381">
        <ele>1560.4000244141</ele>
        <time>2021-01-16T09:57:02.000Z</time>
      </trkpt>
      <trkpt lat="45.59394" lon="6.11377">
        <ele>1560.4000244141</ele>
        <time>2021-01-16T09:57:09.000Z</time>
      </trkpt>
      <trkpt lat="45.59387" lon="6.11378">
        <ele>1561</ele>
        <time>2021-01-16T09:57:18.000Z</time>
      </trkpt>
      <trkpt lat="45.59386" lon="6.11379">
        <ele>1560.1999511719</ele>
        <time>2021-01-16T09:57:27.000Z</time>
      </trkpt>
      <trkpt lat="45.59392" lon="6.11378">
        <ele>1560.8000488281</ele>
        <time>2021-01-16T09:57:34.000Z</time>
      </trkpt>
      <trkpt lat="45.59402" lon="6.11378">
        <ele>1560.5999755859</ele>
        <time>2021-01-16T09:57:42.000Z</time>
      </trkpt>
      <trkpt lat="45.59405" lon="6.11381">
        <ele>1560.4000244141</ele>
        <time>2021-01-16T09:57:49.000Z</time>
      </trkpt>
      <trkpt lat="45.59405" lon="6.11381">
        <ele>1560.4000244141</ele>
        <time>2021-01-16T09:57:59.000Z</time>
      </trkpt>
      <trkpt lat="45.59405" lon="6.11381">
        <ele>1558</ele>
        <time>2021-01-16T09:58:09.000Z</time>
      </trkpt>
      <trkpt lat="45.59405" lon="6.11381">
        <ele>1556.1999511719</ele>
        <time>2021-01-16T09:58:11.000Z</time>
      </trkpt>
      <trkpt lat="45.59405" lon="6.11381">
        <ele>1555.1999511719</ele>
        <time>2021-01-16T09:58:13.000Z</time>
      </trkpt>
      <trkpt lat="45.59405" lon="6.11381">
        <ele>1556.1999511719</ele>
        <time>2021-01-16T09:58:16.000Z</time>
      </trkpt>
      <trkpt lat="45.59405" lon="6.11381">
        <ele>1557.4000244141</ele>
        <time>2021-01-16T09:58:18.000Z</time>
      </trkpt>
      <trkpt lat="45.59405" lon="6.11381">
        <ele>1558.8000488281</ele>
        <time>2021-01-16T09:58:19.000Z</time>
      </trkpt>
      <trkpt lat="45.59405" lon="6.11381">
        <ele>1560</ele>
        <time>2021-01-16T09:58:20.000Z</time>
      </trkpt>
      <trkpt lat="45.59405" lon="6.11381">
        <ele>1561</ele>
        <time>2021-01-16T09:58:21.000Z</time>
      </trkpt>
      <trkpt lat="45.59405" lon="6.11381">
        <ele>1562.4000244141</ele>
        <time>2021-01-16T09:58:22.000Z</time>
      </trkpt>
      <trkpt lat="45.59405" lon="6.11381">
        <ele>1563.5999755859</ele>
        <time>2021-01-16T09:58:24.000Z</time>
      </trkpt>
      <trkpt lat="45.59405" lon="6.11381">
        <ele>1562.4000244141</ele>
        <time>2021-01-16T09:58:28.000Z</time>
      </trkpt>
      <trkpt lat="45.59405" lon="6.11381">
        <ele>1561.4000244141</ele>
        <time>2021-01-16T09:58:29.000Z</time>
      </trkpt>
      <trkpt lat="45.59405" lon="6.11381">
        <ele>1560.1999511719</ele>
        <time>2021-01-16T09:58:30.000Z</time>
      </trkpt>
      <trkpt lat="45.59405" lon="6.11381">
        <ele>1559.1999511719</ele>
        <time>2021-01-16T09:58:33.000Z</time>
      </trkpt>
      <trkpt lat="45.59405" lon="6.11381">
        <ele>1559.4000244141</ele>
        <time>2021-01-16T09:58:36.000Z</time>
      </trkpt>
      <trkpt lat="45.59405" lon="6.11381">
        <ele>1560.4000244141</ele>
        <time>2021-01-16T09:58:40.000Z</time>
      </trkpt>
      <trkpt lat="45.59405" lon="6.11381">
        <ele>1562</ele>
        <time>2021-01-16T09:58:42.000Z</time>
      </trkpt>
      <trkpt lat="45.59405" lon="6.11381">
        <ele>1561.5999755859</ele>
        <time>2021-01-16T09:58:47.000Z</time>
      </trkpt>
      <trkpt lat="45.59405" lon="6.11381">
        <ele>1560.8000488281</ele>
        <time>2021-01-16T09:58:49.000Z</time>
      </trkpt>
      <trkpt lat="45.59405" lon="6.11381">
        <ele>1560.5999755859</ele>
        <time>2021-01-16T09:59:01.000Z</time>
      </trkpt>
      <trkpt lat="45.59405" lon="6.11381">
        <ele>1559</ele>
        <time>2021-01-16T09:59:10.000Z</time>
      </trkpt>
      <trkpt lat="45.59405" lon="6.11381">
        <ele>1561</ele>
        <time>2021-01-16T09:59:15.000Z</time>
      </trkpt>
      <trkpt lat="45.59405" lon="6.11381">
        <ele>1561.4000244141</ele>
        <time>2021-01-16T09:59:16.000Z</time>
      </trkpt>
      <trkpt lat="45.59405" lon="6.11381">
        <ele>1559.8000488281</ele>
        <time>2021-01-16T09:59:27.000Z</time>
      </trkpt>
      <trkpt lat="45.59405" lon="6.11381">
        <ele>1559.1999511719</ele>
        <time>2021-01-16T09:59:28.000Z</time>
      </trkpt>
      <trkpt lat="45.59405" lon="6.11381">
        <ele>1561.4000244141</ele>
        <time>2021-01-16T09:59:34.000Z</time>
      </trkpt>
      <trkpt lat="45.59405" lon="6.11381">
        <ele>1561.8000488281</ele>
        <time>2021-01-16T09:59:39.000Z</time>
      </trkpt>
      <trkpt lat="45.59405" lon="6.11381">
        <ele>1560.5999755859</ele>
        <time>2021-01-16T09:59:56.000Z</time>
      </trkpt>
      <trkpt lat="45.59405" lon="6.11381">
        <ele>1560.4000244141</ele>
        <time>2021-01-16T10:00:10.000Z</time>
      </trkpt>
      <trkpt lat="45.59405" lon="6.11381">
        <ele>1560.5999755859</ele>
        <time>2021-01-16T10:00:25.000Z</time>
      </trkpt>
      <trkpt lat="45.59405" lon="6.11381">
        <ele>1560.5999755859</ele>
        <time>2021-01-16T10:00:41.000Z</time>
      </trkpt>
      <trkpt lat="45.59405" lon="6.11381">
        <ele>1560.5999755859</ele>
        <time>2021-01-16T10:00:56.000Z</time>
      </trkpt>
      <trkpt lat="45.59404" lon="6.11381">
        <ele>1560.4000244141</ele>
        <time>2021-01-16T10:01:12.000Z</time>
      </trkpt>
      <trkpt lat="45.59404" lon="6.11381">
        <ele>1560.4000244141</ele>
        <time>2021-01-16T10:01:26.000Z</time>
      </trkpt>
      <trkpt lat="45.59404" lon="6.11381">
        <ele>1560.4000244141</ele>
        <time>2021-01-16T10:01:38.000Z</time>
      </trkpt>
      <trkpt lat="45.59404" lon="6.11381">
        <ele>1560.4000244141</ele>
        <time>2021-01-16T10:01:43.000Z</time>
      </trkpt>
      <trkpt lat="45.59404" lon="6.11381">
        <ele>1560.4000244141</ele>
        <time>2021-01-16T10:01:55.000Z</time>
      </trkpt>
      <trkpt lat="45.59404" lon="6.11381">
        <ele>1559.5999755859</ele>
        <time>2021-01-16T10:02:07.000Z</time>
      </trkpt>
      <trkpt lat="45.59404" lon="6.11381">
        <ele>1559</ele>
        <time>2021-01-16T10:02:08.000Z</time>
      </trkpt>
      <trkpt lat="45.59404" lon="6.11381">
        <ele>1560</ele>
        <time>2021-01-16T10:02:18.000Z</time>
      </trkpt>
      <trkpt lat="45.59404" lon="6.11381">
        <ele>1560.1999511719</ele>
        <time>2021-01-16T10:02:21.000Z</time>
      </trkpt>
      <trkpt lat="45.59404" lon="6.11381">
        <ele>1561.1999511719</ele>
        <time>2021-01-16T10:02:30.000Z</time>
      </trkpt>
      <trkpt lat="45.59404" lon="6.11381">
        <ele>1561.1999511719</ele>
        <time>2021-01-16T10:02:32.000Z</time>
      </trkpt>
      <trkpt lat="45.59404" lon="6.11381">
        <ele>1559.5999755859</ele>
        <time>2021-01-16T10:02:38.000Z</time>
      </trkpt>
      <trkpt lat="45.59404" lon="6.11381">
        <ele>1561.1999511719</ele>
        <time>2021-01-16T10:02:44.000Z</time>
      </trkpt>
      <trkpt lat="45.59404" lon="6.11381">
        <ele>1560</ele>
        <time>2021-01-16T10:02:53.000Z</time>
      </trkpt>
      <trkpt lat="45.59404" lon="6.11381">
        <ele>1560.8000488281</ele>
        <time>2021-01-16T10:02:56.000Z</time>
      </trkpt>
      <trkpt lat="45.59404" lon="6.11381">
        <ele>1558.8000488281</ele>
        <time>2021-01-16T10:03:03.000Z</time>
      </trkpt>
      <trkpt lat="45.59404" lon="6.11381">
        <ele>1560.1999511719</ele>
        <time>2021-01-16T10:03:07.000Z</time>
      </trkpt>
      <trkpt lat="45.59404" lon="6.11381">
        <ele>1560.5999755859</ele>
        <time>2021-01-16T10:03:08.000Z</time>
      </trkpt>
      <trkpt lat="45.59404" lon="6.11381">
        <ele>1561.8000488281</ele>
        <time>2021-01-16T10:03:13.000Z</time>
      </trkpt>
      <trkpt lat="45.59404" lon="6.11381">
        <ele>1561</ele>
        <time>2021-01-16T10:03:23.000Z</time>
      </trkpt>
      <trkpt lat="45.59404" lon="6.11381">
        <ele>1560.5999755859</ele>
        <time>2021-01-16T10:03:26.000Z</time>
      </trkpt>
      <trkpt lat="45.59404" lon="6.11381">
        <ele>1559.4000244141</ele>
        <time>2021-01-16T10:03:28.000Z</time>
      </trkpt>
      <trkpt lat="45.59404" lon="6.11381">
        <ele>1559.8000488281</ele>
        <time>2021-01-16T10:03:35.000Z</time>
      </trkpt>
      <trkpt lat="45.59404" lon="6.11381">
        <ele>1560.4000244141</ele>
        <time>2021-01-16T10:03:38.000Z</time>
      </trkpt>
      <trkpt lat="45.59404" lon="6.11381">
        <ele>1560</ele>
        <time>2021-01-16T10:03:49.000Z</time>
      </trkpt>
      <trkpt lat="45.59404" lon="6.11381">
        <ele>1560.4000244141</ele>
        <time>2021-01-16T10:04:03.000Z</time>
      </trkpt>
      <trkpt lat="45.59404" lon="6.11381">
        <ele>1560.5999755859</ele>
        <time>2021-01-16T10:04:14.000Z</time>
      </trkpt>
      <trkpt lat="45.59404" lon="6.11381">
        <ele>1560.4000244141</ele>
        <time>2021-01-16T10:04:23.000Z</time>
      </trkpt>
      <trkpt lat="45.59404" lon="6.11381">
        <ele>1560.4000244141</ele>
        <time>2021-01-16T10:04:39.000Z</time>
      </trkpt>
      <trkpt lat="45.59404" lon="6.11381">
        <ele>1560.4000244141</ele>
        <time>2021-01-16T10:04:57.000Z</time>
      </trkpt>
      <trkpt lat="45.59404" lon="6.11381">
        <ele>1560.5999755859</ele>
        <time>2021-01-16T10:05:11.000Z</time>
      </trkpt>
      <trkpt lat="45.59404" lon="6.11381">
        <ele>1560.4000244141</ele>
        <time>2021-01-16T10:05:27.000Z</time>
      </trkpt>
      <trkpt lat="45.59404" lon="6.11381">
        <ele>1559.1999511719</ele>
        <time>2021-01-16T10:05:34.000Z</time>
      </trkpt>
      <trkpt lat="45.59404" lon="6.11381">
        <ele>1559.5999755859</ele>
        <time>2021-01-16T10:05:39.000Z</time>
      </trkpt>
      <trkpt lat="45.59404" lon="6.11381">
        <ele>1560.4000244141</ele>
        <time>2021-01-16T10:05:41.000Z</time>
      </trkpt>
      <trkpt lat="45.59404" lon="6.11381">
        <ele>1560.1999511719</ele>
        <time>2021-01-16T10:05:51.000Z</time>
      </trkpt>
      <trkpt lat="45.59404" lon="6.11381">
        <ele>1560.1999511719</ele>
        <time>2021-01-16T10:06:06.000Z</time>
      </trkpt>
      <trkpt lat="45.59404" lon="6.11381">
        <ele>1560.4000244141</ele>
        <time>2021-01-16T10:06:25.000Z</time>
      </trkpt>
      <trkpt lat="45.59404" lon="6.11381">
        <ele>1559</ele>
        <time>2021-01-16T10:06:38.000Z</time>
      </trkpt>
      <trkpt lat="45.59404" lon="6.11381">
        <ele>1558</ele>
        <time>2021-01-16T10:06:39.000Z</time>
      </trkpt>
      <trkpt lat="45.59404" lon="6.11381">
        <ele>1559.8000488281</ele>
        <time>2021-01-16T10:06:43.000Z</time>
      </trkpt>
      <trkpt lat="45.59404" lon="6.11381">
        <ele>1561.4000244141</ele>
        <time>2021-01-16T10:06:44.000Z</time>
      </trkpt>
      <trkpt lat="45.59404" lon="6.11381">
        <ele>1562.5999755859</ele>
        <time>2021-01-16T10:06:46.000Z</time>
      </trkpt>
      <trkpt lat="45.59404" lon="6.11381">
        <ele>1561.1999511719</ele>
        <time>2021-01-16T10:06:48.000Z</time>
      </trkpt>
      <trkpt lat="45.59404" lon="6.11381">
        <ele>1560.1999511719</ele>
        <time>2021-01-16T10:06:51.000Z</time>
      </trkpt>
      <trkpt lat="45.59404" lon="6.11381">
        <ele>1560.1999511719</ele>
        <time>2021-01-16T10:06:53.000Z</time>
      </trkpt>
      <trkpt lat="45.59404" lon="6.11381">
        <ele>1560.1999511719</ele>
        <time>2021-01-16T10:07:10.000Z</time>
      </trkpt>
      <trkpt lat="45.59404" lon="6.11381">
        <ele>1560.4000244141</ele>
        <time>2021-01-16T10:07:21.000Z</time>
      </trkpt>
      <trkpt lat="45.59404" lon="6.11381">
        <ele>1560.1999511719</ele>
        <time>2021-01-16T10:07:33.000Z</time>
      </trkpt>
      <trkpt lat="45.59404" lon="6.11381">
        <ele>1560.4000244141</ele>
        <time>2021-01-16T10:07:49.000Z</time>
      </trkpt>
      <trkpt lat="45.59404" lon="6.11381">
        <ele>1560.4000244141</ele>
        <time>2021-01-16T10:08:04.000Z</time>
      </trkpt>
      <trkpt lat="45.59404" lon="6.11381">
        <ele>1560.4000244141</ele>
        <time>2021-01-16T10:08:13.000Z</time>
      </trkpt>
      <trkpt lat="45.59404" lon="6.11381">
        <ele>1560.1999511719</ele>
        <time>2021-01-16T10:08:26.000Z</time>
      </trkpt>
      <trkpt lat="45.59404" lon="6.11381">
        <ele>1560.4000244141</ele>
        <time>2021-01-16T10:08:33.000Z</time>
      </trkpt>
      <trkpt lat="45.59404" lon="6.11381">
        <ele>1560.5999755859</ele>
        <time>2021-01-16T10:08:46.000Z</time>
      </trkpt>
      <trkpt lat="45.59404" lon="6.11381">
        <ele>1560.8000488281</ele>
        <time>2021-01-16T10:08:57.000Z</time>
      </trkpt>
      <trkpt lat="45.59404" lon="6.11381">
        <ele>1561</ele>
        <time>2021-01-16T10:09:05.000Z</time>
      </trkpt>
      <trkpt lat="45.59404" lon="6.11381">
        <ele>1560.5999755859</ele>
        <time>2021-01-16T10:09:11.000Z</time>
      </trkpt>
      <trkpt lat="45.59404" lon="6.11383">
        <ele>1560.5999755859</ele>
        <time>2021-01-16T10:09:18.000Z</time>
      </trkpt>
      <trkpt lat="45.59407" lon="6.11391">
        <ele>1560.8000488281</ele>
        <time>2021-01-16T10:09:25.000Z</time>
      </trkpt>
      <trkpt lat="45.59412" lon="6.11401">
        <ele>1560</ele>
        <time>2021-01-16T10:09:32.000Z</time>
      </trkpt>
      <trkpt lat="45.59414" lon="6.11406">
        <ele>1560.4000244141</ele>
        <time>2021-01-16T10:09:41.000Z</time>
      </trkpt>
      <trkpt lat="45.59414" lon="6.11406">
        <ele>1560.5999755859</ele>
        <time>2021-01-16T10:09:53.000Z</time>
      </trkpt>
      <trkpt lat="45.59417" lon="6.11413">
        <ele>1560.4000244141</ele>
        <time>2021-01-16T10:09:58.000Z</time>
      </trkpt>
      <trkpt lat="45.59419" lon="6.11416">
        <ele>1560.1999511719</ele>
        <time>2021-01-16T10:10:00.000Z</time>
      </trkpt>
      <trkpt lat="45.59423" lon="6.11428">
        <ele>1560</ele>
        <time>2021-01-16T10:10:06.000Z</time>
      </trkpt>
      <trkpt lat="45.59423" lon="6.11429">
        <ele>1559.4000244141</ele>
        <time>2021-01-16T10:10:07.000Z</time>
      </trkpt>
      <trkpt lat="45.59424" lon="6.11429">
        <ele>1558.5999755859</ele>
        <time>2021-01-16T10:10:08.000Z</time>
      </trkpt>
      <trkpt lat="45.59425" lon="6.11429">
        <ele>1557.4000244141</ele>
        <time>2021-01-16T10:10:11.000Z</time>
      </trkpt>
      <trkpt lat="45.59425" lon="6.11429">
        <ele>1557</ele>
        <time>2021-01-16T10:10:12.000Z</time>
      </trkpt>
      <trkpt lat="45.59425" lon="6.11429">
        <ele>1558.5999755859</ele>
        <time>2021-01-16T10:10:17.000Z</time>
      </trkpt>
      <trkpt lat="45.59425" lon="6.11434">
        <ele>1559.4000244141</ele>
        <time>2021-01-16T10:10:22.000Z</time>
      </trkpt>
      <trkpt lat="45.59436" lon="6.11444">
        <ele>1559</ele>
        <time>2021-01-16T10:10:25.000Z</time>
      </trkpt>
      <trkpt lat="45.59444" lon="6.11457">
        <ele>1555</ele>
        <time>2021-01-16T10:10:28.000Z</time>
      </trkpt>
      <trkpt lat="45.59445" lon="6.11462">
        <ele>1553</ele>
        <time>2021-01-16T10:10:29.000Z</time>
      </trkpt>
      <trkpt lat="45.59448" lon="6.11468">
        <ele>1551.5999755859</ele>
        <time>2021-01-16T10:10:30.000Z</time>
      </trkpt>
      <trkpt lat="45.59447" lon="6.11474">
        <ele>1550.5999755859</ele>
        <time>2021-01-16T10:10:31.000Z</time>
      </trkpt>
      <trkpt lat="45.59448" lon="6.11479">
        <ele>1549.4000244141</ele>
        <time>2021-01-16T10:10:32.000Z</time>
      </trkpt>
      <trkpt lat="45.59451" lon="6.11482">
        <ele>1547.5999755859</ele>
        <time>2021-01-16T10:10:33.000Z</time>
      </trkpt>
      <trkpt lat="45.59454" lon="6.11487">
        <ele>1546.1999511719</ele>
        <time>2021-01-16T10:10:34.000Z</time>
      </trkpt>
      <trkpt lat="45.59457" lon="6.1149">
        <ele>1545.1999511719</ele>
        <time>2021-01-16T10:10:35.000Z</time>
      </trkpt>
      <trkpt lat="45.5946" lon="6.11491">
        <ele>1544.1999511719</ele>
        <time>2021-01-16T10:10:36.000Z</time>
      </trkpt>
      <trkpt lat="45.59463" lon="6.11495">
        <ele>1543.1999511719</ele>
        <time>2021-01-16T10:10:37.000Z</time>
      </trkpt>
      <trkpt lat="45.59467" lon="6.11497">
        <ele>1541.4000244141</ele>
        <time>2021-01-16T10:10:38.000Z</time>
      </trkpt>
      <trkpt lat="45.5947" lon="6.11501">
        <ele>1539.1999511719</ele>
        <time>2021-01-16T10:10:39.000Z</time>
      </trkpt>
      <trkpt lat="45.59471" lon="6.11503">
        <ele>1537.5999755859</ele>
        <time>2021-01-16T10:10:40.000Z</time>
      </trkpt>
      <trkpt lat="45.59472" lon="6.11504">
        <ele>1536</ele>
        <time>2021-01-16T10:10:41.000Z</time>
      </trkpt>
      <trkpt lat="45.59474" lon="6.11503">
        <ele>1533.8000488281</ele>
        <time>2021-01-16T10:10:43.000Z</time>
      </trkpt>
      <trkpt lat="45.59474" lon="6.11502">
        <ele>1532.4000244141</ele>
        <time>2021-01-16T10:10:44.000Z</time>
      </trkpt>
      <trkpt lat="45.59474" lon="6.115">
        <ele>1531.5999755859</ele>
        <time>2021-01-16T10:10:45.000Z</time>
      </trkpt>
      <trkpt lat="45.59474" lon="6.11497">
        <ele>1531.1999511719</ele>
        <time>2021-01-16T10:10:46.000Z</time>
      </trkpt>
      <trkpt lat="45.59474" lon="6.11492">
        <ele>1531.4000244141</ele>
        <time>2021-01-16T10:10:53.000Z</time>
      </trkpt>
      <trkpt lat="45.59474" lon="6.11493">
        <ele>1531.4000244141</ele>
        <time>2021-01-16T10:10:54.000Z</time>
      </trkpt>
      <trkpt lat="45.59478" lon="6.11502">
        <ele>1531.4000244141</ele>
        <time>2021-01-16T10:10:56.000Z</time>
      </trkpt>
      <trkpt lat="45.59486" lon="6.11517">
        <ele>1529.8000488281</ele>
        <time>2021-01-16T10:10:59.000Z</time>
      </trkpt>
      <trkpt lat="45.59489" lon="6.11523">
        <ele>1528.5999755859</ele>
        <time>2021-01-16T10:11:00.000Z</time>
      </trkpt>
      <trkpt lat="45.59493" lon="6.11528">
        <ele>1527.1999511719</ele>
        <time>2021-01-16T10:11:01.000Z</time>
      </trkpt>
      <trkpt lat="45.59497" lon="6.11535">
        <ele>1525.5999755859</ele>
        <time>2021-01-16T10:11:02.000Z</time>
      </trkpt>
      <trkpt lat="45.59501" lon="6.1154">
        <ele>1524</ele>
        <time>2021-01-16T10:11:03.000Z</time>
      </trkpt>
      <trkpt lat="45.59502" lon="6.11547">
        <ele>1522.4000244141</ele>
        <time>2021-01-16T10:11:04.000Z</time>
      </trkpt>
      <trkpt lat="45.59504" lon="6.11552">
        <ele>1520.5999755859</ele>
        <time>2021-01-16T10:11:05.000Z</time>
      </trkpt>
      <trkpt lat="45.59506" lon="6.11557">
        <ele>1519</ele>
        <time>2021-01-16T10:11:06.000Z</time>
      </trkpt>
      <trkpt lat="45.59508" lon="6.1156">
        <ele>1517.4000244141</ele>
        <time>2021-01-16T10:11:07.000Z</time>
      </trkpt>
      <trkpt lat="45.59509" lon="6.11561">
        <ele>1515.5999755859</ele>
        <time>2021-01-16T10:11:08.000Z</time>
      </trkpt>
      <trkpt lat="45.5951" lon="6.11562">
        <ele>1514.1999511719</ele>
        <time>2021-01-16T10:11:09.000Z</time>
      </trkpt>
      <trkpt lat="45.59511" lon="6.11562">
        <ele>1512.8000488281</ele>
        <time>2021-01-16T10:11:10.000Z</time>
      </trkpt>
      <trkpt lat="45.59514" lon="6.11563">
        <ele>1511.1999511719</ele>
        <time>2021-01-16T10:11:12.000Z</time>
      </trkpt>
      <trkpt lat="45.59518" lon="6.11565">
        <ele>1510.1999511719</ele>
        <time>2021-01-16T10:11:14.000Z</time>
      </trkpt>
      <trkpt lat="45.5952" lon="6.11567">
        <ele>1510</ele>
        <time>2021-01-16T10:11:15.000Z</time>
      </trkpt>
      <trkpt lat="45.59526" lon="6.11574">
        <ele>1508.8000488281</ele>
        <time>2021-01-16T10:11:18.000Z</time>
      </trkpt>
      <trkpt lat="45.5953" lon="6.11582">
        <ele>1508</ele>
        <time>2021-01-16T10:11:20.000Z</time>
      </trkpt>
      <trkpt lat="45.59532" lon="6.11587">
        <ele>1507.5999755859</ele>
        <time>2021-01-16T10:11:21.000Z</time>
      </trkpt>
      <trkpt lat="45.59536" lon="6.11598">
        <ele>1506.1999511719</ele>
        <time>2021-01-16T10:11:23.000Z</time>
      </trkpt>
      <trkpt lat="45.59536" lon="6.11604">
        <ele>1505.5999755859</ele>
        <time>2021-01-16T10:11:24.000Z</time>
      </trkpt>
      <trkpt lat="45.59536" lon="6.1161">
        <ele>1505</ele>
        <time>2021-01-16T10:11:25.000Z</time>
      </trkpt>
      <trkpt lat="45.59537" lon="6.11621">
        <ele>1503.4000244141</ele>
        <time>2021-01-16T10:11:27.000Z</time>
      </trkpt>
      <trkpt lat="45.59537" lon="6.11629">
        <ele>1502.4000244141</ele>
        <time>2021-01-16T10:11:28.000Z</time>
      </trkpt>
      <trkpt lat="45.59536" lon="6.1164">
        <ele>1500.8000488281</ele>
        <time>2021-01-16T10:11:30.000Z</time>
      </trkpt>
      <trkpt lat="45.59537" lon="6.11651">
        <ele>1499.8000488281</ele>
        <time>2021-01-16T10:11:33.000Z</time>
      </trkpt>
      <trkpt lat="45.59538" lon="6.11657">
        <ele>1498.5999755859</ele>
        <time>2021-01-16T10:11:35.000Z</time>
      </trkpt>
      <trkpt lat="45.59538" lon="6.11665">
        <ele>1497.4000244141</ele>
        <time>2021-01-16T10:11:37.000Z</time>
      </trkpt>
      <trkpt lat="45.59538" lon="6.11672">
        <ele>1497.1999511719</ele>
        <time>2021-01-16T10:11:38.000Z</time>
      </trkpt>
      <trkpt lat="45.59538" lon="6.11681">
        <ele>1496.8000488281</ele>
        <time>2021-01-16T10:11:39.000Z</time>
      </trkpt>
      <trkpt lat="45.59538" lon="6.11688">
        <ele>1496.1999511719</ele>
        <time>2021-01-16T10:11:40.000Z</time>
      </trkpt>
      <trkpt lat="45.59541" lon="6.11705">
        <ele>1494.4000244141</ele>
        <time>2021-01-16T10:11:43.000Z</time>
      </trkpt>
      <trkpt lat="45.59543" lon="6.11712">
        <ele>1493.4000244141</ele>
        <time>2021-01-16T10:11:44.000Z</time>
      </trkpt>
      <trkpt lat="45.59548" lon="6.11726">
        <ele>1492</ele>
        <time>2021-01-16T10:11:46.000Z</time>
      </trkpt>
      <trkpt lat="45.59551" lon="6.11734">
        <ele>1491</ele>
        <time>2021-01-16T10:11:47.000Z</time>
      </trkpt>
      <trkpt lat="45.59553" lon="6.11743">
        <ele>1490</ele>
        <time>2021-01-16T10:11:48.000Z</time>
      </trkpt>
      <trkpt lat="45.59555" lon="6.11753">
        <ele>1489</ele>
        <time>2021-01-16T10:11:49.000Z</time>
      </trkpt>
      <trkpt lat="45.59557" lon="6.11761">
        <ele>1487.8000488281</ele>
        <time>2021-01-16T10:11:50.000Z</time>
      </trkpt>
      <trkpt lat="45.59557" lon="6.1177">
        <ele>1486.5999755859</ele>
        <time>2021-01-16T10:11:51.000Z</time>
      </trkpt>
      <trkpt lat="45.59558" lon="6.11779">
        <ele>1485.1999511719</ele>
        <time>2021-01-16T10:11:52.000Z</time>
      </trkpt>
      <trkpt lat="45.59559" lon="6.11787">
        <ele>1484</ele>
        <time>2021-01-16T10:11:53.000Z</time>
      </trkpt>
      <trkpt lat="45.59559" lon="6.11796">
        <ele>1482.8000488281</ele>
        <time>2021-01-16T10:11:54.000Z</time>
      </trkpt>
      <trkpt lat="45.59561" lon="6.11802">
        <ele>1481.8000488281</ele>
        <time>2021-01-16T10:11:55.000Z</time>
      </trkpt>
      <trkpt lat="45.59562" lon="6.1181">
        <ele>1480.5999755859</ele>
        <time>2021-01-16T10:11:56.000Z</time>
      </trkpt>
      <trkpt lat="45.59564" lon="6.11817">
        <ele>1479.5999755859</ele>
        <time>2021-01-16T10:11:57.000Z</time>
      </trkpt>
      <trkpt lat="45.59562" lon="6.11825">
        <ele>1478.1999511719</ele>
        <time>2021-01-16T10:11:58.000Z</time>
      </trkpt>
      <trkpt lat="45.59558" lon="6.11833">
        <ele>1477</ele>
        <time>2021-01-16T10:11:59.000Z</time>
      </trkpt>
      <trkpt lat="45.59553" lon="6.11841">
        <ele>1475.8000488281</ele>
        <time>2021-01-16T10:12:00.000Z</time>
      </trkpt>
      <trkpt lat="45.59553" lon="6.11851">
        <ele>1474.4000244141</ele>
        <time>2021-01-16T10:12:01.000Z</time>
      </trkpt>
      <trkpt lat="45.59553" lon="6.1186">
        <ele>1473</ele>
        <time>2021-01-16T10:12:02.000Z</time>
      </trkpt>
      <trkpt lat="45.59552" lon="6.11871">
        <ele>1471.5999755859</ele>
        <time>2021-01-16T10:12:03.000Z</time>
      </trkpt>
      <trkpt lat="45.59554" lon="6.11882">
        <ele>1468.5999755859</ele>
        <time>2021-01-16T10:12:04.000Z</time>
      </trkpt>
      <trkpt lat="45.59556" lon="6.11891">
        <ele>1466.8000488281</ele>
        <time>2021-01-16T10:12:05.000Z</time>
      </trkpt>
      <trkpt lat="45.59553" lon="6.119">
        <ele>1464.4000244141</ele>
        <time>2021-01-16T10:12:06.000Z</time>
      </trkpt>
      <trkpt lat="45.59549" lon="6.11908">
        <ele>1461.5999755859</ele>
        <time>2021-01-16T10:12:07.000Z</time>
      </trkpt>
      <trkpt lat="45.59547" lon="6.11917">
        <ele>1458.4000244141</ele>
        <time>2021-01-16T10:12:08.000Z</time>
      </trkpt>
      <trkpt lat="45.59547" lon="6.11928">
        <ele>1455.5999755859</ele>
        <time>2021-01-16T10:12:09.000Z</time>
      </trkpt>
      <trkpt lat="45.59546" lon="6.11935">
        <ele>1453.8000488281</ele>
        <time>2021-01-16T10:12:10.000Z</time>
      </trkpt>
      <trkpt lat="45.59546" lon="6.11937">
        <ele>1452.5999755859</ele>
        <time>2021-01-16T10:12:11.000Z</time>
      </trkpt>
      <trkpt lat="45.59547" lon="6.11941">
        <ele>1451.1999511719</ele>
        <time>2021-01-16T10:12:12.000Z</time>
      </trkpt>
      <trkpt lat="45.59547" lon="6.11944">
        <ele>1449.1999511719</ele>
        <time>2021-01-16T10:12:13.000Z</time>
      </trkpt>
      <trkpt lat="45.59548" lon="6.11946">
        <ele>1446.8000488281</ele>
        <time>2021-01-16T10:12:14.000Z</time>
      </trkpt>
      <trkpt lat="45.59549" lon="6.11947">
        <ele>1444.8000488281</ele>
        <time>2021-01-16T10:12:15.000Z</time>
      </trkpt>
      <trkpt lat="45.59549" lon="6.11947">
        <ele>1443.5999755859</ele>
        <time>2021-01-16T10:12:16.000Z</time>
      </trkpt>
      <trkpt lat="45.5955" lon="6.11941">
        <ele>1442.4000244141</ele>
        <time>2021-01-16T10:12:18.000Z</time>
      </trkpt>
      <trkpt lat="45.5955" lon="6.1194">
        <ele>1441.1999511719</ele>
        <time>2021-01-16T10:12:28.000Z</time>
      </trkpt>
      <trkpt lat="45.59553" lon="6.11934">
        <ele>1440</ele>
        <time>2021-01-16T10:12:32.000Z</time>
      </trkpt>
      <trkpt lat="45.59552" lon="6.11936">
        <ele>1440.8000488281</ele>
        <time>2021-01-16T10:12:35.000Z</time>
      </trkpt>
      <trkpt lat="45.59552" lon="6.1194">
        <ele>1441.5999755859</ele>
        <time>2021-01-16T10:12:36.000Z</time>
      </trkpt>
      <trkpt lat="45.59557" lon="6.11949">
        <ele>1441</ele>
        <time>2021-01-16T10:12:38.000Z</time>
      </trkpt>
      <trkpt lat="45.59568" lon="6.11962">
        <ele>1439.8000488281</ele>
        <time>2021-01-16T10:12:41.000Z</time>
      </trkpt>
      <trkpt lat="45.59571" lon="6.11966">
        <ele>1438.1999511719</ele>
        <time>2021-01-16T10:12:42.000Z</time>
      </trkpt>
      <trkpt lat="45.59576" lon="6.11971">
        <ele>1436.5999755859</ele>
        <time>2021-01-16T10:12:43.000Z</time>
      </trkpt>
      <trkpt lat="45.59579" lon="6.11977">
        <ele>1435</ele>
        <time>2021-01-16T10:12:44.000Z</time>
      </trkpt>
      <trkpt lat="45.5958" lon="6.11984">
        <ele>1433</ele>
        <time>2021-01-16T10:12:45.000Z</time>
      </trkpt>
      <trkpt lat="45.59578" lon="6.11989">
        <ele>1430.4000244141</ele>
        <time>2021-01-16T10:12:46.000Z</time>
      </trkpt>
      <trkpt lat="45.59575" lon="6.11996">
        <ele>1426.8000488281</ele>
        <time>2021-01-16T10:12:47.000Z</time>
      </trkpt>
      <trkpt lat="45.59574" lon="6.12003">
        <ele>1424</ele>
        <time>2021-01-16T10:12:48.000Z</time>
      </trkpt>
      <trkpt lat="45.59576" lon="6.12008">
        <ele>1421.8000488281</ele>
        <time>2021-01-16T10:12:49.000Z</time>
      </trkpt>
      <trkpt lat="45.5958" lon="6.12014">
        <ele>1419.8000488281</ele>
        <time>2021-01-16T10:12:50.000Z</time>
      </trkpt>
      <trkpt lat="45.59584" lon="6.12018">
        <ele>1418.1999511719</ele>
        <time>2021-01-16T10:12:51.000Z</time>
      </trkpt>
      <trkpt lat="45.59584" lon="6.12022">
        <ele>1415.1999511719</ele>
        <time>2021-01-16T10:12:52.000Z</time>
      </trkpt>
      <trkpt lat="45.59582" lon="6.12025">
        <ele>1412.4000244141</ele>
        <time>2021-01-16T10:12:53.000Z</time>
      </trkpt>
      <trkpt lat="45.59579" lon="6.12028">
        <ele>1409</ele>
        <time>2021-01-16T10:12:54.000Z</time>
      </trkpt>
      <trkpt lat="45.59579" lon="6.12034">
        <ele>1407</ele>
        <time>2021-01-16T10:12:55.000Z</time>
      </trkpt>
      <trkpt lat="45.59579" lon="6.12039">
        <ele>1404.5999755859</ele>
        <time>2021-01-16T10:12:56.000Z</time>
      </trkpt>
      <trkpt lat="45.59578" lon="6.12043">
        <ele>1402.4000244141</ele>
        <time>2021-01-16T10:12:57.000Z</time>
      </trkpt>
      <trkpt lat="45.59574" lon="6.12045">
        <ele>1400.4000244141</ele>
        <time>2021-01-16T10:12:58.000Z</time>
      </trkpt>
      <trkpt lat="45.59571" lon="6.12047">
        <ele>1399.4000244141</ele>
        <time>2021-01-16T10:12:59.000Z</time>
      </trkpt>
      <trkpt lat="45.59572" lon="6.12052">
        <ele>1397.5999755859</ele>
        <time>2021-01-16T10:13:00.000Z</time>
      </trkpt>
      <trkpt lat="45.59574" lon="6.12058">
        <ele>1396.1999511719</ele>
        <time>2021-01-16T10:13:01.000Z</time>
      </trkpt>
      <trkpt lat="45.59577" lon="6.12058">
        <ele>1394</ele>
        <time>2021-01-16T10:13:03.000Z</time>
      </trkpt>
      <trkpt lat="45.59577" lon="6.12058">
        <ele>1392.4000244141</ele>
        <time>2021-01-16T10:13:04.000Z</time>
      </trkpt>
      <trkpt lat="45.59577" lon="6.12058">
        <ele>1390.1999511719</ele>
        <time>2021-01-16T10:13:05.000Z</time>
      </trkpt>
      <trkpt lat="45.59577" lon="6.12057">
        <ele>1388.1999511719</ele>
        <time>2021-01-16T10:13:06.000Z</time>
      </trkpt>
      <trkpt lat="45.59577" lon="6.12057">
        <ele>1386.5999755859</ele>
        <time>2021-01-16T10:13:07.000Z</time>
      </trkpt>
      <trkpt lat="45.59577" lon="6.12055">
        <ele>1385.5999755859</ele>
        <time>2021-01-16T10:13:08.000Z</time>
      </trkpt>
      <trkpt lat="45.59577" lon="6.12052">
        <ele>1384.4000244141</ele>
        <time>2021-01-16T10:13:10.000Z</time>
      </trkpt>
      <trkpt lat="45.59578" lon="6.12046">
        <ele>1383.5999755859</ele>
        <time>2021-01-16T10:13:19.000Z</time>
      </trkpt>
      <trkpt lat="45.59578" lon="6.12047">
        <ele>1383.5999755859</ele>
        <time>2021-01-16T10:13:27.000Z</time>
      </trkpt>
      <trkpt lat="45.59577" lon="6.12052">
        <ele>1384.1999511719</ele>
        <time>2021-01-16T10:13:35.000Z</time>
      </trkpt>
      <trkpt lat="45.59577" lon="6.12055">
        <ele>1384.1999511719</ele>
        <time>2021-01-16T10:13:36.000Z</time>
      </trkpt>
      <trkpt lat="45.59574" lon="6.12059">
        <ele>1384</ele>
        <time>2021-01-16T10:13:37.000Z</time>
      </trkpt>
      <trkpt lat="45.59568" lon="6.12063">
        <ele>1383.4000244141</ele>
        <time>2021-01-16T10:13:39.000Z</time>
      </trkpt>
      <trkpt lat="45.59566" lon="6.12063">
        <ele>1382.4000244141</ele>
        <time>2021-01-16T10:13:40.000Z</time>
      </trkpt>
      <trkpt lat="45.59562" lon="6.12063">
        <ele>1382.1999511719</ele>
        <time>2021-01-16T10:13:41.000Z</time>
      </trkpt>
      <trkpt lat="45.59555" lon="6.12067">
        <ele>1380.5999755859</ele>
        <time>2021-01-16T10:13:43.000Z</time>
      </trkpt>
      <trkpt lat="45.5955" lon="6.12069">
        <ele>1380.1999511719</ele>
        <time>2021-01-16T10:13:44.000Z</time>
      </trkpt>
      <trkpt lat="45.59544" lon="6.12072">
        <ele>1379</ele>
        <time>2021-01-16T10:13:46.000Z</time>
      </trkpt>
      <trkpt lat="45.5954" lon="6.12074">
        <ele>1377.8000488281</ele>
        <time>2021-01-16T10:13:47.000Z</time>
      </trkpt>
      <trkpt lat="45.59536" lon="6.12075">
        <ele>1376.5999755859</ele>
        <time>2021-01-16T10:13:48.000Z</time>
      </trkpt>
      <trkpt lat="45.59533" lon="6.12076">
        <ele>1375.1999511719</ele>
        <time>2021-01-16T10:13:49.000Z</time>
      </trkpt>
      <trkpt lat="45.59529" lon="6.12078">
        <ele>1373.8000488281</ele>
        <time>2021-01-16T10:13:50.000Z</time>
      </trkpt>
      <trkpt lat="45.59525" lon="6.12078">
        <ele>1372.5999755859</ele>
        <time>2021-01-16T10:13:51.000Z</time>
      </trkpt>
      <trkpt lat="45.59521" lon="6.12081">
        <ele>1372</ele>
        <time>2021-01-16T10:13:52.000Z</time>
      </trkpt>
      <trkpt lat="45.59517" lon="6.12082">
        <ele>1371</ele>
        <time>2021-01-16T10:13:53.000Z</time>
      </trkpt>
      <trkpt lat="45.59515" lon="6.12082">
        <ele>1370</ele>
        <time>2021-01-16T10:13:54.000Z</time>
      </trkpt>
      <trkpt lat="45.59513" lon="6.12082">
        <ele>1367.8000488281</ele>
        <time>2021-01-16T10:13:55.000Z</time>
      </trkpt>
      <trkpt lat="45.5951" lon="6.12084">
        <ele>1366.5999755859</ele>
        <time>2021-01-16T10:13:56.000Z</time>
      </trkpt>
      <trkpt lat="45.59507" lon="6.12084">
        <ele>1365.4000244141</ele>
        <time>2021-01-16T10:13:57.000Z</time>
      </trkpt>
      <trkpt lat="45.59504" lon="6.12085">
        <ele>1363.1999511719</ele>
        <time>2021-01-16T10:13:58.000Z</time>
      </trkpt>
      <trkpt lat="45.595" lon="6.12086">
        <ele>1361</ele>
        <time>2021-01-16T10:13:59.000Z</time>
      </trkpt>
      <trkpt lat="45.59492" lon="6.1209">
        <ele>1360</ele>
        <time>2021-01-16T10:14:01.000Z</time>
      </trkpt>
      <trkpt lat="45.59488" lon="6.1209">
        <ele>1359.8000488281</ele>
        <time>2021-01-16T10:14:02.000Z</time>
      </trkpt>
      <trkpt lat="45.59482" lon="6.12091">
        <ele>1356.8000488281</ele>
        <time>2021-01-16T10:14:04.000Z</time>
      </trkpt>
      <trkpt lat="45.59479" lon="6.12092">
        <ele>1355.4000244141</ele>
        <time>2021-01-16T10:14:05.000Z</time>
      </trkpt>
      <trkpt lat="45.59468" lon="6.12091">
        <ele>1353.8000488281</ele>
        <time>2021-01-16T10:14:07.000Z</time>
      </trkpt>
      <trkpt lat="45.59463" lon="6.12092">
        <ele>1353.1999511719</ele>
        <time>2021-01-16T10:14:08.000Z</time>
      </trkpt>
      <trkpt lat="45.59456" lon="6.12094">
        <ele>1352.5999755859</ele>
        <time>2021-01-16T10:14:09.000Z</time>
      </trkpt>
      <trkpt lat="45.59446" lon="6.12097">
        <ele>1350.8000488281</ele>
        <time>2021-01-16T10:14:11.000Z</time>
      </trkpt>
      <trkpt lat="45.59442" lon="6.12098">
        <ele>1349</ele>
        <time>2021-01-16T10:14:12.000Z</time>
      </trkpt>
      <trkpt lat="45.59438" lon="6.121">
        <ele>1346.5999755859</ele>
        <time>2021-01-16T10:14:13.000Z</time>
      </trkpt>
      <trkpt lat="45.59435" lon="6.12098">
        <ele>1344.8000488281</ele>
        <time>2021-01-16T10:14:14.000Z</time>
      </trkpt>
      <trkpt lat="45.59428" lon="6.12094">
        <ele>1343.1999511719</ele>
        <time>2021-01-16T10:14:15.000Z</time>
      </trkpt>
      <trkpt lat="45.5942" lon="6.12087">
        <ele>1341.8000488281</ele>
        <time>2021-01-16T10:14:16.000Z</time>
      </trkpt>
      <trkpt lat="45.59416" lon="6.12084">
        <ele>1340.4000244141</ele>
        <time>2021-01-16T10:14:17.000Z</time>
      </trkpt>
      <trkpt lat="45.59415" lon="6.12085">
        <ele>1338.4000244141</ele>
        <time>2021-01-16T10:14:19.000Z</time>
      </trkpt>
      <trkpt lat="45.59413" lon="6.12095">
        <ele>1336.8000488281</ele>
        <time>2021-01-16T10:14:21.000Z</time>
      </trkpt>
      <trkpt lat="45.59411" lon="6.12096">
        <ele>1336</ele>
        <time>2021-01-16T10:14:32.000Z</time>
      </trkpt>
      <trkpt lat="45.5941" lon="6.12095">
        <ele>1335.8000488281</ele>
        <time>2021-01-16T10:14:41.000Z</time>
      </trkpt>
      <trkpt lat="45.59409" lon="6.121">
        <ele>1335.8000488281</ele>
        <time>2021-01-16T10:14:43.000Z</time>
      </trkpt>
      <trkpt lat="45.5941" lon="6.12101">
        <ele>1335.8000488281</ele>
        <time>2021-01-16T10:14:44.000Z</time>
      </trkpt>
      <trkpt lat="45.59411" lon="6.1211">
        <ele>1334.5999755859</ele>
        <time>2021-01-16T10:14:48.000Z</time>
      </trkpt>
      <trkpt lat="45.59412" lon="6.12109">
        <ele>1332.8000488281</ele>
        <time>2021-01-16T10:14:50.000Z</time>
      </trkpt>
      <trkpt lat="45.59411" lon="6.12112">
        <ele>1329.8000488281</ele>
        <time>2021-01-16T10:14:52.000Z</time>
      </trkpt>
      <trkpt lat="45.59409" lon="6.12112">
        <ele>1328.5999755859</ele>
        <time>2021-01-16T10:14:53.000Z</time>
      </trkpt>
      <trkpt lat="45.59405" lon="6.12112">
        <ele>1327.1999511719</ele>
        <time>2021-01-16T10:14:56.000Z</time>
      </trkpt>
      <trkpt lat="45.59403" lon="6.12113">
        <ele>1326</ele>
        <time>2021-01-16T10:14:58.000Z</time>
      </trkpt>
      <trkpt lat="45.59403" lon="6.12113">
        <ele>1325.4000244141</ele>
        <time>2021-01-16T10:15:00.000Z</time>
      </trkpt>
      <trkpt lat="45.59402" lon="6.12116">
        <ele>1325.4000244141</ele>
        <time>2021-01-16T10:15:01.000Z</time>
      </trkpt>
      <trkpt lat="45.59403" lon="6.12122">
        <ele>1324.4000244141</ele>
        <time>2021-01-16T10:15:03.000Z</time>
      </trkpt>
      <trkpt lat="45.59408" lon="6.12135">
        <ele>1323.1999511719</ele>
        <time>2021-01-16T10:15:07.000Z</time>
      </trkpt>
      <trkpt lat="45.59408" lon="6.1214">
        <ele>1322</ele>
        <time>2021-01-16T10:15:08.000Z</time>
      </trkpt>
      <trkpt lat="45.59408" lon="6.12143">
        <ele>1320.5999755859</ele>
        <time>2021-01-16T10:15:09.000Z</time>
      </trkpt>
      <trkpt lat="45.59411" lon="6.1215">
        <ele>1319</ele>
        <time>2021-01-16T10:15:10.000Z</time>
      </trkpt>
      <trkpt lat="45.59411" lon="6.12155">
        <ele>1317.8000488281</ele>
        <time>2021-01-16T10:15:11.000Z</time>
      </trkpt>
      <trkpt lat="45.59411" lon="6.12162">
        <ele>1316.8000488281</ele>
        <time>2021-01-16T10:15:12.000Z</time>
      </trkpt>
      <trkpt lat="45.59411" lon="6.12168">
        <ele>1315.8000488281</ele>
        <time>2021-01-16T10:15:13.000Z</time>
      </trkpt>
      <trkpt lat="45.5941" lon="6.12173">
        <ele>1314.4000244141</ele>
        <time>2021-01-16T10:15:14.000Z</time>
      </trkpt>
      <trkpt lat="45.59409" lon="6.12179">
        <ele>1312.1999511719</ele>
        <time>2021-01-16T10:15:15.000Z</time>
      </trkpt>
      <trkpt lat="45.59411" lon="6.12185">
        <ele>1306.1999511719</ele>
        <time>2021-01-16T10:15:16.000Z</time>
      </trkpt>
      <trkpt lat="45.59412" lon="6.12191">
        <ele>1303.4000244141</ele>
        <time>2021-01-16T10:15:17.000Z</time>
      </trkpt>
      <trkpt lat="45.59413" lon="6.12197">
        <ele>1301.8000488281</ele>
        <time>2021-01-16T10:15:18.000Z</time>
      </trkpt>
      <trkpt lat="45.59414" lon="6.12203">
        <ele>1299.5999755859</ele>
        <time>2021-01-16T10:15:19.000Z</time>
      </trkpt>
      <trkpt lat="45.59411" lon="6.12208">
        <ele>1296.5999755859</ele>
        <time>2021-01-16T10:15:20.000Z</time>
      </trkpt>
      <trkpt lat="45.59404" lon="6.12211">
        <ele>1293.5999755859</ele>
        <time>2021-01-16T10:15:21.000Z</time>
      </trkpt>
      <trkpt lat="45.59398" lon="6.12211">
        <ele>1291.4000244141</ele>
        <time>2021-01-16T10:15:22.000Z</time>
      </trkpt>
      <trkpt lat="45.59394" lon="6.12212">
        <ele>1290</ele>
        <time>2021-01-16T10:15:23.000Z</time>
      </trkpt>
      <trkpt lat="45.59387" lon="6.12211">
        <ele>1288.1999511719</ele>
        <time>2021-01-16T10:15:25.000Z</time>
      </trkpt>
      <trkpt lat="45.59382" lon="6.12214">
        <ele>1287</ele>
        <time>2021-01-16T10:15:26.000Z</time>
      </trkpt>
      <trkpt lat="45.59378" lon="6.12216">
        <ele>1285.8000488281</ele>
        <time>2021-01-16T10:15:27.000Z</time>
      </trkpt>
      <trkpt lat="45.59375" lon="6.12218">
        <ele>1284.8000488281</ele>
        <time>2021-01-16T10:15:28.000Z</time>
      </trkpt>
      <trkpt lat="45.59376" lon="6.12222">
        <ele>1283.5999755859</ele>
        <time>2021-01-16T10:15:29.000Z</time>
      </trkpt>
      <trkpt lat="45.59375" lon="6.12227">
        <ele>1282.1999511719</ele>
        <time>2021-01-16T10:15:30.000Z</time>
      </trkpt>
      <trkpt lat="45.59372" lon="6.12231">
        <ele>1281</ele>
        <time>2021-01-16T10:15:31.000Z</time>
      </trkpt>
      <trkpt lat="45.59371" lon="6.12236">
        <ele>1279.8000488281</ele>
        <time>2021-01-16T10:15:32.000Z</time>
      </trkpt>
      <trkpt lat="45.5937" lon="6.12243">
        <ele>1278.8000488281</ele>
        <time>2021-01-16T10:15:33.000Z</time>
      </trkpt>
      <trkpt lat="45.59369" lon="6.12255">
        <ele>1276.8000488281</ele>
        <time>2021-01-16T10:15:35.000Z</time>
      </trkpt>
      <trkpt lat="45.59367" lon="6.1226">
        <ele>1275.1999511719</ele>
        <time>2021-01-16T10:15:36.000Z</time>
      </trkpt>
      <trkpt lat="45.59364" lon="6.12262">
        <ele>1272.5999755859</ele>
        <time>2021-01-16T10:15:37.000Z</time>
      </trkpt>
      <trkpt lat="45.59361" lon="6.1226">
        <ele>1270.1999511719</ele>
        <time>2021-01-16T10:15:38.000Z</time>
      </trkpt>
      <trkpt lat="45.59359" lon="6.12259">
        <ele>1268.8000488281</ele>
        <time>2021-01-16T10:15:39.000Z</time>
      </trkpt>
      <trkpt lat="45.59357" lon="6.12258">
        <ele>1267.1999511719</ele>
        <time>2021-01-16T10:15:40.000Z</time>
      </trkpt>
      <trkpt lat="45.59358" lon="6.12256">
        <ele>1266.1999511719</ele>
        <time>2021-01-16T10:15:41.000Z</time>
      </trkpt>
      <trkpt lat="45.59358" lon="6.12256">
        <ele>1264.4000244141</ele>
        <time>2021-01-16T10:15:44.000Z</time>
      </trkpt>
      <trkpt lat="45.59358" lon="6.12254">
        <ele>1263.5999755859</ele>
        <time>2021-01-16T10:15:45.000Z</time>
      </trkpt>
      <trkpt lat="45.59358" lon="6.12253">
        <ele>1263</ele>
        <time>2021-01-16T10:15:46.000Z</time>
      </trkpt>
      <trkpt lat="45.59358" lon="6.12252">
        <ele>1261.8000488281</ele>
        <time>2021-01-16T10:15:48.000Z</time>
      </trkpt>
      <trkpt lat="45.59359" lon="6.12253">
        <ele>1261.4000244141</ele>
        <time>2021-01-16T10:15:52.000Z</time>
      </trkpt>
      <trkpt lat="45.59359" lon="6.12253">
        <ele>1262.4000244141</ele>
        <time>2021-01-16T10:16:03.000Z</time>
      </trkpt>
      <trkpt lat="45.59359" lon="6.12252">
        <ele>1262.4000244141</ele>
        <time>2021-01-16T10:16:12.000Z</time>
      </trkpt>
      <trkpt lat="45.59355" lon="6.12255">
        <ele>1262.4000244141</ele>
        <time>2021-01-16T10:16:16.000Z</time>
      </trkpt>
      <trkpt lat="45.59352" lon="6.12258">
        <ele>1262.1999511719</ele>
        <time>2021-01-16T10:16:17.000Z</time>
      </trkpt>
      <trkpt lat="45.59344" lon="6.12262">
        <ele>1261.8000488281</ele>
        <time>2021-01-16T10:16:19.000Z</time>
      </trkpt>
      <trkpt lat="45.59339" lon="6.12265">
        <ele>1261.5999755859</ele>
        <time>2021-01-16T10:16:20.000Z</time>
      </trkpt>
      <trkpt lat="45.59329" lon="6.12267">
        <ele>1259.8000488281</ele>
        <time>2021-01-16T10:16:22.000Z</time>
      </trkpt>
      <trkpt lat="45.59324" lon="6.12269">
        <ele>1258</ele>
        <time>2021-01-16T10:16:23.000Z</time>
      </trkpt>
      <trkpt lat="45.5932" lon="6.12271">
        <ele>1256.1999511719</ele>
        <time>2021-01-16T10:16:24.000Z</time>
      </trkpt>
      <trkpt lat="45.59318" lon="6.12279">
        <ele>1254.8000488281</ele>
        <time>2021-01-16T10:16:25.000Z</time>
      </trkpt>
      <trkpt lat="45.59317" lon="6.12287">
        <ele>1253.4000244141</ele>
        <time>2021-01-16T10:16:26.000Z</time>
      </trkpt>
      <trkpt lat="45.59312" lon="6.12293">
        <ele>1251.8000488281</ele>
        <time>2021-01-16T10:16:27.000Z</time>
      </trkpt>
      <trkpt lat="45.59307" lon="6.12297">
        <ele>1249.4000244141</ele>
        <time>2021-01-16T10:16:28.000Z</time>
      </trkpt>
      <trkpt lat="45.59302" lon="6.12298">
        <ele>1248.1999511719</ele>
        <time>2021-01-16T10:16:29.000Z</time>
      </trkpt>
      <trkpt lat="45.59297" lon="6.12298">
        <ele>1247</ele>
        <time>2021-01-16T10:16:30.000Z</time>
      </trkpt>
      <trkpt lat="45.5929" lon="6.12299">
        <ele>1244.8000488281</ele>
        <time>2021-01-16T10:16:32.000Z</time>
      </trkpt>
      <trkpt lat="45.59285" lon="6.12302">
        <ele>1243.8000488281</ele>
        <time>2021-01-16T10:16:33.000Z</time>
      </trkpt>
      <trkpt lat="45.59281" lon="6.12304">
        <ele>1243</ele>
        <time>2021-01-16T10:16:34.000Z</time>
      </trkpt>
      <trkpt lat="45.59277" lon="6.12307">
        <ele>1242.4000244141</ele>
        <time>2021-01-16T10:16:35.000Z</time>
      </trkpt>
      <trkpt lat="45.59277" lon="6.12311">
        <ele>1241.5999755859</ele>
        <time>2021-01-16T10:16:36.000Z</time>
      </trkpt>
      <trkpt lat="45.59278" lon="6.12313">
        <ele>1241</ele>
        <time>2021-01-16T10:16:37.000Z</time>
      </trkpt>
      <trkpt lat="45.59276" lon="6.12317">
        <ele>1239</ele>
        <time>2021-01-16T10:16:39.000Z</time>
      </trkpt>
      <trkpt lat="45.59276" lon="6.12316">
        <ele>1237.5999755859</ele>
        <time>2021-01-16T10:16:40.000Z</time>
      </trkpt>
      <trkpt lat="45.59276" lon="6.12317">
        <ele>1236</ele>
        <time>2021-01-16T10:16:42.000Z</time>
      </trkpt>
      <trkpt lat="45.59276" lon="6.12317">
        <ele>1234.8000488281</ele>
        <time>2021-01-16T10:16:44.000Z</time>
      </trkpt>
      <trkpt lat="45.59276" lon="6.12317">
        <ele>1234.4000244141</ele>
        <time>2021-01-16T10:16:49.000Z</time>
      </trkpt>
      <trkpt lat="45.59273" lon="6.12319">
        <ele>1233.5999755859</ele>
        <time>2021-01-16T10:16:57.000Z</time>
      </trkpt>
      <trkpt lat="45.59273" lon="6.1232">
        <ele>1233</ele>
        <time>2021-01-16T10:17:04.000Z</time>
      </trkpt>
      <trkpt lat="45.59271" lon="6.12322">
        <ele>1233.1999511719</ele>
        <time>2021-01-16T10:17:21.000Z</time>
      </trkpt>
      <trkpt lat="45.59269" lon="6.12327">
        <ele>1232.8000488281</ele>
        <time>2021-01-16T10:17:25.000Z</time>
      </trkpt>
      <trkpt lat="45.59269" lon="6.12327">
        <ele>1232.4000244141</ele>
        <time>2021-01-16T10:17:26.000Z</time>
      </trkpt>
      <trkpt lat="45.59269" lon="6.12327">
        <ele>1231.4000244141</ele>
        <time>2021-01-16T10:17:29.000Z</time>
      </trkpt>
      <trkpt lat="45.59268" lon="6.12332">
        <ele>1231</ele>
        <time>2021-01-16T10:17:32.000Z</time>
      </trkpt>
      <trkpt lat="45.59262" lon="6.12343">
        <ele>1230.5999755859</ele>
        <time>2021-01-16T10:17:34.000Z</time>
      </trkpt>
      <trkpt lat="45.59262" lon="6.12349">
        <ele>1230</ele>
        <time>2021-01-16T10:17:35.000Z</time>
      </trkpt>
      <trkpt lat="45.59257" lon="6.12362">
        <ele>1228.1999511719</ele>
        <time>2021-01-16T10:17:38.000Z</time>
      </trkpt>
      <trkpt lat="45.59258" lon="6.12368">
        <ele>1226.8000488281</ele>
        <time>2021-01-16T10:17:39.000Z</time>
      </trkpt>
      <trkpt lat="45.59258" lon="6.1237">
        <ele>1224.8000488281</ele>
        <time>2021-01-16T10:17:40.000Z</time>
      </trkpt>
      <trkpt lat="45.59258" lon="6.12371">
        <ele>1224.1999511719</ele>
        <time>2021-01-16T10:17:41.000Z</time>
      </trkpt>
      <trkpt lat="45.59258" lon="6.12373">
        <ele>1223.1999511719</ele>
        <time>2021-01-16T10:17:42.000Z</time>
      </trkpt>
      <trkpt lat="45.59257" lon="6.12374">
        <ele>1221.4000244141</ele>
        <time>2021-01-16T10:17:43.000Z</time>
      </trkpt>
      <trkpt lat="45.59257" lon="6.12376">
        <ele>1219.5999755859</ele>
        <time>2021-01-16T10:17:44.000Z</time>
      </trkpt>
      <trkpt lat="45.59257" lon="6.12377">
        <ele>1218.5999755859</ele>
        <time>2021-01-16T10:17:45.000Z</time>
      </trkpt>
      <trkpt lat="45.59257" lon="6.12376">
        <ele>1217.5999755859</ele>
        <time>2021-01-16T10:17:48.000Z</time>
      </trkpt>
      <trkpt lat="45.59257" lon="6.12376">
        <ele>1217.4000244141</ele>
        <time>2021-01-16T10:17:49.000Z</time>
      </trkpt>
      <trkpt lat="45.59257" lon="6.12376">
        <ele>1217.1999511719</ele>
        <time>2021-01-16T10:18:04.000Z</time>
      </trkpt>
      <trkpt lat="45.59257" lon="6.12376">
        <ele>1217.1999511719</ele>
        <time>2021-01-16T10:18:19.000Z</time>
      </trkpt>
      <trkpt lat="45.59257" lon="6.12375">
        <ele>1217.1999511719</ele>
        <time>2021-01-16T10:18:36.000Z</time>
      </trkpt>
      <trkpt lat="45.59257" lon="6.12375">
        <ele>1217.4000244141</ele>
        <time>2021-01-16T10:18:50.000Z</time>
      </trkpt>
      <trkpt lat="45.59263" lon="6.12368">
        <ele>1217.5999755859</ele>
        <time>2021-01-16T10:18:53.000Z</time>
      </trkpt>
      <trkpt lat="45.59267" lon="6.12371">
        <ele>1217.4000244141</ele>
        <time>2021-01-16T10:18:55.000Z</time>
      </trkpt>
      <trkpt lat="45.59264" lon="6.12372">
        <ele>1217</ele>
        <time>2021-01-16T10:18:56.000Z</time>
      </trkpt>
      <trkpt lat="45.5926" lon="6.12373">
        <ele>1216</ele>
        <time>2021-01-16T10:18:57.000Z</time>
      </trkpt>
      <trkpt lat="45.59258" lon="6.12373">
        <ele>1214.5999755859</ele>
        <time>2021-01-16T10:18:58.000Z</time>
      </trkpt>
      <trkpt lat="45.59254" lon="6.1238">
        <ele>1213</ele>
        <time>2021-01-16T10:19:00.000Z</time>
      </trkpt>
      <trkpt lat="45.59251" lon="6.12385">
        <ele>1211</ele>
        <time>2021-01-16T10:19:02.000Z</time>
      </trkpt>
      <trkpt lat="45.5925" lon="6.12392">
        <ele>1209.4000244141</ele>
        <time>2021-01-16T10:19:03.000Z</time>
      </trkpt>
      <trkpt lat="45.5925" lon="6.12399">
        <ele>1207.1999511719</ele>
        <time>2021-01-16T10:19:04.000Z</time>
      </trkpt>
      <trkpt lat="45.59247" lon="6.12404">
        <ele>1204.5999755859</ele>
        <time>2021-01-16T10:19:05.000Z</time>
      </trkpt>
      <trkpt lat="45.59247" lon="6.12412">
        <ele>1202.5999755859</ele>
        <time>2021-01-16T10:19:06.000Z</time>
      </trkpt>
      <trkpt lat="45.59246" lon="6.12417">
        <ele>1201.5999755859</ele>
        <time>2021-01-16T10:19:07.000Z</time>
      </trkpt>
      <trkpt lat="45.59246" lon="6.12418">
        <ele>1201</ele>
        <time>2021-01-16T10:19:08.000Z</time>
      </trkpt>
      <trkpt lat="45.59245" lon="6.1242">
        <ele>1200.4000244141</ele>
        <time>2021-01-16T10:19:09.000Z</time>
      </trkpt>
      <trkpt lat="45.59245" lon="6.12424">
        <ele>1199</ele>
        <time>2021-01-16T10:19:10.000Z</time>
      </trkpt>
      <trkpt lat="45.59245" lon="6.12427">
        <ele>1196.5999755859</ele>
        <time>2021-01-16T10:19:11.000Z</time>
      </trkpt>
      <trkpt lat="45.59245" lon="6.12429">
        <ele>1194.1999511719</ele>
        <time>2021-01-16T10:19:12.000Z</time>
      </trkpt>
      <trkpt lat="45.59244" lon="6.12427">
        <ele>1192.1999511719</ele>
        <time>2021-01-16T10:19:13.000Z</time>
      </trkpt>
      <trkpt lat="45.59243" lon="6.12427">
        <ele>1190.5999755859</ele>
        <time>2021-01-16T10:19:14.000Z</time>
      </trkpt>
      <trkpt lat="45.59243" lon="6.12425">
        <ele>1189.1999511719</ele>
        <time>2021-01-16T10:19:15.000Z</time>
      </trkpt>
      <trkpt lat="45.59243" lon="6.12423">
        <ele>1187.4000244141</ele>
        <time>2021-01-16T10:19:16.000Z</time>
      </trkpt>
      <trkpt lat="45.59244" lon="6.12422">
        <ele>1186.8000488281</ele>
        <time>2021-01-16T10:19:18.000Z</time>
      </trkpt>
      <trkpt lat="45.59244" lon="6.12424">
        <ele>1186.4000244141</ele>
        <time>2021-01-16T10:19:24.000Z</time>
      </trkpt>
      <trkpt lat="45.59242" lon="6.12427">
        <ele>1186.4000244141</ele>
        <time>2021-01-16T10:19:25.000Z</time>
      </trkpt>
      <trkpt lat="45.59234" lon="6.12432">
        <ele>1186.1999511719</ele>
        <time>2021-01-16T10:19:28.000Z</time>
      </trkpt>
      <trkpt lat="45.5923" lon="6.12433">
        <ele>1185.8000488281</ele>
        <time>2021-01-16T10:19:29.000Z</time>
      </trkpt>
      <trkpt lat="45.59226" lon="6.12442">
        <ele>1184.4000244141</ele>
        <time>2021-01-16T10:19:31.000Z</time>
      </trkpt>
      <trkpt lat="45.59226" lon="6.1245">
        <ele>1183.4000244141</ele>
        <time>2021-01-16T10:19:32.000Z</time>
      </trkpt>
      <trkpt lat="45.59227" lon="6.12455">
        <ele>1182.4000244141</ele>
        <time>2021-01-16T10:19:33.000Z</time>
      </trkpt>
      <trkpt lat="45.59227" lon="6.12457">
        <ele>1180.1999511719</ele>
        <time>2021-01-16T10:19:35.000Z</time>
      </trkpt>
      <trkpt lat="45.59227" lon="6.12457">
        <ele>1178.8000488281</ele>
        <time>2021-01-16T10:19:36.000Z</time>
      </trkpt>
      <trkpt lat="45.59227" lon="6.12458">
        <ele>1177.5999755859</ele>
        <time>2021-01-16T10:19:37.000Z</time>
      </trkpt>
      <trkpt lat="45.59227" lon="6.12458">
        <ele>1176.1999511719</ele>
        <time>2021-01-16T10:19:39.000Z</time>
      </trkpt>
      <trkpt lat="45.59227" lon="6.12458">
        <ele>1175.1999511719</ele>
        <time>2021-01-16T10:19:49.000Z</time>
      </trkpt>
      <trkpt lat="45.59227" lon="6.12458">
        <ele>1175.1999511719</ele>
        <time>2021-01-16T10:19:52.000Z</time>
      </trkpt>
      <trkpt lat="45.59226" lon="6.12461">
        <ele>1175</ele>
        <time>2021-01-16T10:20:02.000Z</time>
      </trkpt>
      <trkpt lat="45.59223" lon="6.12466">
        <ele>1173.5999755859</ele>
        <time>2021-01-16T10:20:05.000Z</time>
      </trkpt>
      <trkpt lat="45.59222" lon="6.12466">
        <ele>1172.5999755859</ele>
        <time>2021-01-16T10:20:07.000Z</time>
      </trkpt>
      <trkpt lat="45.59221" lon="6.12469">
        <ele>1171.4000244141</ele>
        <time>2021-01-16T10:20:11.000Z</time>
      </trkpt>
      <trkpt lat="45.59221" lon="6.12469">
        <ele>1170.8000488281</ele>
        <time>2021-01-16T10:20:14.000Z</time>
      </trkpt>
      <trkpt lat="45.59219" lon="6.12469">
        <ele>1170.5999755859</ele>
        <time>2021-01-16T10:20:22.000Z</time>
      </trkpt>
      <trkpt lat="45.59216" lon="6.12467">
        <ele>1170.1999511719</ele>
        <time>2021-01-16T10:20:25.000Z</time>
      </trkpt>
      <trkpt lat="45.59214" lon="6.12466">
        <ele>1168.5999755859</ele>
        <time>2021-01-16T10:20:27.000Z</time>
      </trkpt>
      <trkpt lat="45.59212" lon="6.12467">
        <ele>1167.5999755859</ele>
        <time>2021-01-16T10:20:29.000Z</time>
      </trkpt>
      <trkpt lat="45.59212" lon="6.12472">
        <ele>1167.5999755859</ele>
        <time>2021-01-16T10:20:31.000Z</time>
      </trkpt>
      <trkpt lat="45.59211" lon="6.12474">
        <ele>1167.5999755859</ele>
        <time>2021-01-16T10:20:32.000Z</time>
      </trkpt>
      <trkpt lat="45.59206" lon="6.12475">
        <ele>1165.1999511719</ele>
        <time>2021-01-16T10:20:35.000Z</time>
      </trkpt>
      <trkpt lat="45.59205" lon="6.12476">
        <ele>1163.8000488281</ele>
        <time>2021-01-16T10:20:37.000Z</time>
      </trkpt>
      <trkpt lat="45.59206" lon="6.12478">
        <ele>1161.8000488281</ele>
        <time>2021-01-16T10:20:39.000Z</time>
      </trkpt>
      <trkpt lat="45.59206" lon="6.12478">
        <ele>1160.4000244141</ele>
        <time>2021-01-16T10:20:40.000Z</time>
      </trkpt>
      <trkpt lat="45.59207" lon="6.12478">
        <ele>1159.1999511719</ele>
        <time>2021-01-16T10:20:41.000Z</time>
      </trkpt>
      <trkpt lat="45.59207" lon="6.12477">
        <ele>1158</ele>
        <time>2021-01-16T10:20:43.000Z</time>
      </trkpt>
      <trkpt lat="45.59207" lon="6.12477">
        <ele>1157.5999755859</ele>
        <time>2021-01-16T10:20:45.000Z</time>
      </trkpt>
      <trkpt lat="45.59208" lon="6.12479">
        <ele>1157.4000244141</ele>
        <time>2021-01-16T10:20:46.000Z</time>
      </trkpt>
      <trkpt lat="45.59215" lon="6.12491">
        <ele>1157.1999511719</ele>
        <time>2021-01-16T10:20:50.000Z</time>
      </trkpt>
      <trkpt lat="45.59216" lon="6.12495">
        <ele>1157</ele>
        <time>2021-01-16T10:20:51.000Z</time>
      </trkpt>
      <trkpt lat="45.59218" lon="6.12498">
        <ele>1155.8000488281</ele>
        <time>2021-01-16T10:20:52.000Z</time>
      </trkpt>
      <trkpt lat="45.59219" lon="6.125">
        <ele>1155.1999511719</ele>
        <time>2021-01-16T10:20:53.000Z</time>
      </trkpt>
      <trkpt lat="45.5922" lon="6.12501">
        <ele>1154.8000488281</ele>
        <time>2021-01-16T10:20:55.000Z</time>
      </trkpt>
      <trkpt lat="45.59221" lon="6.12501">
        <ele>1153.8000488281</ele>
        <time>2021-01-16T10:21:03.000Z</time>
      </trkpt>
      <trkpt lat="45.59221" lon="6.12501">
        <ele>1153.8000488281</ele>
        <time>2021-01-16T10:21:05.000Z</time>
      </trkpt>
      <trkpt lat="45.5922" lon="6.12501">
        <ele>1153.5999755859</ele>
        <time>2021-01-16T10:21:15.000Z</time>
      </trkpt>
      <trkpt lat="45.59218" lon="6.125">
        <ele>1153.4000244141</ele>
        <time>2021-01-16T10:21:16.000Z</time>
      </trkpt>
      <trkpt lat="45.59211" lon="6.12501">
        <ele>1152.4000244141</ele>
        <time>2021-01-16T10:21:18.000Z</time>
      </trkpt>
      <trkpt lat="45.59205" lon="6.12502">
        <ele>1151.5999755859</ele>
        <time>2021-01-16T10:21:20.000Z</time>
      </trkpt>
      <trkpt lat="45.59202" lon="6.12505">
        <ele>1151.1999511719</ele>
        <time>2021-01-16T10:21:21.000Z</time>
      </trkpt>
      <trkpt lat="45.59201" lon="6.12509">
        <ele>1150.5999755859</ele>
        <time>2021-01-16T10:21:22.000Z</time>
      </trkpt>
      <trkpt lat="45.59199" lon="6.12513">
        <ele>1149.5999755859</ele>
        <time>2021-01-16T10:21:23.000Z</time>
      </trkpt>
      <trkpt lat="45.59198" lon="6.1252">
        <ele>1148.5999755859</ele>
        <time>2021-01-16T10:21:24.000Z</time>
      </trkpt>
      <trkpt lat="45.59198" lon="6.12526">
        <ele>1146.8000488281</ele>
        <time>2021-01-16T10:21:25.000Z</time>
      </trkpt>
      <trkpt lat="45.59198" lon="6.12531">
        <ele>1144.8000488281</ele>
        <time>2021-01-16T10:21:26.000Z</time>
      </trkpt>
      <trkpt lat="45.592" lon="6.12538">
        <ele>1143.1999511719</ele>
        <time>2021-01-16T10:21:27.000Z</time>
      </trkpt>
      <trkpt lat="45.59203" lon="6.12545">
        <ele>1141.4000244141</ele>
        <time>2021-01-16T10:21:28.000Z</time>
      </trkpt>
      <trkpt lat="45.59205" lon="6.12552">
        <ele>1139.4000244141</ele>
        <time>2021-01-16T10:21:29.000Z</time>
      </trkpt>
      <trkpt lat="45.59208" lon="6.12559">
        <ele>1137.1999511719</ele>
        <time>2021-01-16T10:21:30.000Z</time>
      </trkpt>
      <trkpt lat="45.59212" lon="6.12563">
        <ele>1134.8000488281</ele>
        <time>2021-01-16T10:21:31.000Z</time>
      </trkpt>
      <trkpt lat="45.59214" lon="6.12569">
        <ele>1132.5999755859</ele>
        <time>2021-01-16T10:21:32.000Z</time>
      </trkpt>
      <trkpt lat="45.59214" lon="6.12573">
        <ele>1130.5999755859</ele>
        <time>2021-01-16T10:21:33.000Z</time>
      </trkpt>
      <trkpt lat="45.59214" lon="6.12574">
        <ele>1128.4000244141</ele>
        <time>2021-01-16T10:21:34.000Z</time>
      </trkpt>
      <trkpt lat="45.59212" lon="6.12572">
        <ele>1126.4000244141</ele>
        <time>2021-01-16T10:21:35.000Z</time>
      </trkpt>
      <trkpt lat="45.59211" lon="6.1257">
        <ele>1124.8000488281</ele>
        <time>2021-01-16T10:21:36.000Z</time>
      </trkpt>
      <trkpt lat="45.59211" lon="6.1257">
        <ele>1123.4000244141</ele>
        <time>2021-01-16T10:21:37.000Z</time>
      </trkpt>
      <trkpt lat="45.59211" lon="6.1257">
        <ele>1122.1999511719</ele>
        <time>2021-01-16T10:21:39.000Z</time>
      </trkpt>
      <trkpt lat="45.59211" lon="6.1257">
        <ele>1121.1999511719</ele>
        <time>2021-01-16T10:21:41.000Z</time>
      </trkpt>
      <trkpt lat="45.59211" lon="6.1257">
        <ele>1120.8000488281</ele>
        <time>2021-01-16T10:21:42.000Z</time>
      </trkpt>
      <trkpt lat="45.59211" lon="6.1257">
        <ele>1120.1999511719</ele>
        <time>2021-01-16T10:21:46.000Z</time>
      </trkpt>
      <trkpt lat="45.59211" lon="6.1257">
        <ele>1119.8000488281</ele>
        <time>2021-01-16T10:21:53.000Z</time>
      </trkpt>
      <trkpt lat="45.59206" lon="6.12568">
        <ele>1120</ele>
        <time>2021-01-16T10:22:02.000Z</time>
      </trkpt>
      <trkpt lat="45.59205" lon="6.1257">
        <ele>1120</ele>
        <time>2021-01-16T10:22:03.000Z</time>
      </trkpt>
      <trkpt lat="45.59204" lon="6.12574">
        <ele>1119.5999755859</ele>
        <time>2021-01-16T10:22:05.000Z</time>
      </trkpt>
      <trkpt lat="45.59201" lon="6.12577">
        <ele>1119</ele>
        <time>2021-01-16T10:22:07.000Z</time>
      </trkpt>
      <trkpt lat="45.592" lon="6.12578">
        <ele>1117.1999511719</ele>
        <time>2021-01-16T10:22:09.000Z</time>
      </trkpt>
      <trkpt lat="45.59199" lon="6.12578">
        <ele>1116.5999755859</ele>
        <time>2021-01-16T10:22:10.000Z</time>
      </trkpt>
      <trkpt lat="45.59199" lon="6.12579">
        <ele>1116</ele>
        <time>2021-01-16T10:22:12.000Z</time>
      </trkpt>
      <trkpt lat="45.59199" lon="6.12579">
        <ele>1115.5999755859</ele>
        <time>2021-01-16T10:22:19.000Z</time>
      </trkpt>
      <trkpt lat="45.59199" lon="6.12579">
        <ele>1115</ele>
        <time>2021-01-16T10:22:26.000Z</time>
      </trkpt>
      <trkpt lat="45.59199" lon="6.12577">
        <ele>1115.1999511719</ele>
        <time>2021-01-16T10:22:29.000Z</time>
      </trkpt>
      <trkpt lat="45.59199" lon="6.12577">
        <ele>1115</ele>
        <time>2021-01-16T10:22:39.000Z</time>
      </trkpt>
      <trkpt lat="45.59199" lon="6.12577">
        <ele>1113.5999755859</ele>
        <time>2021-01-16T10:22:45.000Z</time>
      </trkpt>
      <trkpt lat="45.59199" lon="6.12577">
        <ele>1112.8000488281</ele>
        <time>2021-01-16T10:22:47.000Z</time>
      </trkpt>
      <trkpt lat="45.59199" lon="6.12577">
        <ele>1116.4000244141</ele>
        <time>2021-01-16T10:22:50.000Z</time>
      </trkpt>
      <trkpt lat="45.59199" lon="6.12577">
        <ele>1117.4000244141</ele>
        <time>2021-01-16T10:22:51.000Z</time>
      </trkpt>
      <trkpt lat="45.59199" lon="6.12577">
        <ele>1115.8000488281</ele>
        <time>2021-01-16T10:22:55.000Z</time>
      </trkpt>
      <trkpt lat="45.59195" lon="6.12577">
        <ele>1115</ele>
        <time>2021-01-16T10:23:01.000Z</time>
      </trkpt>
      <trkpt lat="45.59195" lon="6.12577">
        <ele>1114.5999755859</ele>
        <time>2021-01-16T10:23:04.000Z</time>
      </trkpt>
      <trkpt lat="45.59191" lon="6.12579">
        <ele>1114</ele>
        <time>2021-01-16T10:23:06.000Z</time>
      </trkpt>
      <trkpt lat="45.59189" lon="6.12578">
        <ele>1113.5999755859</ele>
        <time>2021-01-16T10:23:09.000Z</time>
      </trkpt>
      <trkpt lat="45.59189" lon="6.12578">
        <ele>1113.4000244141</ele>
        <time>2021-01-16T10:23:10.000Z</time>
      </trkpt>
      <trkpt lat="45.59189" lon="6.12578">
        <ele>1112.1999511719</ele>
        <time>2021-01-16T10:23:16.000Z</time>
      </trkpt>
      <trkpt lat="45.59189" lon="6.12578">
        <ele>1112.1999511719</ele>
        <time>2021-01-16T10:23:17.000Z</time>
      </trkpt>
      <trkpt lat="45.59189" lon="6.12578">
        <ele>1112.4000244141</ele>
        <time>2021-01-16T10:23:28.000Z</time>
      </trkpt>
      <trkpt lat="45.59189" lon="6.12579">
        <ele>1112.4000244141</ele>
        <time>2021-01-16T10:23:40.000Z</time>
      </trkpt>
      <trkpt lat="45.59189" lon="6.12579">
        <ele>1111</ele>
        <time>2021-01-16T10:23:42.000Z</time>
      </trkpt>
      <trkpt lat="45.5919" lon="6.12579">
        <ele>1113</ele>
        <time>2021-01-16T10:23:47.000Z</time>
      </trkpt>
      <trkpt lat="45.5919" lon="6.12579">
        <ele>1113.8000488281</ele>
        <time>2021-01-16T10:23:48.000Z</time>
      </trkpt>
      <trkpt lat="45.5919" lon="6.12579">
        <ele>1114.4000244141</ele>
        <time>2021-01-16T10:23:49.000Z</time>
      </trkpt>
      <trkpt lat="45.5919" lon="6.12579">
        <ele>1113.4000244141</ele>
        <time>2021-01-16T10:23:52.000Z</time>
      </trkpt>
      <trkpt lat="45.5919" lon="6.12579">
        <ele>1112.4000244141</ele>
        <time>2021-01-16T10:23:59.000Z</time>
      </trkpt>
      <trkpt lat="45.5919" lon="6.12579">
        <ele>1112.4000244141</ele>
        <time>2021-01-16T10:24:10.000Z</time>
      </trkpt>
      <trkpt lat="45.5919" lon="6.12579">
        <ele>1112.4000244141</ele>
        <time>2021-01-16T10:24:23.000Z</time>
      </trkpt>
      <trkpt lat="45.59191" lon="6.12579">
        <ele>1112.4000244141</ele>
        <time>2021-01-16T10:24:34.000Z</time>
      </trkpt>
      <trkpt lat="45.59191" lon="6.12579">
        <ele>1112.1999511719</ele>
        <time>2021-01-16T10:24:40.000Z</time>
      </trkpt>
      <trkpt lat="45.59191" lon="6.12579">
        <ele>1112.1999511719</ele>
        <time>2021-01-16T10:24:45.000Z</time>
      </trkpt>
      <trkpt lat="45.59191" lon="6.12579">
        <ele>1112.5999755859</ele>
        <time>2021-01-16T10:24:55.000Z</time>
      </trkpt>
      <trkpt lat="45.59192" lon="6.12578">
        <ele>1112.4000244141</ele>
        <time>2021-01-16T10:25:07.000Z</time>
      </trkpt>
      <trkpt lat="45.59192" lon="6.12578">
        <ele>1112.5999755859</ele>
        <time>2021-01-16T10:25:20.000Z</time>
      </trkpt>
      <trkpt lat="45.59192" lon="6.12578">
        <ele>1112.4000244141</ele>
        <time>2021-01-16T10:25:31.000Z</time>
      </trkpt>
      <trkpt lat="45.59192" lon="6.12578">
        <ele>1112.5999755859</ele>
        <time>2021-01-16T10:25:45.000Z</time>
      </trkpt>
      <trkpt lat="45.59192" lon="6.12578">
        <ele>1111.1999511719</ele>
        <time>2021-01-16T10:25:52.000Z</time>
      </trkpt>
      <trkpt lat="45.59192" lon="6.12578">
        <ele>1110</ele>
        <time>2021-01-16T10:25:54.000Z</time>
      </trkpt>
      <trkpt lat="45.59192" lon="6.12578">
        <ele>1110.4000244141</ele>
        <time>2021-01-16T10:25:57.000Z</time>
      </trkpt>
      <trkpt lat="45.59192" lon="6.12578">
        <ele>1111.1999511719</ele>
        <time>2021-01-16T10:26:02.000Z</time>
      </trkpt>
      <trkpt lat="45.59192" lon="6.12578">
        <ele>1112.1999511719</ele>
        <time>2021-01-16T10:26:04.000Z</time>
      </trkpt>
      <trkpt lat="45.59192" lon="6.12578">
        <ele>1114</ele>
        <time>2021-01-16T10:26:05.000Z</time>
      </trkpt>
      <trkpt lat="45.59191" lon="6.12578">
        <ele>1114.5999755859</ele>
        <time>2021-01-16T10:26:07.000Z</time>
      </trkpt>
      <trkpt lat="45.59191" lon="6.12578">
        <ele>1112.8000488281</ele>
        <time>2021-01-16T10:26:11.000Z</time>
      </trkpt>
      <trkpt lat="45.59191" lon="6.12578">
        <ele>1111.5999755859</ele>
        <time>2021-01-16T10:26:16.000Z</time>
      </trkpt>
      <trkpt lat="45.59191" lon="6.12578">
        <ele>1111.5999755859</ele>
        <time>2021-01-16T10:26:18.000Z</time>
      </trkpt>
      <trkpt lat="45.59191" lon="6.12578">
        <ele>1109.1999511719</ele>
        <time>2021-01-16T10:26:22.000Z</time>
      </trkpt>
      <trkpt lat="45.59191" lon="6.12578">
        <ele>1107.5999755859</ele>
        <time>2021-01-16T10:26:23.000Z</time>
      </trkpt>
      <trkpt lat="45.59191" lon="6.12578">
        <ele>1106.4000244141</ele>
        <time>2021-01-16T10:26:25.000Z</time>
      </trkpt>
      <trkpt lat="45.59191" lon="6.12578">
        <ele>1108.5999755859</ele>
        <time>2021-01-16T10:26:27.000Z</time>
      </trkpt>
      <trkpt lat="45.59191" lon="6.12578">
        <ele>1110.1999511719</ele>
        <time>2021-01-16T10:26:28.000Z</time>
      </trkpt>
      <trkpt lat="45.59191" lon="6.12578">
        <ele>1112.1999511719</ele>
        <time>2021-01-16T10:26:29.000Z</time>
      </trkpt>
      <trkpt lat="45.59191" lon="6.12578">
        <ele>1113.5999755859</ele>
        <time>2021-01-16T10:26:33.000Z</time>
      </trkpt>
      <trkpt lat="45.59192" lon="6.12578">
        <ele>1114.5999755859</ele>
        <time>2021-01-16T10:26:36.000Z</time>
      </trkpt>
      <trkpt lat="45.59192" lon="6.12578">
        <ele>1116.1999511719</ele>
        <time>2021-01-16T10:26:38.000Z</time>
      </trkpt>
      <trkpt lat="45.59192" lon="6.12578">
        <ele>1116.8000488281</ele>
        <time>2021-01-16T10:26:39.000Z</time>
      </trkpt>
      <trkpt lat="45.59192" lon="6.12578">
        <ele>1114.5999755859</ele>
        <time>2021-01-16T10:26:43.000Z</time>
      </trkpt>
      <trkpt lat="45.59192" lon="6.12578">
        <ele>1113.1999511719</ele>
        <time>2021-01-16T10:26:45.000Z</time>
      </trkpt>
      <trkpt lat="45.59192" lon="6.12578">
        <ele>1112.5999755859</ele>
        <time>2021-01-16T10:26:50.000Z</time>
      </trkpt>
      <trkpt lat="45.59192" lon="6.12578">
        <ele>1111.5999755859</ele>
        <time>2021-01-16T10:26:53.000Z</time>
      </trkpt>
      <trkpt lat="45.59192" lon="6.12578">
        <ele>1112.5999755859</ele>
        <time>2021-01-16T10:26:58.000Z</time>
      </trkpt>
      <trkpt lat="45.59192" lon="6.12578">
        <ele>1112.8000488281</ele>
        <time>2021-01-16T10:27:02.000Z</time>
      </trkpt>
      <trkpt lat="45.59192" lon="6.12578">
        <ele>1113.1999511719</ele>
        <time>2021-01-16T10:27:08.000Z</time>
      </trkpt>
      <trkpt lat="45.59192" lon="6.12578">
        <ele>1113.8000488281</ele>
        <time>2021-01-16T10:27:10.000Z</time>
      </trkpt>
      <trkpt lat="45.59192" lon="6.12578">
        <ele>1113.8000488281</ele>
        <time>2021-01-16T10:27:11.000Z</time>
      </trkpt>
      <trkpt lat="45.59192" lon="6.12577">
        <ele>1112.5999755859</ele>
        <time>2021-01-16T10:27:17.000Z</time>
      </trkpt>
      <trkpt lat="45.59192" lon="6.12577">
        <ele>1112.8000488281</ele>
        <time>2021-01-16T10:27:23.000Z</time>
      </trkpt>
      <trkpt lat="45.59192" lon="6.12577">
        <ele>1112.8000488281</ele>
        <time>2021-01-16T10:27:40.000Z</time>
      </trkpt>
      <trkpt lat="45.59192" lon="6.12577">
        <ele>1112.5999755859</ele>
        <time>2021-01-16T10:27:55.000Z</time>
      </trkpt>
      <trkpt lat="45.59192" lon="6.12577">
        <ele>1112.4000244141</ele>
        <time>2021-01-16T10:28:09.000Z</time>
      </trkpt>
      <trkpt lat="45.59192" lon="6.12577">
        <ele>1112.4000244141</ele>
        <time>2021-01-16T10:28:21.000Z</time>
      </trkpt>
      <trkpt lat="45.59192" lon="6.12577">
        <ele>1112</ele>
        <time>2021-01-16T10:28:35.000Z</time>
      </trkpt>
      <trkpt lat="45.59192" lon="6.12577">
        <ele>1111.5999755859</ele>
        <time>2021-01-16T10:28:38.000Z</time>
      </trkpt>
      <trkpt lat="45.59192" lon="6.12577">
        <ele>1112.8000488281</ele>
        <time>2021-01-16T10:28:46.000Z</time>
      </trkpt>
      <trkpt lat="45.59192" lon="6.12577">
        <ele>1113.1999511719</ele>
        <time>2021-01-16T10:28:48.000Z</time>
      </trkpt>
      <trkpt lat="45.59192" lon="6.12577">
        <ele>1112.5999755859</ele>
        <time>2021-01-16T10:29:02.000Z</time>
      </trkpt>
      <trkpt lat="45.59192" lon="6.12577">
        <ele>1112.5999755859</ele>
        <time>2021-01-16T10:29:15.000Z</time>
      </trkpt>
      <trkpt lat="45.59193" lon="6.12577">
        <ele>1112.5999755859</ele>
        <time>2021-01-16T10:29:30.000Z</time>
      </trkpt>
      <trkpt lat="45.59193" lon="6.12577">
        <ele>1112.5999755859</ele>
        <time>2021-01-16T10:29:48.000Z</time>
      </trkpt>
      <trkpt lat="45.59192" lon="6.12578">
        <ele>1112.8000488281</ele>
        <time>2021-01-16T10:30:06.000Z</time>
      </trkpt>
      <trkpt lat="45.5918" lon="6.12574">
        <ele>1112.5999755859</ele>
        <time>2021-01-16T10:30:14.000Z</time>
      </trkpt>
      <trkpt lat="45.59175" lon="6.12573">
        <ele>1113.1999511719</ele>
        <time>2021-01-16T10:30:21.000Z</time>
      </trkpt>
      <trkpt lat="45.59172" lon="6.12573">
        <ele>1113.5999755859</ele>
        <time>2021-01-16T10:30:27.000Z</time>
      </trkpt>
      <trkpt lat="45.59172" lon="6.12573">
        <ele>1109.4000244141</ele>
        <time>2021-01-16T10:30:31.000Z</time>
      </trkpt>
      <trkpt lat="45.59172" lon="6.12573">
        <ele>1108</ele>
        <time>2021-01-16T10:30:32.000Z</time>
      </trkpt>
      <trkpt lat="45.59171" lon="6.12575">
        <ele>1113.1999511719</ele>
        <time>2021-01-16T10:30:35.000Z</time>
      </trkpt>
      <trkpt lat="45.59171" lon="6.12575">
        <ele>1117</ele>
        <time>2021-01-16T10:30:36.000Z</time>
      </trkpt>
      <trkpt lat="45.59171" lon="6.12575">
        <ele>1118.8000488281</ele>
        <time>2021-01-16T10:30:37.000Z</time>
      </trkpt>
      <trkpt lat="45.59171" lon="6.12575">
        <ele>1116.8000488281</ele>
        <time>2021-01-16T10:30:40.000Z</time>
      </trkpt>
      <trkpt lat="45.59171" lon="6.12575">
        <ele>1115.5999755859</ele>
        <time>2021-01-16T10:30:41.000Z</time>
      </trkpt>
      <trkpt lat="45.59171" lon="6.12575">
        <ele>1114.5999755859</ele>
        <time>2021-01-16T10:30:43.000Z</time>
      </trkpt>
      <trkpt lat="45.59171" lon="6.12575">
        <ele>1114.1999511719</ele>
        <time>2021-01-16T10:30:48.000Z</time>
      </trkpt>
      <trkpt lat="45.59171" lon="6.12575">
        <ele>1114.1999511719</ele>
        <time>2021-01-16T10:30:57.000Z</time>
      </trkpt>
      <trkpt lat="45.59166" lon="6.12578">
        <ele>1114.8000488281</ele>
        <time>2021-01-16T10:31:06.000Z</time>
      </trkpt>
      <trkpt lat="45.59166" lon="6.12578">
        <ele>1114.5999755859</ele>
        <time>2021-01-16T10:31:17.000Z</time>
      </trkpt>
      <trkpt lat="45.59166" lon="6.12578">
        <ele>1114.8000488281</ele>
        <time>2021-01-16T10:31:33.000Z</time>
      </trkpt>
      <trkpt lat="45.59166" lon="6.12577">
        <ele>1115</ele>
        <time>2021-01-16T10:31:47.000Z</time>
      </trkpt>
      <trkpt lat="45.59166" lon="6.12577">
        <ele>1115.1999511719</ele>
        <time>2021-01-16T10:31:57.000Z</time>
      </trkpt>
      <trkpt lat="45.59166" lon="6.12577">
        <ele>1115.4000244141</ele>
        <time>2021-01-16T10:32:08.000Z</time>
      </trkpt>
      <trkpt lat="45.59166" lon="6.12577">
        <ele>1115.5999755859</ele>
        <time>2021-01-16T10:32:10.000Z</time>
      </trkpt>
      <trkpt lat="45.59166" lon="6.12577">
        <ele>1115</ele>
        <time>2021-01-16T10:32:22.000Z</time>
      </trkpt>
      <trkpt lat="45.59164" lon="6.12576">
        <ele>1114.5999755859</ele>
        <time>2021-01-16T10:32:31.000Z</time>
      </trkpt>
      <trkpt lat="45.59157" lon="6.12573">
        <ele>1116.8000488281</ele>
        <time>2021-01-16T10:32:39.000Z</time>
      </trkpt>
      <trkpt lat="45.59157" lon="6.12572">
        <ele>1117</ele>
        <time>2021-01-16T10:32:40.000Z</time>
      </trkpt>
      <trkpt lat="45.59152" lon="6.12571">
        <ele>1118.1999511719</ele>
        <time>2021-01-16T10:32:45.000Z</time>
      </trkpt>
      <trkpt lat="45.5915" lon="6.1257">
        <ele>1119.1999511719</ele>
        <time>2021-01-16T10:32:48.000Z</time>
      </trkpt>
      <trkpt lat="45.5915" lon="6.1257">
        <ele>1119.4000244141</ele>
        <time>2021-01-16T10:32:49.000Z</time>
      </trkpt>
      <trkpt lat="45.59147" lon="6.12568">
        <ele>1120.8000488281</ele>
        <time>2021-01-16T10:32:53.000Z</time>
      </trkpt>
      <trkpt lat="45.59147" lon="6.12566">
        <ele>1121.4000244141</ele>
        <time>2021-01-16T10:32:56.000Z</time>
      </trkpt>
      <trkpt lat="45.59147" lon="6.12563">
        <ele>1121.8000488281</ele>
        <time>2021-01-16T10:33:00.000Z</time>
      </trkpt>
      <trkpt lat="45.59147" lon="6.12562">
        <ele>1122.8000488281</ele>
        <time>2021-01-16T10:33:05.000Z</time>
      </trkpt>
      <trkpt lat="45.59148" lon="6.12561">
        <ele>1123</ele>
        <time>2021-01-16T10:33:06.000Z</time>
      </trkpt>
      <trkpt lat="45.59149" lon="6.12556">
        <ele>1124</ele>
        <time>2021-01-16T10:33:11.000Z</time>
      </trkpt>
      <trkpt lat="45.59149" lon="6.12556">
        <ele>1124.1999511719</ele>
        <time>2021-01-16T10:33:12.000Z</time>
      </trkpt>
      <trkpt lat="45.59151" lon="6.12549">
        <ele>1125.4000244141</ele>
        <time>2021-01-16T10:33:17.000Z</time>
      </trkpt>
      <trkpt lat="45.59152" lon="6.12548">
        <ele>1125.4000244141</ele>
        <time>2021-01-16T10:33:18.000Z</time>
      </trkpt>
      <trkpt lat="45.59156" lon="6.12542">
        <ele>1126.5999755859</ele>
        <time>2021-01-16T10:33:23.000Z</time>
      </trkpt>
      <trkpt lat="45.59158" lon="6.12541">
        <ele>1127.1999511719</ele>
        <time>2021-01-16T10:33:25.000Z</time>
      </trkpt>
      <trkpt lat="45.59159" lon="6.1254">
        <ele>1127.5999755859</ele>
        <time>2021-01-16T10:33:29.000Z</time>
      </trkpt>
      <trkpt lat="45.59161" lon="6.12538">
        <ele>1127.8000488281</ele>
        <time>2021-01-16T10:33:32.000Z</time>
      </trkpt>
      <trkpt lat="45.59161" lon="6.12535">
        <ele>1128.8000488281</ele>
        <time>2021-01-16T10:33:41.000Z</time>
      </trkpt>
      <trkpt lat="45.5916" lon="6.12534">
        <ele>1129.1999511719</ele>
        <time>2021-01-16T10:33:42.000Z</time>
      </trkpt>
      <trkpt lat="45.59158" lon="6.12533">
        <ele>1129.8000488281</ele>
        <time>2021-01-16T10:33:44.000Z</time>
      </trkpt>
      <trkpt lat="45.59153" lon="6.1253">
        <ele>1131</ele>
        <time>2021-01-16T10:33:49.000Z</time>
      </trkpt>
      <trkpt lat="45.59152" lon="6.12529">
        <ele>1131.1999511719</ele>
        <time>2021-01-16T10:33:50.000Z</time>
      </trkpt>
      <trkpt lat="45.59151" lon="6.12528">
        <ele>1131.4000244141</ele>
        <time>2021-01-16T10:33:51.000Z</time>
      </trkpt>
      <trkpt lat="45.59147" lon="6.12525">
        <ele>1132</ele>
        <time>2021-01-16T10:33:55.000Z</time>
      </trkpt>
      <trkpt lat="45.59144" lon="6.12523">
        <ele>1133</ele>
        <time>2021-01-16T10:33:58.000Z</time>
      </trkpt>
      <trkpt lat="45.59144" lon="6.12523">
        <ele>1133.4000244141</ele>
        <time>2021-01-16T10:33:59.000Z</time>
      </trkpt>
      <trkpt lat="45.59142" lon="6.12523">
        <ele>1134</ele>
        <time>2021-01-16T10:34:01.000Z</time>
      </trkpt>
      <trkpt lat="45.59138" lon="6.12523">
        <ele>1135.1999511719</ele>
        <time>2021-01-16T10:34:07.000Z</time>
      </trkpt>
      <trkpt lat="45.59138" lon="6.12523">
        <ele>1135.4000244141</ele>
        <time>2021-01-16T10:34:08.000Z</time>
      </trkpt>
      <trkpt lat="45.59137" lon="6.12523">
        <ele>1136.4000244141</ele>
        <time>2021-01-16T10:34:12.000Z</time>
      </trkpt>
      <trkpt lat="45.59137" lon="6.12522">
        <ele>1137</ele>
        <time>2021-01-16T10:34:17.000Z</time>
      </trkpt>
      <trkpt lat="45.59143" lon="6.12518">
        <ele>1137.1999511719</ele>
        <time>2021-01-16T10:34:23.000Z</time>
      </trkpt>
      <trkpt lat="45.59146" lon="6.12515">
        <ele>1137.5999755859</ele>
        <time>2021-01-16T10:34:27.000Z</time>
      </trkpt>
      <trkpt lat="45.59146" lon="6.12515">
        <ele>1137.8000488281</ele>
        <time>2021-01-16T10:34:29.000Z</time>
      </trkpt>
      <trkpt lat="45.59151" lon="6.12509">
        <ele>1138.1999511719</ele>
        <time>2021-01-16T10:34:35.000Z</time>
      </trkpt>
      <trkpt lat="45.59156" lon="6.12506">
        <ele>1138.8000488281</ele>
        <time>2021-01-16T10:34:38.000Z</time>
      </trkpt>
      <trkpt lat="45.59162" lon="6.12501">
        <ele>1139.5999755859</ele>
        <time>2021-01-16T10:34:44.000Z</time>
      </trkpt>
      <trkpt lat="45.59162" lon="6.125">
        <ele>1139.8000488281</ele>
        <time>2021-01-16T10:34:47.000Z</time>
      </trkpt>
      <trkpt lat="45.59166" lon="6.12496">
        <ele>1140.4000244141</ele>
        <time>2021-01-16T10:34:51.000Z</time>
      </trkpt>
      <trkpt lat="45.59168" lon="6.12493">
        <ele>1140.8000488281</ele>
        <time>2021-01-16T10:34:53.000Z</time>
      </trkpt>
      <trkpt lat="45.59173" lon="6.1249">
        <ele>1141.8000488281</ele>
        <time>2021-01-16T10:34:58.000Z</time>
      </trkpt>
      <trkpt lat="45.59174" lon="6.12489">
        <ele>1142</ele>
        <time>2021-01-16T10:34:59.000Z</time>
      </trkpt>
      <trkpt lat="45.59175" lon="6.12486">
        <ele>1143</ele>
        <time>2021-01-16T10:35:05.000Z</time>
      </trkpt>
      <trkpt lat="45.59169" lon="6.12488">
        <ele>1143</ele>
        <time>2021-01-16T10:35:12.000Z</time>
      </trkpt>
      <trkpt lat="45.59165" lon="6.12488">
        <ele>1144.1999511719</ele>
        <time>2021-01-16T10:35:15.000Z</time>
      </trkpt>
      <trkpt lat="45.59161" lon="6.12488">
        <ele>1144.8000488281</ele>
        <time>2021-01-16T10:35:18.000Z</time>
      </trkpt>
      <trkpt lat="45.59158" lon="6.12488">
        <ele>1145.1999511719</ele>
        <time>2021-01-16T10:35:20.000Z</time>
      </trkpt>
      <trkpt lat="45.59152" lon="6.1249">
        <ele>1146.1999511719</ele>
        <time>2021-01-16T10:35:26.000Z</time>
      </trkpt>
      <trkpt lat="45.59151" lon="6.1249">
        <ele>1146.1999511719</ele>
        <time>2021-01-16T10:35:27.000Z</time>
      </trkpt>
      <trkpt lat="45.59148" lon="6.12491">
        <ele>1146.8000488281</ele>
        <time>2021-01-16T10:35:31.000Z</time>
      </trkpt>
      <trkpt lat="45.59144" lon="6.12492">
        <ele>1147.4000244141</ele>
        <time>2021-01-16T10:35:35.000Z</time>
      </trkpt>
      <trkpt lat="45.59143" lon="6.12492">
        <ele>1147.5999755859</ele>
        <time>2021-01-16T10:35:37.000Z</time>
      </trkpt>
      <trkpt lat="45.59137" lon="6.12493">
        <ele>1148.5999755859</ele>
        <time>2021-01-16T10:35:42.000Z</time>
      </trkpt>
      <trkpt lat="45.59136" lon="6.12493">
        <ele>1149.4000244141</ele>
        <time>2021-01-16T10:35:44.000Z</time>
      </trkpt>
      <trkpt lat="45.59135" lon="6.12494">
        <ele>1149.8000488281</ele>
        <time>2021-01-16T10:35:45.000Z</time>
      </trkpt>
      <trkpt lat="45.59132" lon="6.12496">
        <ele>1150.5999755859</ele>
        <time>2021-01-16T10:35:50.000Z</time>
      </trkpt>
      <trkpt lat="45.59131" lon="6.12497">
        <ele>1150.8000488281</ele>
        <time>2021-01-16T10:35:52.000Z</time>
      </trkpt>
      <trkpt lat="45.59126" lon="6.12497">
        <ele>1151.5999755859</ele>
        <time>2021-01-16T10:35:57.000Z</time>
      </trkpt>
      <trkpt lat="45.59123" lon="6.12499">
        <ele>1152</ele>
        <time>2021-01-16T10:36:01.000Z</time>
      </trkpt>
      <trkpt lat="45.5912" lon="6.12497">
        <ele>1153.1999511719</ele>
        <time>2021-01-16T10:36:05.000Z</time>
      </trkpt>
      <trkpt lat="45.59113" lon="6.12494">
        <ele>1154.1999511719</ele>
        <time>2021-01-16T10:36:14.000Z</time>
      </trkpt>
      <trkpt lat="45.59112" lon="6.12493">
        <ele>1154.5999755859</ele>
        <time>2021-01-16T10:36:15.000Z</time>
      </trkpt>
      <trkpt lat="45.59109" lon="6.12491">
        <ele>1156</ele>
        <time>2021-01-16T10:36:19.000Z</time>
      </trkpt>
      <trkpt lat="45.59109" lon="6.12491">
        <ele>1157.1999511719</ele>
        <time>2021-01-16T10:36:22.000Z</time>
      </trkpt>
      <trkpt lat="45.59109" lon="6.12491">
        <ele>1157.4000244141</ele>
        <time>2021-01-16T10:36:23.000Z</time>
      </trkpt>
      <trkpt lat="45.59107" lon="6.12489">
        <ele>1158.4000244141</ele>
        <time>2021-01-16T10:36:26.000Z</time>
      </trkpt>
      <trkpt lat="45.59104" lon="6.12488">
        <ele>1159.4000244141</ele>
        <time>2021-01-16T10:36:30.000Z</time>
      </trkpt>
      <trkpt lat="45.59102" lon="6.12486">
        <ele>1159.4000244141</ele>
        <time>2021-01-16T10:36:32.000Z</time>
      </trkpt>
      <trkpt lat="45.59101" lon="6.12479">
        <ele>1160.4000244141</ele>
        <time>2021-01-16T10:36:38.000Z</time>
      </trkpt>
      <trkpt lat="45.59101" lon="6.12477">
        <ele>1160.8000488281</ele>
        <time>2021-01-16T10:36:39.000Z</time>
      </trkpt>
      <trkpt lat="45.591" lon="6.12474">
        <ele>1161.5999755859</ele>
        <time>2021-01-16T10:36:42.000Z</time>
      </trkpt>
      <trkpt lat="45.59097" lon="6.12466">
        <ele>1162</ele>
        <time>2021-01-16T10:36:48.000Z</time>
      </trkpt>
      <trkpt lat="45.59094" lon="6.12458">
        <ele>1161.8000488281</ele>
        <time>2021-01-16T10:36:52.000Z</time>
      </trkpt>
      <trkpt lat="45.59091" lon="6.12452">
        <ele>1161.8000488281</ele>
        <time>2021-01-16T10:36:55.000Z</time>
      </trkpt>
      <trkpt lat="45.59089" lon="6.12447">
        <ele>1161.1999511719</ele>
        <time>2021-01-16T10:37:01.000Z</time>
      </trkpt>
      <trkpt lat="45.59088" lon="6.12434">
        <ele>1161.5999755859</ele>
        <time>2021-01-16T10:37:08.000Z</time>
      </trkpt>
      <trkpt lat="45.59086" lon="6.12424">
        <ele>1162.5999755859</ele>
        <time>2021-01-16T10:37:16.000Z</time>
      </trkpt>
      <trkpt lat="45.59085" lon="6.12423">
        <ele>1163.4000244141</ele>
        <time>2021-01-16T10:37:18.000Z</time>
      </trkpt>
      <trkpt lat="45.59084" lon="6.12422">
        <ele>1163.8000488281</ele>
        <time>2021-01-16T10:37:19.000Z</time>
      </trkpt>
      <trkpt lat="45.59083" lon="6.12418">
        <ele>1164.8000488281</ele>
        <time>2021-01-16T10:37:22.000Z</time>
      </trkpt>
      <trkpt lat="45.59082" lon="6.12417">
        <ele>1165.8000488281</ele>
        <time>2021-01-16T10:37:25.000Z</time>
      </trkpt>
      <trkpt lat="45.59081" lon="6.12416">
        <ele>1166</ele>
        <time>2021-01-16T10:37:26.000Z</time>
      </trkpt>
      <trkpt lat="45.59075" lon="6.12407">
        <ele>1166.5999755859</ele>
        <time>2021-01-16T10:37:32.000Z</time>
      </trkpt>
      <trkpt lat="45.59071" lon="6.124">
        <ele>1167.1999511719</ele>
        <time>2021-01-16T10:37:39.000Z</time>
      </trkpt>
      <trkpt lat="45.59071" lon="6.12399">
        <ele>1167.5999755859</ele>
        <time>2021-01-16T10:37:40.000Z</time>
      </trkpt>
      <trkpt lat="45.59069" lon="6.12396">
        <ele>1168.4000244141</ele>
        <time>2021-01-16T10:37:43.000Z</time>
      </trkpt>
      <trkpt lat="45.59067" lon="6.12394">
        <ele>1169.5999755859</ele>
        <time>2021-01-16T10:37:47.000Z</time>
      </trkpt>
      <trkpt lat="45.59067" lon="6.12394">
        <ele>1169.8000488281</ele>
        <time>2021-01-16T10:37:48.000Z</time>
      </trkpt>
      <trkpt lat="45.59067" lon="6.12389">
        <ele>1170.5999755859</ele>
        <time>2021-01-16T10:37:53.000Z</time>
      </trkpt>
      <trkpt lat="45.59072" lon="6.12387">
        <ele>1171.5999755859</ele>
        <time>2021-01-16T10:37:59.000Z</time>
      </trkpt>
      <trkpt lat="45.59074" lon="6.12387">
        <ele>1171.5999755859</ele>
        <time>2021-01-16T10:38:01.000Z</time>
      </trkpt>
      <trkpt lat="45.5908" lon="6.1239">
        <ele>1172.8000488281</ele>
        <time>2021-01-16T10:38:06.000Z</time>
      </trkpt>
      <trkpt lat="45.59085" lon="6.12392">
        <ele>1173</ele>
        <time>2021-01-16T10:38:09.000Z</time>
      </trkpt>
      <trkpt lat="45.5909" lon="6.12396">
        <ele>1173.8000488281</ele>
        <time>2021-01-16T10:38:14.000Z</time>
      </trkpt>
      <trkpt lat="45.59092" lon="6.12397">
        <ele>1174</ele>
        <time>2021-01-16T10:38:16.000Z</time>
      </trkpt>
      <trkpt lat="45.591" lon="6.12398">
        <ele>1174.8000488281</ele>
        <time>2021-01-16T10:38:25.000Z</time>
      </trkpt>
      <trkpt lat="45.59102" lon="6.12397">
        <ele>1175</ele>
        <time>2021-01-16T10:38:26.000Z</time>
      </trkpt>
      <trkpt lat="45.5911" lon="6.12391">
        <ele>1175.8000488281</ele>
        <time>2021-01-16T10:38:33.000Z</time>
      </trkpt>
      <trkpt lat="45.59116" lon="6.12383">
        <ele>1176</ele>
        <time>2021-01-16T10:38:38.000Z</time>
      </trkpt>
      <trkpt lat="45.59119" lon="6.1238">
        <ele>1176.1999511719</ele>
        <time>2021-01-16T10:38:40.000Z</time>
      </trkpt>
      <trkpt lat="45.59124" lon="6.12375">
        <ele>1177</ele>
        <time>2021-01-16T10:38:45.000Z</time>
      </trkpt>
      <trkpt lat="45.59125" lon="6.12374">
        <ele>1177.1999511719</ele>
        <time>2021-01-16T10:38:46.000Z</time>
      </trkpt>
      <trkpt lat="45.59128" lon="6.12373">
        <ele>1178.4000244141</ele>
        <time>2021-01-16T10:38:56.000Z</time>
      </trkpt>
      <trkpt lat="45.59129" lon="6.12373">
        <ele>1179.1999511719</ele>
        <time>2021-01-16T10:38:58.000Z</time>
      </trkpt>
      <trkpt lat="45.59138" lon="6.12374">
        <ele>1179.1999511719</ele>
        <time>2021-01-16T10:39:08.000Z</time>
      </trkpt>
      <trkpt lat="45.59141" lon="6.12375">
        <ele>1179.5999755859</ele>
        <time>2021-01-16T10:39:10.000Z</time>
      </trkpt>
      <trkpt lat="45.59149" lon="6.12372">
        <ele>1180.1999511719</ele>
        <time>2021-01-16T10:39:17.000Z</time>
      </trkpt>
      <trkpt lat="45.59152" lon="6.12371">
        <ele>1180.5999755859</ele>
        <time>2021-01-16T10:39:20.000Z</time>
      </trkpt>
      <trkpt lat="45.59155" lon="6.12372">
        <ele>1180.8000488281</ele>
        <time>2021-01-16T10:39:23.000Z</time>
      </trkpt>
      <trkpt lat="45.59158" lon="6.12373">
        <ele>1181.5999755859</ele>
        <time>2021-01-16T10:39:26.000Z</time>
      </trkpt>
      <trkpt lat="45.59163" lon="6.12376">
        <ele>1182.1999511719</ele>
        <time>2021-01-16T10:39:33.000Z</time>
      </trkpt>
      <trkpt lat="45.59166" lon="6.12376">
        <ele>1182.5999755859</ele>
        <time>2021-01-16T10:39:35.000Z</time>
      </trkpt>
      <trkpt lat="45.59175" lon="6.12371">
        <ele>1183.4000244141</ele>
        <time>2021-01-16T10:39:41.000Z</time>
      </trkpt>
      <trkpt lat="45.59175" lon="6.12366">
        <ele>1183.5999755859</ele>
        <time>2021-01-16T10:39:45.000Z</time>
      </trkpt>
      <trkpt lat="45.59172" lon="6.12365">
        <ele>1184</ele>
        <time>2021-01-16T10:39:48.000Z</time>
      </trkpt>
      <trkpt lat="45.59168" lon="6.12364">
        <ele>1184.8000488281</ele>
        <time>2021-01-16T10:39:51.000Z</time>
      </trkpt>
      <trkpt lat="45.59162" lon="6.12362">
        <ele>1185.1999511719</ele>
        <time>2021-01-16T10:39:57.000Z</time>
      </trkpt>
      <trkpt lat="45.59154" lon="6.12358">
        <ele>1185.8000488281</ele>
        <time>2021-01-16T10:40:04.000Z</time>
      </trkpt>
      <trkpt lat="45.59147" lon="6.12353">
        <ele>1187.1999511719</ele>
        <time>2021-01-16T10:40:12.000Z</time>
      </trkpt>
      <trkpt lat="45.59146" lon="6.12352">
        <ele>1187.4000244141</ele>
        <time>2021-01-16T10:40:13.000Z</time>
      </trkpt>
      <trkpt lat="45.59141" lon="6.1235">
        <ele>1188.1999511719</ele>
        <time>2021-01-16T10:40:17.000Z</time>
      </trkpt>
      <trkpt lat="45.59136" lon="6.12347">
        <ele>1188.5999755859</ele>
        <time>2021-01-16T10:40:21.000Z</time>
      </trkpt>
      <trkpt lat="45.59132" lon="6.12338">
        <ele>1188.8000488281</ele>
        <time>2021-01-16T10:40:28.000Z</time>
      </trkpt>
      <trkpt lat="45.5913" lon="6.12334">
        <ele>1189.4000244141</ele>
        <time>2021-01-16T10:40:32.000Z</time>
      </trkpt>
      <trkpt lat="45.5913" lon="6.12333">
        <ele>1189.4000244141</ele>
        <time>2021-01-16T10:40:34.000Z</time>
      </trkpt>
      <trkpt lat="45.59125" lon="6.12328">
        <ele>1190.4000244141</ele>
        <time>2021-01-16T10:40:40.000Z</time>
      </trkpt>
      <trkpt lat="45.5912" lon="6.12325">
        <ele>1191</ele>
        <time>2021-01-16T10:40:43.000Z</time>
      </trkpt>
      <trkpt lat="45.59114" lon="6.12323">
        <ele>1191.4000244141</ele>
        <time>2021-01-16T10:40:47.000Z</time>
      </trkpt>
      <trkpt lat="45.59108" lon="6.12323">
        <ele>1191.8000488281</ele>
        <time>2021-01-16T10:40:52.000Z</time>
      </trkpt>
      <trkpt lat="45.591" lon="6.12322">
        <ele>1192.5999755859</ele>
        <time>2021-01-16T10:41:00.000Z</time>
      </trkpt>
      <trkpt lat="45.59099" lon="6.12323">
        <ele>1192.8000488281</ele>
        <time>2021-01-16T10:41:01.000Z</time>
      </trkpt>
      <trkpt lat="45.59092" lon="6.12323">
        <ele>1193.1999511719</ele>
        <time>2021-01-16T10:41:09.000Z</time>
      </trkpt>
      <trkpt lat="45.59086" lon="6.12324">
        <ele>1193.5999755859</ele>
        <time>2021-01-16T10:41:15.000Z</time>
      </trkpt>
      <trkpt lat="45.59078" lon="6.12321">
        <ele>1194</ele>
        <time>2021-01-16T10:41:24.000Z</time>
      </trkpt>
      <trkpt lat="45.5907" lon="6.12318">
        <ele>1194.8000488281</ele>
        <time>2021-01-16T10:41:32.000Z</time>
      </trkpt>
      <trkpt lat="45.59064" lon="6.12317">
        <ele>1195.4000244141</ele>
        <time>2021-01-16T10:41:38.000Z</time>
      </trkpt>
      <trkpt lat="45.59058" lon="6.12316">
        <ele>1196</ele>
        <time>2021-01-16T10:41:43.000Z</time>
      </trkpt>
      <trkpt lat="45.59053" lon="6.12316">
        <ele>1196.4000244141</ele>
        <time>2021-01-16T10:41:47.000Z</time>
      </trkpt>
      <trkpt lat="45.59049" lon="6.12315">
        <ele>1197</ele>
        <time>2021-01-16T10:41:50.000Z</time>
      </trkpt>
      <trkpt lat="45.59045" lon="6.12315">
        <ele>1197.5999755859</ele>
        <time>2021-01-16T10:41:53.000Z</time>
      </trkpt>
      <trkpt lat="45.59043" lon="6.12315">
        <ele>1198</ele>
        <time>2021-01-16T10:41:55.000Z</time>
      </trkpt>
      <trkpt lat="45.59037" lon="6.12318">
        <ele>1198.4000244141</ele>
        <time>2021-01-16T10:42:00.000Z</time>
      </trkpt>
      <trkpt lat="45.59027" lon="6.1232">
        <ele>1199</ele>
        <time>2021-01-16T10:42:08.000Z</time>
      </trkpt>
      <trkpt lat="45.59027" lon="6.1232">
        <ele>1199.1999511719</ele>
        <time>2021-01-16T10:42:09.000Z</time>
      </trkpt>
      <trkpt lat="45.59023" lon="6.1232">
        <ele>1200.1999511719</ele>
        <time>2021-01-16T10:42:13.000Z</time>
      </trkpt>
      <trkpt lat="45.5902" lon="6.1232">
        <ele>1200.5999755859</ele>
        <time>2021-01-16T10:42:16.000Z</time>
      </trkpt>
      <trkpt lat="45.59012" lon="6.12319">
        <ele>1201.1999511719</ele>
        <time>2021-01-16T10:42:23.000Z</time>
      </trkpt>
      <trkpt lat="45.5901" lon="6.12319">
        <ele>1201.1999511719</ele>
        <time>2021-01-16T10:42:24.000Z</time>
      </trkpt>
      <trkpt lat="45.59002" lon="6.12319">
        <ele>1202.1999511719</ele>
        <time>2021-01-16T10:42:31.000Z</time>
      </trkpt>
      <trkpt lat="45.59" lon="6.12319">
        <ele>1202.4000244141</ele>
        <time>2021-01-16T10:42:32.000Z</time>
      </trkpt>
      <trkpt lat="45.58992" lon="6.12317">
        <ele>1203.4000244141</ele>
        <time>2021-01-16T10:42:40.000Z</time>
      </trkpt>
      <trkpt lat="45.58984" lon="6.12315">
        <ele>1204.4000244141</ele>
        <time>2021-01-16T10:42:48.000Z</time>
      </trkpt>
      <trkpt lat="45.58982" lon="6.12315">
        <ele>1205.4000244141</ele>
        <time>2021-01-16T10:42:56.000Z</time>
      </trkpt>
      <trkpt lat="45.58981" lon="6.12315">
        <ele>1205.4000244141</ele>
        <time>2021-01-16T10:42:57.000Z</time>
      </trkpt>
      <trkpt lat="45.58974" lon="6.12314">
        <ele>1206.1999511719</ele>
        <time>2021-01-16T10:43:04.000Z</time>
      </trkpt>
      <trkpt lat="45.58972" lon="6.12313">
        <ele>1206.5999755859</ele>
        <time>2021-01-16T10:43:05.000Z</time>
      </trkpt>
      <trkpt lat="45.58962" lon="6.12304">
        <ele>1207.4000244141</ele>
        <time>2021-01-16T10:43:13.000Z</time>
      </trkpt>
      <trkpt lat="45.5896" lon="6.12302">
        <ele>1207.5999755859</ele>
        <time>2021-01-16T10:43:15.000Z</time>
      </trkpt>
      <trkpt lat="45.58956" lon="6.12294">
        <ele>1208.5999755859</ele>
        <time>2021-01-16T10:43:20.000Z</time>
      </trkpt>
      <trkpt lat="45.5895" lon="6.12289">
        <ele>1209.5999755859</ele>
        <time>2021-01-16T10:43:26.000Z</time>
      </trkpt>
      <trkpt lat="45.58949" lon="6.12288">
        <ele>1209.8000488281</ele>
        <time>2021-01-16T10:43:27.000Z</time>
      </trkpt>
      <trkpt lat="45.58942" lon="6.12286">
        <ele>1210.5999755859</ele>
        <time>2021-01-16T10:43:34.000Z</time>
      </trkpt>
      <trkpt lat="45.58942" lon="6.12286">
        <ele>1210.8000488281</ele>
        <time>2021-01-16T10:43:35.000Z</time>
      </trkpt>
      <trkpt lat="45.58933" lon="6.12287">
        <ele>1211.8000488281</ele>
        <time>2021-01-16T10:43:43.000Z</time>
      </trkpt>
      <trkpt lat="45.58933" lon="6.12287">
        <ele>1212.1999511719</ele>
        <time>2021-01-16T10:43:44.000Z</time>
      </trkpt>
      <trkpt lat="45.58927" lon="6.12288">
        <ele>1213.4000244141</ele>
        <time>2021-01-16T10:43:50.000Z</time>
      </trkpt>
      <trkpt lat="45.58925" lon="6.12288">
        <ele>1213.8000488281</ele>
        <time>2021-01-16T10:43:53.000Z</time>
      </trkpt>
      <trkpt lat="45.58924" lon="6.12288">
        <ele>1214</ele>
        <time>2021-01-16T10:43:54.000Z</time>
      </trkpt>
      <trkpt lat="45.5892" lon="6.12289">
        <ele>1214.4000244141</ele>
        <time>2021-01-16T10:43:58.000Z</time>
      </trkpt>
      <trkpt lat="45.58919" lon="6.12289">
        <ele>1214.4000244141</ele>
        <time>2021-01-16T10:43:59.000Z</time>
      </trkpt>
      <trkpt lat="45.58915" lon="6.12289">
        <ele>1213.1999511719</ele>
        <time>2021-01-16T10:44:03.000Z</time>
      </trkpt>
      <trkpt lat="45.58912" lon="6.1229">
        <ele>1212.8000488281</ele>
        <time>2021-01-16T10:44:06.000Z</time>
      </trkpt>
      <trkpt lat="45.58911" lon="6.12289">
        <ele>1214.4000244141</ele>
        <time>2021-01-16T10:44:08.000Z</time>
      </trkpt>
      <trkpt lat="45.58908" lon="6.1229">
        <ele>1215</ele>
        <time>2021-01-16T10:44:10.000Z</time>
      </trkpt>
      <trkpt lat="45.58905" lon="6.1229">
        <ele>1215</ele>
        <time>2021-01-16T10:44:13.000Z</time>
      </trkpt>
      <trkpt lat="45.58902" lon="6.12291">
        <ele>1215.5999755859</ele>
        <time>2021-01-16T10:44:17.000Z</time>
      </trkpt>
      <trkpt lat="45.589" lon="6.12291">
        <ele>1216</ele>
        <time>2021-01-16T10:44:19.000Z</time>
      </trkpt>
      <trkpt lat="45.58899" lon="6.12291">
        <ele>1216.8000488281</ele>
        <time>2021-01-16T10:44:21.000Z</time>
      </trkpt>
      <trkpt lat="45.58899" lon="6.12291">
        <ele>1218</ele>
        <time>2021-01-16T10:44:25.000Z</time>
      </trkpt>
      <trkpt lat="45.58874" lon="6.12296">
        <ele>1141</ele>
        <time>2021-01-16T10:44:58.000Z</time>
      </trkpt>
      <trkpt lat="45.58874" lon="6.12295">
        <ele>1141.1999511719</ele>
        <time>2021-01-16T10:45:03.000Z</time>
      </trkpt>
      <trkpt lat="45.58873" lon="6.12295">
        <ele>1141.1999511719</ele>
        <time>2021-01-16T10:45:05.000Z</time>
      </trkpt>
      <trkpt lat="45.58869" lon="6.12296">
        <ele>1142</ele>
        <time>2021-01-16T10:45:12.000Z</time>
      </trkpt>
      <trkpt lat="45.58861" lon="6.12298">
        <ele>1141.8000488281</ele>
        <time>2021-01-16T10:45:19.000Z</time>
      </trkpt>
      <trkpt lat="45.58855" lon="6.12299">
        <ele>1143.1999511719</ele>
        <time>2021-01-16T10:45:26.000Z</time>
      </trkpt>
      <trkpt lat="45.58844" lon="6.12301">
        <ele>1144.1999511719</ele>
        <time>2021-01-16T10:45:36.000Z</time>
      </trkpt>
      <trkpt lat="45.58839" lon="6.12295">
        <ele>1145.4000244141</ele>
        <time>2021-01-16T10:45:42.000Z</time>
      </trkpt>
      <trkpt lat="45.58841" lon="6.12289">
        <ele>1146.4000244141</ele>
        <time>2021-01-16T10:45:48.000Z</time>
      </trkpt>
      <trkpt lat="45.58844" lon="6.12288">
        <ele>1146.4000244141</ele>
        <time>2021-01-16T10:45:50.000Z</time>
      </trkpt>
      <trkpt lat="45.58851" lon="6.12285">
        <ele>1147.8000488281</ele>
        <time>2021-01-16T10:45:56.000Z</time>
      </trkpt>
      <trkpt lat="45.58854" lon="6.12283">
        <ele>1148.1999511719</ele>
        <time>2021-01-16T10:45:58.000Z</time>
      </trkpt>
      <trkpt lat="45.58859" lon="6.12277">
        <ele>1148.5999755859</ele>
        <time>2021-01-16T10:46:04.000Z</time>
      </trkpt>
      <trkpt lat="45.5886" lon="6.12275">
        <ele>1148.8000488281</ele>
        <time>2021-01-16T10:46:05.000Z</time>
      </trkpt>
      <trkpt lat="45.58862" lon="6.1227">
        <ele>1149.8000488281</ele>
        <time>2021-01-16T10:46:09.000Z</time>
      </trkpt>
      <trkpt lat="45.58863" lon="6.12268">
        <ele>1150</ele>
        <time>2021-01-16T10:46:11.000Z</time>
      </trkpt>
      <trkpt lat="45.58868" lon="6.12259">
        <ele>1150.8000488281</ele>
        <time>2021-01-16T10:46:18.000Z</time>
      </trkpt>
      <trkpt lat="45.5887" lon="6.12258">
        <ele>1151</ele>
        <time>2021-01-16T10:46:19.000Z</time>
      </trkpt>
      <trkpt lat="45.58875" lon="6.12251">
        <ele>1152.1999511719</ele>
        <time>2021-01-16T10:46:25.000Z</time>
      </trkpt>
      <trkpt lat="45.58875" lon="6.1225">
        <ele>1152.4000244141</ele>
        <time>2021-01-16T10:46:26.000Z</time>
      </trkpt>
      <trkpt lat="45.58881" lon="6.12246">
        <ele>1153.1999511719</ele>
        <time>2021-01-16T10:46:31.000Z</time>
      </trkpt>
      <trkpt lat="45.58883" lon="6.12246">
        <ele>1153.1999511719</ele>
        <time>2021-01-16T10:46:32.000Z</time>
      </trkpt>
      <trkpt lat="45.58891" lon="6.12244">
        <ele>1154.1999511719</ele>
        <time>2021-01-16T10:46:40.000Z</time>
      </trkpt>
      <trkpt lat="45.58901" lon="6.12242">
        <ele>1155.1999511719</ele>
        <time>2021-01-16T10:46:48.000Z</time>
      </trkpt>
      <trkpt lat="45.58902" lon="6.12242">
        <ele>1155.4000244141</ele>
        <time>2021-01-16T10:46:50.000Z</time>
      </trkpt>
      <trkpt lat="45.58911" lon="6.12236">
        <ele>1156.1999511719</ele>
        <time>2021-01-16T10:46:58.000Z</time>
      </trkpt>
      <trkpt lat="45.58914" lon="6.12235">
        <ele>1156.1999511719</ele>
        <time>2021-01-16T10:47:00.000Z</time>
      </trkpt>
      <trkpt lat="45.58917" lon="6.12232">
        <ele>1156.8000488281</ele>
        <time>2021-01-16T10:47:04.000Z</time>
      </trkpt>
      <trkpt lat="45.58923" lon="6.12228">
        <ele>1157.1999511719</ele>
        <time>2021-01-16T10:47:11.000Z</time>
      </trkpt>
      <trkpt lat="45.58926" lon="6.12225">
        <ele>1157.4000244141</ele>
        <time>2021-01-16T10:47:13.000Z</time>
      </trkpt>
      <trkpt lat="45.58934" lon="6.12218">
        <ele>1158.4000244141</ele>
        <time>2021-01-16T10:47:21.000Z</time>
      </trkpt>
      <trkpt lat="45.58939" lon="6.12214">
        <ele>1158.5999755859</ele>
        <time>2021-01-16T10:47:26.000Z</time>
      </trkpt>
      <trkpt lat="45.58941" lon="6.12212">
        <ele>1158.8000488281</ele>
        <time>2021-01-16T10:47:28.000Z</time>
      </trkpt>
      <trkpt lat="45.58946" lon="6.12209">
        <ele>1159.1999511719</ele>
        <time>2021-01-16T10:47:34.000Z</time>
      </trkpt>
      <trkpt lat="45.58951" lon="6.12207">
        <ele>1159.5999755859</ele>
        <time>2021-01-16T10:47:39.000Z</time>
      </trkpt>
      <trkpt lat="45.58952" lon="6.12206">
        <ele>1160</ele>
        <time>2021-01-16T10:47:41.000Z</time>
      </trkpt>
      <trkpt lat="45.58955" lon="6.12205">
        <ele>1160.8000488281</ele>
        <time>2021-01-16T10:47:43.000Z</time>
      </trkpt>
      <trkpt lat="45.58962" lon="6.12206">
        <ele>1161.4000244141</ele>
        <time>2021-01-16T10:47:49.000Z</time>
      </trkpt>
      <trkpt lat="45.58966" lon="6.12207">
        <ele>1161.8000488281</ele>
        <time>2021-01-16T10:47:54.000Z</time>
      </trkpt>
      <trkpt lat="45.58971" lon="6.12207">
        <ele>1162.5999755859</ele>
        <time>2021-01-16T10:48:00.000Z</time>
      </trkpt>
      <trkpt lat="45.58972" lon="6.12207">
        <ele>1163</ele>
        <time>2021-01-16T10:48:02.000Z</time>
      </trkpt>
      <trkpt lat="45.58981" lon="6.12208">
        <ele>1163.8000488281</ele>
        <time>2021-01-16T10:48:09.000Z</time>
      </trkpt>
      <trkpt lat="45.58981" lon="6.12208">
        <ele>1164</ele>
        <time>2021-01-16T10:48:10.000Z</time>
      </trkpt>
      <trkpt lat="45.58987" lon="6.1221">
        <ele>1165</ele>
        <time>2021-01-16T10:48:17.000Z</time>
      </trkpt>
      <trkpt lat="45.58988" lon="6.1221">
        <ele>1165.1999511719</ele>
        <time>2021-01-16T10:48:18.000Z</time>
      </trkpt>
      <trkpt lat="45.58994" lon="6.12211">
        <ele>1166.1999511719</ele>
        <time>2021-01-16T10:48:24.000Z</time>
      </trkpt>
      <trkpt lat="45.58998" lon="6.12211">
        <ele>1166.4000244141</ele>
        <time>2021-01-16T10:48:27.000Z</time>
      </trkpt>
      <trkpt lat="45.5901" lon="6.12209">
        <ele>1167.1999511719</ele>
        <time>2021-01-16T10:48:36.000Z</time>
      </trkpt>
      <trkpt lat="45.59018" lon="6.12205">
        <ele>1168.1999511719</ele>
        <time>2021-01-16T10:48:44.000Z</time>
      </trkpt>
      <trkpt lat="45.59019" lon="6.12205">
        <ele>1168.1999511719</ele>
        <time>2021-01-16T10:48:45.000Z</time>
      </trkpt>
      <trkpt lat="45.59028" lon="6.12197">
        <ele>1169</ele>
        <time>2021-01-16T10:48:53.000Z</time>
      </trkpt>
      <trkpt lat="45.59028" lon="6.12193">
        <ele>1169.4000244141</ele>
        <time>2021-01-16T10:48:58.000Z</time>
      </trkpt>
      <trkpt lat="45.59027" lon="6.12192">
        <ele>1169.4000244141</ele>
        <time>2021-01-16T10:48:59.000Z</time>
      </trkpt>
      <trkpt lat="45.59022" lon="6.12194">
        <ele>1170.4000244141</ele>
        <time>2021-01-16T10:49:04.000Z</time>
      </trkpt>
      <trkpt lat="45.59019" lon="6.12195">
        <ele>1170.4000244141</ele>
        <time>2021-01-16T10:49:06.000Z</time>
      </trkpt>
      <trkpt lat="45.59014" lon="6.122">
        <ele>1171.4000244141</ele>
        <time>2021-01-16T10:49:11.000Z</time>
      </trkpt>
      <trkpt lat="45.59012" lon="6.12202">
        <ele>1171.8000488281</ele>
        <time>2021-01-16T10:49:13.000Z</time>
      </trkpt>
      <trkpt lat="45.59002" lon="6.12204">
        <ele>1172.5999755859</ele>
        <time>2021-01-16T10:49:21.000Z</time>
      </trkpt>
      <trkpt lat="45.58995" lon="6.122">
        <ele>1173.4000244141</ele>
        <time>2021-01-16T10:49:28.000Z</time>
      </trkpt>
      <trkpt lat="45.58993" lon="6.122">
        <ele>1173.5999755859</ele>
        <time>2021-01-16T10:49:30.000Z</time>
      </trkpt>
      <trkpt lat="45.58987" lon="6.12195">
        <ele>1174.1999511719</ele>
        <time>2021-01-16T10:49:36.000Z</time>
      </trkpt>
      <trkpt lat="45.58985" lon="6.12194">
        <ele>1174.5999755859</ele>
        <time>2021-01-16T10:49:38.000Z</time>
      </trkpt>
      <trkpt lat="45.58981" lon="6.12191">
        <ele>1175</ele>
        <time>2021-01-16T10:49:42.000Z</time>
      </trkpt>
      <trkpt lat="45.5898" lon="6.12191">
        <ele>1175.5999755859</ele>
        <time>2021-01-16T10:49:48.000Z</time>
      </trkpt>
      <trkpt lat="45.5898" lon="6.1219">
        <ele>1175.8000488281</ele>
        <time>2021-01-16T10:49:54.000Z</time>
      </trkpt>
      <trkpt lat="45.58978" lon="6.12187">
        <ele>1175.8000488281</ele>
        <time>2021-01-16T10:50:00.000Z</time>
      </trkpt>
      <trkpt lat="45.58981" lon="6.12188">
        <ele>1176</ele>
        <time>2021-01-16T10:50:08.000Z</time>
      </trkpt>
      <trkpt lat="45.58986" lon="6.12188">
        <ele>1176.5999755859</ele>
        <time>2021-01-16T10:50:13.000Z</time>
      </trkpt>
      <trkpt lat="45.58989" lon="6.12188">
        <ele>1177.1999511719</ele>
        <time>2021-01-16T10:50:15.000Z</time>
      </trkpt>
      <trkpt lat="45.58993" lon="6.12187">
        <ele>1177.8000488281</ele>
        <time>2021-01-16T10:50:18.000Z</time>
      </trkpt>
      <trkpt lat="45.58993" lon="6.12187">
        <ele>1178.1999511719</ele>
        <time>2021-01-16T10:50:25.000Z</time>
      </trkpt>
      <trkpt lat="45.58993" lon="6.12187">
        <ele>1178.8000488281</ele>
        <time>2021-01-16T10:50:28.000Z</time>
      </trkpt>
      <trkpt lat="45.58993" lon="6.12187">
        <ele>1177.8000488281</ele>
        <time>2021-01-16T10:50:37.000Z</time>
      </trkpt>
      <trkpt lat="45.58993" lon="6.12187">
        <ele>1177.5999755859</ele>
        <time>2021-01-16T10:50:39.000Z</time>
      </trkpt>
      <trkpt lat="45.58993" lon="6.12187">
        <ele>1179.1999511719</ele>
        <time>2021-01-16T10:50:44.000Z</time>
      </trkpt>
      <trkpt lat="45.58993" lon="6.12187">
        <ele>1179.1999511719</ele>
        <time>2021-01-16T10:50:49.000Z</time>
      </trkpt>
      <trkpt lat="45.58993" lon="6.12187">
        <ele>1179</ele>
        <time>2021-01-16T10:51:03.000Z</time>
      </trkpt>
      <trkpt lat="45.58993" lon="6.12187">
        <ele>1179</ele>
        <time>2021-01-16T10:51:19.000Z</time>
      </trkpt>
      <trkpt lat="45.58993" lon="6.12187">
        <ele>1179.1999511719</ele>
        <time>2021-01-16T10:51:32.000Z</time>
      </trkpt>
      <trkpt lat="45.58993" lon="6.12188">
        <ele>1179</ele>
        <time>2021-01-16T10:51:46.000Z</time>
      </trkpt>
      <trkpt lat="45.58993" lon="6.12188">
        <ele>1178.8000488281</ele>
        <time>2021-01-16T10:51:56.000Z</time>
      </trkpt>
      <trkpt lat="45.58994" lon="6.12188">
        <ele>1179</ele>
        <time>2021-01-16T10:52:09.000Z</time>
      </trkpt>
      <trkpt lat="45.58994" lon="6.12188">
        <ele>1179.1999511719</ele>
        <time>2021-01-16T10:52:19.000Z</time>
      </trkpt>
      <trkpt lat="45.58994" lon="6.12188">
        <ele>1179.1999511719</ele>
        <time>2021-01-16T10:52:33.000Z</time>
      </trkpt>
      <trkpt lat="45.58994" lon="6.12187">
        <ele>1179.5999755859</ele>
        <time>2021-01-16T10:52:49.000Z</time>
      </trkpt>
      <trkpt lat="45.58994" lon="6.12187">
        <ele>1179.1999511719</ele>
        <time>2021-01-16T10:53:04.000Z</time>
      </trkpt>
      <trkpt lat="45.58999" lon="6.12191">
        <ele>1179.1999511719</ele>
        <time>2021-01-16T10:53:09.000Z</time>
      </trkpt>
      <trkpt lat="45.59001" lon="6.12192">
        <ele>1179.1999511719</ele>
        <time>2021-01-16T10:53:10.000Z</time>
      </trkpt>
      <trkpt lat="45.59002" lon="6.12193">
        <ele>1178.5999755859</ele>
        <time>2021-01-16T10:53:14.000Z</time>
      </trkpt>
      <trkpt lat="45.59004" lon="6.12194">
        <ele>1178</ele>
        <time>2021-01-16T10:53:16.000Z</time>
      </trkpt>
      <trkpt lat="45.59005" lon="6.12195">
        <ele>1177.4000244141</ele>
        <time>2021-01-16T10:53:20.000Z</time>
      </trkpt>
      <trkpt lat="45.59005" lon="6.12195">
        <ele>1177</ele>
        <time>2021-01-16T10:53:31.000Z</time>
      </trkpt>
      <trkpt lat="45.59005" lon="6.12195">
        <ele>1177</ele>
        <time>2021-01-16T10:53:32.000Z</time>
      </trkpt>
      <trkpt lat="45.59005" lon="6.12195">
        <ele>1177.1999511719</ele>
        <time>2021-01-16T10:53:43.000Z</time>
      </trkpt>
      <trkpt lat="45.59012" lon="6.122">
        <ele>1176.8000488281</ele>
        <time>2021-01-16T10:53:51.000Z</time>
      </trkpt>
      <trkpt lat="45.59022" lon="6.12204">
        <ele>1175.5999755859</ele>
        <time>2021-01-16T10:53:55.000Z</time>
      </trkpt>
      <trkpt lat="45.59022" lon="6.12204">
        <ele>1174.8000488281</ele>
        <time>2021-01-16T10:53:56.000Z</time>
      </trkpt>
      <trkpt lat="45.59023" lon="6.12204">
        <ele>1174</ele>
        <time>2021-01-16T10:53:57.000Z</time>
      </trkpt>
      <trkpt lat="45.59023" lon="6.12203">
        <ele>1172.8000488281</ele>
        <time>2021-01-16T10:53:59.000Z</time>
      </trkpt>
      <trkpt lat="45.59023" lon="6.12203">
        <ele>1172.1999511719</ele>
        <time>2021-01-16T10:54:02.000Z</time>
      </trkpt>
      <trkpt lat="45.59023" lon="6.12206">
        <ele>1171.5999755859</ele>
        <time>2021-01-16T10:54:05.000Z</time>
      </trkpt>
      <trkpt lat="45.59023" lon="6.12206">
        <ele>1168.1999511719</ele>
        <time>2021-01-16T10:54:07.000Z</time>
      </trkpt>
      <trkpt lat="45.59023" lon="6.12206">
        <ele>1166.4000244141</ele>
        <time>2021-01-16T10:54:08.000Z</time>
      </trkpt>
      <trkpt lat="45.59023" lon="6.12206">
        <ele>1164.8000488281</ele>
        <time>2021-01-16T10:54:10.000Z</time>
      </trkpt>
      <trkpt lat="45.59022" lon="6.12206">
        <ele>1168.1999511719</ele>
        <time>2021-01-16T10:54:12.000Z</time>
      </trkpt>
      <trkpt lat="45.59022" lon="6.12206">
        <ele>1170.4000244141</ele>
        <time>2021-01-16T10:54:13.000Z</time>
      </trkpt>
      <trkpt lat="45.59022" lon="6.12206">
        <ele>1171.5999755859</ele>
        <time>2021-01-16T10:54:14.000Z</time>
      </trkpt>
      <trkpt lat="45.59021" lon="6.12208">
        <ele>1171.8000488281</ele>
        <time>2021-01-16T10:54:16.000Z</time>
      </trkpt>
      <trkpt lat="45.59021" lon="6.12208">
        <ele>1170.4000244141</ele>
        <time>2021-01-16T10:54:18.000Z</time>
      </trkpt>
      <trkpt lat="45.5902" lon="6.12209">
        <ele>1169.1999511719</ele>
        <time>2021-01-16T10:54:21.000Z</time>
      </trkpt>
      <trkpt lat="45.59015" lon="6.12212">
        <ele>1168.8000488281</ele>
        <time>2021-01-16T10:54:25.000Z</time>
      </trkpt>
      <trkpt lat="45.59006" lon="6.12216">
        <ele>1168.1999511719</ele>
        <time>2021-01-16T10:54:32.000Z</time>
      </trkpt>
      <trkpt lat="45.59005" lon="6.12217">
        <ele>1168.1999511719</ele>
        <time>2021-01-16T10:54:33.000Z</time>
      </trkpt>
      <trkpt lat="45.59002" lon="6.12217">
        <ele>1167.8000488281</ele>
        <time>2021-01-16T10:54:42.000Z</time>
      </trkpt>
      <trkpt lat="45.58997" lon="6.12217">
        <ele>1167.4000244141</ele>
        <time>2021-01-16T10:54:50.000Z</time>
      </trkpt>
      <trkpt lat="45.58997" lon="6.12217">
        <ele>1167.4000244141</ele>
        <time>2021-01-16T10:55:02.000Z</time>
      </trkpt>
      <trkpt lat="45.58997" lon="6.12217">
        <ele>1166.8000488281</ele>
        <time>2021-01-16T10:55:03.000Z</time>
      </trkpt>
      <trkpt lat="45.58997" lon="6.12217">
        <ele>1165.5999755859</ele>
        <time>2021-01-16T10:55:04.000Z</time>
      </trkpt>
      <trkpt lat="45.58997" lon="6.12217">
        <ele>1164.1999511719</ele>
        <time>2021-01-16T10:55:06.000Z</time>
      </trkpt>
      <trkpt lat="45.58997" lon="6.12217">
        <ele>1165.8000488281</ele>
        <time>2021-01-16T10:55:10.000Z</time>
      </trkpt>
      <trkpt lat="45.58997" lon="6.12217">
        <ele>1167.8000488281</ele>
        <time>2021-01-16T10:55:11.000Z</time>
      </trkpt>
      <trkpt lat="45.58997" lon="6.12217">
        <ele>1169</ele>
        <time>2021-01-16T10:55:12.000Z</time>
      </trkpt>
      <trkpt lat="45.58997" lon="6.12217">
        <ele>1170</ele>
        <time>2021-01-16T10:55:14.000Z</time>
      </trkpt>
      <trkpt lat="45.58997" lon="6.12217">
        <ele>1169.1999511719</ele>
        <time>2021-01-16T10:55:16.000Z</time>
      </trkpt>
      <trkpt lat="45.58997" lon="6.12217">
        <ele>1168.4000244141</ele>
        <time>2021-01-16T10:55:17.000Z</time>
      </trkpt>
      <trkpt lat="45.58997" lon="6.12217">
        <ele>1167.4000244141</ele>
        <time>2021-01-16T10:55:20.000Z</time>
      </trkpt>
      <trkpt lat="45.58996" lon="6.12217">
        <ele>1167.4000244141</ele>
        <time>2021-01-16T10:55:25.000Z</time>
      </trkpt>
      <trkpt lat="45.58996" lon="6.12217">
        <ele>1167.4000244141</ele>
        <time>2021-01-16T10:55:31.000Z</time>
      </trkpt>
      <trkpt lat="45.58996" lon="6.12217">
        <ele>1167.8000488281</ele>
        <time>2021-01-16T10:55:43.000Z</time>
      </trkpt>
      <trkpt lat="45.58996" lon="6.12217">
        <ele>1167.1999511719</ele>
        <time>2021-01-16T10:55:53.000Z</time>
      </trkpt>
      <trkpt lat="45.58996" lon="6.12217">
        <ele>1167.5999755859</ele>
        <time>2021-01-16T10:56:04.000Z</time>
      </trkpt>
      <trkpt lat="45.59003" lon="6.12217">
        <ele>1167.4000244141</ele>
        <time>2021-01-16T10:56:12.000Z</time>
      </trkpt>
      <trkpt lat="45.59004" lon="6.12217">
        <ele>1168</ele>
        <time>2021-01-16T10:56:21.000Z</time>
      </trkpt>
      <trkpt lat="45.59004" lon="6.12217">
        <ele>1168</ele>
        <time>2021-01-16T10:56:33.000Z</time>
      </trkpt>
      <trkpt lat="45.59004" lon="6.12217">
        <ele>1168.4000244141</ele>
        <time>2021-01-16T10:56:45.000Z</time>
      </trkpt>
      <trkpt lat="45.59004" lon="6.12217">
        <ele>1168.4000244141</ele>
        <time>2021-01-16T10:56:47.000Z</time>
      </trkpt>
      <trkpt lat="45.59004" lon="6.12217">
        <ele>1168.1999511719</ele>
        <time>2021-01-16T10:56:56.000Z</time>
      </trkpt>
      <trkpt lat="45.5901" lon="6.12216">
        <ele>1168.4000244141</ele>
        <time>2021-01-16T10:57:09.000Z</time>
      </trkpt>
      <trkpt lat="45.59024" lon="6.12206">
        <ele>1169.4000244141</ele>
        <time>2021-01-16T10:57:17.000Z</time>
      </trkpt>
      <trkpt lat="45.59028" lon="6.12199">
        <ele>1170</ele>
        <time>2021-01-16T10:57:23.000Z</time>
      </trkpt>
      <trkpt lat="45.59025" lon="6.12196">
        <ele>1170.5999755859</ele>
        <time>2021-01-16T10:57:28.000Z</time>
      </trkpt>
      <trkpt lat="45.59021" lon="6.12197">
        <ele>1171.4000244141</ele>
        <time>2021-01-16T10:57:30.000Z</time>
      </trkpt>
      <trkpt lat="45.5902" lon="6.12198">
        <ele>1171.5999755859</ele>
        <time>2021-01-16T10:57:31.000Z</time>
      </trkpt>
      <trkpt lat="45.59016" lon="6.12202">
        <ele>1172.1999511719</ele>
        <time>2021-01-16T10:57:36.000Z</time>
      </trkpt>
      <trkpt lat="45.5901" lon="6.12204">
        <ele>1172.5999755859</ele>
        <time>2021-01-16T10:57:40.000Z</time>
      </trkpt>
      <trkpt lat="45.59006" lon="6.12204">
        <ele>1173.1999511719</ele>
        <time>2021-01-16T10:57:44.000Z</time>
      </trkpt>
      <trkpt lat="45.59" lon="6.12201">
        <ele>1173.8000488281</ele>
        <time>2021-01-16T10:57:48.000Z</time>
      </trkpt>
      <trkpt lat="45.58997" lon="6.122">
        <ele>1174</ele>
        <time>2021-01-16T10:57:50.000Z</time>
      </trkpt>
      <trkpt lat="45.58991" lon="6.12199">
        <ele>1174.8000488281</ele>
        <time>2021-01-16T10:57:56.000Z</time>
      </trkpt>
      <trkpt lat="45.58991" lon="6.12199">
        <ele>1175.1999511719</ele>
        <time>2021-01-16T10:58:11.000Z</time>
      </trkpt>
      <trkpt lat="45.58988" lon="6.12196">
        <ele>1175</ele>
        <time>2021-01-16T10:58:18.000Z</time>
      </trkpt>
      <trkpt lat="45.58983" lon="6.12194">
        <ele>1176</ele>
        <time>2021-01-16T10:58:23.000Z</time>
      </trkpt>
      <trkpt lat="45.58982" lon="6.12192">
        <ele>1176.8000488281</ele>
        <time>2021-01-16T10:58:27.000Z</time>
      </trkpt>
      <trkpt lat="45.58987" lon="6.12191">
        <ele>1177.1999511719</ele>
        <time>2021-01-16T10:58:37.000Z</time>
      </trkpt>
      <trkpt lat="45.58988" lon="6.12191">
        <ele>1177.4000244141</ele>
        <time>2021-01-16T10:58:38.000Z</time>
      </trkpt>
      <trkpt lat="45.58994" lon="6.12185">
        <ele>1178.4000244141</ele>
        <time>2021-01-16T10:58:44.000Z</time>
      </trkpt>
      <trkpt lat="45.58997" lon="6.12183">
        <ele>1179.4000244141</ele>
        <time>2021-01-16T10:58:47.000Z</time>
      </trkpt>
      <trkpt lat="45.58999" lon="6.12181">
        <ele>1179.5999755859</ele>
        <time>2021-01-16T10:58:49.000Z</time>
      </trkpt>
      <trkpt lat="45.59002" lon="6.12178">
        <ele>1180.8000488281</ele>
        <time>2021-01-16T10:58:55.000Z</time>
      </trkpt>
      <trkpt lat="45.59002" lon="6.12177">
        <ele>1181.5999755859</ele>
        <time>2021-01-16T10:58:58.000Z</time>
      </trkpt>
      <trkpt lat="45.59003" lon="6.12177">
        <ele>1182</ele>
        <time>2021-01-16T10:58:59.000Z</time>
      </trkpt>
      <trkpt lat="45.59004" lon="6.12175">
        <ele>1183</ele>
        <time>2021-01-16T10:59:03.000Z</time>
      </trkpt>
      <trkpt lat="45.59006" lon="6.12174">
        <ele>1184</ele>
        <time>2021-01-16T10:59:09.000Z</time>
      </trkpt>
      <trkpt lat="45.59006" lon="6.12173">
        <ele>1184.1999511719</ele>
        <time>2021-01-16T10:59:10.000Z</time>
      </trkpt>
      <trkpt lat="45.59005" lon="6.12171">
        <ele>1185.1999511719</ele>
        <time>2021-01-16T10:59:14.000Z</time>
      </trkpt>
      <trkpt lat="45.59003" lon="6.12167">
        <ele>1185.8000488281</ele>
        <time>2021-01-16T10:59:18.000Z</time>
      </trkpt>
      <trkpt lat="45.58999" lon="6.12163">
        <ele>1186.5999755859</ele>
        <time>2021-01-16T10:59:25.000Z</time>
      </trkpt>
      <trkpt lat="45.58997" lon="6.12162">
        <ele>1187.4000244141</ele>
        <time>2021-01-16T10:59:27.000Z</time>
      </trkpt>
      <trkpt lat="45.58996" lon="6.12161">
        <ele>1188</ele>
        <time>2021-01-16T10:59:29.000Z</time>
      </trkpt>
      <trkpt lat="45.58996" lon="6.12161">
        <ele>1189</ele>
        <time>2021-01-16T10:59:32.000Z</time>
      </trkpt>
      <trkpt lat="45.58996" lon="6.12161">
        <ele>1189</ele>
        <time>2021-01-16T10:59:38.000Z</time>
      </trkpt>
      <trkpt lat="45.59005" lon="6.12157">
        <ele>1190.1999511719</ele>
        <time>2021-01-16T10:59:46.000Z</time>
      </trkpt>
      <trkpt lat="45.59007" lon="6.12157">
        <ele>1191</ele>
        <time>2021-01-16T10:59:50.000Z</time>
      </trkpt>
      <trkpt lat="45.59007" lon="6.12157">
        <ele>1191.1999511719</ele>
        <time>2021-01-16T10:59:51.000Z</time>
      </trkpt>
      <trkpt lat="45.59012" lon="6.12156">
        <ele>1192.4000244141</ele>
        <time>2021-01-16T10:59:56.000Z</time>
      </trkpt>
      <trkpt lat="45.59016" lon="6.12156">
        <ele>1192.5999755859</ele>
        <time>2021-01-16T10:59:59.000Z</time>
      </trkpt>
      <trkpt lat="45.59017" lon="6.12156">
        <ele>1193.4000244141</ele>
        <time>2021-01-16T11:00:03.000Z</time>
      </trkpt>
      <trkpt lat="45.59017" lon="6.12156">
        <ele>1193.8000488281</ele>
        <time>2021-01-16T11:00:09.000Z</time>
      </trkpt>
      <trkpt lat="45.59021" lon="6.12153">
        <ele>1194.5999755859</ele>
        <time>2021-01-16T11:00:17.000Z</time>
      </trkpt>
      <trkpt lat="45.59022" lon="6.12152">
        <ele>1194.8000488281</ele>
        <time>2021-01-16T11:00:18.000Z</time>
      </trkpt>
      <trkpt lat="45.59024" lon="6.12152">
        <ele>1195.8000488281</ele>
        <time>2021-01-16T11:00:21.000Z</time>
      </trkpt>
      <trkpt lat="45.59024" lon="6.12152">
        <ele>1196.8000488281</ele>
        <time>2021-01-16T11:00:26.000Z</time>
      </trkpt>
      <trkpt lat="45.59025" lon="6.1215">
        <ele>1197.1999511719</ele>
        <time>2021-01-16T11:00:29.000Z</time>
      </trkpt>
      <trkpt lat="45.59025" lon="6.1215">
        <ele>1197.8000488281</ele>
        <time>2021-01-16T11:00:31.000Z</time>
      </trkpt>
      <trkpt lat="45.59025" lon="6.12149">
        <ele>1198.8000488281</ele>
        <time>2021-01-16T11:00:38.000Z</time>
      </trkpt>
      <trkpt lat="45.59025" lon="6.12149">
        <ele>1199.1999511719</ele>
        <time>2021-01-16T11:00:40.000Z</time>
      </trkpt>
      <trkpt lat="45.59024" lon="6.12148">
        <ele>1200</ele>
        <time>2021-01-16T11:00:43.000Z</time>
      </trkpt>
      <trkpt lat="45.59024" lon="6.12148">
        <ele>1201.1999511719</ele>
        <time>2021-01-16T11:00:49.000Z</time>
      </trkpt>
      <trkpt lat="45.59024" lon="6.12148">
        <ele>1202.1999511719</ele>
        <time>2021-01-16T11:00:52.000Z</time>
      </trkpt>
      <trkpt lat="45.59024" lon="6.12148">
        <ele>1202.4000244141</ele>
        <time>2021-01-16T11:00:53.000Z</time>
      </trkpt>
      <trkpt lat="45.59024" lon="6.12148">
        <ele>1203.1999511719</ele>
        <time>2021-01-16T11:01:02.000Z</time>
      </trkpt>
      <trkpt lat="45.59024" lon="6.12148">
        <ele>1203.4000244141</ele>
        <time>2021-01-16T11:01:05.000Z</time>
      </trkpt>
      <trkpt lat="45.59024" lon="6.12148">
        <ele>1204.5999755859</ele>
        <time>2021-01-16T11:01:11.000Z</time>
      </trkpt>
      <trkpt lat="45.59024" lon="6.12139">
        <ele>1205.5999755859</ele>
        <time>2021-01-16T11:01:15.000Z</time>
      </trkpt>
      <trkpt lat="45.59024" lon="6.12131">
        <ele>1206.8000488281</ele>
        <time>2021-01-16T11:01:21.000Z</time>
      </trkpt>
      <trkpt lat="45.59023" lon="6.12129">
        <ele>1207.8000488281</ele>
        <time>2021-01-16T11:01:24.000Z</time>
      </trkpt>
      <trkpt lat="45.59021" lon="6.12127">
        <ele>1207.5999755859</ele>
        <time>2021-01-16T11:01:29.000Z</time>
      </trkpt>
      <trkpt lat="45.59017" lon="6.1212">
        <ele>1208.8000488281</ele>
        <time>2021-01-16T11:01:35.000Z</time>
      </trkpt>
      <trkpt lat="45.59017" lon="6.12118">
        <ele>1209</ele>
        <time>2021-01-16T11:01:36.000Z</time>
      </trkpt>
      <trkpt lat="45.59018" lon="6.1211">
        <ele>1210</ele>
        <time>2021-01-16T11:01:43.000Z</time>
      </trkpt>
      <trkpt lat="45.59018" lon="6.1211">
        <ele>1210</ele>
        <time>2021-01-16T11:01:44.000Z</time>
      </trkpt>
      <trkpt lat="45.59017" lon="6.12109">
        <ele>1211</ele>
        <time>2021-01-16T11:01:49.000Z</time>
      </trkpt>
      <trkpt lat="45.59017" lon="6.121">
        <ele>1212</ele>
        <time>2021-01-16T11:01:54.000Z</time>
      </trkpt>
      <trkpt lat="45.59017" lon="6.12091">
        <ele>1213</ele>
        <time>2021-01-16T11:02:00.000Z</time>
      </trkpt>
      <trkpt lat="45.59018" lon="6.12086">
        <ele>1213.8000488281</ele>
        <time>2021-01-16T11:02:04.000Z</time>
      </trkpt>
      <trkpt lat="45.59019" lon="6.12084">
        <ele>1214.1999511719</ele>
        <time>2021-01-16T11:02:05.000Z</time>
      </trkpt>
      <trkpt lat="45.59021" lon="6.12079">
        <ele>1215.1999511719</ele>
        <time>2021-01-16T11:02:09.000Z</time>
      </trkpt>
      <trkpt lat="45.59023" lon="6.12077">
        <ele>1215.8000488281</ele>
        <time>2021-01-16T11:02:12.000Z</time>
      </trkpt>
      <trkpt lat="45.59025" lon="6.12076">
        <ele>1216.4000244141</ele>
        <time>2021-01-16T11:02:14.000Z</time>
      </trkpt>
      <trkpt lat="45.59026" lon="6.12075">
        <ele>1217.5999755859</ele>
        <time>2021-01-16T11:02:19.000Z</time>
      </trkpt>
      <trkpt lat="45.59027" lon="6.12075">
        <ele>1217.8000488281</ele>
        <time>2021-01-16T11:02:23.000Z</time>
      </trkpt>
      <trkpt lat="45.59032" lon="6.12071">
        <ele>1218.8000488281</ele>
        <time>2021-01-16T11:02:29.000Z</time>
      </trkpt>
      <trkpt lat="45.59034" lon="6.1207">
        <ele>1219.8000488281</ele>
        <time>2021-01-16T11:02:31.000Z</time>
      </trkpt>
      <trkpt lat="45.59034" lon="6.12069">
        <ele>1219.8000488281</ele>
        <time>2021-01-16T11:02:32.000Z</time>
      </trkpt>
      <trkpt lat="45.59037" lon="6.12065">
        <ele>1220.8000488281</ele>
        <time>2021-01-16T11:02:38.000Z</time>
      </trkpt>
      <trkpt lat="45.59038" lon="6.12065">
        <ele>1221.1999511719</ele>
        <time>2021-01-16T11:02:39.000Z</time>
      </trkpt>
      <trkpt lat="45.59041" lon="6.12062">
        <ele>1222.1999511719</ele>
        <time>2021-01-16T11:02:44.000Z</time>
      </trkpt>
      <trkpt lat="45.59042" lon="6.12062">
        <ele>1222.5999755859</ele>
        <time>2021-01-16T11:02:46.000Z</time>
      </trkpt>
      <trkpt lat="45.59045" lon="6.12059">
        <ele>1223.4000244141</ele>
        <time>2021-01-16T11:02:50.000Z</time>
      </trkpt>
      <trkpt lat="45.59048" lon="6.12057">
        <ele>1224</ele>
        <time>2021-01-16T11:02:53.000Z</time>
      </trkpt>
      <trkpt lat="45.59049" lon="6.12056">
        <ele>1224.5999755859</ele>
        <time>2021-01-16T11:02:55.000Z</time>
      </trkpt>
      <trkpt lat="45.5905" lon="6.12056">
        <ele>1225.5999755859</ele>
        <time>2021-01-16T11:02:58.000Z</time>
      </trkpt>
      <trkpt lat="45.59052" lon="6.12054">
        <ele>1226.4000244141</ele>
        <time>2021-01-16T11:03:01.000Z</time>
      </trkpt>
      <trkpt lat="45.59054" lon="6.12053">
        <ele>1226.8000488281</ele>
        <time>2021-01-16T11:03:03.000Z</time>
      </trkpt>
      <trkpt lat="45.59057" lon="6.12051">
        <ele>1228</ele>
        <time>2021-01-16T11:03:09.000Z</time>
      </trkpt>
      <trkpt lat="45.59059" lon="6.1205">
        <ele>1229</ele>
        <time>2021-01-16T11:03:15.000Z</time>
      </trkpt>
      <trkpt lat="45.5906" lon="6.1205">
        <ele>1229.5999755859</ele>
        <time>2021-01-16T11:03:18.000Z</time>
      </trkpt>
      <trkpt lat="45.5906" lon="6.1205">
        <ele>1230.1999511719</ele>
        <time>2021-01-16T11:03:19.000Z</time>
      </trkpt>
      <trkpt lat="45.59064" lon="6.1205">
        <ele>1231.1999511719</ele>
        <time>2021-01-16T11:03:26.000Z</time>
      </trkpt>
      <trkpt lat="45.59066" lon="6.1205">
        <ele>1231.4000244141</ele>
        <time>2021-01-16T11:03:27.000Z</time>
      </trkpt>
      <trkpt lat="45.59077" lon="6.12048">
        <ele>1232</ele>
        <time>2021-01-16T11:03:35.000Z</time>
      </trkpt>
      <trkpt lat="45.59081" lon="6.12047">
        <ele>1232.4000244141</ele>
        <time>2021-01-16T11:03:38.000Z</time>
      </trkpt>
      <trkpt lat="45.59086" lon="6.12048">
        <ele>1233.5999755859</ele>
        <time>2021-01-16T11:03:43.000Z</time>
      </trkpt>
      <trkpt lat="45.59094" lon="6.12047">
        <ele>1234.5999755859</ele>
        <time>2021-01-16T11:03:50.000Z</time>
      </trkpt>
      <trkpt lat="45.591" lon="6.12047">
        <ele>1235.5999755859</ele>
        <time>2021-01-16T11:03:56.000Z</time>
      </trkpt>
      <trkpt lat="45.59101" lon="6.12047">
        <ele>1235.8000488281</ele>
        <time>2021-01-16T11:03:57.000Z</time>
      </trkpt>
      <trkpt lat="45.59108" lon="6.12048">
        <ele>1236.5999755859</ele>
        <time>2021-01-16T11:04:04.000Z</time>
      </trkpt>
      <trkpt lat="45.5911" lon="6.12049">
        <ele>1236.8000488281</ele>
        <time>2021-01-16T11:04:06.000Z</time>
      </trkpt>
      <trkpt lat="45.59119" lon="6.12046">
        <ele>1237.8000488281</ele>
        <time>2021-01-16T11:04:15.000Z</time>
      </trkpt>
      <trkpt lat="45.59126" lon="6.12046">
        <ele>1238.8000488281</ele>
        <time>2021-01-16T11:04:21.000Z</time>
      </trkpt>
      <trkpt lat="45.59129" lon="6.12045">
        <ele>1239.4000244141</ele>
        <time>2021-01-16T11:04:24.000Z</time>
      </trkpt>
      <trkpt lat="45.59132" lon="6.12044">
        <ele>1239.8000488281</ele>
        <time>2021-01-16T11:04:27.000Z</time>
      </trkpt>
      <trkpt lat="45.59137" lon="6.12043">
        <ele>1240</ele>
        <time>2021-01-16T11:04:31.000Z</time>
      </trkpt>
      <trkpt lat="45.59141" lon="6.12042">
        <ele>1240.8000488281</ele>
        <time>2021-01-16T11:04:35.000Z</time>
      </trkpt>
      <trkpt lat="45.59148" lon="6.12039">
        <ele>1241.4000244141</ele>
        <time>2021-01-16T11:04:41.000Z</time>
      </trkpt>
      <trkpt lat="45.59153" lon="6.12037">
        <ele>1242</ele>
        <time>2021-01-16T11:04:45.000Z</time>
      </trkpt>
      <trkpt lat="45.59156" lon="6.12036">
        <ele>1242.8000488281</ele>
        <time>2021-01-16T11:04:49.000Z</time>
      </trkpt>
      <trkpt lat="45.59159" lon="6.12036">
        <ele>1242.8000488281</ele>
        <time>2021-01-16T11:04:52.000Z</time>
      </trkpt>
      <trkpt lat="45.59162" lon="6.12035">
        <ele>1243</ele>
        <time>2021-01-16T11:04:54.000Z</time>
      </trkpt>
      <trkpt lat="45.59165" lon="6.12034">
        <ele>1244</ele>
        <time>2021-01-16T11:04:57.000Z</time>
      </trkpt>
      <trkpt lat="45.59167" lon="6.12033">
        <ele>1244.1999511719</ele>
        <time>2021-01-16T11:04:59.000Z</time>
      </trkpt>
      <trkpt lat="45.59171" lon="6.12033">
        <ele>1245</ele>
        <time>2021-01-16T11:05:04.000Z</time>
      </trkpt>
      <trkpt lat="45.59173" lon="6.12033">
        <ele>1246</ele>
        <time>2021-01-16T11:05:07.000Z</time>
      </trkpt>
      <trkpt lat="45.59174" lon="6.12032">
        <ele>1246.1999511719</ele>
        <time>2021-01-16T11:05:08.000Z</time>
      </trkpt>
      <trkpt lat="45.59186" lon="6.12032">
        <ele>1247.1999511719</ele>
        <time>2021-01-16T11:05:17.000Z</time>
      </trkpt>
      <trkpt lat="45.59189" lon="6.12031">
        <ele>1247.1999511719</ele>
        <time>2021-01-16T11:05:19.000Z</time>
      </trkpt>
      <trkpt lat="45.59196" lon="6.12033">
        <ele>1248.4000244141</ele>
        <time>2021-01-16T11:05:26.000Z</time>
      </trkpt>
      <trkpt lat="45.59203" lon="6.12033">
        <ele>1248.5999755859</ele>
        <time>2021-01-16T11:05:30.000Z</time>
      </trkpt>
      <trkpt lat="45.59212" lon="6.12033">
        <ele>1249.4000244141</ele>
        <time>2021-01-16T11:05:37.000Z</time>
      </trkpt>
      <trkpt lat="45.59216" lon="6.12034">
        <ele>1249.8000488281</ele>
        <time>2021-01-16T11:05:40.000Z</time>
      </trkpt>
      <trkpt lat="45.59226" lon="6.12036">
        <ele>1250.1999511719</ele>
        <time>2021-01-16T11:05:50.000Z</time>
      </trkpt>
      <trkpt lat="45.59233" lon="6.12037">
        <ele>1250.4000244141</ele>
        <time>2021-01-16T11:05:55.000Z</time>
      </trkpt>
      <trkpt lat="45.59238" lon="6.12037">
        <ele>1250.5999755859</ele>
        <time>2021-01-16T11:05:59.000Z</time>
      </trkpt>
      <trkpt lat="45.59256" lon="6.12044">
        <ele>1250.8000488281</ele>
        <time>2021-01-16T11:06:08.000Z</time>
      </trkpt>
      <trkpt lat="45.59271" lon="6.12049">
        <ele>1251</ele>
        <time>2021-01-16T11:06:18.000Z</time>
      </trkpt>
      <trkpt lat="45.5928" lon="6.12054">
        <ele>1251.5999755859</ele>
        <time>2021-01-16T11:06:25.000Z</time>
      </trkpt>
      <trkpt lat="45.59283" lon="6.12055">
        <ele>1251.5999755859</ele>
        <time>2021-01-16T11:06:27.000Z</time>
      </trkpt>
      <trkpt lat="45.59294" lon="6.12058">
        <ele>1252</ele>
        <time>2021-01-16T11:06:36.000Z</time>
      </trkpt>
      <trkpt lat="45.59297" lon="6.12059">
        <ele>1252.4000244141</ele>
        <time>2021-01-16T11:06:45.000Z</time>
      </trkpt>
      <trkpt lat="45.59299" lon="6.12059">
        <ele>1252.5999755859</ele>
        <time>2021-01-16T11:06:46.000Z</time>
      </trkpt>
      <trkpt lat="45.59309" lon="6.12059">
        <ele>1253.5999755859</ele>
        <time>2021-01-16T11:06:53.000Z</time>
      </trkpt>
      <trkpt lat="45.59309" lon="6.12059">
        <ele>1253.8000488281</ele>
        <time>2021-01-16T11:06:54.000Z</time>
      </trkpt>
      <trkpt lat="45.59314" lon="6.1206">
        <ele>1254.5999755859</ele>
        <time>2021-01-16T11:07:05.000Z</time>
      </trkpt>
      <trkpt lat="45.59323" lon="6.12061">
        <ele>1254.8000488281</ele>
        <time>2021-01-16T11:07:10.000Z</time>
      </trkpt>
      <trkpt lat="45.59329" lon="6.12063">
        <ele>1255.1999511719</ele>
        <time>2021-01-16T11:07:14.000Z</time>
      </trkpt>
      <trkpt lat="45.59336" lon="6.12067">
        <ele>1255.8000488281</ele>
        <time>2021-01-16T11:07:19.000Z</time>
      </trkpt>
      <trkpt lat="45.59343" lon="6.12068">
        <ele>1256.4000244141</ele>
        <time>2021-01-16T11:07:24.000Z</time>
      </trkpt>
      <trkpt lat="45.59347" lon="6.12069">
        <ele>1257</ele>
        <time>2021-01-16T11:07:27.000Z</time>
      </trkpt>
      <trkpt lat="45.59357" lon="6.12072">
        <ele>1257.8000488281</ele>
        <time>2021-01-16T11:07:34.000Z</time>
      </trkpt>
      <trkpt lat="45.59363" lon="6.12075">
        <ele>1258</ele>
        <time>2021-01-16T11:07:39.000Z</time>
      </trkpt>
      <trkpt lat="45.59366" lon="6.12075">
        <ele>1258.4000244141</ele>
        <time>2021-01-16T11:07:41.000Z</time>
      </trkpt>
      <trkpt lat="45.59377" lon="6.12077">
        <ele>1259</ele>
        <time>2021-01-16T11:07:48.000Z</time>
      </trkpt>
      <trkpt lat="45.59378" lon="6.12077">
        <ele>1259.1999511719</ele>
        <time>2021-01-16T11:07:49.000Z</time>
      </trkpt>
      <trkpt lat="45.59385" lon="6.12076">
        <ele>1259.8000488281</ele>
        <time>2021-01-16T11:07:56.000Z</time>
      </trkpt>
      <trkpt lat="45.59382" lon="6.12074">
        <ele>1259.8000488281</ele>
        <time>2021-01-16T11:08:03.000Z</time>
      </trkpt>
      <trkpt lat="45.59381" lon="6.12073">
        <ele>1260.1999511719</ele>
        <time>2021-01-16T11:08:06.000Z</time>
      </trkpt>
      <trkpt lat="45.59379" lon="6.12071">
        <ele>1261.5999755859</ele>
        <time>2021-01-16T11:08:08.000Z</time>
      </trkpt>
      <trkpt lat="45.59375" lon="6.12072">
        <ele>1262.4000244141</ele>
        <time>2021-01-16T11:08:10.000Z</time>
      </trkpt>
      <trkpt lat="45.59374" lon="6.12072">
        <ele>1262.5999755859</ele>
        <time>2021-01-16T11:08:11.000Z</time>
      </trkpt>
      <trkpt lat="45.59373" lon="6.12073">
        <ele>1262.8000488281</ele>
        <time>2021-01-16T11:08:17.000Z</time>
      </trkpt>
      <trkpt lat="45.59372" lon="6.12071">
        <ele>1262.8000488281</ele>
        <time>2021-01-16T11:08:28.000Z</time>
      </trkpt>
      <trkpt lat="45.59371" lon="6.1207">
        <ele>1263.8000488281</ele>
        <time>2021-01-16T11:08:34.000Z</time>
      </trkpt>
      <trkpt lat="45.59369" lon="6.12069">
        <ele>1264.4000244141</ele>
        <time>2021-01-16T11:08:38.000Z</time>
      </trkpt>
      <trkpt lat="45.59369" lon="6.12069">
        <ele>1264.8000488281</ele>
        <time>2021-01-16T11:08:39.000Z</time>
      </trkpt>
      <trkpt lat="45.59369" lon="6.12069">
        <ele>1265.8000488281</ele>
        <time>2021-01-16T11:08:41.000Z</time>
      </trkpt>
      <trkpt lat="45.59366" lon="6.12069">
        <ele>1267</ele>
        <time>2021-01-16T11:08:44.000Z</time>
      </trkpt>
      <trkpt lat="45.59366" lon="6.12068">
        <ele>1267</ele>
        <time>2021-01-16T11:08:47.000Z</time>
      </trkpt>
      <trkpt lat="45.59367" lon="6.12063">
        <ele>1266.8000488281</ele>
        <time>2021-01-16T11:08:56.000Z</time>
      </trkpt>
      <trkpt lat="45.59369" lon="6.12062">
        <ele>1266.5999755859</ele>
        <time>2021-01-16T11:09:02.000Z</time>
      </trkpt>
      <trkpt lat="45.59369" lon="6.12063">
        <ele>1266.5999755859</ele>
        <time>2021-01-16T11:09:09.000Z</time>
      </trkpt>
      <trkpt lat="45.59372" lon="6.12063">
        <ele>1266.8000488281</ele>
        <time>2021-01-16T11:09:17.000Z</time>
      </trkpt>
      <trkpt lat="45.59381" lon="6.12065">
        <ele>1266.4000244141</ele>
        <time>2021-01-16T11:09:24.000Z</time>
      </trkpt>
      <trkpt lat="45.59385" lon="6.12067">
        <ele>1266</ele>
        <time>2021-01-16T11:09:31.000Z</time>
      </trkpt>
      <trkpt lat="45.59386" lon="6.12068">
        <ele>1265.8000488281</ele>
        <time>2021-01-16T11:09:34.000Z</time>
      </trkpt>
      <trkpt lat="45.59391" lon="6.1207">
        <ele>1265.8000488281</ele>
        <time>2021-01-16T11:09:39.000Z</time>
      </trkpt>
      <trkpt lat="45.59399" lon="6.12074">
        <ele>1265.4000244141</ele>
        <time>2021-01-16T11:09:47.000Z</time>
      </trkpt>
      <trkpt lat="45.59408" lon="6.12079">
        <ele>1264.8000488281</ele>
        <time>2021-01-16T11:09:54.000Z</time>
      </trkpt>
      <trkpt lat="45.59412" lon="6.12085">
        <ele>1263.8000488281</ele>
        <time>2021-01-16T11:10:00.000Z</time>
      </trkpt>
      <trkpt lat="45.59414" lon="6.12086">
        <ele>1263.4000244141</ele>
        <time>2021-01-16T11:10:02.000Z</time>
      </trkpt>
      <trkpt lat="45.59424" lon="6.12083">
        <ele>1264.8000488281</ele>
        <time>2021-01-16T11:10:11.000Z</time>
      </trkpt>
      <trkpt lat="45.59425" lon="6.12083">
        <ele>1264.8000488281</ele>
        <time>2021-01-16T11:10:12.000Z</time>
      </trkpt>
      <trkpt lat="45.59432" lon="6.12081">
        <ele>1266.4000244141</ele>
        <time>2021-01-16T11:10:19.000Z</time>
      </trkpt>
      <trkpt lat="45.59433" lon="6.12079">
        <ele>1266.8000488281</ele>
        <time>2021-01-16T11:10:20.000Z</time>
      </trkpt>
      <trkpt lat="45.59436" lon="6.12075">
        <ele>1267.5999755859</ele>
        <time>2021-01-16T11:10:24.000Z</time>
      </trkpt>
      <trkpt lat="45.59441" lon="6.12069">
        <ele>1269</ele>
        <time>2021-01-16T11:10:29.000Z</time>
      </trkpt>
      <trkpt lat="45.59441" lon="6.12069">
        <ele>1269.5999755859</ele>
        <time>2021-01-16T11:10:30.000Z</time>
      </trkpt>
      <trkpt lat="45.59442" lon="6.12067">
        <ele>1270.5999755859</ele>
        <time>2021-01-16T11:10:32.000Z</time>
      </trkpt>
      <trkpt lat="45.59444" lon="6.12066">
        <ele>1271.5999755859</ele>
        <time>2021-01-16T11:10:36.000Z</time>
      </trkpt>
      <trkpt lat="45.59449" lon="6.12063">
        <ele>1272.4000244141</ele>
        <time>2021-01-16T11:10:40.000Z</time>
      </trkpt>
      <trkpt lat="45.59449" lon="6.12063">
        <ele>1272.8000488281</ele>
        <time>2021-01-16T11:10:41.000Z</time>
      </trkpt>
      <trkpt lat="45.59449" lon="6.12063">
        <ele>1274</ele>
        <time>2021-01-16T11:10:48.000Z</time>
      </trkpt>
      <trkpt lat="45.59449" lon="6.12063">
        <ele>1275</ele>
        <time>2021-01-16T11:10:53.000Z</time>
      </trkpt>
      <trkpt lat="45.59449" lon="6.12063">
        <ele>1275.1999511719</ele>
        <time>2021-01-16T11:10:54.000Z</time>
      </trkpt>
      <trkpt lat="45.59449" lon="6.12063">
        <ele>1276.4000244141</ele>
        <time>2021-01-16T11:10:57.000Z</time>
      </trkpt>
      <trkpt lat="45.59449" lon="6.12063">
        <ele>1277.5999755859</ele>
        <time>2021-01-16T11:11:03.000Z</time>
      </trkpt>
      <trkpt lat="45.59451" lon="6.12062">
        <ele>1278.8000488281</ele>
        <time>2021-01-16T11:11:09.000Z</time>
      </trkpt>
      <trkpt lat="45.59461" lon="6.12063">
        <ele>1280</ele>
        <time>2021-01-16T11:11:14.000Z</time>
      </trkpt>
      <trkpt lat="45.59466" lon="6.12063">
        <ele>1281</ele>
        <time>2021-01-16T11:11:20.000Z</time>
      </trkpt>
      <trkpt lat="45.59473" lon="6.12064">
        <ele>1281.4000244141</ele>
        <time>2021-01-16T11:11:23.000Z</time>
      </trkpt>
      <trkpt lat="45.59473" lon="6.12064">
        <ele>1282</ele>
        <time>2021-01-16T11:11:26.000Z</time>
      </trkpt>
      <trkpt lat="45.59481" lon="6.12066">
        <ele>1283</ele>
        <time>2021-01-16T11:11:32.000Z</time>
      </trkpt>
      <trkpt lat="45.59485" lon="6.12066">
        <ele>1283.4000244141</ele>
        <time>2021-01-16T11:11:35.000Z</time>
      </trkpt>
      <trkpt lat="45.59489" lon="6.12066">
        <ele>1284.1999511719</ele>
        <time>2021-01-16T11:11:38.000Z</time>
      </trkpt>
      <trkpt lat="45.59493" lon="6.12066">
        <ele>1285.1999511719</ele>
        <time>2021-01-16T11:11:43.000Z</time>
      </trkpt>
      <trkpt lat="45.59493" lon="6.12066">
        <ele>1285.8000488281</ele>
        <time>2021-01-16T11:11:45.000Z</time>
      </trkpt>
      <trkpt lat="45.59494" lon="6.12066">
        <ele>1286.1999511719</ele>
        <time>2021-01-16T11:11:47.000Z</time>
      </trkpt>
      <trkpt lat="45.59496" lon="6.12066">
        <ele>1287.4000244141</ele>
        <time>2021-01-16T11:11:53.000Z</time>
      </trkpt>
      <trkpt lat="45.59496" lon="6.12066">
        <ele>1287.8000488281</ele>
        <time>2021-01-16T11:11:54.000Z</time>
      </trkpt>
      <trkpt lat="45.59496" lon="6.12066">
        <ele>1288.4000244141</ele>
        <time>2021-01-16T11:11:57.000Z</time>
      </trkpt>
      <trkpt lat="45.59496" lon="6.12066">
        <ele>1289.5999755859</ele>
        <time>2021-01-16T11:12:03.000Z</time>
      </trkpt>
      <trkpt lat="45.59497" lon="6.12066">
        <ele>1290</ele>
        <time>2021-01-16T11:12:07.000Z</time>
      </trkpt>
      <trkpt lat="45.59497" lon="6.12066">
        <ele>1290.5999755859</ele>
        <time>2021-01-16T11:12:09.000Z</time>
      </trkpt>
      <trkpt lat="45.59497" lon="6.12066">
        <ele>1291.8000488281</ele>
        <time>2021-01-16T11:12:14.000Z</time>
      </trkpt>
      <trkpt lat="45.59497" lon="6.12066">
        <ele>1292.4000244141</ele>
        <time>2021-01-16T11:12:18.000Z</time>
      </trkpt>
      <trkpt lat="45.59499" lon="6.12066">
        <ele>1293.1999511719</ele>
        <time>2021-01-16T11:12:26.000Z</time>
      </trkpt>
      <trkpt lat="45.59501" lon="6.12067">
        <ele>1294.1999511719</ele>
        <time>2021-01-16T11:12:31.000Z</time>
      </trkpt>
      <trkpt lat="45.59511" lon="6.12066">
        <ele>1295.4000244141</ele>
        <time>2021-01-16T11:12:36.000Z</time>
      </trkpt>
      <trkpt lat="45.59513" lon="6.12066">
        <ele>1296.5999755859</ele>
        <time>2021-01-16T11:12:41.000Z</time>
      </trkpt>
      <trkpt lat="45.59513" lon="6.12066">
        <ele>1297.5999755859</ele>
        <time>2021-01-16T11:12:44.000Z</time>
      </trkpt>
      <trkpt lat="45.59513" lon="6.12066">
        <ele>1298</ele>
        <time>2021-01-16T11:12:46.000Z</time>
      </trkpt>
      <trkpt lat="45.59521" lon="6.12067">
        <ele>1298.8000488281</ele>
        <time>2021-01-16T11:12:51.000Z</time>
      </trkpt>
      <trkpt lat="45.5953" lon="6.12064">
        <ele>1299.4000244141</ele>
        <time>2021-01-16T11:12:55.000Z</time>
      </trkpt>
      <trkpt lat="45.59531" lon="6.12065">
        <ele>1300</ele>
        <time>2021-01-16T11:12:56.000Z</time>
      </trkpt>
      <trkpt lat="45.59542" lon="6.12065">
        <ele>1301</ele>
        <time>2021-01-16T11:13:04.000Z</time>
      </trkpt>
      <trkpt lat="45.59543" lon="6.12065">
        <ele>1301.4000244141</ele>
        <time>2021-01-16T11:13:05.000Z</time>
      </trkpt>
      <trkpt lat="45.59545" lon="6.12065">
        <ele>1302.1999511719</ele>
        <time>2021-01-16T11:13:07.000Z</time>
      </trkpt>
      <trkpt lat="45.59552" lon="6.12066">
        <ele>1303.1999511719</ele>
        <time>2021-01-16T11:13:13.000Z</time>
      </trkpt>
      <trkpt lat="45.59556" lon="6.12066">
        <ele>1303.8000488281</ele>
        <time>2021-01-16T11:13:16.000Z</time>
      </trkpt>
      <trkpt lat="45.59559" lon="6.12066">
        <ele>1304.4000244141</ele>
        <time>2021-01-16T11:13:19.000Z</time>
      </trkpt>
      <trkpt lat="45.59564" lon="6.12066">
        <ele>1305.4000244141</ele>
        <time>2021-01-16T11:13:23.000Z</time>
      </trkpt>
      <trkpt lat="45.59567" lon="6.12065">
        <ele>1306.1999511719</ele>
        <time>2021-01-16T11:13:27.000Z</time>
      </trkpt>
      <trkpt lat="45.59569" lon="6.12065">
        <ele>1306.8000488281</ele>
        <time>2021-01-16T11:13:29.000Z</time>
      </trkpt>
      <trkpt lat="45.59575" lon="6.12065">
        <ele>1308</ele>
        <time>2021-01-16T11:13:36.000Z</time>
      </trkpt>
      <trkpt lat="45.59576" lon="6.12065">
        <ele>1308.4000244141</ele>
        <time>2021-01-16T11:13:38.000Z</time>
      </trkpt>
      <trkpt lat="45.59581" lon="6.12065">
        <ele>1309.1999511719</ele>
        <time>2021-01-16T11:13:43.000Z</time>
      </trkpt>
      <trkpt lat="45.59585" lon="6.12065">
        <ele>1310</ele>
        <time>2021-01-16T11:13:47.000Z</time>
      </trkpt>
      <trkpt lat="45.59586" lon="6.12065">
        <ele>1310.1999511719</ele>
        <time>2021-01-16T11:13:48.000Z</time>
      </trkpt>
      <trkpt lat="45.59593" lon="6.12064">
        <ele>1311.1999511719</ele>
        <time>2021-01-16T11:13:54.000Z</time>
      </trkpt>
      <trkpt lat="45.59597" lon="6.12065">
        <ele>1311.5999755859</ele>
        <time>2021-01-16T11:13:58.000Z</time>
      </trkpt>
      <trkpt lat="45.596" lon="6.12066">
        <ele>1312.5999755859</ele>
        <time>2021-01-16T11:14:02.000Z</time>
      </trkpt>
      <trkpt lat="45.59603" lon="6.12067">
        <ele>1313.5999755859</ele>
        <time>2021-01-16T11:14:06.000Z</time>
      </trkpt>
      <trkpt lat="45.5961" lon="6.12069">
        <ele>1314.8000488281</ele>
        <time>2021-01-16T11:14:13.000Z</time>
      </trkpt>
      <trkpt lat="45.59611" lon="6.12069">
        <ele>1315.1999511719</ele>
        <time>2021-01-16T11:14:14.000Z</time>
      </trkpt>
      <trkpt lat="45.5961" lon="6.12068">
        <ele>1315.8000488281</ele>
        <time>2021-01-16T11:14:26.000Z</time>
      </trkpt>
      <trkpt lat="45.59606" lon="6.12062">
        <ele>1316.4000244141</ele>
        <time>2021-01-16T11:14:33.000Z</time>
      </trkpt>
      <trkpt lat="45.59606" lon="6.12061">
        <ele>1316.8000488281</ele>
        <time>2021-01-16T11:14:34.000Z</time>
      </trkpt>
      <trkpt lat="45.59602" lon="6.12056">
        <ele>1317.5999755859</ele>
        <time>2021-01-16T11:14:40.000Z</time>
      </trkpt>
      <trkpt lat="45.596" lon="6.12054">
        <ele>1318.1999511719</ele>
        <time>2021-01-16T11:14:42.000Z</time>
      </trkpt>
      <trkpt lat="45.59599" lon="6.12051">
        <ele>1318.5999755859</ele>
        <time>2021-01-16T11:14:45.000Z</time>
      </trkpt>
      <trkpt lat="45.59597" lon="6.12047">
        <ele>1319.8000488281</ele>
        <time>2021-01-16T11:14:49.000Z</time>
      </trkpt>
      <trkpt lat="45.59596" lon="6.12046">
        <ele>1320</ele>
        <time>2021-01-16T11:14:51.000Z</time>
      </trkpt>
      <trkpt lat="45.59594" lon="6.12042">
        <ele>1320.8000488281</ele>
        <time>2021-01-16T11:14:54.000Z</time>
      </trkpt>
      <trkpt lat="45.59593" lon="6.12038">
        <ele>1321.8000488281</ele>
        <time>2021-01-16T11:14:58.000Z</time>
      </trkpt>
      <trkpt lat="45.59592" lon="6.12035">
        <ele>1323</ele>
        <time>2021-01-16T11:15:02.000Z</time>
      </trkpt>
      <trkpt lat="45.5959" lon="6.12031">
        <ele>1324</ele>
        <time>2021-01-16T11:15:07.000Z</time>
      </trkpt>
      <trkpt lat="45.59586" lon="6.12027">
        <ele>1325.1999511719</ele>
        <time>2021-01-16T11:15:12.000Z</time>
      </trkpt>
      <trkpt lat="45.59584" lon="6.12025">
        <ele>1325.5999755859</ele>
        <time>2021-01-16T11:15:15.000Z</time>
      </trkpt>
      <trkpt lat="45.59582" lon="6.12023">
        <ele>1326.1999511719</ele>
        <time>2021-01-16T11:15:18.000Z</time>
      </trkpt>
      <trkpt lat="45.59578" lon="6.1202">
        <ele>1327.4000244141</ele>
        <time>2021-01-16T11:15:22.000Z</time>
      </trkpt>
      <trkpt lat="45.59578" lon="6.12019">
        <ele>1327.4000244141</ele>
        <time>2021-01-16T11:15:23.000Z</time>
      </trkpt>
      <trkpt lat="45.59574" lon="6.12015">
        <ele>1328.4000244141</ele>
        <time>2021-01-16T11:15:30.000Z</time>
      </trkpt>
      <trkpt lat="45.59573" lon="6.12014">
        <ele>1328.5999755859</ele>
        <time>2021-01-16T11:15:31.000Z</time>
      </trkpt>
      <trkpt lat="45.59571" lon="6.12012">
        <ele>1329.5999755859</ele>
        <time>2021-01-16T11:15:35.000Z</time>
      </trkpt>
      <trkpt lat="45.5957" lon="6.1201">
        <ele>1330.4000244141</ele>
        <time>2021-01-16T11:15:38.000Z</time>
      </trkpt>
      <trkpt lat="45.59568" lon="6.12009">
        <ele>1330.5999755859</ele>
        <time>2021-01-16T11:15:39.000Z</time>
      </trkpt>
      <trkpt lat="45.59565" lon="6.12006">
        <ele>1331.5999755859</ele>
        <time>2021-01-16T11:15:45.000Z</time>
      </trkpt>
      <trkpt lat="45.59561" lon="6.12001">
        <ele>1333</ele>
        <time>2021-01-16T11:15:52.000Z</time>
      </trkpt>
      <trkpt lat="45.59561" lon="6.12">
        <ele>1333.4000244141</ele>
        <time>2021-01-16T11:15:53.000Z</time>
      </trkpt>
      <trkpt lat="45.5956" lon="6.11998">
        <ele>1334.1999511719</ele>
        <time>2021-01-16T11:15:57.000Z</time>
      </trkpt>
      <trkpt lat="45.59558" lon="6.11997">
        <ele>1334.5999755859</ele>
        <time>2021-01-16T11:16:01.000Z</time>
      </trkpt>
      <trkpt lat="45.59557" lon="6.11996">
        <ele>1335.1999511719</ele>
        <time>2021-01-16T11:16:03.000Z</time>
      </trkpt>
      <trkpt lat="45.59555" lon="6.11994">
        <ele>1336.4000244141</ele>
        <time>2021-01-16T11:16:05.000Z</time>
      </trkpt>
      <trkpt lat="45.59553" lon="6.1199">
        <ele>1337.4000244141</ele>
        <time>2021-01-16T11:16:09.000Z</time>
      </trkpt>
      <trkpt lat="45.59552" lon="6.11989">
        <ele>1337.8000488281</ele>
        <time>2021-01-16T11:16:10.000Z</time>
      </trkpt>
      <trkpt lat="45.59549" lon="6.11986">
        <ele>1338.5999755859</ele>
        <time>2021-01-16T11:16:15.000Z</time>
      </trkpt>
      <trkpt lat="45.59546" lon="6.11983">
        <ele>1339.4000244141</ele>
        <time>2021-01-16T11:16:20.000Z</time>
      </trkpt>
      <trkpt lat="45.59545" lon="6.11982">
        <ele>1339.8000488281</ele>
        <time>2021-01-16T11:16:22.000Z</time>
      </trkpt>
      <trkpt lat="45.59545" lon="6.11982">
        <ele>1340.8000488281</ele>
        <time>2021-01-16T11:16:27.000Z</time>
      </trkpt>
      <trkpt lat="45.59545" lon="6.11982">
        <ele>1340.8000488281</ele>
        <time>2021-01-16T11:16:29.000Z</time>
      </trkpt>
      <trkpt lat="45.59547" lon="6.1198">
        <ele>1341.4000244141</ele>
        <time>2021-01-16T11:16:37.000Z</time>
      </trkpt>
      <trkpt lat="45.59547" lon="6.1198">
        <ele>1341.4000244141</ele>
        <time>2021-01-16T11:16:48.000Z</time>
      </trkpt>
      <trkpt lat="45.59552" lon="6.11978">
        <ele>1341.5999755859</ele>
        <time>2021-01-16T11:16:55.000Z</time>
      </trkpt>
      <trkpt lat="45.59553" lon="6.11978">
        <ele>1342</ele>
        <time>2021-01-16T11:16:57.000Z</time>
      </trkpt>
      <trkpt lat="45.59556" lon="6.11977">
        <ele>1343.1999511719</ele>
        <time>2021-01-16T11:17:03.000Z</time>
      </trkpt>
      <trkpt lat="45.59557" lon="6.11977">
        <ele>1343.4000244141</ele>
        <time>2021-01-16T11:17:04.000Z</time>
      </trkpt>
      <trkpt lat="45.59559" lon="6.11976">
        <ele>1344.4000244141</ele>
        <time>2021-01-16T11:17:08.000Z</time>
      </trkpt>
      <trkpt lat="45.59562" lon="6.11975">
        <ele>1345</ele>
        <time>2021-01-16T11:17:11.000Z</time>
      </trkpt>
      <trkpt lat="45.59564" lon="6.11973">
        <ele>1345.5999755859</ele>
        <time>2021-01-16T11:17:17.000Z</time>
      </trkpt>
      <trkpt lat="45.59566" lon="6.11972">
        <ele>1346</ele>
        <time>2021-01-16T11:17:19.000Z</time>
      </trkpt>
      <trkpt lat="45.59568" lon="6.11972">
        <ele>1347</ele>
        <time>2021-01-16T11:17:21.000Z</time>
      </trkpt>
      <trkpt lat="45.59573" lon="6.11971">
        <ele>1348</ele>
        <time>2021-01-16T11:17:27.000Z</time>
      </trkpt>
      <trkpt lat="45.59573" lon="6.11971">
        <ele>1348.1999511719</ele>
        <time>2021-01-16T11:17:28.000Z</time>
      </trkpt>
      <trkpt lat="45.59574" lon="6.11969">
        <ele>1348.4000244141</ele>
        <time>2021-01-16T11:17:37.000Z</time>
      </trkpt>
      <trkpt lat="45.59578" lon="6.11966">
        <ele>1349.1999511719</ele>
        <time>2021-01-16T11:17:42.000Z</time>
      </trkpt>
      <trkpt lat="45.59581" lon="6.11964">
        <ele>1350.1999511719</ele>
        <time>2021-01-16T11:17:46.000Z</time>
      </trkpt>
      <trkpt lat="45.59584" lon="6.11963">
        <ele>1351.4000244141</ele>
        <time>2021-01-16T11:17:49.000Z</time>
      </trkpt>
      <trkpt lat="45.59589" lon="6.11959">
        <ele>1352.1999511719</ele>
        <time>2021-01-16T11:17:55.000Z</time>
      </trkpt>
      <trkpt lat="45.59591" lon="6.11959">
        <ele>1352.4000244141</ele>
        <time>2021-01-16T11:17:57.000Z</time>
      </trkpt>
      <trkpt lat="45.59595" lon="6.11956">
        <ele>1352.8000488281</ele>
        <time>2021-01-16T11:18:02.000Z</time>
      </trkpt>
      <trkpt lat="45.59597" lon="6.11954">
        <ele>1353.4000244141</ele>
        <time>2021-01-16T11:18:04.000Z</time>
      </trkpt>
      <trkpt lat="45.596" lon="6.1195">
        <ele>1354.5999755859</ele>
        <time>2021-01-16T11:18:10.000Z</time>
      </trkpt>
      <trkpt lat="45.59605" lon="6.11944">
        <ele>1355.5999755859</ele>
        <time>2021-01-16T11:18:17.000Z</time>
      </trkpt>
      <trkpt lat="45.59606" lon="6.11944">
        <ele>1355.8000488281</ele>
        <time>2021-01-16T11:18:18.000Z</time>
      </trkpt>
      <trkpt lat="45.59606" lon="6.11941">
        <ele>1356.5999755859</ele>
        <time>2021-01-16T11:18:21.000Z</time>
      </trkpt>
      <trkpt lat="45.59609" lon="6.11938">
        <ele>1357.5999755859</ele>
        <time>2021-01-16T11:18:26.000Z</time>
      </trkpt>
      <trkpt lat="45.5961" lon="6.11937">
        <ele>1357.8000488281</ele>
        <time>2021-01-16T11:18:27.000Z</time>
      </trkpt>
      <trkpt lat="45.59607" lon="6.11935">
        <ele>1358.5999755859</ele>
        <time>2021-01-16T11:18:32.000Z</time>
      </trkpt>
      <trkpt lat="45.59606" lon="6.11934">
        <ele>1359</ele>
        <time>2021-01-16T11:18:33.000Z</time>
      </trkpt>
      <trkpt lat="45.596" lon="6.11931">
        <ele>1360</ele>
        <time>2021-01-16T11:18:39.000Z</time>
      </trkpt>
      <trkpt lat="45.59599" lon="6.1193">
        <ele>1360.1999511719</ele>
        <time>2021-01-16T11:18:40.000Z</time>
      </trkpt>
      <trkpt lat="45.59596" lon="6.11928">
        <ele>1361.1999511719</ele>
        <time>2021-01-16T11:18:44.000Z</time>
      </trkpt>
      <trkpt lat="45.59594" lon="6.11928">
        <ele>1361.5999755859</ele>
        <time>2021-01-16T11:18:46.000Z</time>
      </trkpt>
      <trkpt lat="45.5959" lon="6.11927">
        <ele>1362.1999511719</ele>
        <time>2021-01-16T11:18:50.000Z</time>
      </trkpt>
      <trkpt lat="45.59587" lon="6.11927">
        <ele>1362.5999755859</ele>
        <time>2021-01-16T11:18:53.000Z</time>
      </trkpt>
      <trkpt lat="45.59583" lon="6.11927">
        <ele>1363.5999755859</ele>
        <time>2021-01-16T11:18:57.000Z</time>
      </trkpt>
      <trkpt lat="45.5958" lon="6.11926">
        <ele>1364.1999511719</ele>
        <time>2021-01-16T11:19:01.000Z</time>
      </trkpt>
      <trkpt lat="45.59577" lon="6.11924">
        <ele>1364.8000488281</ele>
        <time>2021-01-16T11:19:04.000Z</time>
      </trkpt>
      <trkpt lat="45.59575" lon="6.11922">
        <ele>1365.8000488281</ele>
        <time>2021-01-16T11:19:07.000Z</time>
      </trkpt>
      <trkpt lat="45.59575" lon="6.11922">
        <ele>1366</ele>
        <time>2021-01-16T11:19:08.000Z</time>
      </trkpt>
      <trkpt lat="45.59568" lon="6.11921">
        <ele>1367.1999511719</ele>
        <time>2021-01-16T11:19:15.000Z</time>
      </trkpt>
      <trkpt lat="45.59565" lon="6.11919">
        <ele>1368.4000244141</ele>
        <time>2021-01-16T11:19:20.000Z</time>
      </trkpt>
      <trkpt lat="45.59563" lon="6.11919">
        <ele>1368.8000488281</ele>
        <time>2021-01-16T11:19:21.000Z</time>
      </trkpt>
      <trkpt lat="45.59559" lon="6.11917">
        <ele>1369.4000244141</ele>
        <time>2021-01-16T11:19:26.000Z</time>
      </trkpt>
      <trkpt lat="45.59558" lon="6.11917">
        <ele>1369.5999755859</ele>
        <time>2021-01-16T11:19:28.000Z</time>
      </trkpt>
      <trkpt lat="45.5955" lon="6.11913">
        <ele>1370.4000244141</ele>
        <time>2021-01-16T11:19:35.000Z</time>
      </trkpt>
      <trkpt lat="45.59549" lon="6.11911">
        <ele>1370.4000244141</ele>
        <time>2021-01-16T11:19:36.000Z</time>
      </trkpt>
      <trkpt lat="45.59546" lon="6.11907">
        <ele>1370.8000488281</ele>
        <time>2021-01-16T11:19:41.000Z</time>
      </trkpt>
      <trkpt lat="45.59544" lon="6.11905">
        <ele>1371.8000488281</ele>
        <time>2021-01-16T11:19:44.000Z</time>
      </trkpt>
      <trkpt lat="45.59542" lon="6.11902">
        <ele>1372.5999755859</ele>
        <time>2021-01-16T11:19:48.000Z</time>
      </trkpt>
      <trkpt lat="45.59542" lon="6.11901">
        <ele>1372.8000488281</ele>
        <time>2021-01-16T11:19:49.000Z</time>
      </trkpt>
      <trkpt lat="45.5954" lon="6.11894">
        <ele>1374</ele>
        <time>2021-01-16T11:19:55.000Z</time>
      </trkpt>
      <trkpt lat="45.5954" lon="6.11893">
        <ele>1374</ele>
        <time>2021-01-16T11:19:56.000Z</time>
      </trkpt>
      <trkpt lat="45.59539" lon="6.1189">
        <ele>1375</ele>
        <time>2021-01-16T11:20:00.000Z</time>
      </trkpt>
      <trkpt lat="45.59538" lon="6.11886">
        <ele>1376</ele>
        <time>2021-01-16T11:20:04.000Z</time>
      </trkpt>
      <trkpt lat="45.59537" lon="6.11885">
        <ele>1376.1999511719</ele>
        <time>2021-01-16T11:20:05.000Z</time>
      </trkpt>
      <trkpt lat="45.59535" lon="6.11882">
        <ele>1377.1999511719</ele>
        <time>2021-01-16T11:20:09.000Z</time>
      </trkpt>
      <trkpt lat="45.59534" lon="6.1188">
        <ele>1378</ele>
        <time>2021-01-16T11:20:11.000Z</time>
      </trkpt>
      <trkpt lat="45.59533" lon="6.11877">
        <ele>1378.4000244141</ele>
        <time>2021-01-16T11:20:13.000Z</time>
      </trkpt>
      <trkpt lat="45.5953" lon="6.11872">
        <ele>1379.5999755859</ele>
        <time>2021-01-16T11:20:18.000Z</time>
      </trkpt>
      <trkpt lat="45.5953" lon="6.11871">
        <ele>1379.5999755859</ele>
        <time>2021-01-16T11:20:19.000Z</time>
      </trkpt>
      <trkpt lat="45.59528" lon="6.11865">
        <ele>1380.5999755859</ele>
        <time>2021-01-16T11:20:24.000Z</time>
      </trkpt>
      <trkpt lat="45.59527" lon="6.11864">
        <ele>1381.1999511719</ele>
        <time>2021-01-16T11:20:26.000Z</time>
      </trkpt>
      <trkpt lat="45.59525" lon="6.11861">
        <ele>1381.8000488281</ele>
        <time>2021-01-16T11:20:30.000Z</time>
      </trkpt>
      <trkpt lat="45.59522" lon="6.11856">
        <ele>1383</ele>
        <time>2021-01-16T11:20:35.000Z</time>
      </trkpt>
      <trkpt lat="45.59519" lon="6.11851">
        <ele>1384.1999511719</ele>
        <time>2021-01-16T11:20:40.000Z</time>
      </trkpt>
      <trkpt lat="45.59518" lon="6.1185">
        <ele>1384.4000244141</ele>
        <time>2021-01-16T11:20:42.000Z</time>
      </trkpt>
      <trkpt lat="45.59515" lon="6.11846">
        <ele>1385.4000244141</ele>
        <time>2021-01-16T11:20:46.000Z</time>
      </trkpt>
      <trkpt lat="45.59514" lon="6.11843">
        <ele>1386</ele>
        <time>2021-01-16T11:20:51.000Z</time>
      </trkpt>
      <trkpt lat="45.59515" lon="6.11841">
        <ele>1386.4000244141</ele>
        <time>2021-01-16T11:20:54.000Z</time>
      </trkpt>
      <trkpt lat="45.59517" lon="6.1184">
        <ele>1387.4000244141</ele>
        <time>2021-01-16T11:20:58.000Z</time>
      </trkpt>
      <trkpt lat="45.59518" lon="6.11839">
        <ele>1387.5999755859</ele>
        <time>2021-01-16T11:20:59.000Z</time>
      </trkpt>
      <trkpt lat="45.59522" lon="6.11836">
        <ele>1388.8000488281</ele>
        <time>2021-01-16T11:21:04.000Z</time>
      </trkpt>
      <trkpt lat="45.59524" lon="6.11835">
        <ele>1389.4000244141</ele>
        <time>2021-01-16T11:21:07.000Z</time>
      </trkpt>
      <trkpt lat="45.59525" lon="6.11835">
        <ele>1390</ele>
        <time>2021-01-16T11:21:09.000Z</time>
      </trkpt>
      <trkpt lat="45.59529" lon="6.11833">
        <ele>1391</ele>
        <time>2021-01-16T11:21:14.000Z</time>
      </trkpt>
      <trkpt lat="45.5953" lon="6.11832">
        <ele>1391.4000244141</ele>
        <time>2021-01-16T11:21:15.000Z</time>
      </trkpt>
      <trkpt lat="45.59531" lon="6.11829">
        <ele>1392</ele>
        <time>2021-01-16T11:21:19.000Z</time>
      </trkpt>
      <trkpt lat="45.59531" lon="6.11828">
        <ele>1392.8000488281</ele>
        <time>2021-01-16T11:21:23.000Z</time>
      </trkpt>
      <trkpt lat="45.5953" lon="6.11825">
        <ele>1393.1999511719</ele>
        <time>2021-01-16T11:21:25.000Z</time>
      </trkpt>
      <trkpt lat="45.5953" lon="6.11819">
        <ele>1394.4000244141</ele>
        <time>2021-01-16T11:21:30.000Z</time>
      </trkpt>
      <trkpt lat="45.5953" lon="6.11813">
        <ele>1395.5999755859</ele>
        <time>2021-01-16T11:21:34.000Z</time>
      </trkpt>
      <trkpt lat="45.59532" lon="6.11805">
        <ele>1396.8000488281</ele>
        <time>2021-01-16T11:21:41.000Z</time>
      </trkpt>
      <trkpt lat="45.59535" lon="6.11799">
        <ele>1398</ele>
        <time>2021-01-16T11:21:47.000Z</time>
      </trkpt>
      <trkpt lat="45.59537" lon="6.11796">
        <ele>1399</ele>
        <time>2021-01-16T11:21:50.000Z</time>
      </trkpt>
      <trkpt lat="45.59539" lon="6.11789">
        <ele>1400</ele>
        <time>2021-01-16T11:21:55.000Z</time>
      </trkpt>
      <trkpt lat="45.5954" lon="6.11784">
        <ele>1401</ele>
        <time>2021-01-16T11:22:00.000Z</time>
      </trkpt>
      <trkpt lat="45.5954" lon="6.11781">
        <ele>1401.5999755859</ele>
        <time>2021-01-16T11:22:02.000Z</time>
      </trkpt>
      <trkpt lat="45.59542" lon="6.11776">
        <ele>1402.1999511719</ele>
        <time>2021-01-16T11:22:07.000Z</time>
      </trkpt>
      <trkpt lat="45.59542" lon="6.11775">
        <ele>1403</ele>
        <time>2021-01-16T11:22:09.000Z</time>
      </trkpt>
      <trkpt lat="45.59542" lon="6.11774">
        <ele>1403.8000488281</ele>
        <time>2021-01-16T11:22:10.000Z</time>
      </trkpt>
      <trkpt lat="45.59544" lon="6.11769">
        <ele>1404.8000488281</ele>
        <time>2021-01-16T11:22:16.000Z</time>
      </trkpt>
      <trkpt lat="45.59544" lon="6.11768">
        <ele>1405.4000244141</ele>
        <time>2021-01-16T11:22:18.000Z</time>
      </trkpt>
      <trkpt lat="45.59544" lon="6.11764">
        <ele>1406</ele>
        <time>2021-01-16T11:22:22.000Z</time>
      </trkpt>
      <trkpt lat="45.59545" lon="6.11758">
        <ele>1406.8000488281</ele>
        <time>2021-01-16T11:22:28.000Z</time>
      </trkpt>
      <trkpt lat="45.59545" lon="6.11757">
        <ele>1407</ele>
        <time>2021-01-16T11:22:29.000Z</time>
      </trkpt>
      <trkpt lat="45.59546" lon="6.11752">
        <ele>1408.1999511719</ele>
        <time>2021-01-16T11:22:34.000Z</time>
      </trkpt>
      <trkpt lat="45.59547" lon="6.11751">
        <ele>1408.5999755859</ele>
        <time>2021-01-16T11:22:35.000Z</time>
      </trkpt>
      <trkpt lat="45.59546" lon="6.11749">
        <ele>1409.1999511719</ele>
        <time>2021-01-16T11:22:37.000Z</time>
      </trkpt>
      <trkpt lat="45.59546" lon="6.11744">
        <ele>1410.4000244141</ele>
        <time>2021-01-16T11:22:43.000Z</time>
      </trkpt>
      <trkpt lat="45.59546" lon="6.11743">
        <ele>1410.8000488281</ele>
        <time>2021-01-16T11:22:44.000Z</time>
      </trkpt>
      <trkpt lat="45.59546" lon="6.1174">
        <ele>1411.4000244141</ele>
        <time>2021-01-16T11:22:47.000Z</time>
      </trkpt>
      <trkpt lat="45.59545" lon="6.11736">
        <ele>1412.1999511719</ele>
        <time>2021-01-16T11:22:52.000Z</time>
      </trkpt>
      <trkpt lat="45.59544" lon="6.11733">
        <ele>1412.5999755859</ele>
        <time>2021-01-16T11:22:54.000Z</time>
      </trkpt>
      <trkpt lat="45.59543" lon="6.11729">
        <ele>1413.5999755859</ele>
        <time>2021-01-16T11:22:58.000Z</time>
      </trkpt>
      <trkpt lat="45.59542" lon="6.11727">
        <ele>1414</ele>
        <time>2021-01-16T11:23:00.000Z</time>
      </trkpt>
      <trkpt lat="45.59542" lon="6.11724">
        <ele>1414.5999755859</ele>
        <time>2021-01-16T11:23:03.000Z</time>
      </trkpt>
      <trkpt lat="45.59539" lon="6.11717">
        <ele>1415.8000488281</ele>
        <time>2021-01-16T11:23:09.000Z</time>
      </trkpt>
      <trkpt lat="45.59539" lon="6.11717">
        <ele>1416</ele>
        <time>2021-01-16T11:23:10.000Z</time>
      </trkpt>
      <trkpt lat="45.59534" lon="6.1171">
        <ele>1417</ele>
        <time>2021-01-16T11:23:17.000Z</time>
      </trkpt>
      <trkpt lat="45.59534" lon="6.11709">
        <ele>1417.4000244141</ele>
        <time>2021-01-16T11:23:19.000Z</time>
      </trkpt>
      <trkpt lat="45.59533" lon="6.11709">
        <ele>1418.1999511719</ele>
        <time>2021-01-16T11:23:22.000Z</time>
      </trkpt>
      <trkpt lat="45.59533" lon="6.11709">
        <ele>1419.1999511719</ele>
        <time>2021-01-16T11:23:26.000Z</time>
      </trkpt>
      <trkpt lat="45.59533" lon="6.11709">
        <ele>1419.4000244141</ele>
        <time>2021-01-16T11:23:27.000Z</time>
      </trkpt>
      <trkpt lat="45.59533" lon="6.11709">
        <ele>1420.5999755859</ele>
        <time>2021-01-16T11:23:30.000Z</time>
      </trkpt>
      <trkpt lat="45.5953" lon="6.11704">
        <ele>1421.5999755859</ele>
        <time>2021-01-16T11:23:35.000Z</time>
      </trkpt>
      <trkpt lat="45.59529" lon="6.11703">
        <ele>1421.5999755859</ele>
        <time>2021-01-16T11:23:36.000Z</time>
      </trkpt>
      <trkpt lat="45.59524" lon="6.11696">
        <ele>1422.8000488281</ele>
        <time>2021-01-16T11:23:42.000Z</time>
      </trkpt>
      <trkpt lat="45.59523" lon="6.11694">
        <ele>1423</ele>
        <time>2021-01-16T11:23:44.000Z</time>
      </trkpt>
      <trkpt lat="45.59521" lon="6.11691">
        <ele>1423.8000488281</ele>
        <time>2021-01-16T11:23:47.000Z</time>
      </trkpt>
      <trkpt lat="45.59518" lon="6.11684">
        <ele>1424.5999755859</ele>
        <time>2021-01-16T11:23:53.000Z</time>
      </trkpt>
      <trkpt lat="45.59518" lon="6.11684">
        <ele>1424.8000488281</ele>
        <time>2021-01-16T11:23:54.000Z</time>
      </trkpt>
      <trkpt lat="45.59514" lon="6.11679">
        <ele>1426</ele>
        <time>2021-01-16T11:23:59.000Z</time>
      </trkpt>
      <trkpt lat="45.59513" lon="6.11677">
        <ele>1426.1999511719</ele>
        <time>2021-01-16T11:24:01.000Z</time>
      </trkpt>
      <trkpt lat="45.59511" lon="6.11675">
        <ele>1427.1999511719</ele>
        <time>2021-01-16T11:24:04.000Z</time>
      </trkpt>
      <trkpt lat="45.59508" lon="6.11671">
        <ele>1428.1999511719</ele>
        <time>2021-01-16T11:24:09.000Z</time>
      </trkpt>
      <trkpt lat="45.59508" lon="6.1167">
        <ele>1429.4000244141</ele>
        <time>2021-01-16T11:24:13.000Z</time>
      </trkpt>
      <trkpt lat="45.59508" lon="6.1167">
        <ele>1430.1999511719</ele>
        <time>2021-01-16T11:24:17.000Z</time>
      </trkpt>
      <trkpt lat="45.59506" lon="6.11669">
        <ele>1430.5999755859</ele>
        <time>2021-01-16T11:24:19.000Z</time>
      </trkpt>
      <trkpt lat="45.59504" lon="6.11668">
        <ele>1431.5999755859</ele>
        <time>2021-01-16T11:24:23.000Z</time>
      </trkpt>
      <trkpt lat="45.59504" lon="6.11668">
        <ele>1431.8000488281</ele>
        <time>2021-01-16T11:24:24.000Z</time>
      </trkpt>
      <trkpt lat="45.59504" lon="6.11668">
        <ele>1432.8000488281</ele>
        <time>2021-01-16T11:24:29.000Z</time>
      </trkpt>
      <trkpt lat="45.59504" lon="6.11668">
        <ele>1433.5999755859</ele>
        <time>2021-01-16T11:24:32.000Z</time>
      </trkpt>
      <trkpt lat="45.59504" lon="6.11668">
        <ele>1434</ele>
        <time>2021-01-16T11:24:34.000Z</time>
      </trkpt>
      <trkpt lat="45.59504" lon="6.11668">
        <ele>1435.1999511719</ele>
        <time>2021-01-16T11:24:39.000Z</time>
      </trkpt>
      <trkpt lat="45.59504" lon="6.11667">
        <ele>1435.4000244141</ele>
        <time>2021-01-16T11:24:40.000Z</time>
      </trkpt>
      <trkpt lat="45.595" lon="6.11665">
        <ele>1436.4000244141</ele>
        <time>2021-01-16T11:24:43.000Z</time>
      </trkpt>
      <trkpt lat="45.59496" lon="6.11662">
        <ele>1437</ele>
        <time>2021-01-16T11:24:47.000Z</time>
      </trkpt>
      <trkpt lat="45.59493" lon="6.1166">
        <ele>1437.4000244141</ele>
        <time>2021-01-16T11:24:49.000Z</time>
      </trkpt>
      <trkpt lat="45.59487" lon="6.11654">
        <ele>1438.4000244141</ele>
        <time>2021-01-16T11:24:55.000Z</time>
      </trkpt>
      <trkpt lat="45.59486" lon="6.11654">
        <ele>1438.5999755859</ele>
        <time>2021-01-16T11:24:56.000Z</time>
      </trkpt>
      <trkpt lat="45.59482" lon="6.11651">
        <ele>1439.8000488281</ele>
        <time>2021-01-16T11:25:00.000Z</time>
      </trkpt>
      <trkpt lat="45.59479" lon="6.11651">
        <ele>1440.4000244141</ele>
        <time>2021-01-16T11:25:03.000Z</time>
      </trkpt>
      <trkpt lat="45.59479" lon="6.11651">
        <ele>1441</ele>
        <time>2021-01-16T11:25:07.000Z</time>
      </trkpt>
      <trkpt lat="45.59479" lon="6.11651">
        <ele>1442</ele>
        <time>2021-01-16T11:25:11.000Z</time>
      </trkpt>
      <trkpt lat="45.59479" lon="6.11651">
        <ele>1442.1999511719</ele>
        <time>2021-01-16T11:25:12.000Z</time>
      </trkpt>
      <trkpt lat="45.59479" lon="6.11651">
        <ele>1443.1999511719</ele>
        <time>2021-01-16T11:25:18.000Z</time>
      </trkpt>
      <trkpt lat="45.59479" lon="6.11651">
        <ele>1443.8000488281</ele>
        <time>2021-01-16T11:25:22.000Z</time>
      </trkpt>
      <trkpt lat="45.59479" lon="6.11651">
        <ele>1444.1999511719</ele>
        <time>2021-01-16T11:25:26.000Z</time>
      </trkpt>
      <trkpt lat="45.59479" lon="6.11651">
        <ele>1445.1999511719</ele>
        <time>2021-01-16T11:25:32.000Z</time>
      </trkpt>
      <trkpt lat="45.59479" lon="6.11651">
        <ele>1446.4000244141</ele>
        <time>2021-01-16T11:25:40.000Z</time>
      </trkpt>
      <trkpt lat="45.59479" lon="6.11651">
        <ele>1447.1999511719</ele>
        <time>2021-01-16T11:25:42.000Z</time>
      </trkpt>
      <trkpt lat="45.59479" lon="6.1165">
        <ele>1447.8000488281</ele>
        <time>2021-01-16T11:25:44.000Z</time>
      </trkpt>
      <trkpt lat="45.59479" lon="6.1165">
        <ele>1448.8000488281</ele>
        <time>2021-01-16T11:25:48.000Z</time>
      </trkpt>
      <trkpt lat="45.59478" lon="6.11646">
        <ele>1449.5999755859</ele>
        <time>2021-01-16T11:25:54.000Z</time>
      </trkpt>
      <trkpt lat="45.59477" lon="6.11642">
        <ele>1449.8000488281</ele>
        <time>2021-01-16T11:25:56.000Z</time>
      </trkpt>
      <trkpt lat="45.59474" lon="6.11633">
        <ele>1450.8000488281</ele>
        <time>2021-01-16T11:26:02.000Z</time>
      </trkpt>
      <trkpt lat="45.59473" lon="6.11631">
        <ele>1451</ele>
        <time>2021-01-16T11:26:03.000Z</time>
      </trkpt>
      <trkpt lat="45.59468" lon="6.11615">
        <ele>1452</ele>
        <time>2021-01-16T11:26:09.000Z</time>
      </trkpt>
      <trkpt lat="45.59466" lon="6.11611">
        <ele>1452.8000488281</ele>
        <time>2021-01-16T11:26:11.000Z</time>
      </trkpt>
      <trkpt lat="45.59465" lon="6.11606">
        <ele>1453.1999511719</ele>
        <time>2021-01-16T11:26:13.000Z</time>
      </trkpt>
      <trkpt lat="45.59458" lon="6.11589">
        <ele>1454.1999511719</ele>
        <time>2021-01-16T11:26:21.000Z</time>
      </trkpt>
      <trkpt lat="45.59455" lon="6.11583">
        <ele>1455.4000244141</ele>
        <time>2021-01-16T11:26:24.000Z</time>
      </trkpt>
      <trkpt lat="45.59455" lon="6.11583">
        <ele>1456.4000244141</ele>
        <time>2021-01-16T11:26:28.000Z</time>
      </trkpt>
      <trkpt lat="45.59455" lon="6.11583">
        <ele>1456.8000488281</ele>
        <time>2021-01-16T11:26:31.000Z</time>
      </trkpt>
      <trkpt lat="45.59455" lon="6.11583">
        <ele>1457.5999755859</ele>
        <time>2021-01-16T11:26:34.000Z</time>
      </trkpt>
      <trkpt lat="45.59455" lon="6.11583">
        <ele>1458.4000244141</ele>
        <time>2021-01-16T11:26:38.000Z</time>
      </trkpt>
      <trkpt lat="45.59455" lon="6.11583">
        <ele>1458.5999755859</ele>
        <time>2021-01-16T11:26:39.000Z</time>
      </trkpt>
      <trkpt lat="45.59454" lon="6.1158">
        <ele>1459.5999755859</ele>
        <time>2021-01-16T11:26:43.000Z</time>
      </trkpt>
      <trkpt lat="45.5945" lon="6.11574">
        <ele>1460.4000244141</ele>
        <time>2021-01-16T11:26:48.000Z</time>
      </trkpt>
      <trkpt lat="45.59449" lon="6.11571">
        <ele>1461</ele>
        <time>2021-01-16T11:26:50.000Z</time>
      </trkpt>
      <trkpt lat="45.59443" lon="6.11567">
        <ele>1462.1999511719</ele>
        <time>2021-01-16T11:26:55.000Z</time>
      </trkpt>
      <trkpt lat="45.59441" lon="6.11565">
        <ele>1462.8000488281</ele>
        <time>2021-01-16T11:26:57.000Z</time>
      </trkpt>
      <trkpt lat="45.59438" lon="6.11563">
        <ele>1463.4000244141</ele>
        <time>2021-01-16T11:27:00.000Z</time>
      </trkpt>
      <trkpt lat="45.59434" lon="6.1156">
        <ele>1464</ele>
        <time>2021-01-16T11:27:04.000Z</time>
      </trkpt>
      <trkpt lat="45.5943" lon="6.11558">
        <ele>1464.5999755859</ele>
        <time>2021-01-16T11:27:07.000Z</time>
      </trkpt>
      <trkpt lat="45.59427" lon="6.11556">
        <ele>1465.8000488281</ele>
        <time>2021-01-16T11:27:10.000Z</time>
      </trkpt>
      <trkpt lat="45.59426" lon="6.11556">
        <ele>1465.8000488281</ele>
        <time>2021-01-16T11:27:11.000Z</time>
      </trkpt>
      <trkpt lat="45.59421" lon="6.11553">
        <ele>1466.8000488281</ele>
        <time>2021-01-16T11:27:18.000Z</time>
      </trkpt>
      <trkpt lat="45.59421" lon="6.11554">
        <ele>1467</ele>
        <time>2021-01-16T11:27:19.000Z</time>
      </trkpt>
      <trkpt lat="45.59419" lon="6.11554">
        <ele>1468</ele>
        <time>2021-01-16T11:27:23.000Z</time>
      </trkpt>
      <trkpt lat="45.59416" lon="6.11556">
        <ele>1469</ele>
        <time>2021-01-16T11:27:28.000Z</time>
      </trkpt>
      <trkpt lat="45.59413" lon="6.11561">
        <ele>1470.1999511719</ele>
        <time>2021-01-16T11:27:34.000Z</time>
      </trkpt>
      <trkpt lat="45.59412" lon="6.11564">
        <ele>1471</ele>
        <time>2021-01-16T11:27:38.000Z</time>
      </trkpt>
      <trkpt lat="45.59412" lon="6.11564">
        <ele>1471.1999511719</ele>
        <time>2021-01-16T11:27:41.000Z</time>
      </trkpt>
      <trkpt lat="45.59412" lon="6.11564">
        <ele>1472.1999511719</ele>
        <time>2021-01-16T11:27:47.000Z</time>
      </trkpt>
      <trkpt lat="45.59412" lon="6.11564">
        <ele>1472.1999511719</ele>
        <time>2021-01-16T11:27:53.000Z</time>
      </trkpt>
      <trkpt lat="45.59412" lon="6.11564">
        <ele>1472.5999755859</ele>
        <time>2021-01-16T11:27:55.000Z</time>
      </trkpt>
      <trkpt lat="45.59412" lon="6.11564">
        <ele>1473.4000244141</ele>
        <time>2021-01-16T11:27:58.000Z</time>
      </trkpt>
      <trkpt lat="45.59412" lon="6.11564">
        <ele>1474.1999511719</ele>
        <time>2021-01-16T11:28:04.000Z</time>
      </trkpt>
      <trkpt lat="45.59412" lon="6.11564">
        <ele>1474.5999755859</ele>
        <time>2021-01-16T11:28:06.000Z</time>
      </trkpt>
      <trkpt lat="45.5941" lon="6.11566">
        <ele>1476</ele>
        <time>2021-01-16T11:28:11.000Z</time>
      </trkpt>
      <trkpt lat="45.59407" lon="6.1157">
        <ele>1476.8000488281</ele>
        <time>2021-01-16T11:28:14.000Z</time>
      </trkpt>
      <trkpt lat="45.59406" lon="6.11573">
        <ele>1477.1999511719</ele>
        <time>2021-01-16T11:28:16.000Z</time>
      </trkpt>
      <trkpt lat="45.59402" lon="6.11577">
        <ele>1478.4000244141</ele>
        <time>2021-01-16T11:28:21.000Z</time>
      </trkpt>
      <trkpt lat="45.594" lon="6.1158">
        <ele>1479.8000488281</ele>
        <time>2021-01-16T11:28:24.000Z</time>
      </trkpt>
      <trkpt lat="45.59399" lon="6.11581">
        <ele>1480.1999511719</ele>
        <time>2021-01-16T11:28:25.000Z</time>
      </trkpt>
      <trkpt lat="45.59395" lon="6.11584">
        <ele>1480.8000488281</ele>
        <time>2021-01-16T11:28:30.000Z</time>
      </trkpt>
      <trkpt lat="45.59391" lon="6.11588">
        <ele>1482.1999511719</ele>
        <time>2021-01-16T11:28:35.000Z</time>
      </trkpt>
      <trkpt lat="45.5939" lon="6.11589">
        <ele>1482.4000244141</ele>
        <time>2021-01-16T11:28:36.000Z</time>
      </trkpt>
      <trkpt lat="45.59387" lon="6.11592">
        <ele>1483.1999511719</ele>
        <time>2021-01-16T11:28:40.000Z</time>
      </trkpt>
      <trkpt lat="45.59384" lon="6.11595">
        <ele>1483.8000488281</ele>
        <time>2021-01-16T11:28:45.000Z</time>
      </trkpt>
      <trkpt lat="45.59383" lon="6.11596">
        <ele>1484.4000244141</ele>
        <time>2021-01-16T11:28:47.000Z</time>
      </trkpt>
      <trkpt lat="45.59382" lon="6.11599">
        <ele>1485.5999755859</ele>
        <time>2021-01-16T11:28:51.000Z</time>
      </trkpt>
      <trkpt lat="45.5938" lon="6.11602">
        <ele>1486.1999511719</ele>
        <time>2021-01-16T11:28:55.000Z</time>
      </trkpt>
      <trkpt lat="45.59379" lon="6.11604">
        <ele>1486.5999755859</ele>
        <time>2021-01-16T11:28:57.000Z</time>
      </trkpt>
      <trkpt lat="45.59379" lon="6.1161">
        <ele>1487.8000488281</ele>
        <time>2021-01-16T11:29:03.000Z</time>
      </trkpt>
      <trkpt lat="45.59379" lon="6.11611">
        <ele>1488.1999511719</ele>
        <time>2021-01-16T11:29:04.000Z</time>
      </trkpt>
      <trkpt lat="45.5938" lon="6.11613">
        <ele>1488.8000488281</ele>
        <time>2021-01-16T11:29:08.000Z</time>
      </trkpt>
      <trkpt lat="45.59382" lon="6.11613">
        <ele>1489</ele>
        <time>2021-01-16T11:29:11.000Z</time>
      </trkpt>
      <trkpt lat="45.59384" lon="6.1161">
        <ele>1488.5999755859</ele>
        <time>2021-01-16T11:29:18.000Z</time>
      </trkpt>
      <trkpt lat="45.59384" lon="6.1161">
        <ele>1488.5999755859</ele>
        <time>2021-01-16T11:29:33.000Z</time>
      </trkpt>
      <trkpt lat="45.59384" lon="6.1161">
        <ele>1488.5999755859</ele>
        <time>2021-01-16T11:29:47.000Z</time>
      </trkpt>
      <trkpt lat="45.59384" lon="6.1161">
        <ele>1488.8000488281</ele>
        <time>2021-01-16T11:30:00.000Z</time>
      </trkpt>
      <trkpt lat="45.59384" lon="6.1161">
        <ele>1488.8000488281</ele>
        <time>2021-01-16T11:30:15.000Z</time>
      </trkpt>
      <trkpt lat="45.59384" lon="6.1161">
        <ele>1487.8000488281</ele>
        <time>2021-01-16T11:30:26.000Z</time>
      </trkpt>
      <trkpt lat="45.59384" lon="6.1161">
        <ele>1488</ele>
        <time>2021-01-16T11:30:28.000Z</time>
      </trkpt>
      <trkpt lat="45.59384" lon="6.1161">
        <ele>1489.1999511719</ele>
        <time>2021-01-16T11:30:30.000Z</time>
      </trkpt>
      <trkpt lat="45.59385" lon="6.11606">
        <ele>1488.8000488281</ele>
        <time>2021-01-16T11:30:35.000Z</time>
      </trkpt>
      <trkpt lat="45.59386" lon="6.11603">
        <ele>1488.5999755859</ele>
        <time>2021-01-16T11:30:36.000Z</time>
      </trkpt>
      <trkpt lat="45.59387" lon="6.11592">
        <ele>1487.8000488281</ele>
        <time>2021-01-16T11:30:38.000Z</time>
      </trkpt>
      <trkpt lat="45.59389" lon="6.11583">
        <ele>1487.4000244141</ele>
        <time>2021-01-16T11:30:39.000Z</time>
      </trkpt>
      <trkpt lat="45.59391" lon="6.11574">
        <ele>1486.5999755859</ele>
        <time>2021-01-16T11:30:40.000Z</time>
      </trkpt>
      <trkpt lat="45.59393" lon="6.11564">
        <ele>1485.1999511719</ele>
        <time>2021-01-16T11:30:41.000Z</time>
      </trkpt>
      <trkpt lat="45.59394" lon="6.11556">
        <ele>1483.1999511719</ele>
        <time>2021-01-16T11:30:42.000Z</time>
      </trkpt>
      <trkpt lat="45.59395" lon="6.11548">
        <ele>1481</ele>
        <time>2021-01-16T11:30:43.000Z</time>
      </trkpt>
      <trkpt lat="45.59396" lon="6.11543">
        <ele>1479.1999511719</ele>
        <time>2021-01-16T11:30:44.000Z</time>
      </trkpt>
      <trkpt lat="45.59397" lon="6.1154">
        <ele>1477.8000488281</ele>
        <time>2021-01-16T11:30:45.000Z</time>
      </trkpt>
      <trkpt lat="45.59397" lon="6.11537">
        <ele>1476.4000244141</ele>
        <time>2021-01-16T11:30:46.000Z</time>
      </trkpt>
      <trkpt lat="45.59398" lon="6.11535">
        <ele>1475.1999511719</ele>
        <time>2021-01-16T11:30:47.000Z</time>
      </trkpt>
      <trkpt lat="45.59399" lon="6.11532">
        <ele>1474</ele>
        <time>2021-01-16T11:30:48.000Z</time>
      </trkpt>
      <trkpt lat="45.594" lon="6.11528">
        <ele>1472.5999755859</ele>
        <time>2021-01-16T11:30:50.000Z</time>
      </trkpt>
      <trkpt lat="45.59402" lon="6.11522">
        <ele>1471.4000244141</ele>
        <time>2021-01-16T11:30:54.000Z</time>
      </trkpt>
      <trkpt lat="45.59405" lon="6.11515">
        <ele>1471.4000244141</ele>
        <time>2021-01-16T11:31:00.000Z</time>
      </trkpt>
      <trkpt lat="45.59408" lon="6.11506">
        <ele>1471.8000488281</ele>
        <time>2021-01-16T11:31:07.000Z</time>
      </trkpt>
      <trkpt lat="45.59411" lon="6.11498">
        <ele>1472.5999755859</ele>
        <time>2021-01-16T11:31:14.000Z</time>
      </trkpt>
      <trkpt lat="45.59413" lon="6.11489">
        <ele>1473.5999755859</ele>
        <time>2021-01-16T11:31:21.000Z</time>
      </trkpt>
      <trkpt lat="45.59414" lon="6.11484">
        <ele>1474.8000488281</ele>
        <time>2021-01-16T11:31:24.000Z</time>
      </trkpt>
      <trkpt lat="45.59414" lon="6.11479">
        <ele>1475.1999511719</ele>
        <time>2021-01-16T11:31:27.000Z</time>
      </trkpt>
      <trkpt lat="45.59415" lon="6.11474">
        <ele>1475.8000488281</ele>
        <time>2021-01-16T11:31:32.000Z</time>
      </trkpt>
      <trkpt lat="45.59417" lon="6.11471">
        <ele>1476.4000244141</ele>
        <time>2021-01-16T11:31:34.000Z</time>
      </trkpt>
      <trkpt lat="45.59417" lon="6.1147">
        <ele>1477</ele>
        <time>2021-01-16T11:31:36.000Z</time>
      </trkpt>
      <trkpt lat="45.5942" lon="6.11464">
        <ele>1478</ele>
        <time>2021-01-16T11:31:41.000Z</time>
      </trkpt>
      <trkpt lat="45.5942" lon="6.11463">
        <ele>1478</ele>
        <time>2021-01-16T11:31:42.000Z</time>
      </trkpt>
      <trkpt lat="45.59421" lon="6.11457">
        <ele>1479.4000244141</ele>
        <time>2021-01-16T11:31:47.000Z</time>
      </trkpt>
      <trkpt lat="45.59421" lon="6.11455">
        <ele>1479.8000488281</ele>
        <time>2021-01-16T11:31:49.000Z</time>
      </trkpt>
      <trkpt lat="45.59422" lon="6.11452">
        <ele>1480.5999755859</ele>
        <time>2021-01-16T11:31:52.000Z</time>
      </trkpt>
      <trkpt lat="45.59422" lon="6.11447">
        <ele>1481.8000488281</ele>
        <time>2021-01-16T11:31:56.000Z</time>
      </trkpt>
      <trkpt lat="45.59423" lon="6.11442">
        <ele>1482.1999511719</ele>
        <time>2021-01-16T11:31:59.000Z</time>
      </trkpt>
      <trkpt lat="45.59424" lon="6.11435">
        <ele>1483</ele>
        <time>2021-01-16T11:32:04.000Z</time>
      </trkpt>
      <trkpt lat="45.59424" lon="6.11434">
        <ele>1483.5999755859</ele>
        <time>2021-01-16T11:32:06.000Z</time>
      </trkpt>
      <trkpt lat="45.59425" lon="6.11432">
        <ele>1484</ele>
        <time>2021-01-16T11:32:08.000Z</time>
      </trkpt>
      <trkpt lat="45.59427" lon="6.11428">
        <ele>1485.1999511719</ele>
        <time>2021-01-16T11:32:13.000Z</time>
      </trkpt>
      <trkpt lat="45.59425" lon="6.11423">
        <ele>1486.4000244141</ele>
        <time>2021-01-16T11:32:17.000Z</time>
      </trkpt>
      <trkpt lat="45.59422" lon="6.11421">
        <ele>1487</ele>
        <time>2021-01-16T11:32:20.000Z</time>
      </trkpt>
      <trkpt lat="45.59418" lon="6.11418">
        <ele>1487.4000244141</ele>
        <time>2021-01-16T11:32:24.000Z</time>
      </trkpt>
      <trkpt lat="45.59415" lon="6.11418">
        <ele>1487.4000244141</ele>
        <time>2021-01-16T11:32:27.000Z</time>
      </trkpt>
      <trkpt lat="45.59404" lon="6.11419">
        <ele>1487.4000244141</ele>
        <time>2021-01-16T11:32:38.000Z</time>
      </trkpt>
      <trkpt lat="45.59399" lon="6.11415">
        <ele>1487.5999755859</ele>
        <time>2021-01-16T11:32:44.000Z</time>
      </trkpt>
      <trkpt lat="45.59394" lon="6.11411">
        <ele>1488</ele>
        <time>2021-01-16T11:32:51.000Z</time>
      </trkpt>
      <trkpt lat="45.59392" lon="6.11407">
        <ele>1488.1999511719</ele>
        <time>2021-01-16T11:32:58.000Z</time>
      </trkpt>
      <trkpt lat="45.59392" lon="6.11407">
        <ele>1488.1999511719</ele>
        <time>2021-01-16T11:33:12.000Z</time>
      </trkpt>
      <trkpt lat="45.59392" lon="6.11407">
        <ele>1488.5999755859</ele>
        <time>2021-01-16T11:33:21.000Z</time>
      </trkpt>
      <trkpt lat="45.59392" lon="6.11407">
        <ele>1488.4000244141</ele>
        <time>2021-01-16T11:33:22.000Z</time>
      </trkpt>
      <trkpt lat="45.59392" lon="6.11407">
        <ele>1488.1999511719</ele>
        <time>2021-01-16T11:33:36.000Z</time>
      </trkpt>
      <trkpt lat="45.59392" lon="6.11407">
        <ele>1488</ele>
        <time>2021-01-16T11:33:48.000Z</time>
      </trkpt>
      <trkpt lat="45.59392" lon="6.11407">
        <ele>1487.4000244141</ele>
        <time>2021-01-16T11:34:01.000Z</time>
      </trkpt>
      <trkpt lat="45.59392" lon="6.11407">
        <ele>1487</ele>
        <time>2021-01-16T11:34:02.000Z</time>
      </trkpt>
      <trkpt lat="45.59392" lon="6.11407">
        <ele>1486.1999511719</ele>
        <time>2021-01-16T11:34:05.000Z</time>
      </trkpt>
      <trkpt lat="45.59391" lon="6.11404">
        <ele>1488</ele>
        <time>2021-01-16T11:34:11.000Z</time>
      </trkpt>
      <trkpt lat="45.59391" lon="6.11404">
        <ele>1489</ele>
        <time>2021-01-16T11:34:13.000Z</time>
      </trkpt>
      <trkpt lat="45.59391" lon="6.11404">
        <ele>1489.1999511719</ele>
        <time>2021-01-16T11:34:14.000Z</time>
      </trkpt>
      <trkpt lat="45.59391" lon="6.11404">
        <ele>1488</ele>
        <time>2021-01-16T11:34:20.000Z</time>
      </trkpt>
      <trkpt lat="45.59391" lon="6.11404">
        <ele>1487.8000488281</ele>
        <time>2021-01-16T11:34:29.000Z</time>
      </trkpt>
      <trkpt lat="45.59391" lon="6.11404">
        <ele>1487.8000488281</ele>
        <time>2021-01-16T11:34:40.000Z</time>
      </trkpt>
      <trkpt lat="45.59391" lon="6.11404">
        <ele>1487</ele>
        <time>2021-01-16T11:34:46.000Z</time>
      </trkpt>
      <trkpt lat="45.59391" lon="6.11404">
        <ele>1488</ele>
        <time>2021-01-16T11:34:49.000Z</time>
      </trkpt>
      <trkpt lat="45.59391" lon="6.11404">
        <ele>1489</ele>
        <time>2021-01-16T11:34:51.000Z</time>
      </trkpt>
      <trkpt lat="45.59391" lon="6.11404">
        <ele>1489</ele>
        <time>2021-01-16T11:34:52.000Z</time>
      </trkpt>
      <trkpt lat="45.59391" lon="6.11404">
        <ele>1488</ele>
        <time>2021-01-16T11:34:57.000Z</time>
      </trkpt>
      <trkpt lat="45.59391" lon="6.11404">
        <ele>1487.5999755859</ele>
        <time>2021-01-16T11:35:07.000Z</time>
      </trkpt>
      <trkpt lat="45.59391" lon="6.11404">
        <ele>1487.5999755859</ele>
        <time>2021-01-16T11:35:19.000Z</time>
      </trkpt>
      <trkpt lat="45.59391" lon="6.11404">
        <ele>1487.8000488281</ele>
        <time>2021-01-16T11:35:33.000Z</time>
      </trkpt>
      <trkpt lat="45.59391" lon="6.11404">
        <ele>1487.5999755859</ele>
        <time>2021-01-16T11:35:46.000Z</time>
      </trkpt>
      <trkpt lat="45.59391" lon="6.11404">
        <ele>1488</ele>
        <time>2021-01-16T11:35:57.000Z</time>
      </trkpt>
      <trkpt lat="45.59391" lon="6.11404">
        <ele>1487.8000488281</ele>
        <time>2021-01-16T11:36:12.000Z</time>
      </trkpt>
      <trkpt lat="45.59391" lon="6.11404">
        <ele>1487.5999755859</ele>
        <time>2021-01-16T11:36:35.000Z</time>
      </trkpt>
      <trkpt lat="45.59391" lon="6.11405">
        <ele>1487.8000488281</ele>
        <time>2021-01-16T11:36:46.000Z</time>
      </trkpt>
      <trkpt lat="45.59391" lon="6.11405">
        <ele>1486.8000488281</ele>
        <time>2021-01-16T11:36:58.000Z</time>
      </trkpt>
      <trkpt lat="45.59391" lon="6.11405">
        <ele>1485.5999755859</ele>
        <time>2021-01-16T11:37:00.000Z</time>
      </trkpt>
      <trkpt lat="45.59391" lon="6.11405">
        <ele>1486.8000488281</ele>
        <time>2021-01-16T11:37:03.000Z</time>
      </trkpt>
      <trkpt lat="45.59391" lon="6.11405">
        <ele>1488</ele>
        <time>2021-01-16T11:37:05.000Z</time>
      </trkpt>
      <trkpt lat="45.59391" lon="6.11405">
        <ele>1488.4000244141</ele>
        <time>2021-01-16T11:37:17.000Z</time>
      </trkpt>
      <trkpt lat="45.59391" lon="6.11405">
        <ele>1487.5999755859</ele>
        <time>2021-01-16T11:37:33.000Z</time>
      </trkpt>
      <trkpt lat="45.59391" lon="6.11405">
        <ele>1487.8000488281</ele>
        <time>2021-01-16T11:37:50.000Z</time>
      </trkpt>
      <trkpt lat="45.59391" lon="6.11405">
        <ele>1487</ele>
        <time>2021-01-16T11:38:04.000Z</time>
      </trkpt>
      <trkpt lat="45.59391" lon="6.11405">
        <ele>1488.4000244141</ele>
        <time>2021-01-16T11:38:13.000Z</time>
      </trkpt>
      <trkpt lat="45.59391" lon="6.11405">
        <ele>1489.1999511719</ele>
        <time>2021-01-16T11:38:16.000Z</time>
      </trkpt>
      <trkpt lat="45.59391" lon="6.11405">
        <ele>1488.1999511719</ele>
        <time>2021-01-16T11:38:28.000Z</time>
      </trkpt>
      <trkpt lat="45.59391" lon="6.11405">
        <ele>1487.4000244141</ele>
        <time>2021-01-16T11:38:33.000Z</time>
      </trkpt>
      <trkpt lat="45.59391" lon="6.11405">
        <ele>1487.4000244141</ele>
        <time>2021-01-16T11:38:37.000Z</time>
      </trkpt>
      <trkpt lat="45.59391" lon="6.11405">
        <ele>1488</ele>
        <time>2021-01-16T11:38:41.000Z</time>
      </trkpt>
      <trkpt lat="45.59391" lon="6.11405">
        <ele>1487.5999755859</ele>
        <time>2021-01-16T11:38:50.000Z</time>
      </trkpt>
      <trkpt lat="45.5939" lon="6.11405">
        <ele>1488.1999511719</ele>
        <time>2021-01-16T11:39:09.000Z</time>
      </trkpt>
      <trkpt lat="45.5939" lon="6.11405">
        <ele>1487.5999755859</ele>
        <time>2021-01-16T11:39:14.000Z</time>
      </trkpt>
      <trkpt lat="45.5939" lon="6.11405">
        <ele>1488</ele>
        <time>2021-01-16T11:39:23.000Z</time>
      </trkpt>
      <trkpt lat="45.5939" lon="6.11405">
        <ele>1488</ele>
        <time>2021-01-16T11:39:26.000Z</time>
      </trkpt>
      <trkpt lat="45.5939" lon="6.11405">
        <ele>1486</ele>
        <time>2021-01-16T11:39:34.000Z</time>
      </trkpt>
      <trkpt lat="45.5939" lon="6.11405">
        <ele>1484.5999755859</ele>
        <time>2021-01-16T11:39:36.000Z</time>
      </trkpt>
      <trkpt lat="45.5939" lon="6.11405">
        <ele>1486.4000244141</ele>
        <time>2021-01-16T11:39:40.000Z</time>
      </trkpt>
      <trkpt lat="45.5939" lon="6.11405">
        <ele>1487.8000488281</ele>
        <time>2021-01-16T11:39:41.000Z</time>
      </trkpt>
      <trkpt lat="45.5939" lon="6.11405">
        <ele>1489.1999511719</ele>
        <time>2021-01-16T11:39:43.000Z</time>
      </trkpt>
      <trkpt lat="45.5939" lon="6.11405">
        <ele>1487.1999511719</ele>
        <time>2021-01-16T11:39:46.000Z</time>
      </trkpt>
      <trkpt lat="45.5939" lon="6.11406">
        <ele>1485.5999755859</ele>
        <time>2021-01-16T11:39:47.000Z</time>
      </trkpt>
      <trkpt lat="45.5939" lon="6.11406">
        <ele>1484.4000244141</ele>
        <time>2021-01-16T11:39:48.000Z</time>
      </trkpt>
      <trkpt lat="45.59391" lon="6.11407">
        <ele>1485.8000488281</ele>
        <time>2021-01-16T11:39:51.000Z</time>
      </trkpt>
      <trkpt lat="45.59391" lon="6.11407">
        <ele>1487</ele>
        <time>2021-01-16T11:39:54.000Z</time>
      </trkpt>
      <trkpt lat="45.59391" lon="6.11407">
        <ele>1487</ele>
        <time>2021-01-16T11:39:56.000Z</time>
      </trkpt>
      <trkpt lat="45.59391" lon="6.11407">
        <ele>1488.8000488281</ele>
        <time>2021-01-16T11:40:01.000Z</time>
      </trkpt>
      <trkpt lat="45.59391" lon="6.11407">
        <ele>1490</ele>
        <time>2021-01-16T11:40:02.000Z</time>
      </trkpt>
      <trkpt lat="45.59391" lon="6.11407">
        <ele>1490.5999755859</ele>
        <time>2021-01-16T11:40:05.000Z</time>
      </trkpt>
      <trkpt lat="45.59391" lon="6.11407">
        <ele>1488.5999755859</ele>
        <time>2021-01-16T11:40:07.000Z</time>
      </trkpt>
      <trkpt lat="45.59391" lon="6.11407">
        <ele>1487.4000244141</ele>
        <time>2021-01-16T11:40:09.000Z</time>
      </trkpt>
      <trkpt lat="45.5939" lon="6.11407">
        <ele>1485.8000488281</ele>
        <time>2021-01-16T11:40:12.000Z</time>
      </trkpt>
      <trkpt lat="45.59389" lon="6.11407">
        <ele>1485</ele>
        <time>2021-01-16T11:40:15.000Z</time>
      </trkpt>
      <trkpt lat="45.59389" lon="6.11407">
        <ele>1487</ele>
        <time>2021-01-16T11:40:17.000Z</time>
      </trkpt>
      <trkpt lat="45.59389" lon="6.11407">
        <ele>1488.1999511719</ele>
        <time>2021-01-16T11:40:18.000Z</time>
      </trkpt>
      <trkpt lat="45.59389" lon="6.11407">
        <ele>1487.5999755859</ele>
        <time>2021-01-16T11:40:27.000Z</time>
      </trkpt>
      <trkpt lat="45.59389" lon="6.11405">
        <ele>1487.4000244141</ele>
        <time>2021-01-16T11:40:41.000Z</time>
      </trkpt>
      <trkpt lat="45.59388" lon="6.11404">
        <ele>1487.8000488281</ele>
        <time>2021-01-16T11:40:54.000Z</time>
      </trkpt>
      <trkpt lat="45.59387" lon="6.11404">
        <ele>1487</ele>
        <time>2021-01-16T11:40:56.000Z</time>
      </trkpt>
      <trkpt lat="45.59387" lon="6.11402">
        <ele>1488</ele>
        <time>2021-01-16T11:41:01.000Z</time>
      </trkpt>
      <trkpt lat="45.59388" lon="6.11401">
        <ele>1489.4000244141</ele>
        <time>2021-01-16T11:41:03.000Z</time>
      </trkpt>
      <trkpt lat="45.59388" lon="6.11401">
        <ele>1488.4000244141</ele>
        <time>2021-01-16T11:41:05.000Z</time>
      </trkpt>
      <trkpt lat="45.59388" lon="6.11401">
        <ele>1489.4000244141</ele>
        <time>2021-01-16T11:41:11.000Z</time>
      </trkpt>
      <trkpt lat="45.59388" lon="6.11401">
        <ele>1488.5999755859</ele>
        <time>2021-01-16T11:41:16.000Z</time>
      </trkpt>
      <trkpt lat="45.59388" lon="6.11401">
        <ele>1488.4000244141</ele>
        <time>2021-01-16T11:41:17.000Z</time>
      </trkpt>
      <trkpt lat="45.59388" lon="6.11401">
        <ele>1488.1999511719</ele>
        <time>2021-01-16T11:41:26.000Z</time>
      </trkpt>
      <trkpt lat="45.59388" lon="6.11401">
        <ele>1488.4000244141</ele>
        <time>2021-01-16T11:41:40.000Z</time>
      </trkpt>
      <trkpt lat="45.59389" lon="6.11402">
        <ele>1488.1999511719</ele>
        <time>2021-01-16T11:41:53.000Z</time>
      </trkpt>
      <trkpt lat="45.59389" lon="6.11402">
        <ele>1488.1999511719</ele>
        <time>2021-01-16T11:42:06.000Z</time>
      </trkpt>
      <trkpt lat="45.5939" lon="6.11404">
        <ele>1488.1999511719</ele>
        <time>2021-01-16T11:42:16.000Z</time>
      </trkpt>
      <trkpt lat="45.5939" lon="6.11404">
        <ele>1488.1999511719</ele>
        <time>2021-01-16T11:42:29.000Z</time>
      </trkpt>
      <trkpt lat="45.5939" lon="6.11404">
        <ele>1488.1999511719</ele>
        <time>2021-01-16T11:42:43.000Z</time>
      </trkpt>
      <trkpt lat="45.59391" lon="6.11404">
        <ele>1488.1999511719</ele>
        <time>2021-01-16T11:42:54.000Z</time>
      </trkpt>
      <trkpt lat="45.59391" lon="6.11404">
        <ele>1488.1999511719</ele>
        <time>2021-01-16T11:43:07.000Z</time>
      </trkpt>
      <trkpt lat="45.59391" lon="6.11404">
        <ele>1488.4000244141</ele>
        <time>2021-01-16T11:43:21.000Z</time>
      </trkpt>
      <trkpt lat="45.59392" lon="6.11405">
        <ele>1488.1999511719</ele>
        <time>2021-01-16T11:43:35.000Z</time>
      </trkpt>
      <trkpt lat="45.59392" lon="6.11405">
        <ele>1488</ele>
        <time>2021-01-16T11:43:50.000Z</time>
      </trkpt>
      <trkpt lat="45.59392" lon="6.11405">
        <ele>1488.1999511719</ele>
        <time>2021-01-16T11:44:03.000Z</time>
      </trkpt>
      <trkpt lat="45.59392" lon="6.11405">
        <ele>1488.1999511719</ele>
        <time>2021-01-16T11:44:23.000Z</time>
      </trkpt>
      <trkpt lat="45.59392" lon="6.11405">
        <ele>1488.4000244141</ele>
        <time>2021-01-16T11:44:39.000Z</time>
      </trkpt>
      <trkpt lat="45.59392" lon="6.11406">
        <ele>1488.1999511719</ele>
        <time>2021-01-16T11:44:54.000Z</time>
      </trkpt>
      <trkpt lat="45.59392" lon="6.11406">
        <ele>1488.4000244141</ele>
        <time>2021-01-16T11:45:09.000Z</time>
      </trkpt>
      <trkpt lat="45.59392" lon="6.11402">
        <ele>1488.1999511719</ele>
        <time>2021-01-16T11:45:17.000Z</time>
      </trkpt>
      <trkpt lat="45.59396" lon="6.11396">
        <ele>1488.1999511719</ele>
        <time>2021-01-16T11:45:26.000Z</time>
      </trkpt>
      <trkpt lat="45.59399" lon="6.11391">
        <ele>1488.4000244141</ele>
        <time>2021-01-16T11:45:34.000Z</time>
      </trkpt>
      <trkpt lat="45.59402" lon="6.11387">
        <ele>1488.1999511719</ele>
        <time>2021-01-16T11:45:41.000Z</time>
      </trkpt>
      <trkpt lat="45.59407" lon="6.11385">
        <ele>1488.5999755859</ele>
        <time>2021-01-16T11:45:48.000Z</time>
      </trkpt>
      <trkpt lat="45.59408" lon="6.11382">
        <ele>1488.5999755859</ele>
        <time>2021-01-16T11:45:51.000Z</time>
      </trkpt>
      <trkpt lat="45.59412" lon="6.1138">
        <ele>1488.4000244141</ele>
        <time>2021-01-16T11:45:56.000Z</time>
      </trkpt>
      <trkpt lat="45.59418" lon="6.11381">
        <ele>1488.4000244141</ele>
        <time>2021-01-16T11:46:02.000Z</time>
      </trkpt>
      <trkpt lat="45.59418" lon="6.1138">
        <ele>1488.4000244141</ele>
        <time>2021-01-16T11:46:03.000Z</time>
      </trkpt>
      <trkpt lat="45.59421" lon="6.11376">
        <ele>1488.4000244141</ele>
        <time>2021-01-16T11:46:08.000Z</time>
      </trkpt>
      <trkpt lat="45.59424" lon="6.11369">
        <ele>1488.4000244141</ele>
        <time>2021-01-16T11:46:15.000Z</time>
      </trkpt>
      <trkpt lat="45.59425" lon="6.11364">
        <ele>1488.4000244141</ele>
        <time>2021-01-16T11:46:23.000Z</time>
      </trkpt>
      <trkpt lat="45.59425" lon="6.11363">
        <ele>1488.1999511719</ele>
        <time>2021-01-16T11:46:29.000Z</time>
      </trkpt>
      <trkpt lat="45.59426" lon="6.11363">
        <ele>1488.5999755859</ele>
        <time>2021-01-16T11:46:39.000Z</time>
      </trkpt>
      <trkpt lat="45.59426" lon="6.11363">
        <ele>1488.5999755859</ele>
        <time>2021-01-16T11:46:54.000Z</time>
      </trkpt>
      <trkpt lat="45.59426" lon="6.11363">
        <ele>1488.8000488281</ele>
        <time>2021-01-16T11:47:04.000Z</time>
      </trkpt>
      <trkpt lat="45.59426" lon="6.11363">
        <ele>1488.8000488281</ele>
        <time>2021-01-16T11:47:23.000Z</time>
      </trkpt>
      <trkpt lat="45.59426" lon="6.11363">
        <ele>1488.8000488281</ele>
        <time>2021-01-16T11:47:35.000Z</time>
      </trkpt>
      <trkpt lat="45.59427" lon="6.11362">
        <ele>1488.8000488281</ele>
        <time>2021-01-16T11:47:47.000Z</time>
      </trkpt>
      <trkpt lat="45.59428" lon="6.11359">
        <ele>1488.8000488281</ele>
        <time>2021-01-16T11:47:50.000Z</time>
      </trkpt>
      <trkpt lat="45.59427" lon="6.11354">
        <ele>1488.4000244141</ele>
        <time>2021-01-16T11:47:52.000Z</time>
      </trkpt>
      <trkpt lat="45.59431" lon="6.11352">
        <ele>1487.8000488281</ele>
        <time>2021-01-16T11:47:55.000Z</time>
      </trkpt>
      <trkpt lat="45.59433" lon="6.1135">
        <ele>1486.8000488281</ele>
        <time>2021-01-16T11:47:56.000Z</time>
      </trkpt>
      <trkpt lat="45.59433" lon="6.11343">
        <ele>1485</ele>
        <time>2021-01-16T11:47:58.000Z</time>
      </trkpt>
      <trkpt lat="45.59434" lon="6.11339">
        <ele>1484</ele>
        <time>2021-01-16T11:47:59.000Z</time>
      </trkpt>
      <trkpt lat="45.59436" lon="6.11338">
        <ele>1483</ele>
        <time>2021-01-16T11:48:00.000Z</time>
      </trkpt>
      <trkpt lat="45.59438" lon="6.11338">
        <ele>1482.4000244141</ele>
        <time>2021-01-16T11:48:01.000Z</time>
      </trkpt>
      <trkpt lat="45.59439" lon="6.11339">
        <ele>1480.5999755859</ele>
        <time>2021-01-16T11:48:02.000Z</time>
      </trkpt>
      <trkpt lat="45.59439" lon="6.11339">
        <ele>1478.1999511719</ele>
        <time>2021-01-16T11:48:03.000Z</time>
      </trkpt>
      <trkpt lat="45.59439" lon="6.11339">
        <ele>1477</ele>
        <time>2021-01-16T11:48:04.000Z</time>
      </trkpt>
      <trkpt lat="45.59438" lon="6.11339">
        <ele>1475.1999511719</ele>
        <time>2021-01-16T11:48:06.000Z</time>
      </trkpt>
      <trkpt lat="45.59437" lon="6.11338">
        <ele>1474</ele>
        <time>2021-01-16T11:48:10.000Z</time>
      </trkpt>
      <trkpt lat="45.59436" lon="6.11338">
        <ele>1472.8000488281</ele>
        <time>2021-01-16T11:48:13.000Z</time>
      </trkpt>
      <trkpt lat="45.59437" lon="6.11333">
        <ele>1472.8000488281</ele>
        <time>2021-01-16T11:48:16.000Z</time>
      </trkpt>
      <trkpt lat="45.59439" lon="6.11332">
        <ele>1471.5999755859</ele>
        <time>2021-01-16T11:48:18.000Z</time>
      </trkpt>
      <trkpt lat="45.59439" lon="6.11331">
        <ele>1469.4000244141</ele>
        <time>2021-01-16T11:48:19.000Z</time>
      </trkpt>
      <trkpt lat="45.59439" lon="6.1133">
        <ele>1466.8000488281</ele>
        <time>2021-01-16T11:48:20.000Z</time>
      </trkpt>
      <trkpt lat="45.5944" lon="6.1133">
        <ele>1465.5999755859</ele>
        <time>2021-01-16T11:48:21.000Z</time>
      </trkpt>
      <trkpt lat="45.5944" lon="6.1133">
        <ele>1465.8000488281</ele>
        <time>2021-01-16T11:48:24.000Z</time>
      </trkpt>
      <trkpt lat="45.5944" lon="6.1133">
        <ele>1466.8000488281</ele>
        <time>2021-01-16T11:48:26.000Z</time>
      </trkpt>
      <trkpt lat="45.5944" lon="6.1133">
        <ele>1465.8000488281</ele>
        <time>2021-01-16T11:48:33.000Z</time>
      </trkpt>
      <trkpt lat="45.5944" lon="6.1133">
        <ele>1465.4000244141</ele>
        <time>2021-01-16T11:48:42.000Z</time>
      </trkpt>
      <trkpt lat="45.5944" lon="6.11329">
        <ele>1465.4000244141</ele>
        <time>2021-01-16T11:48:55.000Z</time>
      </trkpt>
      <trkpt lat="45.5944" lon="6.11329">
        <ele>1465.5999755859</ele>
        <time>2021-01-16T11:49:12.000Z</time>
      </trkpt>
      <trkpt lat="45.5944" lon="6.11329">
        <ele>1465.4000244141</ele>
        <time>2021-01-16T11:49:28.000Z</time>
      </trkpt>
      <trkpt lat="45.5944" lon="6.11329">
        <ele>1464.8000488281</ele>
        <time>2021-01-16T11:49:39.000Z</time>
      </trkpt>
      <trkpt lat="45.5944" lon="6.11329">
        <ele>1465.5999755859</ele>
        <time>2021-01-16T11:49:44.000Z</time>
      </trkpt>
      <trkpt lat="45.5944" lon="6.11329">
        <ele>1465.8000488281</ele>
        <time>2021-01-16T11:49:45.000Z</time>
      </trkpt>
      <trkpt lat="45.5944" lon="6.11329">
        <ele>1464.8000488281</ele>
        <time>2021-01-16T11:49:58.000Z</time>
      </trkpt>
      <trkpt lat="45.5944" lon="6.11329">
        <ele>1464.5999755859</ele>
        <time>2021-01-16T11:49:59.000Z</time>
      </trkpt>
      <trkpt lat="45.59447" lon="6.1133">
        <ele>1464.1999511719</ele>
        <time>2021-01-16T11:50:03.000Z</time>
      </trkpt>
      <trkpt lat="45.5945" lon="6.11328">
        <ele>1464.1999511719</ele>
        <time>2021-01-16T11:50:04.000Z</time>
      </trkpt>
      <trkpt lat="45.59451" lon="6.11327">
        <ele>1464.1999511719</ele>
        <time>2021-01-16T11:50:05.000Z</time>
      </trkpt>
      <trkpt lat="45.59452" lon="6.11323">
        <ele>1463.4000244141</ele>
        <time>2021-01-16T11:50:08.000Z</time>
      </trkpt>
      <trkpt lat="45.59453" lon="6.11321">
        <ele>1461.1999511719</ele>
        <time>2021-01-16T11:50:10.000Z</time>
      </trkpt>
      <trkpt lat="45.59453" lon="6.11321">
        <ele>1459.1999511719</ele>
        <time>2021-01-16T11:50:11.000Z</time>
      </trkpt>
      <trkpt lat="45.59454" lon="6.1132">
        <ele>1457.4000244141</ele>
        <time>2021-01-16T11:50:12.000Z</time>
      </trkpt>
      <trkpt lat="45.59454" lon="6.1132">
        <ele>1456.1999511719</ele>
        <time>2021-01-16T11:50:13.000Z</time>
      </trkpt>
      <trkpt lat="45.59454" lon="6.1132">
        <ele>1454.8000488281</ele>
        <time>2021-01-16T11:50:18.000Z</time>
      </trkpt>
      <trkpt lat="45.59454" lon="6.1132">
        <ele>1454.4000244141</ele>
        <time>2021-01-16T11:50:19.000Z</time>
      </trkpt>
      <trkpt lat="45.59453" lon="6.11319">
        <ele>1453.8000488281</ele>
        <time>2021-01-16T11:50:21.000Z</time>
      </trkpt>
      <trkpt lat="45.59453" lon="6.11319">
        <ele>1455</ele>
        <time>2021-01-16T11:50:27.000Z</time>
      </trkpt>
      <trkpt lat="45.59453" lon="6.11319">
        <ele>1455.4000244141</ele>
        <time>2021-01-16T11:50:29.000Z</time>
      </trkpt>
      <trkpt lat="45.59454" lon="6.11316">
        <ele>1454.1999511719</ele>
        <time>2021-01-16T11:50:35.000Z</time>
      </trkpt>
      <trkpt lat="45.59455" lon="6.11316">
        <ele>1454</ele>
        <time>2021-01-16T11:50:36.000Z</time>
      </trkpt>
      <trkpt lat="45.59457" lon="6.11316">
        <ele>1452.5999755859</ele>
        <time>2021-01-16T11:50:37.000Z</time>
      </trkpt>
      <trkpt lat="45.59462" lon="6.11316">
        <ele>1451.1999511719</ele>
        <time>2021-01-16T11:50:39.000Z</time>
      </trkpt>
      <trkpt lat="45.59465" lon="6.11317">
        <ele>1450.5999755859</ele>
        <time>2021-01-16T11:50:40.000Z</time>
      </trkpt>
      <trkpt lat="45.59468" lon="6.11317">
        <ele>1449.5999755859</ele>
        <time>2021-01-16T11:50:41.000Z</time>
      </trkpt>
      <trkpt lat="45.59469" lon="6.11316">
        <ele>1449.1999511719</ele>
        <time>2021-01-16T11:50:42.000Z</time>
      </trkpt>
      <trkpt lat="45.59469" lon="6.11313">
        <ele>1448.1999511719</ele>
        <time>2021-01-16T11:50:43.000Z</time>
      </trkpt>
      <trkpt lat="45.59469" lon="6.11308">
        <ele>1447</ele>
        <time>2021-01-16T11:50:45.000Z</time>
      </trkpt>
      <trkpt lat="45.59471" lon="6.11307">
        <ele>1445.8000488281</ele>
        <time>2021-01-16T11:50:46.000Z</time>
      </trkpt>
      <trkpt lat="45.59473" lon="6.11307">
        <ele>1444</ele>
        <time>2021-01-16T11:50:47.000Z</time>
      </trkpt>
      <trkpt lat="45.59476" lon="6.11307">
        <ele>1442.4000244141</ele>
        <time>2021-01-16T11:50:48.000Z</time>
      </trkpt>
      <trkpt lat="45.59478" lon="6.11306">
        <ele>1441.1999511719</ele>
        <time>2021-01-16T11:50:49.000Z</time>
      </trkpt>
      <trkpt lat="45.59479" lon="6.11304">
        <ele>1440.4000244141</ele>
        <time>2021-01-16T11:50:50.000Z</time>
      </trkpt>
      <trkpt lat="45.59481" lon="6.11303">
        <ele>1439.5999755859</ele>
        <time>2021-01-16T11:50:51.000Z</time>
      </trkpt>
      <trkpt lat="45.59482" lon="6.11302">
        <ele>1439</ele>
        <time>2021-01-16T11:50:52.000Z</time>
      </trkpt>
      <trkpt lat="45.59483" lon="6.11301">
        <ele>1437.5999755859</ele>
        <time>2021-01-16T11:50:53.000Z</time>
      </trkpt>
      <trkpt lat="45.59483" lon="6.11301">
        <ele>1435.4000244141</ele>
        <time>2021-01-16T11:50:54.000Z</time>
      </trkpt>
      <trkpt lat="45.59483" lon="6.113">
        <ele>1433.4000244141</ele>
        <time>2021-01-16T11:50:55.000Z</time>
      </trkpt>
      <trkpt lat="45.59485" lon="6.11299">
        <ele>1432.1999511719</ele>
        <time>2021-01-16T11:50:56.000Z</time>
      </trkpt>
      <trkpt lat="45.59487" lon="6.11296">
        <ele>1430.8000488281</ele>
        <time>2021-01-16T11:50:58.000Z</time>
      </trkpt>
      <trkpt lat="45.59489" lon="6.11295">
        <ele>1430.5999755859</ele>
        <time>2021-01-16T11:50:59.000Z</time>
      </trkpt>
      <trkpt lat="45.59493" lon="6.11294">
        <ele>1427.5999755859</ele>
        <time>2021-01-16T11:51:01.000Z</time>
      </trkpt>
      <trkpt lat="45.59495" lon="6.11295">
        <ele>1427.1999511719</ele>
        <time>2021-01-16T11:51:02.000Z</time>
      </trkpt>
      <trkpt lat="45.59498" lon="6.11295">
        <ele>1426.4000244141</ele>
        <time>2021-01-16T11:51:03.000Z</time>
      </trkpt>
      <trkpt lat="45.59501" lon="6.11293">
        <ele>1425</ele>
        <time>2021-01-16T11:51:05.000Z</time>
      </trkpt>
      <trkpt lat="45.595" lon="6.11292">
        <ele>1423.5999755859</ele>
        <time>2021-01-16T11:51:06.000Z</time>
      </trkpt>
      <trkpt lat="45.595" lon="6.11291">
        <ele>1422.4000244141</ele>
        <time>2021-01-16T11:51:07.000Z</time>
      </trkpt>
      <trkpt lat="45.595" lon="6.11289">
        <ele>1421.1999511719</ele>
        <time>2021-01-16T11:51:09.000Z</time>
      </trkpt>
      <trkpt lat="45.59501" lon="6.11288">
        <ele>1420.5999755859</ele>
        <time>2021-01-16T11:51:10.000Z</time>
      </trkpt>
      <trkpt lat="45.59503" lon="6.11287">
        <ele>1419.4000244141</ele>
        <time>2021-01-16T11:51:11.000Z</time>
      </trkpt>
      <trkpt lat="45.59505" lon="6.11288">
        <ele>1418</ele>
        <time>2021-01-16T11:51:12.000Z</time>
      </trkpt>
      <trkpt lat="45.59507" lon="6.11289">
        <ele>1416.4000244141</ele>
        <time>2021-01-16T11:51:13.000Z</time>
      </trkpt>
      <trkpt lat="45.59508" lon="6.11289">
        <ele>1415.4000244141</ele>
        <time>2021-01-16T11:51:14.000Z</time>
      </trkpt>
      <trkpt lat="45.59508" lon="6.11288">
        <ele>1414.8000488281</ele>
        <time>2021-01-16T11:51:15.000Z</time>
      </trkpt>
      <trkpt lat="45.59509" lon="6.11287">
        <ele>1413.4000244141</ele>
        <time>2021-01-16T11:51:17.000Z</time>
      </trkpt>
      <trkpt lat="45.59513" lon="6.11286">
        <ele>1411.8000488281</ele>
        <time>2021-01-16T11:51:20.000Z</time>
      </trkpt>
      <trkpt lat="45.59514" lon="6.11284">
        <ele>1410.5999755859</ele>
        <time>2021-01-16T11:51:22.000Z</time>
      </trkpt>
      <trkpt lat="45.59511" lon="6.11285">
        <ele>1409.8000488281</ele>
        <time>2021-01-16T11:51:37.000Z</time>
      </trkpt>
      <trkpt lat="45.59507" lon="6.11283">
        <ele>1409.8000488281</ele>
        <time>2021-01-16T11:51:55.000Z</time>
      </trkpt>
      <trkpt lat="45.59507" lon="6.11283">
        <ele>1410</ele>
        <time>2021-01-16T11:52:13.000Z</time>
      </trkpt>
      <trkpt lat="45.59507" lon="6.11283">
        <ele>1410</ele>
        <time>2021-01-16T11:52:28.000Z</time>
      </trkpt>
      <trkpt lat="45.59507" lon="6.11283">
        <ele>1410</ele>
        <time>2021-01-16T11:52:42.000Z</time>
      </trkpt>
      <trkpt lat="45.59507" lon="6.11283">
        <ele>1410</ele>
        <time>2021-01-16T11:53:02.000Z</time>
      </trkpt>
      <trkpt lat="45.59506" lon="6.11285">
        <ele>1410</ele>
        <time>2021-01-16T11:53:11.000Z</time>
      </trkpt>
      <trkpt lat="45.59508" lon="6.11284">
        <ele>1409.8000488281</ele>
        <time>2021-01-16T11:53:12.000Z</time>
      </trkpt>
      <trkpt lat="45.5951" lon="6.11284">
        <ele>1409.4000244141</ele>
        <time>2021-01-16T11:53:13.000Z</time>
      </trkpt>
      <trkpt lat="45.59512" lon="6.11279">
        <ele>1408.1999511719</ele>
        <time>2021-01-16T11:53:15.000Z</time>
      </trkpt>
      <trkpt lat="45.59514" lon="6.11276">
        <ele>1407.8000488281</ele>
        <time>2021-01-16T11:53:16.000Z</time>
      </trkpt>
      <trkpt lat="45.5952" lon="6.11272">
        <ele>1406.8000488281</ele>
        <time>2021-01-16T11:53:18.000Z</time>
      </trkpt>
      <trkpt lat="45.59523" lon="6.11272">
        <ele>1405.5999755859</ele>
        <time>2021-01-16T11:53:19.000Z</time>
      </trkpt>
      <trkpt lat="45.59525" lon="6.11271">
        <ele>1403.8000488281</ele>
        <time>2021-01-16T11:53:20.000Z</time>
      </trkpt>
      <trkpt lat="45.59526" lon="6.11267">
        <ele>1401.8000488281</ele>
        <time>2021-01-16T11:53:21.000Z</time>
      </trkpt>
      <trkpt lat="45.59526" lon="6.11264">
        <ele>1400.4000244141</ele>
        <time>2021-01-16T11:53:22.000Z</time>
      </trkpt>
      <trkpt lat="45.59527" lon="6.11262">
        <ele>1399.5999755859</ele>
        <time>2021-01-16T11:53:23.000Z</time>
      </trkpt>
      <trkpt lat="45.59529" lon="6.1126">
        <ele>1399.1999511719</ele>
        <time>2021-01-16T11:53:24.000Z</time>
      </trkpt>
      <trkpt lat="45.59534" lon="6.11258">
        <ele>1394.8000488281</ele>
        <time>2021-01-16T11:53:26.000Z</time>
      </trkpt>
      <trkpt lat="45.59535" lon="6.11257">
        <ele>1393.5999755859</ele>
        <time>2021-01-16T11:53:27.000Z</time>
      </trkpt>
      <trkpt lat="45.59536" lon="6.11254">
        <ele>1392</ele>
        <time>2021-01-16T11:53:28.000Z</time>
      </trkpt>
      <trkpt lat="45.59538" lon="6.11251">
        <ele>1390.1999511719</ele>
        <time>2021-01-16T11:53:29.000Z</time>
      </trkpt>
      <trkpt lat="45.59541" lon="6.11249">
        <ele>1388.1999511719</ele>
        <time>2021-01-16T11:53:30.000Z</time>
      </trkpt>
      <trkpt lat="45.59543" lon="6.11248">
        <ele>1387.1999511719</ele>
        <time>2021-01-16T11:53:31.000Z</time>
      </trkpt>
      <trkpt lat="45.59545" lon="6.11247">
        <ele>1386.1999511719</ele>
        <time>2021-01-16T11:53:32.000Z</time>
      </trkpt>
      <trkpt lat="45.59548" lon="6.11242">
        <ele>1385</ele>
        <time>2021-01-16T11:53:34.000Z</time>
      </trkpt>
      <trkpt lat="45.59551" lon="6.11241">
        <ele>1383.5999755859</ele>
        <time>2021-01-16T11:53:35.000Z</time>
      </trkpt>
      <trkpt lat="45.59554" lon="6.11238">
        <ele>1381.1999511719</ele>
        <time>2021-01-16T11:53:36.000Z</time>
      </trkpt>
      <trkpt lat="45.59555" lon="6.11236">
        <ele>1380</ele>
        <time>2021-01-16T11:53:37.000Z</time>
      </trkpt>
      <trkpt lat="45.59556" lon="6.11233">
        <ele>1377.5999755859</ele>
        <time>2021-01-16T11:53:38.000Z</time>
      </trkpt>
      <trkpt lat="45.59558" lon="6.11229">
        <ele>1375.8000488281</ele>
        <time>2021-01-16T11:53:39.000Z</time>
      </trkpt>
      <trkpt lat="45.59559" lon="6.11226">
        <ele>1374</ele>
        <time>2021-01-16T11:53:40.000Z</time>
      </trkpt>
      <trkpt lat="45.5956" lon="6.11224">
        <ele>1372.5999755859</ele>
        <time>2021-01-16T11:53:41.000Z</time>
      </trkpt>
      <trkpt lat="45.59559" lon="6.11224">
        <ele>1371</ele>
        <time>2021-01-16T11:53:42.000Z</time>
      </trkpt>
      <trkpt lat="45.5956" lon="6.11223">
        <ele>1369.5999755859</ele>
        <time>2021-01-16T11:53:43.000Z</time>
      </trkpt>
      <trkpt lat="45.59561" lon="6.11223">
        <ele>1368.4000244141</ele>
        <time>2021-01-16T11:53:44.000Z</time>
      </trkpt>
      <trkpt lat="45.59563" lon="6.11223">
        <ele>1367.1999511719</ele>
        <time>2021-01-16T11:53:45.000Z</time>
      </trkpt>
      <trkpt lat="45.59564" lon="6.11221">
        <ele>1366</ele>
        <time>2021-01-16T11:53:46.000Z</time>
      </trkpt>
      <trkpt lat="45.59564" lon="6.11221">
        <ele>1365</ele>
        <time>2021-01-16T11:53:47.000Z</time>
      </trkpt>
      <trkpt lat="45.59564" lon="6.11221">
        <ele>1362.4000244141</ele>
        <time>2021-01-16T11:53:49.000Z</time>
      </trkpt>
      <trkpt lat="45.59564" lon="6.11221">
        <ele>1361</ele>
        <time>2021-01-16T11:53:51.000Z</time>
      </trkpt>
      <trkpt lat="45.59564" lon="6.11221">
        <ele>1360.1999511719</ele>
        <time>2021-01-16T11:54:01.000Z</time>
      </trkpt>
      <trkpt lat="45.59564" lon="6.11221">
        <ele>1360.4000244141</ele>
        <time>2021-01-16T11:54:12.000Z</time>
      </trkpt>
      <trkpt lat="45.59565" lon="6.11221">
        <ele>1360.4000244141</ele>
        <time>2021-01-16T11:54:27.000Z</time>
      </trkpt>
      <trkpt lat="45.59568" lon="6.11216">
        <ele>1360.4000244141</ele>
        <time>2021-01-16T11:54:39.000Z</time>
      </trkpt>
      <trkpt lat="45.59568" lon="6.11215">
        <ele>1360</ele>
        <time>2021-01-16T11:54:48.000Z</time>
      </trkpt>
      <trkpt lat="45.59568" lon="6.11215">
        <ele>1359.8000488281</ele>
        <time>2021-01-16T11:54:50.000Z</time>
      </trkpt>
      <trkpt lat="45.59568" lon="6.11215">
        <ele>1360.1999511719</ele>
        <time>2021-01-16T11:55:04.000Z</time>
      </trkpt>
      <trkpt lat="45.59568" lon="6.11215">
        <ele>1360.1999511719</ele>
        <time>2021-01-16T11:55:06.000Z</time>
      </trkpt>
      <trkpt lat="45.59569" lon="6.1121">
        <ele>1360.4000244141</ele>
        <time>2021-01-16T11:55:10.000Z</time>
      </trkpt>
      <trkpt lat="45.59571" lon="6.1121">
        <ele>1358.8000488281</ele>
        <time>2021-01-16T11:55:12.000Z</time>
      </trkpt>
      <trkpt lat="45.59572" lon="6.11208">
        <ele>1358.1999511719</ele>
        <time>2021-01-16T11:55:13.000Z</time>
      </trkpt>
      <trkpt lat="45.59572" lon="6.11205">
        <ele>1358</ele>
        <time>2021-01-16T11:55:14.000Z</time>
      </trkpt>
      <trkpt lat="45.59573" lon="6.11202">
        <ele>1357</ele>
        <time>2021-01-16T11:55:15.000Z</time>
      </trkpt>
      <trkpt lat="45.59575" lon="6.112">
        <ele>1356</ele>
        <time>2021-01-16T11:55:16.000Z</time>
      </trkpt>
      <trkpt lat="45.59581" lon="6.11198">
        <ele>1355</ele>
        <time>2021-01-16T11:55:18.000Z</time>
      </trkpt>
      <trkpt lat="45.59584" lon="6.11196">
        <ele>1353.5999755859</ele>
        <time>2021-01-16T11:55:19.000Z</time>
      </trkpt>
      <trkpt lat="45.59588" lon="6.11195">
        <ele>1352</ele>
        <time>2021-01-16T11:55:20.000Z</time>
      </trkpt>
      <trkpt lat="45.59591" lon="6.11195">
        <ele>1350.1999511719</ele>
        <time>2021-01-16T11:55:21.000Z</time>
      </trkpt>
      <trkpt lat="45.59595" lon="6.11194">
        <ele>1348.4000244141</ele>
        <time>2021-01-16T11:55:22.000Z</time>
      </trkpt>
      <trkpt lat="45.596" lon="6.11194">
        <ele>1346.5999755859</ele>
        <time>2021-01-16T11:55:23.000Z</time>
      </trkpt>
      <trkpt lat="45.59603" lon="6.11195">
        <ele>1344.8000488281</ele>
        <time>2021-01-16T11:55:24.000Z</time>
      </trkpt>
      <trkpt lat="45.59606" lon="6.11195">
        <ele>1343</ele>
        <time>2021-01-16T11:55:25.000Z</time>
      </trkpt>
      <trkpt lat="45.59609" lon="6.11196">
        <ele>1339.5999755859</ele>
        <time>2021-01-16T11:55:26.000Z</time>
      </trkpt>
      <trkpt lat="45.5961" lon="6.11197">
        <ele>1338.8000488281</ele>
        <time>2021-01-16T11:55:27.000Z</time>
      </trkpt>
      <trkpt lat="45.5961" lon="6.11197">
        <ele>1338.4000244141</ele>
        <time>2021-01-16T11:55:28.000Z</time>
      </trkpt>
      <trkpt lat="45.59613" lon="6.11193">
        <ele>1338.4000244141</ele>
        <time>2021-01-16T11:55:31.000Z</time>
      </trkpt>
      <trkpt lat="45.59612" lon="6.11187">
        <ele>1337.1999511719</ele>
        <time>2021-01-16T11:55:34.000Z</time>
      </trkpt>
      <trkpt lat="45.59614" lon="6.11185">
        <ele>1335</ele>
        <time>2021-01-16T11:55:35.000Z</time>
      </trkpt>
      <trkpt lat="45.59615" lon="6.11184">
        <ele>1332</ele>
        <time>2021-01-16T11:55:36.000Z</time>
      </trkpt>
      <trkpt lat="45.59617" lon="6.11182">
        <ele>1329.8000488281</ele>
        <time>2021-01-16T11:55:37.000Z</time>
      </trkpt>
      <trkpt lat="45.59619" lon="6.1118">
        <ele>1328.4000244141</ele>
        <time>2021-01-16T11:55:38.000Z</time>
      </trkpt>
      <trkpt lat="45.59621" lon="6.11179">
        <ele>1327.4000244141</ele>
        <time>2021-01-16T11:55:39.000Z</time>
      </trkpt>
      <trkpt lat="45.59625" lon="6.11177">
        <ele>1325.8000488281</ele>
        <time>2021-01-16T11:55:41.000Z</time>
      </trkpt>
      <trkpt lat="45.59624" lon="6.11178">
        <ele>1324.5999755859</ele>
        <time>2021-01-16T11:55:43.000Z</time>
      </trkpt>
      <trkpt lat="45.59624" lon="6.11177">
        <ele>1323.4000244141</ele>
        <time>2021-01-16T11:55:46.000Z</time>
      </trkpt>
      <trkpt lat="45.59627" lon="6.11176">
        <ele>1323.1999511719</ele>
        <time>2021-01-16T11:55:47.000Z</time>
      </trkpt>
      <trkpt lat="45.59631" lon="6.11174">
        <ele>1323</ele>
        <time>2021-01-16T11:55:48.000Z</time>
      </trkpt>
      <trkpt lat="45.59636" lon="6.11173">
        <ele>1321.4000244141</ele>
        <time>2021-01-16T11:55:50.000Z</time>
      </trkpt>
      <trkpt lat="45.59636" lon="6.11174">
        <ele>1320</ele>
        <time>2021-01-16T11:55:51.000Z</time>
      </trkpt>
      <trkpt lat="45.59636" lon="6.11174">
        <ele>1318.4000244141</ele>
        <time>2021-01-16T11:55:52.000Z</time>
      </trkpt>
      <trkpt lat="45.59636" lon="6.11173">
        <ele>1317</ele>
        <time>2021-01-16T11:55:54.000Z</time>
      </trkpt>
      <trkpt lat="45.59637" lon="6.11173">
        <ele>1316.8000488281</ele>
        <time>2021-01-16T11:55:55.000Z</time>
      </trkpt>
      <trkpt lat="45.59636" lon="6.11174">
        <ele>1316</ele>
        <time>2021-01-16T11:55:57.000Z</time>
      </trkpt>
      <trkpt lat="45.59635" lon="6.11178">
        <ele>1314.8000488281</ele>
        <time>2021-01-16T11:56:01.000Z</time>
      </trkpt>
      <trkpt lat="45.59634" lon="6.11178">
        <ele>1314.5999755859</ele>
        <time>2021-01-16T11:56:02.000Z</time>
      </trkpt>
      <trkpt lat="45.59634" lon="6.11174">
        <ele>1314.1999511719</ele>
        <time>2021-01-16T11:56:04.000Z</time>
      </trkpt>
      <trkpt lat="45.59632" lon="6.1117">
        <ele>1313.8000488281</ele>
        <time>2021-01-16T11:56:06.000Z</time>
      </trkpt>
      <trkpt lat="45.59632" lon="6.11169">
        <ele>1313.5999755859</ele>
        <time>2021-01-16T11:56:07.000Z</time>
      </trkpt>
      <trkpt lat="45.5963" lon="6.11167">
        <ele>1312.4000244141</ele>
        <time>2021-01-16T11:56:09.000Z</time>
      </trkpt>
      <trkpt lat="45.59629" lon="6.11164">
        <ele>1310.5999755859</ele>
        <time>2021-01-16T11:56:11.000Z</time>
      </trkpt>
      <trkpt lat="45.5963" lon="6.11159">
        <ele>1309.1999511719</ele>
        <time>2021-01-16T11:56:14.000Z</time>
      </trkpt>
      <trkpt lat="45.59632" lon="6.11158">
        <ele>1309</ele>
        <time>2021-01-16T11:56:15.000Z</time>
      </trkpt>
      <trkpt lat="45.59635" lon="6.11157">
        <ele>1308.1999511719</ele>
        <time>2021-01-16T11:56:17.000Z</time>
      </trkpt>
      <trkpt lat="45.59638" lon="6.11157">
        <ele>1307.1999511719</ele>
        <time>2021-01-16T11:56:19.000Z</time>
      </trkpt>
      <trkpt lat="45.59639" lon="6.11155">
        <ele>1306.5999755859</ele>
        <time>2021-01-16T11:56:20.000Z</time>
      </trkpt>
      <trkpt lat="45.59641" lon="6.11152">
        <ele>1306</ele>
        <time>2021-01-16T11:56:21.000Z</time>
      </trkpt>
      <trkpt lat="45.59643" lon="6.1115">
        <ele>1305.4000244141</ele>
        <time>2021-01-16T11:56:22.000Z</time>
      </trkpt>
      <trkpt lat="45.59649" lon="6.11147">
        <ele>1303.1999511719</ele>
        <time>2021-01-16T11:56:24.000Z</time>
      </trkpt>
      <trkpt lat="45.5965" lon="6.11143">
        <ele>1301.5999755859</ele>
        <time>2021-01-16T11:56:25.000Z</time>
      </trkpt>
      <trkpt lat="45.59653" lon="6.11139">
        <ele>1300.1999511719</ele>
        <time>2021-01-16T11:56:26.000Z</time>
      </trkpt>
      <trkpt lat="45.59656" lon="6.11135">
        <ele>1298.8000488281</ele>
        <time>2021-01-16T11:56:27.000Z</time>
      </trkpt>
      <trkpt lat="45.59661" lon="6.11132">
        <ele>1297.4000244141</ele>
        <time>2021-01-16T11:56:28.000Z</time>
      </trkpt>
      <trkpt lat="45.59665" lon="6.11131">
        <ele>1295.5999755859</ele>
        <time>2021-01-16T11:56:29.000Z</time>
      </trkpt>
      <trkpt lat="45.59668" lon="6.1113">
        <ele>1294</ele>
        <time>2021-01-16T11:56:30.000Z</time>
      </trkpt>
      <trkpt lat="45.5967" lon="6.1113">
        <ele>1293</ele>
        <time>2021-01-16T11:56:31.000Z</time>
      </trkpt>
      <trkpt lat="45.59671" lon="6.1113">
        <ele>1292.1999511719</ele>
        <time>2021-01-16T11:56:32.000Z</time>
      </trkpt>
      <trkpt lat="45.59673" lon="6.11129">
        <ele>1291.1999511719</ele>
        <time>2021-01-16T11:56:33.000Z</time>
      </trkpt>
      <trkpt lat="45.59674" lon="6.11127">
        <ele>1290</ele>
        <time>2021-01-16T11:56:34.000Z</time>
      </trkpt>
      <trkpt lat="45.59675" lon="6.11124">
        <ele>1289</ele>
        <time>2021-01-16T11:56:35.000Z</time>
      </trkpt>
      <trkpt lat="45.59676" lon="6.11121">
        <ele>1287.8000488281</ele>
        <time>2021-01-16T11:56:36.000Z</time>
      </trkpt>
      <trkpt lat="45.59677" lon="6.11118">
        <ele>1286.5999755859</ele>
        <time>2021-01-16T11:56:37.000Z</time>
      </trkpt>
      <trkpt lat="45.59679" lon="6.11117">
        <ele>1284.4000244141</ele>
        <time>2021-01-16T11:56:38.000Z</time>
      </trkpt>
      <trkpt lat="45.5968" lon="6.11116">
        <ele>1283</ele>
        <time>2021-01-16T11:56:39.000Z</time>
      </trkpt>
      <trkpt lat="45.59682" lon="6.11115">
        <ele>1282</ele>
        <time>2021-01-16T11:56:40.000Z</time>
      </trkpt>
      <trkpt lat="45.59688" lon="6.11114">
        <ele>1280.8000488281</ele>
        <time>2021-01-16T11:56:42.000Z</time>
      </trkpt>
      <trkpt lat="45.59692" lon="6.11114">
        <ele>1280.4000244141</ele>
        <time>2021-01-16T11:56:43.000Z</time>
      </trkpt>
      <trkpt lat="45.59695" lon="6.11113">
        <ele>1279.4000244141</ele>
        <time>2021-01-16T11:56:44.000Z</time>
      </trkpt>
      <trkpt lat="45.59697" lon="6.11111">
        <ele>1278.1999511719</ele>
        <time>2021-01-16T11:56:45.000Z</time>
      </trkpt>
      <trkpt lat="45.59698" lon="6.11108">
        <ele>1277.4000244141</ele>
        <time>2021-01-16T11:56:46.000Z</time>
      </trkpt>
      <trkpt lat="45.59697" lon="6.11106">
        <ele>1276.5999755859</ele>
        <time>2021-01-16T11:56:47.000Z</time>
      </trkpt>
      <trkpt lat="45.59696" lon="6.11104">
        <ele>1275.1999511719</ele>
        <time>2021-01-16T11:56:49.000Z</time>
      </trkpt>
      <trkpt lat="45.59695" lon="6.11103">
        <ele>1274</ele>
        <time>2021-01-16T11:56:50.000Z</time>
      </trkpt>
      <trkpt lat="45.59695" lon="6.11102">
        <ele>1272.4000244141</ele>
        <time>2021-01-16T11:56:51.000Z</time>
      </trkpt>
      <trkpt lat="45.59695" lon="6.11101">
        <ele>1271.4000244141</ele>
        <time>2021-01-16T11:56:52.000Z</time>
      </trkpt>
      <trkpt lat="45.5969" lon="6.11097">
        <ele>1270.4000244141</ele>
        <time>2021-01-16T11:56:54.000Z</time>
      </trkpt>
      <trkpt lat="45.59688" lon="6.11096">
        <ele>1270</ele>
        <time>2021-01-16T11:56:55.000Z</time>
      </trkpt>
      <trkpt lat="45.59685" lon="6.11093">
        <ele>1269.1999511719</ele>
        <time>2021-01-16T11:56:57.000Z</time>
      </trkpt>
      <trkpt lat="45.59681" lon="6.11089">
        <ele>1267.8000488281</ele>
        <time>2021-01-16T11:56:59.000Z</time>
      </trkpt>
      <trkpt lat="45.59681" lon="6.11088">
        <ele>1266.4000244141</ele>
        <time>2021-01-16T11:57:01.000Z</time>
      </trkpt>
      <trkpt lat="45.59684" lon="6.11087">
        <ele>1265.5999755859</ele>
        <time>2021-01-16T11:57:02.000Z</time>
      </trkpt>
      <trkpt lat="45.59686" lon="6.11087">
        <ele>1265</ele>
        <time>2021-01-16T11:57:03.000Z</time>
      </trkpt>
      <trkpt lat="45.59693" lon="6.11088">
        <ele>1264</ele>
        <time>2021-01-16T11:57:05.000Z</time>
      </trkpt>
      <trkpt lat="45.59697" lon="6.11089">
        <ele>1263.5999755859</ele>
        <time>2021-01-16T11:57:06.000Z</time>
      </trkpt>
      <trkpt lat="45.59705" lon="6.11088">
        <ele>1262.5999755859</ele>
        <time>2021-01-16T11:57:08.000Z</time>
      </trkpt>
      <trkpt lat="45.59709" lon="6.11089">
        <ele>1261.1999511719</ele>
        <time>2021-01-16T11:57:10.000Z</time>
      </trkpt>
      <trkpt lat="45.5971" lon="6.1109">
        <ele>1260.1999511719</ele>
        <time>2021-01-16T11:57:12.000Z</time>
      </trkpt>
      <trkpt lat="45.5971" lon="6.11091">
        <ele>1259</ele>
        <time>2021-01-16T11:57:14.000Z</time>
      </trkpt>
      <trkpt lat="45.5971" lon="6.11091">
        <ele>1258</ele>
        <time>2021-01-16T11:57:16.000Z</time>
      </trkpt>
      <trkpt lat="45.5971" lon="6.11091">
        <ele>1258</ele>
        <time>2021-01-16T11:57:17.000Z</time>
      </trkpt>
      <trkpt lat="45.5971" lon="6.11091">
        <ele>1257.8000488281</ele>
        <time>2021-01-16T11:57:29.000Z</time>
      </trkpt>
      <trkpt lat="45.59714" lon="6.11089">
        <ele>1257.4000244141</ele>
        <time>2021-01-16T11:57:36.000Z</time>
      </trkpt>
      <trkpt lat="45.5972" lon="6.11089">
        <ele>1256.5999755859</ele>
        <time>2021-01-16T11:57:38.000Z</time>
      </trkpt>
      <trkpt lat="45.59724" lon="6.11089">
        <ele>1255.5999755859</ele>
        <time>2021-01-16T11:57:39.000Z</time>
      </trkpt>
      <trkpt lat="45.59726" lon="6.11087">
        <ele>1254.5999755859</ele>
        <time>2021-01-16T11:57:40.000Z</time>
      </trkpt>
      <trkpt lat="45.59726" lon="6.11083">
        <ele>1253.5999755859</ele>
        <time>2021-01-16T11:57:41.000Z</time>
      </trkpt>
      <trkpt lat="45.59728" lon="6.11077">
        <ele>1252</ele>
        <time>2021-01-16T11:57:43.000Z</time>
      </trkpt>
      <trkpt lat="45.59731" lon="6.11076">
        <ele>1251.1999511719</ele>
        <time>2021-01-16T11:57:44.000Z</time>
      </trkpt>
      <trkpt lat="45.59733" lon="6.11075">
        <ele>1249</ele>
        <time>2021-01-16T11:57:45.000Z</time>
      </trkpt>
      <trkpt lat="45.59736" lon="6.11074">
        <ele>1245.5999755859</ele>
        <time>2021-01-16T11:57:46.000Z</time>
      </trkpt>
      <trkpt lat="45.59738" lon="6.11071">
        <ele>1243.1999511719</ele>
        <time>2021-01-16T11:57:47.000Z</time>
      </trkpt>
      <trkpt lat="45.59741" lon="6.11068">
        <ele>1241.8000488281</ele>
        <time>2021-01-16T11:57:48.000Z</time>
      </trkpt>
      <trkpt lat="45.59744" lon="6.11065">
        <ele>1240.5999755859</ele>
        <time>2021-01-16T11:57:49.000Z</time>
      </trkpt>
      <trkpt lat="45.59747" lon="6.11063">
        <ele>1238.1999511719</ele>
        <time>2021-01-16T11:57:50.000Z</time>
      </trkpt>
      <trkpt lat="45.5975" lon="6.11059">
        <ele>1237.4000244141</ele>
        <time>2021-01-16T11:57:51.000Z</time>
      </trkpt>
      <trkpt lat="45.59752" lon="6.11054">
        <ele>1236.1999511719</ele>
        <time>2021-01-16T11:57:52.000Z</time>
      </trkpt>
      <trkpt lat="45.59759" lon="6.11047">
        <ele>1234.1999511719</ele>
        <time>2021-01-16T11:57:54.000Z</time>
      </trkpt>
      <trkpt lat="45.59762" lon="6.11042">
        <ele>1231.5999755859</ele>
        <time>2021-01-16T11:57:55.000Z</time>
      </trkpt>
      <trkpt lat="45.59765" lon="6.11038">
        <ele>1229</ele>
        <time>2021-01-16T11:57:56.000Z</time>
      </trkpt>
      <trkpt lat="45.59768" lon="6.11034">
        <ele>1227.4000244141</ele>
        <time>2021-01-16T11:57:57.000Z</time>
      </trkpt>
      <trkpt lat="45.59772" lon="6.11031">
        <ele>1226.4000244141</ele>
        <time>2021-01-16T11:57:58.000Z</time>
      </trkpt>
      <trkpt lat="45.59775" lon="6.11027">
        <ele>1225.1999511719</ele>
        <time>2021-01-16T11:57:59.000Z</time>
      </trkpt>
      <trkpt lat="45.59779" lon="6.11022">
        <ele>1223.8000488281</ele>
        <time>2021-01-16T11:58:00.000Z</time>
      </trkpt>
      <trkpt lat="45.59785" lon="6.11015">
        <ele>1222.4000244141</ele>
        <time>2021-01-16T11:58:01.000Z</time>
      </trkpt>
      <trkpt lat="45.59792" lon="6.11008">
        <ele>1221.1999511719</ele>
        <time>2021-01-16T11:58:02.000Z</time>
      </trkpt>
      <trkpt lat="45.59797" lon="6.11003">
        <ele>1219.5999755859</ele>
        <time>2021-01-16T11:58:03.000Z</time>
      </trkpt>
      <trkpt lat="45.59802" lon="6.10999">
        <ele>1217.5999755859</ele>
        <time>2021-01-16T11:58:04.000Z</time>
      </trkpt>
      <trkpt lat="45.59805" lon="6.10995">
        <ele>1215.4000244141</ele>
        <time>2021-01-16T11:58:05.000Z</time>
      </trkpt>
      <trkpt lat="45.59809" lon="6.1099">
        <ele>1213</ele>
        <time>2021-01-16T11:58:06.000Z</time>
      </trkpt>
      <trkpt lat="45.59813" lon="6.10985">
        <ele>1210.5999755859</ele>
        <time>2021-01-16T11:58:07.000Z</time>
      </trkpt>
      <trkpt lat="45.59816" lon="6.10982">
        <ele>1208.5999755859</ele>
        <time>2021-01-16T11:58:08.000Z</time>
      </trkpt>
      <trkpt lat="45.59818" lon="6.10979">
        <ele>1207.1999511719</ele>
        <time>2021-01-16T11:58:09.000Z</time>
      </trkpt>
      <trkpt lat="45.59819" lon="6.10979">
        <ele>1206</ele>
        <time>2021-01-16T11:58:10.000Z</time>
      </trkpt>
      <trkpt lat="45.59819" lon="6.10979">
        <ele>1204.8000488281</ele>
        <time>2021-01-16T11:58:11.000Z</time>
      </trkpt>
      <trkpt lat="45.5982" lon="6.1098">
        <ele>1203.5999755859</ele>
        <time>2021-01-16T11:58:12.000Z</time>
      </trkpt>
      <trkpt lat="45.5982" lon="6.10982">
        <ele>1202.1999511719</ele>
        <time>2021-01-16T11:58:14.000Z</time>
      </trkpt>
      <trkpt lat="45.5982" lon="6.10982">
        <ele>1201.8000488281</ele>
        <time>2021-01-16T11:58:21.000Z</time>
      </trkpt>
      <trkpt lat="45.5982" lon="6.10982">
        <ele>1201.8000488281</ele>
        <time>2021-01-16T11:58:32.000Z</time>
      </trkpt>
      <trkpt lat="45.59823" lon="6.10981">
        <ele>1201.8000488281</ele>
        <time>2021-01-16T11:58:43.000Z</time>
      </trkpt>
      <trkpt lat="45.59832" lon="6.10982">
        <ele>1201.1999511719</ele>
        <time>2021-01-16T11:58:47.000Z</time>
      </trkpt>
      <trkpt lat="45.59834" lon="6.1098">
        <ele>1201</ele>
        <time>2021-01-16T11:58:48.000Z</time>
      </trkpt>
      <trkpt lat="45.59836" lon="6.10977">
        <ele>1200</ele>
        <time>2021-01-16T11:58:50.000Z</time>
      </trkpt>
      <trkpt lat="45.5984" lon="6.10975">
        <ele>1199.5999755859</ele>
        <time>2021-01-16T11:58:51.000Z</time>
      </trkpt>
      <trkpt lat="45.59851" lon="6.10968">
        <ele>1197</ele>
        <time>2021-01-16T11:58:53.000Z</time>
      </trkpt>
      <trkpt lat="45.59856" lon="6.10964">
        <ele>1194.8000488281</ele>
        <time>2021-01-16T11:58:54.000Z</time>
      </trkpt>
      <trkpt lat="45.59861" lon="6.10958">
        <ele>1193.1999511719</ele>
        <time>2021-01-16T11:58:55.000Z</time>
      </trkpt>
      <trkpt lat="45.59866" lon="6.10954">
        <ele>1192</ele>
        <time>2021-01-16T11:58:56.000Z</time>
      </trkpt>
      <trkpt lat="45.5987" lon="6.10951">
        <ele>1190.8000488281</ele>
        <time>2021-01-16T11:58:57.000Z</time>
      </trkpt>
      <trkpt lat="45.59874" lon="6.10949">
        <ele>1189.4000244141</ele>
        <time>2021-01-16T11:58:58.000Z</time>
      </trkpt>
      <trkpt lat="45.59877" lon="6.10947">
        <ele>1187.8000488281</ele>
        <time>2021-01-16T11:58:59.000Z</time>
      </trkpt>
      <trkpt lat="45.5988" lon="6.10945">
        <ele>1186</ele>
        <time>2021-01-16T11:59:00.000Z</time>
      </trkpt>
      <trkpt lat="45.59882" lon="6.10943">
        <ele>1184.4000244141</ele>
        <time>2021-01-16T11:59:01.000Z</time>
      </trkpt>
      <trkpt lat="45.59883" lon="6.10939">
        <ele>1182.1999511719</ele>
        <time>2021-01-16T11:59:02.000Z</time>
      </trkpt>
      <trkpt lat="45.59884" lon="6.10936">
        <ele>1181.1999511719</ele>
        <time>2021-01-16T11:59:03.000Z</time>
      </trkpt>
      <trkpt lat="45.59884" lon="6.10933">
        <ele>1180</ele>
        <time>2021-01-16T11:59:04.000Z</time>
      </trkpt>
      <trkpt lat="45.59885" lon="6.1093">
        <ele>1178.8000488281</ele>
        <time>2021-01-16T11:59:05.000Z</time>
      </trkpt>
      <trkpt lat="45.59887" lon="6.10927">
        <ele>1177.1999511719</ele>
        <time>2021-01-16T11:59:06.000Z</time>
      </trkpt>
      <trkpt lat="45.5989" lon="6.10922">
        <ele>1175.8000488281</ele>
        <time>2021-01-16T11:59:07.000Z</time>
      </trkpt>
      <trkpt lat="45.59892" lon="6.10916">
        <ele>1174.1999511719</ele>
        <time>2021-01-16T11:59:08.000Z</time>
      </trkpt>
      <trkpt lat="45.59897" lon="6.10911">
        <ele>1173.1999511719</ele>
        <time>2021-01-16T11:59:09.000Z</time>
      </trkpt>
      <trkpt lat="45.59905" lon="6.109">
        <ele>1171</ele>
        <time>2021-01-16T11:59:11.000Z</time>
      </trkpt>
      <trkpt lat="45.59908" lon="6.10896">
        <ele>1169.1999511719</ele>
        <time>2021-01-16T11:59:12.000Z</time>
      </trkpt>
      <trkpt lat="45.59911" lon="6.10891">
        <ele>1166.1999511719</ele>
        <time>2021-01-16T11:59:13.000Z</time>
      </trkpt>
      <trkpt lat="45.59915" lon="6.10885">
        <ele>1163.8000488281</ele>
        <time>2021-01-16T11:59:14.000Z</time>
      </trkpt>
      <trkpt lat="45.59919" lon="6.10879">
        <ele>1162</ele>
        <time>2021-01-16T11:59:15.000Z</time>
      </trkpt>
      <trkpt lat="45.59924" lon="6.10876">
        <ele>1160.1999511719</ele>
        <time>2021-01-16T11:59:16.000Z</time>
      </trkpt>
      <trkpt lat="45.59931" lon="6.10873">
        <ele>1158.4000244141</ele>
        <time>2021-01-16T11:59:17.000Z</time>
      </trkpt>
      <trkpt lat="45.59937" lon="6.1087">
        <ele>1156.5999755859</ele>
        <time>2021-01-16T11:59:18.000Z</time>
      </trkpt>
      <trkpt lat="45.59943" lon="6.10866">
        <ele>1155.1999511719</ele>
        <time>2021-01-16T11:59:19.000Z</time>
      </trkpt>
      <trkpt lat="45.59949" lon="6.10863">
        <ele>1152.8000488281</ele>
        <time>2021-01-16T11:59:20.000Z</time>
      </trkpt>
      <trkpt lat="45.59954" lon="6.10858">
        <ele>1150</ele>
        <time>2021-01-16T11:59:21.000Z</time>
      </trkpt>
      <trkpt lat="45.59958" lon="6.10854">
        <ele>1148.4000244141</ele>
        <time>2021-01-16T11:59:22.000Z</time>
      </trkpt>
      <trkpt lat="45.59963" lon="6.10851">
        <ele>1146.4000244141</ele>
        <time>2021-01-16T11:59:23.000Z</time>
      </trkpt>
      <trkpt lat="45.59966" lon="6.10847">
        <ele>1144.5999755859</ele>
        <time>2021-01-16T11:59:24.000Z</time>
      </trkpt>
      <trkpt lat="45.59965" lon="6.10845">
        <ele>1143.1999511719</ele>
        <time>2021-01-16T11:59:25.000Z</time>
      </trkpt>
      <trkpt lat="45.59963" lon="6.10843">
        <ele>1141.4000244141</ele>
        <time>2021-01-16T11:59:26.000Z</time>
      </trkpt>
      <trkpt lat="45.59962" lon="6.10842">
        <ele>1140</ele>
        <time>2021-01-16T11:59:27.000Z</time>
      </trkpt>
      <trkpt lat="45.59961" lon="6.10842">
        <ele>1138.8000488281</ele>
        <time>2021-01-16T11:59:28.000Z</time>
      </trkpt>
      <trkpt lat="45.59959" lon="6.10842">
        <ele>1137.4000244141</ele>
        <time>2021-01-16T11:59:30.000Z</time>
      </trkpt>
      <trkpt lat="45.5996" lon="6.10838">
        <ele>1136.5999755859</ele>
        <time>2021-01-16T11:59:32.000Z</time>
      </trkpt>
      <trkpt lat="45.59961" lon="6.10835">
        <ele>1136.4000244141</ele>
        <time>2021-01-16T11:59:33.000Z</time>
      </trkpt>
      <trkpt lat="45.59965" lon="6.10832">
        <ele>1136.1999511719</ele>
        <time>2021-01-16T11:59:35.000Z</time>
      </trkpt>
      <trkpt lat="45.59971" lon="6.10837">
        <ele>1134.8000488281</ele>
        <time>2021-01-16T11:59:37.000Z</time>
      </trkpt>
      <trkpt lat="45.59974" lon="6.10835">
        <ele>1134.4000244141</ele>
        <time>2021-01-16T11:59:38.000Z</time>
      </trkpt>
      <trkpt lat="45.59977" lon="6.10833">
        <ele>1133.4000244141</ele>
        <time>2021-01-16T11:59:39.000Z</time>
      </trkpt>
      <trkpt lat="45.5998" lon="6.10833">
        <ele>1132</ele>
        <time>2021-01-16T11:59:40.000Z</time>
      </trkpt>
      <trkpt lat="45.59983" lon="6.10835">
        <ele>1130.5999755859</ele>
        <time>2021-01-16T11:59:41.000Z</time>
      </trkpt>
      <trkpt lat="45.59987" lon="6.10835">
        <ele>1130.1999511719</ele>
        <time>2021-01-16T11:59:43.000Z</time>
      </trkpt>
      <trkpt lat="45.59987" lon="6.10836">
        <ele>1129.4000244141</ele>
        <time>2021-01-16T11:59:44.000Z</time>
      </trkpt>
      <trkpt lat="45.59987" lon="6.10836">
        <ele>1128.1999511719</ele>
        <time>2021-01-16T11:59:45.000Z</time>
      </trkpt>
      <trkpt lat="45.59987" lon="6.10836">
        <ele>1127</ele>
        <time>2021-01-16T11:59:46.000Z</time>
      </trkpt>
      <trkpt lat="45.59987" lon="6.10836">
        <ele>1125</ele>
        <time>2021-01-16T11:59:48.000Z</time>
      </trkpt>
      <trkpt lat="45.59987" lon="6.10836">
        <ele>1123.8000488281</ele>
        <time>2021-01-16T11:59:49.000Z</time>
      </trkpt>
      <trkpt lat="45.59987" lon="6.10836">
        <ele>1122.1999511719</ele>
        <time>2021-01-16T11:59:51.000Z</time>
      </trkpt>
      <trkpt lat="45.59987" lon="6.10836">
        <ele>1122</ele>
        <time>2021-01-16T11:59:54.000Z</time>
      </trkpt>
      <trkpt lat="45.59987" lon="6.10836">
        <ele>1122</ele>
        <time>2021-01-16T12:00:13.000Z</time>
      </trkpt>
      <trkpt lat="45.59988" lon="6.10834">
        <ele>1121.8000488281</ele>
        <time>2021-01-16T12:00:18.000Z</time>
      </trkpt>
      <trkpt lat="45.5999" lon="6.10828">
        <ele>1121.8000488281</ele>
        <time>2021-01-16T12:00:20.000Z</time>
      </trkpt>
      <trkpt lat="45.59994" lon="6.10829">
        <ele>1121.1999511719</ele>
        <time>2021-01-16T12:00:22.000Z</time>
      </trkpt>
      <trkpt lat="45.59998" lon="6.10831">
        <ele>1120.1999511719</ele>
        <time>2021-01-16T12:00:23.000Z</time>
      </trkpt>
      <trkpt lat="45.60005" lon="6.10831">
        <ele>1118.8000488281</ele>
        <time>2021-01-16T12:00:25.000Z</time>
      </trkpt>
      <trkpt lat="45.60006" lon="6.10827">
        <ele>1118</ele>
        <time>2021-01-16T12:00:26.000Z</time>
      </trkpt>
      <trkpt lat="45.60008" lon="6.10825">
        <ele>1116.8000488281</ele>
        <time>2021-01-16T12:00:27.000Z</time>
      </trkpt>
      <trkpt lat="45.60013" lon="6.10828">
        <ele>1115.5999755859</ele>
        <time>2021-01-16T12:00:29.000Z</time>
      </trkpt>
      <trkpt lat="45.60014" lon="6.1083">
        <ele>1114.1999511719</ele>
        <time>2021-01-16T12:00:30.000Z</time>
      </trkpt>
      <trkpt lat="45.60017" lon="6.10833">
        <ele>1113</ele>
        <time>2021-01-16T12:00:31.000Z</time>
      </trkpt>
      <trkpt lat="45.60022" lon="6.10833">
        <ele>1112</ele>
        <time>2021-01-16T12:00:32.000Z</time>
      </trkpt>
      <trkpt lat="45.60027" lon="6.10833">
        <ele>1111.4000244141</ele>
        <time>2021-01-16T12:00:33.000Z</time>
      </trkpt>
      <trkpt lat="45.60035" lon="6.10831">
        <ele>1109.5999755859</ele>
        <time>2021-01-16T12:00:35.000Z</time>
      </trkpt>
      <trkpt lat="45.60038" lon="6.10831">
        <ele>1107.8000488281</ele>
        <time>2021-01-16T12:00:36.000Z</time>
      </trkpt>
      <trkpt lat="45.60042" lon="6.1083">
        <ele>1105.8000488281</ele>
        <time>2021-01-16T12:00:37.000Z</time>
      </trkpt>
      <trkpt lat="45.60047" lon="6.10831">
        <ele>1104.1999511719</ele>
        <time>2021-01-16T12:00:38.000Z</time>
      </trkpt>
      <trkpt lat="45.60054" lon="6.10833">
        <ele>1102.4000244141</ele>
        <time>2021-01-16T12:00:39.000Z</time>
      </trkpt>
      <trkpt lat="45.60061" lon="6.10833">
        <ele>1101.4000244141</ele>
        <time>2021-01-16T12:00:40.000Z</time>
      </trkpt>
      <trkpt lat="45.60067" lon="6.1083">
        <ele>1100.1999511719</ele>
        <time>2021-01-16T12:00:41.000Z</time>
      </trkpt>
      <trkpt lat="45.60073" lon="6.10827">
        <ele>1099</ele>
        <time>2021-01-16T12:00:42.000Z</time>
      </trkpt>
      <trkpt lat="45.60078" lon="6.10823">
        <ele>1097.5999755859</ele>
        <time>2021-01-16T12:00:43.000Z</time>
      </trkpt>
      <trkpt lat="45.60084" lon="6.10821">
        <ele>1096</ele>
        <time>2021-01-16T12:00:44.000Z</time>
      </trkpt>
      <trkpt lat="45.60088" lon="6.10818">
        <ele>1094.8000488281</ele>
        <time>2021-01-16T12:00:45.000Z</time>
      </trkpt>
      <trkpt lat="45.6009" lon="6.10815">
        <ele>1093.8000488281</ele>
        <time>2021-01-16T12:00:46.000Z</time>
      </trkpt>
      <trkpt lat="45.60091" lon="6.10813">
        <ele>1093</ele>
        <time>2021-01-16T12:00:47.000Z</time>
      </trkpt>
      <trkpt lat="45.60092" lon="6.10813">
        <ele>1091.8000488281</ele>
        <time>2021-01-16T12:00:48.000Z</time>
      </trkpt>
      <trkpt lat="45.60092" lon="6.10813">
        <ele>1090.5999755859</ele>
        <time>2021-01-16T12:00:50.000Z</time>
      </trkpt>
      <trkpt lat="45.60092" lon="6.10813">
        <ele>1089.4000244141</ele>
        <time>2021-01-16T12:00:55.000Z</time>
      </trkpt>
      <trkpt lat="45.60092" lon="6.10813">
        <ele>1089.1999511719</ele>
        <time>2021-01-16T12:01:02.000Z</time>
      </trkpt>
      <trkpt lat="45.60092" lon="6.10813">
        <ele>1089.1999511719</ele>
        <time>2021-01-16T12:01:11.000Z</time>
      </trkpt>
      <trkpt lat="45.60092" lon="6.10813">
        <ele>1089.1999511719</ele>
        <time>2021-01-16T12:01:12.000Z</time>
      </trkpt>
      <trkpt lat="45.60101" lon="6.10808">
        <ele>1089</ele>
        <time>2021-01-16T12:01:15.000Z</time>
      </trkpt>
      <trkpt lat="45.60105" lon="6.10806">
        <ele>1089</ele>
        <time>2021-01-16T12:01:16.000Z</time>
      </trkpt>
      <trkpt lat="45.6012" lon="6.108">
        <ele>1088</ele>
        <time>2021-01-16T12:01:19.000Z</time>
      </trkpt>
      <trkpt lat="45.6013" lon="6.10797">
        <ele>1087</ele>
        <time>2021-01-16T12:01:21.000Z</time>
      </trkpt>
      <trkpt lat="45.60134" lon="6.10793">
        <ele>1085.8000488281</ele>
        <time>2021-01-16T12:01:23.000Z</time>
      </trkpt>
      <trkpt lat="45.60136" lon="6.10791">
        <ele>1085</ele>
        <time>2021-01-16T12:01:24.000Z</time>
      </trkpt>
      <trkpt lat="45.60139" lon="6.10788">
        <ele>1084</ele>
        <time>2021-01-16T12:01:25.000Z</time>
      </trkpt>
      <trkpt lat="45.60143" lon="6.10786">
        <ele>1082.8000488281</ele>
        <time>2021-01-16T12:01:27.000Z</time>
      </trkpt>
      <trkpt lat="45.60149" lon="6.10786">
        <ele>1082.1999511719</ele>
        <time>2021-01-16T12:01:29.000Z</time>
      </trkpt>
      <trkpt lat="45.60151" lon="6.10788">
        <ele>1081.8000488281</ele>
        <time>2021-01-16T12:01:30.000Z</time>
      </trkpt>
      <trkpt lat="45.60155" lon="6.10789">
        <ele>1080.8000488281</ele>
        <time>2021-01-16T12:01:33.000Z</time>
      </trkpt>
      <trkpt lat="45.60156" lon="6.1079">
        <ele>1079.8000488281</ele>
        <time>2021-01-16T12:01:37.000Z</time>
      </trkpt>
      <trkpt lat="45.60156" lon="6.1079">
        <ele>1079.1999511719</ele>
        <time>2021-01-16T12:01:40.000Z</time>
      </trkpt>
      <trkpt lat="45.60157" lon="6.10791">
        <ele>1079</ele>
        <time>2021-01-16T12:01:49.000Z</time>
      </trkpt>
      <trkpt lat="45.60161" lon="6.10796">
        <ele>1078.4000244141</ele>
        <time>2021-01-16T12:01:51.000Z</time>
      </trkpt>
      <trkpt lat="45.60165" lon="6.10795">
        <ele>1078.4000244141</ele>
        <time>2021-01-16T12:01:52.000Z</time>
      </trkpt>
      <trkpt lat="45.60168" lon="6.10792">
        <ele>1078.1999511719</ele>
        <time>2021-01-16T12:01:53.000Z</time>
      </trkpt>
      <trkpt lat="45.60174" lon="6.10782">
        <ele>1076.8000488281</ele>
        <time>2021-01-16T12:01:56.000Z</time>
      </trkpt>
      <trkpt lat="45.60176" lon="6.10783">
        <ele>1075.4000244141</ele>
        <time>2021-01-16T12:01:57.000Z</time>
      </trkpt>
      <trkpt lat="45.60178" lon="6.10787">
        <ele>1073.4000244141</ele>
        <time>2021-01-16T12:01:58.000Z</time>
      </trkpt>
      <trkpt lat="45.6018" lon="6.10789">
        <ele>1072</ele>
        <time>2021-01-16T12:01:59.000Z</time>
      </trkpt>
      <trkpt lat="45.60185" lon="6.10785">
        <ele>1070.4000244141</ele>
        <time>2021-01-16T12:02:01.000Z</time>
      </trkpt>
      <trkpt lat="45.60185" lon="6.10782">
        <ele>1069</ele>
        <time>2021-01-16T12:02:02.000Z</time>
      </trkpt>
      <trkpt lat="45.60184" lon="6.10779">
        <ele>1067.4000244141</ele>
        <time>2021-01-16T12:02:03.000Z</time>
      </trkpt>
      <trkpt lat="45.60183" lon="6.10777">
        <ele>1064.8000488281</ele>
        <time>2021-01-16T12:02:05.000Z</time>
      </trkpt>
      <trkpt lat="45.60183" lon="6.10777">
        <ele>1063.4000244141</ele>
        <time>2021-01-16T12:02:06.000Z</time>
      </trkpt>
      <trkpt lat="45.60183" lon="6.10777">
        <ele>1061.8000488281</ele>
        <time>2021-01-16T12:02:08.000Z</time>
      </trkpt>
      <trkpt lat="45.60183" lon="6.10777">
        <ele>1061</ele>
        <time>2021-01-16T12:02:16.000Z</time>
      </trkpt>
      <trkpt lat="45.60183" lon="6.10777">
        <ele>1061</ele>
        <time>2021-01-16T12:02:30.000Z</time>
      </trkpt>
      <trkpt lat="45.60186" lon="6.10775">
        <ele>1061.1999511719</ele>
        <time>2021-01-16T12:02:35.000Z</time>
      </trkpt>
      <trkpt lat="45.60196" lon="6.10769">
        <ele>1060.8000488281</ele>
        <time>2021-01-16T12:02:38.000Z</time>
      </trkpt>
      <trkpt lat="45.60201" lon="6.10768">
        <ele>1058.5999755859</ele>
        <time>2021-01-16T12:02:39.000Z</time>
      </trkpt>
      <trkpt lat="45.60206" lon="6.10768">
        <ele>1057.4000244141</ele>
        <time>2021-01-16T12:02:40.000Z</time>
      </trkpt>
      <trkpt lat="45.60211" lon="6.1077">
        <ele>1056.1999511719</ele>
        <time>2021-01-16T12:02:41.000Z</time>
      </trkpt>
      <trkpt lat="45.60219" lon="6.10776">
        <ele>1054.4000244141</ele>
        <time>2021-01-16T12:02:43.000Z</time>
      </trkpt>
      <trkpt lat="45.60229" lon="6.1078">
        <ele>1053</ele>
        <time>2021-01-16T12:02:45.000Z</time>
      </trkpt>
      <trkpt lat="45.60237" lon="6.10779">
        <ele>1051.1999511719</ele>
        <time>2021-01-16T12:02:47.000Z</time>
      </trkpt>
      <trkpt lat="45.60241" lon="6.10781">
        <ele>1050.1999511719</ele>
        <time>2021-01-16T12:02:48.000Z</time>
      </trkpt>
      <trkpt lat="45.60244" lon="6.10784">
        <ele>1049</ele>
        <time>2021-01-16T12:02:49.000Z</time>
      </trkpt>
      <trkpt lat="45.60248" lon="6.10788">
        <ele>1047.5999755859</ele>
        <time>2021-01-16T12:02:50.000Z</time>
      </trkpt>
      <trkpt lat="45.60254" lon="6.10789">
        <ele>1046.1999511719</ele>
        <time>2021-01-16T12:02:51.000Z</time>
      </trkpt>
      <trkpt lat="45.60259" lon="6.10789">
        <ele>1045</ele>
        <time>2021-01-16T12:02:52.000Z</time>
      </trkpt>
      <trkpt lat="45.60265" lon="6.10788">
        <ele>1043.5999755859</ele>
        <time>2021-01-16T12:02:53.000Z</time>
      </trkpt>
      <trkpt lat="45.60271" lon="6.10786">
        <ele>1042.1999511719</ele>
        <time>2021-01-16T12:02:54.000Z</time>
      </trkpt>
      <trkpt lat="45.60278" lon="6.10783">
        <ele>1040.5999755859</ele>
        <time>2021-01-16T12:02:55.000Z</time>
      </trkpt>
      <trkpt lat="45.60284" lon="6.10781">
        <ele>1039.1999511719</ele>
        <time>2021-01-16T12:02:56.000Z</time>
      </trkpt>
      <trkpt lat="45.6029" lon="6.10779">
        <ele>1038</ele>
        <time>2021-01-16T12:02:57.000Z</time>
      </trkpt>
      <trkpt lat="45.60296" lon="6.10778">
        <ele>1036.8000488281</ele>
        <time>2021-01-16T12:02:58.000Z</time>
      </trkpt>
      <trkpt lat="45.60302" lon="6.10777">
        <ele>1035.8000488281</ele>
        <time>2021-01-16T12:02:59.000Z</time>
      </trkpt>
      <trkpt lat="45.60308" lon="6.10776">
        <ele>1034.8000488281</ele>
        <time>2021-01-16T12:03:00.000Z</time>
      </trkpt>
      <trkpt lat="45.60314" lon="6.10774">
        <ele>1033.8000488281</ele>
        <time>2021-01-16T12:03:01.000Z</time>
      </trkpt>
      <trkpt lat="45.6032" lon="6.10772">
        <ele>1032.4000244141</ele>
        <time>2021-01-16T12:03:02.000Z</time>
      </trkpt>
      <trkpt lat="45.60325" lon="6.1077">
        <ele>1029.8000488281</ele>
        <time>2021-01-16T12:03:03.000Z</time>
      </trkpt>
      <trkpt lat="45.60337" lon="6.10766">
        <ele>1027.8000488281</ele>
        <time>2021-01-16T12:03:05.000Z</time>
      </trkpt>
      <trkpt lat="45.60342" lon="6.10763">
        <ele>1027</ele>
        <time>2021-01-16T12:03:06.000Z</time>
      </trkpt>
      <trkpt lat="45.60348" lon="6.10761">
        <ele>1026.1999511719</ele>
        <time>2021-01-16T12:03:07.000Z</time>
      </trkpt>
      <trkpt lat="45.6036" lon="6.10756">
        <ele>1024.5999755859</ele>
        <time>2021-01-16T12:03:09.000Z</time>
      </trkpt>
      <trkpt lat="45.60369" lon="6.10753">
        <ele>1022.799987793</ele>
        <time>2021-01-16T12:03:11.000Z</time>
      </trkpt>
      <trkpt lat="45.60372" lon="6.10752">
        <ele>1022</ele>
        <time>2021-01-16T12:03:12.000Z</time>
      </trkpt>
      <trkpt lat="45.60375" lon="6.10751">
        <ele>1021.200012207</ele>
        <time>2021-01-16T12:03:13.000Z</time>
      </trkpt>
      <trkpt lat="45.60376" lon="6.1075">
        <ele>1020</ele>
        <time>2021-01-16T12:03:16.000Z</time>
      </trkpt>
      <trkpt lat="45.60376" lon="6.1075">
        <ele>1019.799987793</ele>
        <time>2021-01-16T12:03:24.000Z</time>
      </trkpt>
      <trkpt lat="45.60376" lon="6.1075">
        <ele>1020</ele>
        <time>2021-01-16T12:03:37.000Z</time>
      </trkpt>
      <trkpt lat="45.60376" lon="6.1075">
        <ele>1020</ele>
        <time>2021-01-16T12:03:47.000Z</time>
      </trkpt>
      <trkpt lat="45.60376" lon="6.1075">
        <ele>1020</ele>
        <time>2021-01-16T12:03:54.000Z</time>
      </trkpt>
      <trkpt lat="45.60377" lon="6.10751">
        <ele>1020.4000244141</ele>
        <time>2021-01-16T12:04:03.000Z</time>
      </trkpt>
      <trkpt lat="45.60377" lon="6.10751">
        <ele>1020.5999755859</ele>
        <time>2021-01-16T12:04:12.000Z</time>
      </trkpt>
      <trkpt lat="45.60377" lon="6.10751">
        <ele>1021</ele>
        <time>2021-01-16T12:04:15.000Z</time>
      </trkpt>
      <trkpt lat="45.60378" lon="6.10745">
        <ele>1021.200012207</ele>
        <time>2021-01-16T12:04:18.000Z</time>
      </trkpt>
      <trkpt lat="45.60375" lon="6.10733">
        <ele>1021.5999755859</ele>
        <time>2021-01-16T12:04:26.000Z</time>
      </trkpt>
      <trkpt lat="45.60371" lon="6.1072">
        <ele>1021.4000244141</ele>
        <time>2021-01-16T12:04:33.000Z</time>
      </trkpt>
      <trkpt lat="45.60368" lon="6.1071">
        <ele>1022</ele>
        <time>2021-01-16T12:04:40.000Z</time>
      </trkpt>
      <trkpt lat="45.60366" lon="6.10701">
        <ele>1022.200012207</ele>
        <time>2021-01-16T12:04:45.000Z</time>
      </trkpt>
      <trkpt lat="45.60366" lon="6.107">
        <ele>1022.200012207</ele>
        <time>2021-01-16T12:04:46.000Z</time>
      </trkpt>
      <trkpt lat="45.60366" lon="6.10694">
        <ele>1022.4000244141</ele>
        <time>2021-01-16T12:04:53.000Z</time>
      </trkpt>
      <trkpt lat="45.60366" lon="6.10694">
        <ele>1022.4000244141</ele>
        <time>2021-01-16T12:05:04.000Z</time>
      </trkpt>
      <trkpt lat="45.60366" lon="6.10694">
        <ele>1022.4000244141</ele>
        <time>2021-01-16T12:05:20.000Z</time>
      </trkpt>
      <trkpt lat="45.60366" lon="6.10694">
        <ele>1022.4000244141</ele>
        <time>2021-01-16T12:05:36.000Z</time>
      </trkpt>
      <trkpt lat="45.60366" lon="6.10689">
        <ele>1022.4000244141</ele>
        <time>2021-01-16T12:05:45.000Z</time>
      </trkpt>
      <trkpt lat="45.60368" lon="6.10683">
        <ele>1022</ele>
        <time>2021-01-16T12:05:51.000Z</time>
      </trkpt>
      <trkpt lat="45.60366" lon="6.10681">
        <ele>1022</ele>
        <time>2021-01-16T12:05:52.000Z</time>
      </trkpt>
      <trkpt lat="45.60366" lon="6.10666">
        <ele>1021</ele>
        <time>2021-01-16T12:05:55.000Z</time>
      </trkpt>
      <trkpt lat="45.60367" lon="6.1066">
        <ele>1019.5999755859</ele>
        <time>2021-01-16T12:05:56.000Z</time>
      </trkpt>
      <trkpt lat="45.60368" lon="6.10653">
        <ele>1018.200012207</ele>
        <time>2021-01-16T12:05:57.000Z</time>
      </trkpt>
      <trkpt lat="45.6037" lon="6.10645">
        <ele>1017.200012207</ele>
        <time>2021-01-16T12:05:58.000Z</time>
      </trkpt>
      <trkpt lat="45.60373" lon="6.10638">
        <ele>1016</ele>
        <time>2021-01-16T12:05:59.000Z</time>
      </trkpt>
      <trkpt lat="45.60375" lon="6.10631">
        <ele>1014.799987793</ele>
        <time>2021-01-16T12:06:00.000Z</time>
      </trkpt>
      <trkpt lat="45.60378" lon="6.10625">
        <ele>1013.5999755859</ele>
        <time>2021-01-16T12:06:01.000Z</time>
      </trkpt>
      <trkpt lat="45.6038" lon="6.10619">
        <ele>1012.5999755859</ele>
        <time>2021-01-16T12:06:02.000Z</time>
      </trkpt>
      <trkpt lat="45.60382" lon="6.10613">
        <ele>1011.4000244141</ele>
        <time>2021-01-16T12:06:03.000Z</time>
      </trkpt>
      <trkpt lat="45.60384" lon="6.10607">
        <ele>1010.4000244141</ele>
        <time>2021-01-16T12:06:04.000Z</time>
      </trkpt>
      <trkpt lat="45.60387" lon="6.10602">
        <ele>1008.799987793</ele>
        <time>2021-01-16T12:06:05.000Z</time>
      </trkpt>
      <trkpt lat="45.60389" lon="6.10598">
        <ele>1006.799987793</ele>
        <time>2021-01-16T12:06:06.000Z</time>
      </trkpt>
      <trkpt lat="45.60392" lon="6.10592">
        <ele>1004.799987793</ele>
        <time>2021-01-16T12:06:07.000Z</time>
      </trkpt>
      <trkpt lat="45.60395" lon="6.10584">
        <ele>1003.200012207</ele>
        <time>2021-01-16T12:06:08.000Z</time>
      </trkpt>
      <trkpt lat="45.60398" lon="6.10577">
        <ele>1002</ele>
        <time>2021-01-16T12:06:09.000Z</time>
      </trkpt>
      <trkpt lat="45.60401" lon="6.10569">
        <ele>1001.200012207</ele>
        <time>2021-01-16T12:06:10.000Z</time>
      </trkpt>
      <trkpt lat="45.60404" lon="6.10563">
        <ele>1000.4000244141</ele>
        <time>2021-01-16T12:06:11.000Z</time>
      </trkpt>
      <trkpt lat="45.60406" lon="6.10559">
        <ele>999.20001220703</ele>
        <time>2021-01-16T12:06:12.000Z</time>
      </trkpt>
      <trkpt lat="45.60407" lon="6.10554">
        <ele>998</ele>
        <time>2021-01-16T12:06:13.000Z</time>
      </trkpt>
      <trkpt lat="45.60409" lon="6.1055">
        <ele>997</ele>
        <time>2021-01-16T12:06:14.000Z</time>
      </trkpt>
      <trkpt lat="45.60411" lon="6.10546">
        <ele>994.59997558594</ele>
        <time>2021-01-16T12:06:15.000Z</time>
      </trkpt>
      <trkpt lat="45.60412" lon="6.10542">
        <ele>993.59997558594</ele>
        <time>2021-01-16T12:06:16.000Z</time>
      </trkpt>
      <trkpt lat="45.60412" lon="6.10538">
        <ele>992.40002441406</ele>
        <time>2021-01-16T12:06:17.000Z</time>
      </trkpt>
      <trkpt lat="45.60413" lon="6.10534">
        <ele>991.59997558594</ele>
        <time>2021-01-16T12:06:18.000Z</time>
      </trkpt>
      <trkpt lat="45.60412" lon="6.1053">
        <ele>991.20001220703</ele>
        <time>2021-01-16T12:06:19.000Z</time>
      </trkpt>
      <trkpt lat="45.6041" lon="6.10524">
        <ele>989.59997558594</ele>
        <time>2021-01-16T12:06:21.000Z</time>
      </trkpt>
      <trkpt lat="45.6041" lon="6.10523">
        <ele>988.20001220703</ele>
        <time>2021-01-16T12:06:22.000Z</time>
      </trkpt>
      <trkpt lat="45.60409" lon="6.10522">
        <ele>987</ele>
        <time>2021-01-16T12:06:23.000Z</time>
      </trkpt>
      <trkpt lat="45.60406" lon="6.10518">
        <ele>985.20001220703</ele>
        <time>2021-01-16T12:06:25.000Z</time>
      </trkpt>
      <trkpt lat="45.60405" lon="6.10517">
        <ele>984.40002441406</ele>
        <time>2021-01-16T12:06:26.000Z</time>
      </trkpt>
      <trkpt lat="45.60405" lon="6.10517">
        <ele>983.40002441406</ele>
        <time>2021-01-16T12:06:27.000Z</time>
      </trkpt>
      <trkpt lat="45.60404" lon="6.10516">
        <ele>982.20001220703</ele>
        <time>2021-01-16T12:06:28.000Z</time>
      </trkpt>
      <trkpt lat="45.60403" lon="6.10515">
        <ele>980.79998779297</ele>
        <time>2021-01-16T12:06:30.000Z</time>
      </trkpt>
      <trkpt lat="45.60403" lon="6.10515">
        <ele>980.40002441406</ele>
        <time>2021-01-16T12:06:31.000Z</time>
      </trkpt>
      <trkpt lat="45.60401" lon="6.10507">
        <ele>979.79998779297</ele>
        <time>2021-01-16T12:06:37.000Z</time>
      </trkpt>
      <trkpt lat="45.604" lon="6.10508">
        <ele>979.59997558594</ele>
        <time>2021-01-16T12:06:44.000Z</time>
      </trkpt>
      <trkpt lat="45.604" lon="6.10508">
        <ele>978.40002441406</ele>
        <time>2021-01-16T12:06:48.000Z</time>
      </trkpt>
      <trkpt lat="45.604" lon="6.10508">
        <ele>979.59997558594</ele>
        <time>2021-01-16T12:06:54.000Z</time>
      </trkpt>
      <trkpt lat="45.604" lon="6.10508">
        <ele>979.59997558594</ele>
        <time>2021-01-16T12:07:07.000Z</time>
      </trkpt>
      <trkpt lat="45.60398" lon="6.10512">
        <ele>979.20001220703</ele>
        <time>2021-01-16T12:07:20.000Z</time>
      </trkpt>
      <trkpt lat="45.60398" lon="6.10512">
        <ele>979.20001220703</ele>
        <time>2021-01-16T12:07:33.000Z</time>
      </trkpt>
      <trkpt lat="45.60398" lon="6.10512">
        <ele>979</ele>
        <time>2021-01-16T12:07:46.000Z</time>
      </trkpt>
      <trkpt lat="45.60398" lon="6.10514">
        <ele>979</ele>
        <time>2021-01-16T12:07:57.000Z</time>
      </trkpt>
      <trkpt lat="45.60398" lon="6.10514">
        <ele>979</ele>
        <time>2021-01-16T12:08:09.000Z</time>
      </trkpt>
      <trkpt lat="45.60398" lon="6.10514">
        <ele>979</ele>
        <time>2021-01-16T12:08:22.000Z</time>
      </trkpt>
      <trkpt lat="45.60398" lon="6.10514">
        <ele>979</ele>
        <time>2021-01-16T12:08:36.000Z</time>
      </trkpt>
      <trkpt lat="45.60398" lon="6.10514">
        <ele>978.79998779297</ele>
        <time>2021-01-16T12:08:49.000Z</time>
      </trkpt>
      <trkpt lat="45.60397" lon="6.10515">
        <ele>978.79998779297</ele>
        <time>2021-01-16T12:09:05.000Z</time>
      </trkpt>
      <trkpt lat="45.60397" lon="6.10515">
        <ele>978.79998779297</ele>
        <time>2021-01-16T12:09:20.000Z</time>
      </trkpt>
      <trkpt lat="45.60397" lon="6.10515">
        <ele>978.79998779297</ele>
        <time>2021-01-16T12:09:35.000Z</time>
      </trkpt>
      <trkpt lat="45.60394" lon="6.1052">
        <ele>978.79998779297</ele>
        <time>2021-01-16T12:09:47.000Z</time>
      </trkpt>
      <trkpt lat="45.60389" lon="6.10527">
        <ele>978.79998779297</ele>
        <time>2021-01-16T12:10:00.000Z</time>
      </trkpt>
      <trkpt lat="45.60389" lon="6.10527">
        <ele>978.40002441406</ele>
        <time>2021-01-16T12:10:08.000Z</time>
      </trkpt>
      <trkpt lat="45.60389" lon="6.10527">
        <ele>978.59997558594</ele>
        <time>2021-01-16T12:10:15.000Z</time>
      </trkpt>
      <trkpt lat="45.60389" lon="6.10527">
        <ele>978.59997558594</ele>
        <time>2021-01-16T12:10:28.000Z</time>
      </trkpt>
      <trkpt lat="45.60389" lon="6.10527">
        <ele>978.59997558594</ele>
        <time>2021-01-16T12:10:40.000Z</time>
      </trkpt>
      <trkpt lat="45.60389" lon="6.10527">
        <ele>978.59997558594</ele>
        <time>2021-01-16T12:10:53.000Z</time>
      </trkpt>
      <trkpt lat="45.60389" lon="6.10527">
        <ele>978.59997558594</ele>
        <time>2021-01-16T12:11:09.000Z</time>
      </trkpt>
      <trkpt lat="45.60389" lon="6.10527">
        <ele>978.59997558594</ele>
        <time>2021-01-16T12:11:21.000Z</time>
      </trkpt>
      <trkpt lat="45.60389" lon="6.10527">
        <ele>978.40002441406</ele>
        <time>2021-01-16T12:11:34.000Z</time>
      </trkpt>
      <trkpt lat="45.60389" lon="6.10527">
        <ele>978.59997558594</ele>
        <time>2021-01-16T12:11:49.000Z</time>
      </trkpt>
      <trkpt lat="45.6039" lon="6.10527">
        <ele>978.59997558594</ele>
        <time>2021-01-16T12:12:01.000Z</time>
      </trkpt>
      <trkpt lat="45.6039" lon="6.10527">
        <ele>978.59997558594</ele>
        <time>2021-01-16T12:12:14.000Z</time>
      </trkpt>
      <trkpt lat="45.6039" lon="6.10527">
        <ele>978.79998779297</ele>
        <time>2021-01-16T12:12:28.000Z</time>
      </trkpt>
      <trkpt lat="45.6039" lon="6.10528">
        <ele>978.40002441406</ele>
        <time>2021-01-16T12:12:41.000Z</time>
      </trkpt>
      <trkpt lat="45.6039" lon="6.10528">
        <ele>978.20001220703</ele>
        <time>2021-01-16T12:12:56.000Z</time>
      </trkpt>
      <trkpt lat="45.60391" lon="6.10529">
        <ele>978.20001220703</ele>
        <time>2021-01-16T12:13:08.000Z</time>
      </trkpt>
      <trkpt lat="45.60391" lon="6.10529">
        <ele>978.20001220703</ele>
        <time>2021-01-16T12:13:20.000Z</time>
      </trkpt>
      <trkpt lat="45.60391" lon="6.10529">
        <ele>978.20001220703</ele>
        <time>2021-01-16T12:13:36.000Z</time>
      </trkpt>
      <trkpt lat="45.6039" lon="6.10529">
        <ele>978.20001220703</ele>
        <time>2021-01-16T12:13:51.000Z</time>
      </trkpt>
      <trkpt lat="45.6039" lon="6.10529">
        <ele>978.20001220703</ele>
        <time>2021-01-16T12:14:05.000Z</time>
      </trkpt>
      <trkpt lat="45.6039" lon="6.10529">
        <ele>978.40002441406</ele>
        <time>2021-01-16T12:14:15.000Z</time>
      </trkpt>
      <trkpt lat="45.6039" lon="6.10529">
        <ele>978.40002441406</ele>
        <time>2021-01-16T12:14:29.000Z</time>
      </trkpt>
      <trkpt lat="45.6039" lon="6.1053">
        <ele>978.40002441406</ele>
        <time>2021-01-16T12:14:42.000Z</time>
      </trkpt>
      <trkpt lat="45.6039" lon="6.1053">
        <ele>978.40002441406</ele>
        <time>2021-01-16T12:14:55.000Z</time>
      </trkpt>
      <trkpt lat="45.6039" lon="6.1053">
        <ele>978.40002441406</ele>
        <time>2021-01-16T12:15:11.000Z</time>
      </trkpt>
      <trkpt lat="45.6039" lon="6.1053">
        <ele>978.20001220703</ele>
        <time>2021-01-16T12:15:27.000Z</time>
      </trkpt>
      <trkpt lat="45.6039" lon="6.1053">
        <ele>978.40002441406</ele>
        <time>2021-01-16T12:15:40.000Z</time>
      </trkpt>
      <trkpt lat="45.6039" lon="6.1053">
        <ele>978.40002441406</ele>
        <time>2021-01-16T12:15:51.000Z</time>
      </trkpt>
      <trkpt lat="45.6039" lon="6.1053">
        <ele>976.79998779297</ele>
        <time>2021-01-16T12:15:53.000Z</time>
      </trkpt>
      <trkpt lat="45.6039" lon="6.1053">
        <ele>978.40002441406</ele>
        <time>2021-01-16T12:15:58.000Z</time>
      </trkpt>
      <trkpt lat="45.6039" lon="6.1053">
        <ele>979.59997558594</ele>
        <time>2021-01-16T12:15:59.000Z</time>
      </trkpt>
      <trkpt lat="45.6039" lon="6.1053">
        <ele>978.79998779297</ele>
        <time>2021-01-16T12:16:04.000Z</time>
      </trkpt>
      <trkpt lat="45.6039" lon="6.1053">
        <ele>977.20001220703</ele>
        <time>2021-01-16T12:16:05.000Z</time>
      </trkpt>
      <trkpt lat="45.6039" lon="6.1053">
        <ele>976.20001220703</ele>
        <time>2021-01-16T12:16:06.000Z</time>
      </trkpt>
      <trkpt lat="45.6039" lon="6.1053">
        <ele>977.59997558594</ele>
        <time>2021-01-16T12:16:12.000Z</time>
      </trkpt>
      <trkpt lat="45.6039" lon="6.1053">
        <ele>978.79998779297</ele>
        <time>2021-01-16T12:16:15.000Z</time>
      </trkpt>
      <trkpt lat="45.6039" lon="6.1053">
        <ele>978.79998779297</ele>
        <time>2021-01-16T12:16:16.000Z</time>
      </trkpt>
      <trkpt lat="45.6039" lon="6.1053">
        <ele>977.59997558594</ele>
        <time>2021-01-16T12:16:19.000Z</time>
      </trkpt>
      <trkpt lat="45.6039" lon="6.1053">
        <ele>979.40002441406</ele>
        <time>2021-01-16T12:16:23.000Z</time>
      </trkpt>
      <trkpt lat="45.6039" lon="6.1053">
        <ele>980.59997558594</ele>
        <time>2021-01-16T12:16:25.000Z</time>
      </trkpt>
      <trkpt lat="45.60389" lon="6.10531">
        <ele>980.79998779297</ele>
        <time>2021-01-16T12:16:26.000Z</time>
      </trkpt>
      <trkpt lat="45.60388" lon="6.1053">
        <ele>979</ele>
        <time>2021-01-16T12:16:29.000Z</time>
      </trkpt>
      <trkpt lat="45.60388" lon="6.10531">
        <ele>978</ele>
        <time>2021-01-16T12:16:36.000Z</time>
      </trkpt>
      <trkpt lat="45.60388" lon="6.10531">
        <ele>979.59997558594</ele>
        <time>2021-01-16T12:16:41.000Z</time>
      </trkpt>
      <trkpt lat="45.60388" lon="6.10531">
        <ele>978.59997558594</ele>
        <time>2021-01-16T12:16:48.000Z</time>
      </trkpt>
      <trkpt lat="45.60388" lon="6.10531">
        <ele>978.59997558594</ele>
        <time>2021-01-16T12:16:50.000Z</time>
      </trkpt>
      <trkpt lat="45.60387" lon="6.10533">
        <ele>978.79998779297</ele>
        <time>2021-01-16T12:17:00.000Z</time>
      </trkpt>
      <trkpt lat="45.60387" lon="6.10533">
        <ele>978.79998779297</ele>
        <time>2021-01-16T12:17:12.000Z</time>
      </trkpt>
      <trkpt lat="45.60387" lon="6.10533">
        <ele>978.59997558594</ele>
        <time>2021-01-16T12:17:25.000Z</time>
      </trkpt>
      <trkpt lat="45.60387" lon="6.10534">
        <ele>978.59997558594</ele>
        <time>2021-01-16T12:17:42.000Z</time>
      </trkpt>
      <trkpt lat="45.60387" lon="6.10534">
        <ele>978.59997558594</ele>
        <time>2021-01-16T12:17:57.000Z</time>
      </trkpt>
      <trkpt lat="45.60387" lon="6.10534">
        <ele>978.59997558594</ele>
        <time>2021-01-16T12:18:10.000Z</time>
      </trkpt>
      <trkpt lat="45.60387" lon="6.10533">
        <ele>978.40002441406</ele>
        <time>2021-01-16T12:18:23.000Z</time>
      </trkpt>
      <trkpt lat="45.60387" lon="6.10533">
        <ele>978.40002441406</ele>
        <time>2021-01-16T12:18:36.000Z</time>
      </trkpt>
      <trkpt lat="45.60387" lon="6.10533">
        <ele>978.40002441406</ele>
        <time>2021-01-16T12:18:50.000Z</time>
      </trkpt>
      <trkpt lat="45.60387" lon="6.10533">
        <ele>978.40002441406</ele>
        <time>2021-01-16T12:19:02.000Z</time>
      </trkpt>
      <trkpt lat="45.60387" lon="6.10533">
        <ele>978.59997558594</ele>
        <time>2021-01-16T12:19:13.000Z</time>
      </trkpt>
      <trkpt lat="45.60387" lon="6.10533">
        <ele>978.40002441406</ele>
        <time>2021-01-16T12:19:24.000Z</time>
      </trkpt>
      <trkpt lat="45.60387" lon="6.10533">
        <ele>978.59997558594</ele>
        <time>2021-01-16T12:19:39.000Z</time>
      </trkpt>
      <trkpt lat="45.60386" lon="6.10535">
        <ele>978.40002441406</ele>
        <time>2021-01-16T12:19:56.000Z</time>
      </trkpt>
      <trkpt lat="45.60386" lon="6.10535">
        <ele>978.40002441406</ele>
        <time>2021-01-16T12:20:09.000Z</time>
      </trkpt>
      <trkpt lat="45.60386" lon="6.10535">
        <ele>978.20001220703</ele>
        <time>2021-01-16T12:20:25.000Z</time>
      </trkpt>
      <trkpt lat="45.60386" lon="6.10535">
        <ele>978.20001220703</ele>
        <time>2021-01-16T12:20:37.000Z</time>
      </trkpt>
      <trkpt lat="45.60386" lon="6.10535">
        <ele>978.40002441406</ele>
        <time>2021-01-16T12:20:56.000Z</time>
      </trkpt>
      <trkpt lat="45.60386" lon="6.10535">
        <ele>978.20001220703</ele>
        <time>2021-01-16T12:21:15.000Z</time>
      </trkpt>
      <trkpt lat="45.60386" lon="6.10535">
        <ele>978.20001220703</ele>
        <time>2021-01-16T12:21:25.000Z</time>
      </trkpt>
      <trkpt lat="45.60381" lon="6.10543">
        <ele>978.79998779297</ele>
        <time>2021-01-16T12:21:33.000Z</time>
      </trkpt>
      <trkpt lat="45.60378" lon="6.10548">
        <ele>978.20001220703</ele>
        <time>2021-01-16T12:21:40.000Z</time>
      </trkpt>
      <trkpt lat="45.60377" lon="6.10555">
        <ele>978.59997558594</ele>
        <time>2021-01-16T12:21:47.000Z</time>
      </trkpt>
      <trkpt lat="45.60373" lon="6.10561">
        <ele>979.59997558594</ele>
        <time>2021-01-16T12:21:54.000Z</time>
      </trkpt>
      <trkpt lat="45.60373" lon="6.10563">
        <ele>979.79998779297</ele>
        <time>2021-01-16T12:21:56.000Z</time>
      </trkpt>
      <trkpt lat="45.60372" lon="6.10568">
        <ele>980.79998779297</ele>
        <time>2021-01-16T12:22:02.000Z</time>
      </trkpt>
      <trkpt lat="45.60371" lon="6.10569">
        <ele>981.20001220703</ele>
        <time>2021-01-16T12:22:05.000Z</time>
      </trkpt>
      <trkpt lat="45.6037" lon="6.10572">
        <ele>982</ele>
        <time>2021-01-16T12:22:09.000Z</time>
      </trkpt>
      <trkpt lat="45.60369" lon="6.10576">
        <ele>982.79998779297</ele>
        <time>2021-01-16T12:22:13.000Z</time>
      </trkpt>
      <trkpt lat="45.60369" lon="6.10577">
        <ele>983.20001220703</ele>
        <time>2021-01-16T12:22:15.000Z</time>
      </trkpt>
      <trkpt lat="45.60369" lon="6.10577">
        <ele>984.40002441406</ele>
        <time>2021-01-16T12:22:18.000Z</time>
      </trkpt>
      <trkpt lat="45.60369" lon="6.10577">
        <ele>984.79998779297</ele>
        <time>2021-01-16T12:22:22.000Z</time>
      </trkpt>
      <trkpt lat="45.60367" lon="6.10581">
        <ele>984.79998779297</ele>
        <time>2021-01-16T12:22:34.000Z</time>
      </trkpt>
      <trkpt lat="45.60367" lon="6.10583">
        <ele>985.40002441406</ele>
        <time>2021-01-16T12:22:37.000Z</time>
      </trkpt>
      <trkpt lat="45.60364" lon="6.10589">
        <ele>986.59997558594</ele>
        <time>2021-01-16T12:22:42.000Z</time>
      </trkpt>
      <trkpt lat="45.60363" lon="6.10592">
        <ele>987</ele>
        <time>2021-01-16T12:22:45.000Z</time>
      </trkpt>
      <trkpt lat="45.60362" lon="6.10592">
        <ele>987.40002441406</ele>
        <time>2021-01-16T12:22:57.000Z</time>
      </trkpt>
      <trkpt lat="45.60362" lon="6.10592">
        <ele>987.59997558594</ele>
        <time>2021-01-16T12:23:01.000Z</time>
      </trkpt>
      <trkpt lat="45.60362" lon="6.10592">
        <ele>987.59997558594</ele>
        <time>2021-01-16T12:23:11.000Z</time>
      </trkpt>
      <trkpt lat="45.60362" lon="6.10592">
        <ele>987.59997558594</ele>
        <time>2021-01-16T12:23:19.000Z</time>
      </trkpt>
      <trkpt lat="45.6036" lon="6.10597">
        <ele>988.79998779297</ele>
        <time>2021-01-16T12:23:23.000Z</time>
      </trkpt>
      <trkpt lat="45.60357" lon="6.10603">
        <ele>989.59997558594</ele>
        <time>2021-01-16T12:23:27.000Z</time>
      </trkpt>
      <trkpt lat="45.60357" lon="6.10605">
        <ele>989.79998779297</ele>
        <time>2021-01-16T12:23:28.000Z</time>
      </trkpt>
      <trkpt lat="45.60354" lon="6.10612">
        <ele>990.79998779297</ele>
        <time>2021-01-16T12:23:34.000Z</time>
      </trkpt>
      <trkpt lat="45.60353" lon="6.10614">
        <ele>991.40002441406</ele>
        <time>2021-01-16T12:23:36.000Z</time>
      </trkpt>
      <trkpt lat="45.60353" lon="6.10617">
        <ele>991.79998779297</ele>
        <time>2021-01-16T12:23:39.000Z</time>
      </trkpt>
      <trkpt lat="45.60352" lon="6.10622">
        <ele>993</ele>
        <time>2021-01-16T12:23:44.000Z</time>
      </trkpt>
      <trkpt lat="45.60351" lon="6.10624">
        <ele>994</ele>
        <time>2021-01-16T12:23:47.000Z</time>
      </trkpt>
      <trkpt lat="45.6035" lon="6.10626">
        <ele>994.59997558594</ele>
        <time>2021-01-16T12:23:51.000Z</time>
      </trkpt>
      <trkpt lat="45.6035" lon="6.10629">
        <ele>995.20001220703</ele>
        <time>2021-01-16T12:23:53.000Z</time>
      </trkpt>
      <trkpt lat="45.60348" lon="6.10632">
        <ele>996</ele>
        <time>2021-01-16T12:23:59.000Z</time>
      </trkpt>
      <trkpt lat="45.60348" lon="6.10632">
        <ele>996.20001220703</ele>
        <time>2021-01-16T12:24:00.000Z</time>
      </trkpt>
      <trkpt lat="45.60346" lon="6.10635">
        <ele>997.40002441406</ele>
        <time>2021-01-16T12:24:06.000Z</time>
      </trkpt>
      <trkpt lat="45.60345" lon="6.10637">
        <ele>998</ele>
        <time>2021-01-16T12:24:09.000Z</time>
      </trkpt>
      <trkpt lat="45.60342" lon="6.10643">
        <ele>998.40002441406</ele>
        <time>2021-01-16T12:24:14.000Z</time>
      </trkpt>
      <trkpt lat="45.60341" lon="6.10646">
        <ele>999.40002441406</ele>
        <time>2021-01-16T12:24:18.000Z</time>
      </trkpt>
      <trkpt lat="45.60341" lon="6.10646">
        <ele>999.59997558594</ele>
        <time>2021-01-16T12:24:19.000Z</time>
      </trkpt>
      <trkpt lat="45.60337" lon="6.10653">
        <ele>1000.4000244141</ele>
        <time>2021-01-16T12:24:26.000Z</time>
      </trkpt>
      <trkpt lat="45.60335" lon="6.10656">
        <ele>1001.200012207</ele>
        <time>2021-01-16T12:24:29.000Z</time>
      </trkpt>
      <trkpt lat="45.60333" lon="6.10658">
        <ele>1001.5999755859</ele>
        <time>2021-01-16T12:24:33.000Z</time>
      </trkpt>
      <trkpt lat="45.60332" lon="6.10659">
        <ele>1002.799987793</ele>
        <time>2021-01-16T12:24:37.000Z</time>
      </trkpt>
      <trkpt lat="45.6033" lon="6.10662">
        <ele>1004</ele>
        <time>2021-01-16T12:24:41.000Z</time>
      </trkpt>
      <trkpt lat="45.60329" lon="6.10664">
        <ele>1004.5999755859</ele>
        <time>2021-01-16T12:24:42.000Z</time>
      </trkpt>
      <trkpt lat="45.60328" lon="6.10666">
        <ele>1005</ele>
        <time>2021-01-16T12:24:44.000Z</time>
      </trkpt>
      <trkpt lat="45.60324" lon="6.10667">
        <ele>1006.200012207</ele>
        <time>2021-01-16T12:24:49.000Z</time>
      </trkpt>
      <trkpt lat="45.60324" lon="6.10666">
        <ele>1006.5999755859</ele>
        <time>2021-01-16T12:24:51.000Z</time>
      </trkpt>
      <trkpt lat="45.60323" lon="6.10666">
        <ele>1007</ele>
        <time>2021-01-16T12:25:00.000Z</time>
      </trkpt>
      <trkpt lat="45.60323" lon="6.10667">
        <ele>1007.200012207</ele>
        <time>2021-01-16T12:25:01.000Z</time>
      </trkpt>
      <trkpt lat="45.6032" lon="6.10671">
        <ele>1008.4000244141</ele>
        <time>2021-01-16T12:25:07.000Z</time>
      </trkpt>
      <trkpt lat="45.60319" lon="6.10672">
        <ele>1009</ele>
        <time>2021-01-16T12:25:10.000Z</time>
      </trkpt>
      <trkpt lat="45.60317" lon="6.10675">
        <ele>1009.4000244141</ele>
        <time>2021-01-16T12:25:13.000Z</time>
      </trkpt>
      <trkpt lat="45.60315" lon="6.1068">
        <ele>1010.5999755859</ele>
        <time>2021-01-16T12:25:21.000Z</time>
      </trkpt>
      <trkpt lat="45.60314" lon="6.10683">
        <ele>1011.799987793</ele>
        <time>2021-01-16T12:25:25.000Z</time>
      </trkpt>
      <trkpt lat="45.6031" lon="6.10688">
        <ele>1013</ele>
        <time>2021-01-16T12:25:30.000Z</time>
      </trkpt>
      <trkpt lat="45.60309" lon="6.10688">
        <ele>1013</ele>
        <time>2021-01-16T12:25:33.000Z</time>
      </trkpt>
      <trkpt lat="45.60307" lon="6.10691">
        <ele>1014.200012207</ele>
        <time>2021-01-16T12:25:37.000Z</time>
      </trkpt>
      <trkpt lat="45.60305" lon="6.10694">
        <ele>1014.799987793</ele>
        <time>2021-01-16T12:25:44.000Z</time>
      </trkpt>
      <trkpt lat="45.60304" lon="6.10695">
        <ele>1015.4000244141</ele>
        <time>2021-01-16T12:25:46.000Z</time>
      </trkpt>
      <trkpt lat="45.60301" lon="6.10698">
        <ele>1016.4000244141</ele>
        <time>2021-01-16T12:25:51.000Z</time>
      </trkpt>
      <trkpt lat="45.60299" lon="6.10698">
        <ele>1017.4000244141</ele>
        <time>2021-01-16T12:25:55.000Z</time>
      </trkpt>
      <trkpt lat="45.60298" lon="6.10698">
        <ele>1017.799987793</ele>
        <time>2021-01-16T12:25:57.000Z</time>
      </trkpt>
      <trkpt lat="45.60293" lon="6.10702">
        <ele>1018.5999755859</ele>
        <time>2021-01-16T12:26:02.000Z</time>
      </trkpt>
      <trkpt lat="45.60289" lon="6.10704">
        <ele>1019.5999755859</ele>
        <time>2021-01-16T12:26:07.000Z</time>
      </trkpt>
      <trkpt lat="45.60288" lon="6.10704">
        <ele>1019.799987793</ele>
        <time>2021-01-16T12:26:08.000Z</time>
      </trkpt>
      <trkpt lat="45.60284" lon="6.10709">
        <ele>1020.799987793</ele>
        <time>2021-01-16T12:26:13.000Z</time>
      </trkpt>
      <trkpt lat="45.60283" lon="6.10713">
        <ele>1021.5999755859</ele>
        <time>2021-01-16T12:26:17.000Z</time>
      </trkpt>
      <trkpt lat="45.60283" lon="6.10713">
        <ele>1022.200012207</ele>
        <time>2021-01-16T12:26:18.000Z</time>
      </trkpt>
      <trkpt lat="45.60279" lon="6.10716">
        <ele>1023.200012207</ele>
        <time>2021-01-16T12:26:25.000Z</time>
      </trkpt>
      <trkpt lat="45.60279" lon="6.10717">
        <ele>1023.5999755859</ele>
        <time>2021-01-16T12:26:27.000Z</time>
      </trkpt>
      <trkpt lat="45.60277" lon="6.1072">
        <ele>1024.8000488281</ele>
        <time>2021-01-16T12:26:33.000Z</time>
      </trkpt>
      <trkpt lat="45.60276" lon="6.10722">
        <ele>1025.4000244141</ele>
        <time>2021-01-16T12:26:37.000Z</time>
      </trkpt>
      <trkpt lat="45.60275" lon="6.10723">
        <ele>1026</ele>
        <time>2021-01-16T12:26:39.000Z</time>
      </trkpt>
      <trkpt lat="45.60273" lon="6.10726">
        <ele>1027.1999511719</ele>
        <time>2021-01-16T12:26:42.000Z</time>
      </trkpt>
      <trkpt lat="45.60273" lon="6.10727">
        <ele>1028.1999511719</ele>
        <time>2021-01-16T12:26:47.000Z</time>
      </trkpt>
      <trkpt lat="45.60273" lon="6.10727">
        <ele>1028</ele>
        <time>2021-01-16T12:27:00.000Z</time>
      </trkpt>
      <trkpt lat="45.60269" lon="6.10736">
        <ele>1029</ele>
        <time>2021-01-16T12:27:10.000Z</time>
      </trkpt>
      <trkpt lat="45.60268" lon="6.10737">
        <ele>1029.1999511719</ele>
        <time>2021-01-16T12:27:11.000Z</time>
      </trkpt>
      <trkpt lat="45.60267" lon="6.10744">
        <ele>1030.1999511719</ele>
        <time>2021-01-16T12:27:19.000Z</time>
      </trkpt>
      <trkpt lat="45.60267" lon="6.10746">
        <ele>1030.5999755859</ele>
        <time>2021-01-16T12:27:21.000Z</time>
      </trkpt>
      <trkpt lat="45.60265" lon="6.10751">
        <ele>1031.4000244141</ele>
        <time>2021-01-16T12:27:27.000Z</time>
      </trkpt>
      <trkpt lat="45.60265" lon="6.10753">
        <ele>1031.5999755859</ele>
        <time>2021-01-16T12:27:29.000Z</time>
      </trkpt>
      <trkpt lat="45.60262" lon="6.10756">
        <ele>1032.4000244141</ele>
        <time>2021-01-16T12:27:34.000Z</time>
      </trkpt>
      <trkpt lat="45.60259" lon="6.10759">
        <ele>1033.4000244141</ele>
        <time>2021-01-16T12:27:38.000Z</time>
      </trkpt>
      <trkpt lat="45.60258" lon="6.1076">
        <ele>1033.8000488281</ele>
        <time>2021-01-16T12:27:39.000Z</time>
      </trkpt>
      <trkpt lat="45.60258" lon="6.10761">
        <ele>1034.5999755859</ele>
        <time>2021-01-16T12:27:41.000Z</time>
      </trkpt>
      <trkpt lat="45.60253" lon="6.10764">
        <ele>1034.8000488281</ele>
        <time>2021-01-16T12:27:49.000Z</time>
      </trkpt>
      <trkpt lat="45.60254" lon="6.10767">
        <ele>1035.8000488281</ele>
        <time>2021-01-16T12:27:53.000Z</time>
      </trkpt>
      <trkpt lat="45.60254" lon="6.10767">
        <ele>1036.4000244141</ele>
        <time>2021-01-16T12:27:58.000Z</time>
      </trkpt>
      <trkpt lat="45.60254" lon="6.10767">
        <ele>1036.4000244141</ele>
        <time>2021-01-16T12:28:10.000Z</time>
      </trkpt>
      <trkpt lat="45.60254" lon="6.10767">
        <ele>1036.4000244141</ele>
        <time>2021-01-16T12:28:24.000Z</time>
      </trkpt>
      <trkpt lat="45.60254" lon="6.1077">
        <ele>1037.1999511719</ele>
        <time>2021-01-16T12:28:32.000Z</time>
      </trkpt>
      <trkpt lat="45.60253" lon="6.10772">
        <ele>1037.8000488281</ele>
        <time>2021-01-16T12:28:34.000Z</time>
      </trkpt>
      <trkpt lat="45.60247" lon="6.10779">
        <ele>1037.8000488281</ele>
        <time>2021-01-16T12:28:44.000Z</time>
      </trkpt>
      <trkpt lat="45.60245" lon="6.1078">
        <ele>1038.4000244141</ele>
        <time>2021-01-16T12:28:47.000Z</time>
      </trkpt>
      <trkpt lat="45.60245" lon="6.10781">
        <ele>1039.4000244141</ele>
        <time>2021-01-16T12:28:50.000Z</time>
      </trkpt>
      <trkpt lat="45.60245" lon="6.10781">
        <ele>1039.8000488281</ele>
        <time>2021-01-16T12:28:55.000Z</time>
      </trkpt>
      <trkpt lat="45.60245" lon="6.10781">
        <ele>1040.5999755859</ele>
        <time>2021-01-16T12:29:00.000Z</time>
      </trkpt>
      <trkpt lat="45.60245" lon="6.10781">
        <ele>1040.8000488281</ele>
        <time>2021-01-16T12:29:02.000Z</time>
      </trkpt>
      <trkpt lat="45.60243" lon="6.10784">
        <ele>1041.1999511719</ele>
        <time>2021-01-16T12:29:17.000Z</time>
      </trkpt>
      <trkpt lat="45.60237" lon="6.1079">
        <ele>1041.5999755859</ele>
        <time>2021-01-16T12:29:21.000Z</time>
      </trkpt>
      <trkpt lat="45.60228" lon="6.1079">
        <ele>1042.8000488281</ele>
        <time>2021-01-16T12:29:27.000Z</time>
      </trkpt>
      <trkpt lat="45.60225" lon="6.10789">
        <ele>1043.1999511719</ele>
        <time>2021-01-16T12:29:28.000Z</time>
      </trkpt>
      <trkpt lat="45.60222" lon="6.10786">
        <ele>1043.8000488281</ele>
        <time>2021-01-16T12:29:33.000Z</time>
      </trkpt>
      <trkpt lat="45.60219" lon="6.10782">
        <ele>1044.8000488281</ele>
        <time>2021-01-16T12:29:37.000Z</time>
      </trkpt>
      <trkpt lat="45.60217" lon="6.10782">
        <ele>1045.1999511719</ele>
        <time>2021-01-16T12:29:39.000Z</time>
      </trkpt>
      <trkpt lat="45.60212" lon="6.10781">
        <ele>1046</ele>
        <time>2021-01-16T12:29:43.000Z</time>
      </trkpt>
      <trkpt lat="45.60206" lon="6.10779">
        <ele>1047</ele>
        <time>2021-01-16T12:29:48.000Z</time>
      </trkpt>
      <trkpt lat="45.60206" lon="6.1078">
        <ele>1047.1999511719</ele>
        <time>2021-01-16T12:29:49.000Z</time>
      </trkpt>
      <trkpt lat="45.60203" lon="6.1079">
        <ele>1048.1999511719</ele>
        <time>2021-01-16T12:29:56.000Z</time>
      </trkpt>
      <trkpt lat="45.60203" lon="6.10791">
        <ele>1048.4000244141</ele>
        <time>2021-01-16T12:29:57.000Z</time>
      </trkpt>
      <trkpt lat="45.60201" lon="6.10792">
        <ele>1049.1999511719</ele>
        <time>2021-01-16T12:30:00.000Z</time>
      </trkpt>
      <trkpt lat="45.60198" lon="6.10794">
        <ele>1050.4000244141</ele>
        <time>2021-01-16T12:30:05.000Z</time>
      </trkpt>
      <trkpt lat="45.60195" lon="6.10791">
        <ele>1051</ele>
        <time>2021-01-16T12:30:10.000Z</time>
      </trkpt>
      <trkpt lat="45.60193" lon="6.10789">
        <ele>1051.4000244141</ele>
        <time>2021-01-16T12:30:12.000Z</time>
      </trkpt>
      <trkpt lat="45.60191" lon="6.10784">
        <ele>1052.5999755859</ele>
        <time>2021-01-16T12:30:16.000Z</time>
      </trkpt>
      <trkpt lat="45.60189" lon="6.1078">
        <ele>1053.5999755859</ele>
        <time>2021-01-16T12:30:20.000Z</time>
      </trkpt>
      <trkpt lat="45.60187" lon="6.10775">
        <ele>1054.8000488281</ele>
        <time>2021-01-16T12:30:26.000Z</time>
      </trkpt>
      <trkpt lat="45.60186" lon="6.10776">
        <ele>1056</ele>
        <time>2021-01-16T12:30:31.000Z</time>
      </trkpt>
      <trkpt lat="45.60185" lon="6.10777">
        <ele>1056.1999511719</ele>
        <time>2021-01-16T12:30:32.000Z</time>
      </trkpt>
      <trkpt lat="45.60185" lon="6.10782">
        <ele>1057.1999511719</ele>
        <time>2021-01-16T12:30:37.000Z</time>
      </trkpt>
      <trkpt lat="45.6018" lon="6.10784">
        <ele>1058.4000244141</ele>
        <time>2021-01-16T12:30:41.000Z</time>
      </trkpt>
      <trkpt lat="45.60178" lon="6.10784">
        <ele>1059</ele>
        <time>2021-01-16T12:30:42.000Z</time>
      </trkpt>
      <trkpt lat="45.60174" lon="6.10783">
        <ele>1059.5999755859</ele>
        <time>2021-01-16T12:30:45.000Z</time>
      </trkpt>
      <trkpt lat="45.60171" lon="6.10779">
        <ele>1060.5999755859</ele>
        <time>2021-01-16T12:30:49.000Z</time>
      </trkpt>
      <trkpt lat="45.60167" lon="6.10774">
        <ele>1061.1999511719</ele>
        <time>2021-01-16T12:30:54.000Z</time>
      </trkpt>
      <trkpt lat="45.60166" lon="6.10772">
        <ele>1061.5999755859</ele>
        <time>2021-01-16T12:30:56.000Z</time>
      </trkpt>
      <trkpt lat="45.60166" lon="6.10768">
        <ele>1062.5999755859</ele>
        <time>2021-01-16T12:31:00.000Z</time>
      </trkpt>
      <trkpt lat="45.60165" lon="6.10764">
        <ele>1063.8000488281</ele>
        <time>2021-01-16T12:31:05.000Z</time>
      </trkpt>
      <trkpt lat="45.60164" lon="6.1076">
        <ele>1064.8000488281</ele>
        <time>2021-01-16T12:31:11.000Z</time>
      </trkpt>
      <trkpt lat="45.60164" lon="6.10758">
        <ele>1065.8000488281</ele>
        <time>2021-01-16T12:31:15.000Z</time>
      </trkpt>
      <trkpt lat="45.60161" lon="6.10756">
        <ele>1066.4000244141</ele>
        <time>2021-01-16T12:31:18.000Z</time>
      </trkpt>
      <trkpt lat="45.60159" lon="6.10755">
        <ele>1067</ele>
        <time>2021-01-16T12:31:21.000Z</time>
      </trkpt>
      <trkpt lat="45.60155" lon="6.10751">
        <ele>1068.1999511719</ele>
        <time>2021-01-16T12:31:26.000Z</time>
      </trkpt>
      <trkpt lat="45.60153" lon="6.10749">
        <ele>1068.5999755859</ele>
        <time>2021-01-16T12:31:29.000Z</time>
      </trkpt>
      <trkpt lat="45.60151" lon="6.10748">
        <ele>1069.4000244141</ele>
        <time>2021-01-16T12:31:32.000Z</time>
      </trkpt>
      <trkpt lat="45.60148" lon="6.10747">
        <ele>1070.4000244141</ele>
        <time>2021-01-16T12:31:37.000Z</time>
      </trkpt>
      <trkpt lat="45.60147" lon="6.10747">
        <ele>1070.5999755859</ele>
        <time>2021-01-16T12:31:38.000Z</time>
      </trkpt>
      <trkpt lat="45.60144" lon="6.10746">
        <ele>1071.4000244141</ele>
        <time>2021-01-16T12:31:42.000Z</time>
      </trkpt>
      <trkpt lat="45.60141" lon="6.10748">
        <ele>1072</ele>
        <time>2021-01-16T12:31:45.000Z</time>
      </trkpt>
      <trkpt lat="45.6014" lon="6.10748">
        <ele>1072.4000244141</ele>
        <time>2021-01-16T12:31:47.000Z</time>
      </trkpt>
      <trkpt lat="45.60135" lon="6.10749">
        <ele>1073.1999511719</ele>
        <time>2021-01-16T12:31:52.000Z</time>
      </trkpt>
      <trkpt lat="45.60134" lon="6.1075">
        <ele>1073.4000244141</ele>
        <time>2021-01-16T12:31:56.000Z</time>
      </trkpt>
      <trkpt lat="45.60134" lon="6.1075">
        <ele>1073.5999755859</ele>
        <time>2021-01-16T12:31:58.000Z</time>
      </trkpt>
      <trkpt lat="45.60125" lon="6.10754">
        <ele>1073.5999755859</ele>
        <time>2021-01-16T12:32:06.000Z</time>
      </trkpt>
      <trkpt lat="45.6012" lon="6.10758">
        <ele>1074.4000244141</ele>
        <time>2021-01-16T12:32:13.000Z</time>
      </trkpt>
      <trkpt lat="45.60118" lon="6.10759">
        <ele>1074.5999755859</ele>
        <time>2021-01-16T12:32:14.000Z</time>
      </trkpt>
      <trkpt lat="45.60113" lon="6.10764">
        <ele>1075.1999511719</ele>
        <time>2021-01-16T12:32:20.000Z</time>
      </trkpt>
      <trkpt lat="45.60108" lon="6.10766">
        <ele>1075.5999755859</ele>
        <time>2021-01-16T12:32:25.000Z</time>
      </trkpt>
      <trkpt lat="45.60105" lon="6.10768">
        <ele>1075.8000488281</ele>
        <time>2021-01-16T12:32:29.000Z</time>
      </trkpt>
      <trkpt lat="45.601" lon="6.10772">
        <ele>1077</ele>
        <time>2021-01-16T12:32:35.000Z</time>
      </trkpt>
      <trkpt lat="45.60097" lon="6.10773">
        <ele>1077.1999511719</ele>
        <time>2021-01-16T12:32:38.000Z</time>
      </trkpt>
      <trkpt lat="45.60091" lon="6.10778">
        <ele>1078</ele>
        <time>2021-01-16T12:32:43.000Z</time>
      </trkpt>
      <trkpt lat="45.60087" lon="6.10779">
        <ele>1079.1999511719</ele>
        <time>2021-01-16T12:32:49.000Z</time>
      </trkpt>
      <trkpt lat="45.60083" lon="6.10783">
        <ele>1080.1999511719</ele>
        <time>2021-01-16T12:32:55.000Z</time>
      </trkpt>
      <trkpt lat="45.60082" lon="6.10784">
        <ele>1080.5999755859</ele>
        <time>2021-01-16T12:32:57.000Z</time>
      </trkpt>
      <trkpt lat="45.60079" lon="6.10786">
        <ele>1081.4000244141</ele>
        <time>2021-01-16T12:33:00.000Z</time>
      </trkpt>
      <trkpt lat="45.60075" lon="6.1079">
        <ele>1082.4000244141</ele>
        <time>2021-01-16T12:33:05.000Z</time>
      </trkpt>
      <trkpt lat="45.60074" lon="6.1079">
        <ele>1083</ele>
        <time>2021-01-16T12:33:07.000Z</time>
      </trkpt>
      <trkpt lat="45.60072" lon="6.10791">
        <ele>1083.5999755859</ele>
        <time>2021-01-16T12:33:09.000Z</time>
      </trkpt>
      <trkpt lat="45.60067" lon="6.10797">
        <ele>1084.5999755859</ele>
        <time>2021-01-16T12:33:15.000Z</time>
      </trkpt>
      <trkpt lat="45.60065" lon="6.10799">
        <ele>1085</ele>
        <time>2021-01-16T12:33:17.000Z</time>
      </trkpt>
      <trkpt lat="45.6006" lon="6.10807">
        <ele>1085.8000488281</ele>
        <time>2021-01-16T12:33:25.000Z</time>
      </trkpt>
      <trkpt lat="45.60059" lon="6.10809">
        <ele>1086.1999511719</ele>
        <time>2021-01-16T12:33:28.000Z</time>
      </trkpt>
      <trkpt lat="45.60052" lon="6.10815">
        <ele>1087</ele>
        <time>2021-01-16T12:33:35.000Z</time>
      </trkpt>
      <trkpt lat="45.60052" lon="6.10815">
        <ele>1087.1999511719</ele>
        <time>2021-01-16T12:33:37.000Z</time>
      </trkpt>
      <trkpt lat="45.60046" lon="6.10819">
        <ele>1088</ele>
        <time>2021-01-16T12:33:43.000Z</time>
      </trkpt>
      <trkpt lat="45.60044" lon="6.10819">
        <ele>1088.4000244141</ele>
        <time>2021-01-16T12:33:46.000Z</time>
      </trkpt>
      <trkpt lat="45.60039" lon="6.10822">
        <ele>1089.1999511719</ele>
        <time>2021-01-16T12:33:51.000Z</time>
      </trkpt>
      <trkpt lat="45.60036" lon="6.10824">
        <ele>1090</ele>
        <time>2021-01-16T12:33:56.000Z</time>
      </trkpt>
      <trkpt lat="45.60035" lon="6.10824">
        <ele>1090.1999511719</ele>
        <time>2021-01-16T12:33:57.000Z</time>
      </trkpt>
      <trkpt lat="45.60029" lon="6.10827">
        <ele>1091.1999511719</ele>
        <time>2021-01-16T12:34:03.000Z</time>
      </trkpt>
      <trkpt lat="45.60028" lon="6.10826">
        <ele>1092.1999511719</ele>
        <time>2021-01-16T12:34:07.000Z</time>
      </trkpt>
      <trkpt lat="45.60024" lon="6.1083">
        <ele>1093.4000244141</ele>
        <time>2021-01-16T12:34:12.000Z</time>
      </trkpt>
      <trkpt lat="45.60022" lon="6.10831">
        <ele>1094</ele>
        <time>2021-01-16T12:34:15.000Z</time>
      </trkpt>
      <trkpt lat="45.60021" lon="6.10832">
        <ele>1094.4000244141</ele>
        <time>2021-01-16T12:34:16.000Z</time>
      </trkpt>
      <trkpt lat="45.60019" lon="6.10833">
        <ele>1095.4000244141</ele>
        <time>2021-01-16T12:34:19.000Z</time>
      </trkpt>
      <trkpt lat="45.60017" lon="6.10833">
        <ele>1096.4000244141</ele>
        <time>2021-01-16T12:34:25.000Z</time>
      </trkpt>
      <trkpt lat="45.60017" lon="6.10833">
        <ele>1096.8000488281</ele>
        <time>2021-01-16T12:34:26.000Z</time>
      </trkpt>
      <trkpt lat="45.60017" lon="6.10833">
        <ele>1097.4000244141</ele>
        <time>2021-01-16T12:34:29.000Z</time>
      </trkpt>
      <trkpt lat="45.60015" lon="6.10837">
        <ele>1098.5999755859</ele>
        <time>2021-01-16T12:34:36.000Z</time>
      </trkpt>
      <trkpt lat="45.60015" lon="6.1084">
        <ele>1098.8000488281</ele>
        <time>2021-01-16T12:34:38.000Z</time>
      </trkpt>
      <trkpt lat="45.60015" lon="6.10843">
        <ele>1099.8000488281</ele>
        <time>2021-01-16T12:34:41.000Z</time>
      </trkpt>
      <trkpt lat="45.60013" lon="6.10848">
        <ele>1100.8000488281</ele>
        <time>2021-01-16T12:34:44.000Z</time>
      </trkpt>
      <trkpt lat="45.60011" lon="6.10853">
        <ele>1101.5999755859</ele>
        <time>2021-01-16T12:34:48.000Z</time>
      </trkpt>
      <trkpt lat="45.60011" lon="6.10856">
        <ele>1102</ele>
        <time>2021-01-16T12:34:55.000Z</time>
      </trkpt>
      <trkpt lat="45.60011" lon="6.10856">
        <ele>1103</ele>
        <time>2021-01-16T12:34:59.000Z</time>
      </trkpt>
      <trkpt lat="45.60011" lon="6.10856">
        <ele>1103.1999511719</ele>
        <time>2021-01-16T12:35:13.000Z</time>
      </trkpt>
      <trkpt lat="45.60008" lon="6.10852">
        <ele>1103.5999755859</ele>
        <time>2021-01-16T12:35:25.000Z</time>
      </trkpt>
      <trkpt lat="45.60003" lon="6.10846">
        <ele>1104.4000244141</ele>
        <time>2021-01-16T12:35:31.000Z</time>
      </trkpt>
      <trkpt lat="45.60003" lon="6.10846">
        <ele>1105</ele>
        <time>2021-01-16T12:35:36.000Z</time>
      </trkpt>
      <trkpt lat="45.60004" lon="6.10847">
        <ele>1105.4000244141</ele>
        <time>2021-01-16T12:35:48.000Z</time>
      </trkpt>
      <trkpt lat="45.60006" lon="6.10855">
        <ele>1106.4000244141</ele>
        <time>2021-01-16T12:35:56.000Z</time>
      </trkpt>
      <trkpt lat="45.60006" lon="6.10856">
        <ele>1106.5999755859</ele>
        <time>2021-01-16T12:35:57.000Z</time>
      </trkpt>
      <trkpt lat="45.60001" lon="6.10853">
        <ele>1107.5999755859</ele>
        <time>2021-01-16T12:36:03.000Z</time>
      </trkpt>
      <trkpt lat="45.59999" lon="6.10851">
        <ele>1108.5999755859</ele>
        <time>2021-01-16T12:36:06.000Z</time>
      </trkpt>
      <trkpt lat="45.59998" lon="6.1085">
        <ele>1108.5999755859</ele>
        <time>2021-01-16T12:36:07.000Z</time>
      </trkpt>
      <trkpt lat="45.59996" lon="6.10845">
        <ele>1109.8000488281</ele>
        <time>2021-01-16T12:36:12.000Z</time>
      </trkpt>
      <trkpt lat="45.59994" lon="6.10845">
        <ele>1111</ele>
        <time>2021-01-16T12:36:16.000Z</time>
      </trkpt>
      <trkpt lat="45.59993" lon="6.10845">
        <ele>1111</ele>
        <time>2021-01-16T12:36:17.000Z</time>
      </trkpt>
      <trkpt lat="45.5999" lon="6.10849">
        <ele>1112</ele>
        <time>2021-01-16T12:36:21.000Z</time>
      </trkpt>
      <trkpt lat="45.5999" lon="6.10852">
        <ele>1112.5999755859</ele>
        <time>2021-01-16T12:36:26.000Z</time>
      </trkpt>
      <trkpt lat="45.5999" lon="6.10852">
        <ele>1113.1999511719</ele>
        <time>2021-01-16T12:36:28.000Z</time>
      </trkpt>
      <trkpt lat="45.5999" lon="6.10852">
        <ele>1114.1999511719</ele>
        <time>2021-01-16T12:36:31.000Z</time>
      </trkpt>
      <trkpt lat="45.5999" lon="6.10852">
        <ele>1115</ele>
        <time>2021-01-16T12:36:35.000Z</time>
      </trkpt>
      <trkpt lat="45.59988" lon="6.10855">
        <ele>1115.1999511719</ele>
        <time>2021-01-16T12:36:37.000Z</time>
      </trkpt>
      <trkpt lat="45.59986" lon="6.10861">
        <ele>1116.4000244141</ele>
        <time>2021-01-16T12:36:41.000Z</time>
      </trkpt>
      <trkpt lat="45.59986" lon="6.10861">
        <ele>1117.4000244141</ele>
        <time>2021-01-16T12:36:44.000Z</time>
      </trkpt>
      <trkpt lat="45.59986" lon="6.10861">
        <ele>1117.8000488281</ele>
        <time>2021-01-16T12:36:47.000Z</time>
      </trkpt>
      <trkpt lat="45.59986" lon="6.10861">
        <ele>1118.8000488281</ele>
        <time>2021-01-16T12:36:51.000Z</time>
      </trkpt>
      <trkpt lat="45.59978" lon="6.10853">
        <ele>1119.5999755859</ele>
        <time>2021-01-16T12:36:57.000Z</time>
      </trkpt>
      <trkpt lat="45.59976" lon="6.10852">
        <ele>1119.8000488281</ele>
        <time>2021-01-16T12:36:58.000Z</time>
      </trkpt>
      <trkpt lat="45.59966" lon="6.10846">
        <ele>1121</ele>
        <time>2021-01-16T12:37:06.000Z</time>
      </trkpt>
      <trkpt lat="45.59962" lon="6.10844">
        <ele>1122</ele>
        <time>2021-01-16T12:37:10.000Z</time>
      </trkpt>
      <trkpt lat="45.59961" lon="6.10843">
        <ele>1122.1999511719</ele>
        <time>2021-01-16T12:37:11.000Z</time>
      </trkpt>
      <trkpt lat="45.59958" lon="6.10851">
        <ele>1123.1999511719</ele>
        <time>2021-01-16T12:37:18.000Z</time>
      </trkpt>
      <trkpt lat="45.59957" lon="6.10853">
        <ele>1123.4000244141</ele>
        <time>2021-01-16T12:37:19.000Z</time>
      </trkpt>
      <trkpt lat="45.59956" lon="6.10859">
        <ele>1124.5999755859</ele>
        <time>2021-01-16T12:37:23.000Z</time>
      </trkpt>
      <trkpt lat="45.59955" lon="6.10864">
        <ele>1125.8000488281</ele>
        <time>2021-01-16T12:37:28.000Z</time>
      </trkpt>
      <trkpt lat="45.59952" lon="6.10871">
        <ele>1126.4000244141</ele>
        <time>2021-01-16T12:37:37.000Z</time>
      </trkpt>
      <trkpt lat="45.59952" lon="6.10874">
        <ele>1127</ele>
        <time>2021-01-16T12:37:39.000Z</time>
      </trkpt>
      <trkpt lat="45.59952" lon="6.10876">
        <ele>1128</ele>
        <time>2021-01-16T12:37:44.000Z</time>
      </trkpt>
      <trkpt lat="45.59952" lon="6.10875">
        <ele>1128.4000244141</ele>
        <time>2021-01-16T12:37:46.000Z</time>
      </trkpt>
      <trkpt lat="45.59951" lon="6.10872">
        <ele>1129.1999511719</ele>
        <time>2021-01-16T12:37:48.000Z</time>
      </trkpt>
      <trkpt lat="45.59946" lon="6.10869">
        <ele>1130.1999511719</ele>
        <time>2021-01-16T12:37:54.000Z</time>
      </trkpt>
      <trkpt lat="45.59944" lon="6.10869">
        <ele>1130.8000488281</ele>
        <time>2021-01-16T12:37:56.000Z</time>
      </trkpt>
      <trkpt lat="45.59943" lon="6.1087">
        <ele>1131.1999511719</ele>
        <time>2021-01-16T12:37:58.000Z</time>
      </trkpt>
      <trkpt lat="45.59939" lon="6.10872">
        <ele>1132.1999511719</ele>
        <time>2021-01-16T12:38:04.000Z</time>
      </trkpt>
      <trkpt lat="45.59938" lon="6.10874">
        <ele>1132.8000488281</ele>
        <time>2021-01-16T12:38:06.000Z</time>
      </trkpt>
      <trkpt lat="45.59937" lon="6.10877">
        <ele>1133.4000244141</ele>
        <time>2021-01-16T12:38:10.000Z</time>
      </trkpt>
      <trkpt lat="45.59937" lon="6.10882">
        <ele>1134.1999511719</ele>
        <time>2021-01-16T12:38:14.000Z</time>
      </trkpt>
      <trkpt lat="45.59937" lon="6.10885">
        <ele>1134.4000244141</ele>
        <time>2021-01-16T12:38:16.000Z</time>
      </trkpt>
      <trkpt lat="45.59939" lon="6.10895">
        <ele>1135.5999755859</ele>
        <time>2021-01-16T12:38:22.000Z</time>
      </trkpt>
      <trkpt lat="45.59945" lon="6.10899">
        <ele>1135.8000488281</ele>
        <time>2021-01-16T12:38:30.000Z</time>
      </trkpt>
      <trkpt lat="45.59951" lon="6.10903">
        <ele>1136.5999755859</ele>
        <time>2021-01-16T12:38:38.000Z</time>
      </trkpt>
      <trkpt lat="45.59953" lon="6.10904">
        <ele>1136.8000488281</ele>
        <time>2021-01-16T12:38:40.000Z</time>
      </trkpt>
      <trkpt lat="45.59962" lon="6.10905">
        <ele>1137.5999755859</ele>
        <time>2021-01-16T12:38:46.000Z</time>
      </trkpt>
      <trkpt lat="45.59966" lon="6.10907">
        <ele>1138</ele>
        <time>2021-01-16T12:38:49.000Z</time>
      </trkpt>
      <trkpt lat="45.59969" lon="6.10913">
        <ele>1138.5999755859</ele>
        <time>2021-01-16T12:38:57.000Z</time>
      </trkpt>
      <trkpt lat="45.5997" lon="6.10914">
        <ele>1138.8000488281</ele>
        <time>2021-01-16T12:38:58.000Z</time>
      </trkpt>
      <trkpt lat="45.59969" lon="6.10923">
        <ele>1139.8000488281</ele>
        <time>2021-01-16T12:39:08.000Z</time>
      </trkpt>
      <trkpt lat="45.59971" lon="6.10928">
        <ele>1140.8000488281</ele>
        <time>2021-01-16T12:39:13.000Z</time>
      </trkpt>
      <trkpt lat="45.59972" lon="6.10932">
        <ele>1141.4000244141</ele>
        <time>2021-01-16T12:39:18.000Z</time>
      </trkpt>
      <trkpt lat="45.59973" lon="6.10934">
        <ele>1142</ele>
        <time>2021-01-16T12:39:21.000Z</time>
      </trkpt>
      <trkpt lat="45.59975" lon="6.10944">
        <ele>1142.8000488281</ele>
        <time>2021-01-16T12:39:26.000Z</time>
      </trkpt>
      <trkpt lat="45.59977" lon="6.10948">
        <ele>1143.1999511719</ele>
        <time>2021-01-16T12:39:29.000Z</time>
      </trkpt>
      <trkpt lat="45.5998" lon="6.10951">
        <ele>1144.1999511719</ele>
        <time>2021-01-16T12:39:33.000Z</time>
      </trkpt>
      <trkpt lat="45.5998" lon="6.10951">
        <ele>1144.4000244141</ele>
        <time>2021-01-16T12:39:34.000Z</time>
      </trkpt>
      <trkpt lat="45.59981" lon="6.10956">
        <ele>1145.4000244141</ele>
        <time>2021-01-16T12:39:40.000Z</time>
      </trkpt>
      <trkpt lat="45.59981" lon="6.10959">
        <ele>1146.1999511719</ele>
        <time>2021-01-16T12:39:43.000Z</time>
      </trkpt>
      <trkpt lat="45.59981" lon="6.10959">
        <ele>1146.4000244141</ele>
        <time>2021-01-16T12:39:44.000Z</time>
      </trkpt>
      <trkpt lat="45.59982" lon="6.10966">
        <ele>1147.4000244141</ele>
        <time>2021-01-16T12:39:52.000Z</time>
      </trkpt>
      <trkpt lat="45.59982" lon="6.10967">
        <ele>1147.5999755859</ele>
        <time>2021-01-16T12:39:53.000Z</time>
      </trkpt>
      <trkpt lat="45.59984" lon="6.1097">
        <ele>1148.8000488281</ele>
        <time>2021-01-16T12:39:57.000Z</time>
      </trkpt>
      <trkpt lat="45.59985" lon="6.10974">
        <ele>1149.4000244141</ele>
        <time>2021-01-16T12:40:01.000Z</time>
      </trkpt>
      <trkpt lat="45.59987" lon="6.10981">
        <ele>1149.8000488281</ele>
        <time>2021-01-16T12:40:08.000Z</time>
      </trkpt>
      <trkpt lat="45.59987" lon="6.10983">
        <ele>1150.1999511719</ele>
        <time>2021-01-16T12:40:09.000Z</time>
      </trkpt>
      <trkpt lat="45.59987" lon="6.10987">
        <ele>1151</ele>
        <time>2021-01-16T12:40:12.000Z</time>
      </trkpt>
      <trkpt lat="45.59987" lon="6.10992">
        <ele>1151.5999755859</ele>
        <time>2021-01-16T12:40:17.000Z</time>
      </trkpt>
      <trkpt lat="45.59987" lon="6.10992">
        <ele>1152</ele>
        <time>2021-01-16T12:40:21.000Z</time>
      </trkpt>
      <trkpt lat="45.59987" lon="6.10992">
        <ele>1153</ele>
        <time>2021-01-16T12:40:26.000Z</time>
      </trkpt>
      <trkpt lat="45.59987" lon="6.10993">
        <ele>1153</ele>
        <time>2021-01-16T12:40:27.000Z</time>
      </trkpt>
      <trkpt lat="45.59985" lon="6.11">
        <ele>1153.5999755859</ele>
        <time>2021-01-16T12:40:36.000Z</time>
      </trkpt>
      <trkpt lat="45.59984" lon="6.11004">
        <ele>1154</ele>
        <time>2021-01-16T12:40:38.000Z</time>
      </trkpt>
      <trkpt lat="45.59979" lon="6.11016">
        <ele>1154.8000488281</ele>
        <time>2021-01-16T12:40:44.000Z</time>
      </trkpt>
      <trkpt lat="45.59977" lon="6.1102">
        <ele>1155.1999511719</ele>
        <time>2021-01-16T12:40:50.000Z</time>
      </trkpt>
      <trkpt lat="45.59977" lon="6.1102">
        <ele>1155.8000488281</ele>
        <time>2021-01-16T12:40:52.000Z</time>
      </trkpt>
      <trkpt lat="45.59975" lon="6.11022">
        <ele>1156.4000244141</ele>
        <time>2021-01-16T12:40:55.000Z</time>
      </trkpt>
      <trkpt lat="45.59973" lon="6.11023">
        <ele>1157</ele>
        <time>2021-01-16T12:41:00.000Z</time>
      </trkpt>
      <trkpt lat="45.59972" lon="6.11025">
        <ele>1157.4000244141</ele>
        <time>2021-01-16T12:41:02.000Z</time>
      </trkpt>
      <trkpt lat="45.59969" lon="6.11027">
        <ele>1158.5999755859</ele>
        <time>2021-01-16T12:41:07.000Z</time>
      </trkpt>
      <trkpt lat="45.59968" lon="6.11028">
        <ele>1159</ele>
        <time>2021-01-16T12:41:09.000Z</time>
      </trkpt>
      <trkpt lat="45.59964" lon="6.11034">
        <ele>1159.5999755859</ele>
        <time>2021-01-16T12:41:15.000Z</time>
      </trkpt>
      <trkpt lat="45.59963" lon="6.11035">
        <ele>1160.1999511719</ele>
        <time>2021-01-16T12:41:20.000Z</time>
      </trkpt>
      <trkpt lat="45.59962" lon="6.11035">
        <ele>1160.8000488281</ele>
        <time>2021-01-16T12:41:23.000Z</time>
      </trkpt>
      <trkpt lat="45.5996" lon="6.11036">
        <ele>1161.4000244141</ele>
        <time>2021-01-16T12:41:29.000Z</time>
      </trkpt>
      <trkpt lat="45.59957" lon="6.11037">
        <ele>1162.1999511719</ele>
        <time>2021-01-16T12:41:31.000Z</time>
      </trkpt>
      <trkpt lat="45.59954" lon="6.11042">
        <ele>1163.1999511719</ele>
        <time>2021-01-16T12:41:35.000Z</time>
      </trkpt>
      <trkpt lat="45.59953" lon="6.11043">
        <ele>1163.4000244141</ele>
        <time>2021-01-16T12:41:37.000Z</time>
      </trkpt>
      <trkpt lat="45.59953" lon="6.11053">
        <ele>1164.1999511719</ele>
        <time>2021-01-16T12:41:44.000Z</time>
      </trkpt>
      <trkpt lat="45.59953" lon="6.11054">
        <ele>1164.4000244141</ele>
        <time>2021-01-16T12:41:45.000Z</time>
      </trkpt>
      <trkpt lat="45.59954" lon="6.1106">
        <ele>1165.5999755859</ele>
        <time>2021-01-16T12:41:52.000Z</time>
      </trkpt>
      <trkpt lat="45.59954" lon="6.11062">
        <ele>1165.8000488281</ele>
        <time>2021-01-16T12:41:54.000Z</time>
      </trkpt>
      <trkpt lat="45.59952" lon="6.11066">
        <ele>1166.5999755859</ele>
        <time>2021-01-16T12:41:58.000Z</time>
      </trkpt>
      <trkpt lat="45.59952" lon="6.11068">
        <ele>1167.1999511719</ele>
        <time>2021-01-16T12:42:04.000Z</time>
      </trkpt>
      <trkpt lat="45.59952" lon="6.11068">
        <ele>1167.5999755859</ele>
        <time>2021-01-16T12:42:06.000Z</time>
      </trkpt>
      <trkpt lat="45.59951" lon="6.11071">
        <ele>1168.5999755859</ele>
        <time>2021-01-16T12:42:13.000Z</time>
      </trkpt>
      <trkpt lat="45.59951" lon="6.11074">
        <ele>1168.8000488281</ele>
        <time>2021-01-16T12:42:14.000Z</time>
      </trkpt>
      <trkpt lat="45.5995" lon="6.11077">
        <ele>1169.8000488281</ele>
        <time>2021-01-16T12:42:21.000Z</time>
      </trkpt>
      <trkpt lat="45.5995" lon="6.11077">
        <ele>1170.8000488281</ele>
        <time>2021-01-16T12:42:26.000Z</time>
      </trkpt>
      <trkpt lat="45.5995" lon="6.11077">
        <ele>1170.8000488281</ele>
        <time>2021-01-16T12:42:27.000Z</time>
      </trkpt>
      <trkpt lat="45.5995" lon="6.11077">
        <ele>1172</ele>
        <time>2021-01-16T12:42:33.000Z</time>
      </trkpt>
      <trkpt lat="45.59947" lon="6.1108">
        <ele>1173.1999511719</ele>
        <time>2021-01-16T12:42:37.000Z</time>
      </trkpt>
      <trkpt lat="45.59943" lon="6.11081">
        <ele>1173.5999755859</ele>
        <time>2021-01-16T12:42:39.000Z</time>
      </trkpt>
      <trkpt lat="45.59935" lon="6.1108">
        <ele>1174.1999511719</ele>
        <time>2021-01-16T12:42:43.000Z</time>
      </trkpt>
      <trkpt lat="45.59935" lon="6.1108">
        <ele>1175.1999511719</ele>
        <time>2021-01-16T12:42:49.000Z</time>
      </trkpt>
      <trkpt lat="45.59935" lon="6.1108">
        <ele>1176.1999511719</ele>
        <time>2021-01-16T12:42:51.000Z</time>
      </trkpt>
      <trkpt lat="45.59935" lon="6.1108">
        <ele>1177.4000244141</ele>
        <time>2021-01-16T12:42:54.000Z</time>
      </trkpt>
      <trkpt lat="45.59935" lon="6.1108">
        <ele>1178</ele>
        <time>2021-01-16T12:43:02.000Z</time>
      </trkpt>
      <trkpt lat="45.59935" lon="6.1108">
        <ele>1178.4000244141</ele>
        <time>2021-01-16T12:43:06.000Z</time>
      </trkpt>
      <trkpt lat="45.59935" lon="6.1108">
        <ele>1179.5999755859</ele>
        <time>2021-01-16T12:43:09.000Z</time>
      </trkpt>
      <trkpt lat="45.59932" lon="6.1108">
        <ele>1180</ele>
        <time>2021-01-16T12:43:16.000Z</time>
      </trkpt>
      <trkpt lat="45.5992" lon="6.11077">
        <ele>1180.5999755859</ele>
        <time>2021-01-16T12:43:21.000Z</time>
      </trkpt>
      <trkpt lat="45.59914" lon="6.11074">
        <ele>1181.8000488281</ele>
        <time>2021-01-16T12:43:26.000Z</time>
      </trkpt>
      <trkpt lat="45.59912" lon="6.11073">
        <ele>1182.4000244141</ele>
        <time>2021-01-16T12:43:28.000Z</time>
      </trkpt>
      <trkpt lat="45.59912" lon="6.11073">
        <ele>1183.1999511719</ele>
        <time>2021-01-16T12:43:31.000Z</time>
      </trkpt>
      <trkpt lat="45.59907" lon="6.1107">
        <ele>1184.4000244141</ele>
        <time>2021-01-16T12:43:34.000Z</time>
      </trkpt>
      <trkpt lat="45.59903" lon="6.11066">
        <ele>1185.5999755859</ele>
        <time>2021-01-16T12:43:38.000Z</time>
      </trkpt>
      <trkpt lat="45.59903" lon="6.11066">
        <ele>1185.8000488281</ele>
        <time>2021-01-16T12:43:39.000Z</time>
      </trkpt>
      <trkpt lat="45.59899" lon="6.11064">
        <ele>1186.5999755859</ele>
        <time>2021-01-16T12:43:48.000Z</time>
      </trkpt>
      <trkpt lat="45.59898" lon="6.11062">
        <ele>1187.4000244141</ele>
        <time>2021-01-16T12:43:51.000Z</time>
      </trkpt>
      <trkpt lat="45.59897" lon="6.11061">
        <ele>1187.8000488281</ele>
        <time>2021-01-16T12:43:52.000Z</time>
      </trkpt>
      <trkpt lat="45.59894" lon="6.11058">
        <ele>1188.8000488281</ele>
        <time>2021-01-16T12:43:57.000Z</time>
      </trkpt>
      <trkpt lat="45.59888" lon="6.11054">
        <ele>1189.1999511719</ele>
        <time>2021-01-16T12:44:01.000Z</time>
      </trkpt>
      <trkpt lat="45.59882" lon="6.11049">
        <ele>1190</ele>
        <time>2021-01-16T12:44:06.000Z</time>
      </trkpt>
      <trkpt lat="45.59879" lon="6.11048">
        <ele>1190.8000488281</ele>
        <time>2021-01-16T12:44:12.000Z</time>
      </trkpt>
      <trkpt lat="45.59878" lon="6.11047">
        <ele>1191</ele>
        <time>2021-01-16T12:44:13.000Z</time>
      </trkpt>
      <trkpt lat="45.59869" lon="6.11047">
        <ele>1192</ele>
        <time>2021-01-16T12:44:20.000Z</time>
      </trkpt>
      <trkpt lat="45.59867" lon="6.11044">
        <ele>1192</ele>
        <time>2021-01-16T12:44:22.000Z</time>
      </trkpt>
      <trkpt lat="45.59864" lon="6.11042">
        <ele>1193.1999511719</ele>
        <time>2021-01-16T12:44:29.000Z</time>
      </trkpt>
      <trkpt lat="45.59863" lon="6.11042">
        <ele>1193.1999511719</ele>
        <time>2021-01-16T12:44:30.000Z</time>
      </trkpt>
      <trkpt lat="45.59861" lon="6.1104">
        <ele>1194.4000244141</ele>
        <time>2021-01-16T12:44:35.000Z</time>
      </trkpt>
      <trkpt lat="45.59854" lon="6.11037">
        <ele>1195.5999755859</ele>
        <time>2021-01-16T12:44:41.000Z</time>
      </trkpt>
      <trkpt lat="45.59852" lon="6.11035">
        <ele>1195.8000488281</ele>
        <time>2021-01-16T12:44:43.000Z</time>
      </trkpt>
      <trkpt lat="45.59851" lon="6.11035">
        <ele>1196.5999755859</ele>
        <time>2021-01-16T12:44:46.000Z</time>
      </trkpt>
      <trkpt lat="45.59845" lon="6.11033">
        <ele>1197.4000244141</ele>
        <time>2021-01-16T12:44:52.000Z</time>
      </trkpt>
      <trkpt lat="45.59843" lon="6.11032">
        <ele>1197.8000488281</ele>
        <time>2021-01-16T12:44:54.000Z</time>
      </trkpt>
      <trkpt lat="45.59837" lon="6.11031">
        <ele>1198.4000244141</ele>
        <time>2021-01-16T12:45:00.000Z</time>
      </trkpt>
      <trkpt lat="45.59835" lon="6.1103">
        <ele>1199</ele>
        <time>2021-01-16T12:45:04.000Z</time>
      </trkpt>
      <trkpt lat="45.59831" lon="6.11028">
        <ele>1199.4000244141</ele>
        <time>2021-01-16T12:45:08.000Z</time>
      </trkpt>
      <trkpt lat="45.59825" lon="6.11024">
        <ele>1200</ele>
        <time>2021-01-16T12:45:13.000Z</time>
      </trkpt>
      <trkpt lat="45.5982" lon="6.11024">
        <ele>1200</ele>
        <time>2021-01-16T12:45:19.000Z</time>
      </trkpt>
      <trkpt lat="45.59812" lon="6.11018">
        <ele>1200.8000488281</ele>
        <time>2021-01-16T12:45:26.000Z</time>
      </trkpt>
      <trkpt lat="45.59804" lon="6.11016">
        <ele>1200.8000488281</ele>
        <time>2021-01-16T12:45:33.000Z</time>
      </trkpt>
      <trkpt lat="45.59794" lon="6.11016">
        <ele>1200.8000488281</ele>
        <time>2021-01-16T12:45:41.000Z</time>
      </trkpt>
      <trkpt lat="45.5979" lon="6.11015">
        <ele>1201</ele>
        <time>2021-01-16T12:45:44.000Z</time>
      </trkpt>
      <trkpt lat="45.59784" lon="6.11017">
        <ele>1201</ele>
        <time>2021-01-16T12:45:49.000Z</time>
      </trkpt>
      <trkpt lat="45.59772" lon="6.11014">
        <ele>1201</ele>
        <time>2021-01-16T12:45:59.000Z</time>
      </trkpt>
      <trkpt lat="45.59764" lon="6.11012">
        <ele>1200.8000488281</ele>
        <time>2021-01-16T12:46:08.000Z</time>
      </trkpt>
      <trkpt lat="45.59753" lon="6.11005">
        <ele>1201</ele>
        <time>2021-01-16T12:46:20.000Z</time>
      </trkpt>
      <trkpt lat="45.59745" lon="6.1101">
        <ele>1202</ele>
        <time>2021-01-16T12:46:29.000Z</time>
      </trkpt>
      <trkpt lat="45.59742" lon="6.11013">
        <ele>1202.4000244141</ele>
        <time>2021-01-16T12:46:31.000Z</time>
      </trkpt>
      <trkpt lat="45.59742" lon="6.11014">
        <ele>1203.1999511719</ele>
        <time>2021-01-16T12:46:37.000Z</time>
      </trkpt>
      <trkpt lat="45.59739" lon="6.11015">
        <ele>1204.1999511719</ele>
        <time>2021-01-16T12:46:41.000Z</time>
      </trkpt>
      <trkpt lat="45.59739" lon="6.11015">
        <ele>1204.4000244141</ele>
        <time>2021-01-16T12:46:42.000Z</time>
      </trkpt>
      <trkpt lat="45.59737" lon="6.11015">
        <ele>1205.4000244141</ele>
        <time>2021-01-16T12:46:49.000Z</time>
      </trkpt>
      <trkpt lat="45.59735" lon="6.11014">
        <ele>1206.4000244141</ele>
        <time>2021-01-16T12:46:54.000Z</time>
      </trkpt>
      <trkpt lat="45.59735" lon="6.11014">
        <ele>1207.5999755859</ele>
        <time>2021-01-16T12:46:59.000Z</time>
      </trkpt>
      <trkpt lat="45.59734" lon="6.11013">
        <ele>1208.8000488281</ele>
        <time>2021-01-16T12:47:05.000Z</time>
      </trkpt>
      <trkpt lat="45.59731" lon="6.11009">
        <ele>1209.8000488281</ele>
        <time>2021-01-16T12:47:11.000Z</time>
      </trkpt>
      <trkpt lat="45.59731" lon="6.11009">
        <ele>1209.8000488281</ele>
        <time>2021-01-16T12:47:12.000Z</time>
      </trkpt>
      <trkpt lat="45.59731" lon="6.11009">
        <ele>1211</ele>
        <time>2021-01-16T12:47:20.000Z</time>
      </trkpt>
      <trkpt lat="45.59731" lon="6.11009">
        <ele>1212.1999511719</ele>
        <time>2021-01-16T12:47:23.000Z</time>
      </trkpt>
      <trkpt lat="45.59731" lon="6.11009">
        <ele>1212.4000244141</ele>
        <time>2021-01-16T12:47:24.000Z</time>
      </trkpt>
      <trkpt lat="45.5972" lon="6.11011">
        <ele>1213</ele>
        <time>2021-01-16T12:47:35.000Z</time>
      </trkpt>
      <trkpt lat="45.5972" lon="6.11011">
        <ele>1213.4000244141</ele>
        <time>2021-01-16T12:47:36.000Z</time>
      </trkpt>
      <trkpt lat="45.5972" lon="6.11011">
        <ele>1214.5999755859</ele>
        <time>2021-01-16T12:47:42.000Z</time>
      </trkpt>
      <trkpt lat="45.5972" lon="6.11011">
        <ele>1215.4000244141</ele>
        <time>2021-01-16T12:47:46.000Z</time>
      </trkpt>
      <trkpt lat="45.5972" lon="6.11011">
        <ele>1215.5999755859</ele>
        <time>2021-01-16T12:47:47.000Z</time>
      </trkpt>
      <trkpt lat="45.59718" lon="6.11017">
        <ele>1216.8000488281</ele>
        <time>2021-01-16T12:47:55.000Z</time>
      </trkpt>
      <trkpt lat="45.59718" lon="6.11017">
        <ele>1217.4000244141</ele>
        <time>2021-01-16T12:47:57.000Z</time>
      </trkpt>
      <trkpt lat="45.59718" lon="6.11017">
        <ele>1217.8000488281</ele>
        <time>2021-01-16T12:47:59.000Z</time>
      </trkpt>
      <trkpt lat="45.59716" lon="6.11022">
        <ele>1218.8000488281</ele>
        <time>2021-01-16T12:48:04.000Z</time>
      </trkpt>
      <trkpt lat="45.59716" lon="6.11026">
        <ele>1219.4000244141</ele>
        <time>2021-01-16T12:48:06.000Z</time>
      </trkpt>
      <trkpt lat="45.59716" lon="6.11029">
        <ele>1220</ele>
        <time>2021-01-16T12:48:09.000Z</time>
      </trkpt>
      <trkpt lat="45.59716" lon="6.11048">
        <ele>1220.5999755859</ele>
        <time>2021-01-16T12:48:15.000Z</time>
      </trkpt>
      <trkpt lat="45.59717" lon="6.11049">
        <ele>1221</ele>
        <time>2021-01-16T12:48:18.000Z</time>
      </trkpt>
      <trkpt lat="45.59717" lon="6.11049">
        <ele>1222</ele>
        <time>2021-01-16T12:48:22.000Z</time>
      </trkpt>
      <trkpt lat="45.59717" lon="6.11049">
        <ele>1222</ele>
        <time>2021-01-16T12:48:25.000Z</time>
      </trkpt>
      <trkpt lat="45.59716" lon="6.1105">
        <ele>1223.1999511719</ele>
        <time>2021-01-16T12:48:31.000Z</time>
      </trkpt>
      <trkpt lat="45.59716" lon="6.1105">
        <ele>1224.4000244141</ele>
        <time>2021-01-16T12:48:36.000Z</time>
      </trkpt>
      <trkpt lat="45.59716" lon="6.1105">
        <ele>1224.5999755859</ele>
        <time>2021-01-16T12:48:37.000Z</time>
      </trkpt>
      <trkpt lat="45.59716" lon="6.1105">
        <ele>1225.4000244141</ele>
        <time>2021-01-16T12:48:43.000Z</time>
      </trkpt>
      <trkpt lat="45.59716" lon="6.1105">
        <ele>1226.5999755859</ele>
        <time>2021-01-16T12:48:46.000Z</time>
      </trkpt>
      <trkpt lat="45.59714" lon="6.11049">
        <ele>1227.1999511719</ele>
        <time>2021-01-16T12:48:50.000Z</time>
      </trkpt>
      <trkpt lat="45.59714" lon="6.11049">
        <ele>1228</ele>
        <time>2021-01-16T12:48:54.000Z</time>
      </trkpt>
      <trkpt lat="45.5971" lon="6.11047">
        <ele>1228.8000488281</ele>
        <time>2021-01-16T12:49:01.000Z</time>
      </trkpt>
      <trkpt lat="45.59708" lon="6.11046">
        <ele>1229</ele>
        <time>2021-01-16T12:49:02.000Z</time>
      </trkpt>
      <trkpt lat="45.59706" lon="6.11045">
        <ele>1230</ele>
        <time>2021-01-16T12:49:06.000Z</time>
      </trkpt>
      <trkpt lat="45.59697" lon="6.11038">
        <ele>1231.1999511719</ele>
        <time>2021-01-16T12:49:12.000Z</time>
      </trkpt>
      <trkpt lat="45.59694" lon="6.11037">
        <ele>1231.4000244141</ele>
        <time>2021-01-16T12:49:13.000Z</time>
      </trkpt>
      <trkpt lat="45.59688" lon="6.11033">
        <ele>1232.4000244141</ele>
        <time>2021-01-16T12:49:17.000Z</time>
      </trkpt>
      <trkpt lat="45.59683" lon="6.11029">
        <ele>1233.4000244141</ele>
        <time>2021-01-16T12:49:24.000Z</time>
      </trkpt>
      <trkpt lat="45.59683" lon="6.11029">
        <ele>1234.5999755859</ele>
        <time>2021-01-16T12:49:29.000Z</time>
      </trkpt>
      <trkpt lat="45.59683" lon="6.11029">
        <ele>1234.8000488281</ele>
        <time>2021-01-16T12:49:36.000Z</time>
      </trkpt>
      <trkpt lat="45.59683" lon="6.11029">
        <ele>1235.5999755859</ele>
        <time>2021-01-16T12:49:39.000Z</time>
      </trkpt>
      <trkpt lat="45.5968" lon="6.11029">
        <ele>1236.8000488281</ele>
        <time>2021-01-16T12:49:44.000Z</time>
      </trkpt>
      <trkpt lat="45.59672" lon="6.1103">
        <ele>1237.4000244141</ele>
        <time>2021-01-16T12:49:48.000Z</time>
      </trkpt>
      <trkpt lat="45.59669" lon="6.1103">
        <ele>1237.8000488281</ele>
        <time>2021-01-16T12:49:50.000Z</time>
      </trkpt>
      <trkpt lat="45.59667" lon="6.11029">
        <ele>1239</ele>
        <time>2021-01-16T12:49:56.000Z</time>
      </trkpt>
      <trkpt lat="45.59665" lon="6.11029">
        <ele>1240</ele>
        <time>2021-01-16T12:49:59.000Z</time>
      </trkpt>
      <trkpt lat="45.59664" lon="6.11028">
        <ele>1240.1999511719</ele>
        <time>2021-01-16T12:50:00.000Z</time>
      </trkpt>
      <trkpt lat="45.59663" lon="6.11027">
        <ele>1241.1999511719</ele>
        <time>2021-01-16T12:50:06.000Z</time>
      </trkpt>
      <trkpt lat="45.59663" lon="6.11027">
        <ele>1241.8000488281</ele>
        <time>2021-01-16T12:50:09.000Z</time>
      </trkpt>
      <trkpt lat="45.59655" lon="6.11033">
        <ele>1242.1999511719</ele>
        <time>2021-01-16T12:50:16.000Z</time>
      </trkpt>
      <trkpt lat="45.59654" lon="6.11037">
        <ele>1242.5999755859</ele>
        <time>2021-01-16T12:50:18.000Z</time>
      </trkpt>
      <trkpt lat="45.59655" lon="6.11046">
        <ele>1243.4000244141</ele>
        <time>2021-01-16T12:50:22.000Z</time>
      </trkpt>
      <trkpt lat="45.59656" lon="6.1105">
        <ele>1244.1999511719</ele>
        <time>2021-01-16T12:50:27.000Z</time>
      </trkpt>
      <trkpt lat="45.59656" lon="6.11052">
        <ele>1244.4000244141</ele>
        <time>2021-01-16T12:50:29.000Z</time>
      </trkpt>
      <trkpt lat="45.59659" lon="6.1106">
        <ele>1245.1999511719</ele>
        <time>2021-01-16T12:50:35.000Z</time>
      </trkpt>
      <trkpt lat="45.5966" lon="6.11063">
        <ele>1245.5999755859</ele>
        <time>2021-01-16T12:50:39.000Z</time>
      </trkpt>
      <trkpt lat="45.59665" lon="6.11069">
        <ele>1246.5999755859</ele>
        <time>2021-01-16T12:50:45.000Z</time>
      </trkpt>
      <trkpt lat="45.5967" lon="6.11071">
        <ele>1247.4000244141</ele>
        <time>2021-01-16T12:50:49.000Z</time>
      </trkpt>
      <trkpt lat="45.59675" lon="6.11073">
        <ele>1247.5999755859</ele>
        <time>2021-01-16T12:50:53.000Z</time>
      </trkpt>
      <trkpt lat="45.59676" lon="6.11074">
        <ele>1247.8000488281</ele>
        <time>2021-01-16T12:50:54.000Z</time>
      </trkpt>
      <trkpt lat="45.59678" lon="6.11079">
        <ele>1248.8000488281</ele>
        <time>2021-01-16T12:51:00.000Z</time>
      </trkpt>
      <trkpt lat="45.59678" lon="6.11081">
        <ele>1249.1999511719</ele>
        <time>2021-01-16T12:51:02.000Z</time>
      </trkpt>
      <trkpt lat="45.59679" lon="6.11083">
        <ele>1250</ele>
        <time>2021-01-16T12:51:06.000Z</time>
      </trkpt>
      <trkpt lat="45.59681" lon="6.11086">
        <ele>1250.8000488281</ele>
        <time>2021-01-16T12:51:10.000Z</time>
      </trkpt>
      <trkpt lat="45.59681" lon="6.11086">
        <ele>1251</ele>
        <time>2021-01-16T12:51:12.000Z</time>
      </trkpt>
      <trkpt lat="45.59687" lon="6.1109">
        <ele>1252</ele>
        <time>2021-01-16T12:51:17.000Z</time>
      </trkpt>
      <trkpt lat="45.5969" lon="6.11092">
        <ele>1253</ele>
        <time>2021-01-16T12:51:21.000Z</time>
      </trkpt>
      <trkpt lat="45.59692" lon="6.11094">
        <ele>1253.1999511719</ele>
        <time>2021-01-16T12:51:24.000Z</time>
      </trkpt>
      <trkpt lat="45.59695" lon="6.11096">
        <ele>1254</ele>
        <time>2021-01-16T12:51:29.000Z</time>
      </trkpt>
      <trkpt lat="45.59695" lon="6.11096">
        <ele>1254.1999511719</ele>
        <time>2021-01-16T12:51:30.000Z</time>
      </trkpt>
      <trkpt lat="45.59698" lon="6.11103">
        <ele>1255.1999511719</ele>
        <time>2021-01-16T12:51:37.000Z</time>
      </trkpt>
      <trkpt lat="45.59702" lon="6.11105">
        <ele>1256.4000244141</ele>
        <time>2021-01-16T12:51:43.000Z</time>
      </trkpt>
      <trkpt lat="45.59704" lon="6.11108">
        <ele>1257</ele>
        <time>2021-01-16T12:51:48.000Z</time>
      </trkpt>
      <trkpt lat="45.59706" lon="6.11111">
        <ele>1257.4000244141</ele>
        <time>2021-01-16T12:51:52.000Z</time>
      </trkpt>
      <trkpt lat="45.59709" lon="6.11115">
        <ele>1258.1999511719</ele>
        <time>2021-01-16T12:51:56.000Z</time>
      </trkpt>
      <trkpt lat="45.59715" lon="6.11117">
        <ele>1258.4000244141</ele>
        <time>2021-01-16T12:52:00.000Z</time>
      </trkpt>
      <trkpt lat="45.59719" lon="6.11122">
        <ele>1259.5999755859</ele>
        <time>2021-01-16T12:52:07.000Z</time>
      </trkpt>
      <trkpt lat="45.59726" lon="6.11132">
        <ele>1260.4000244141</ele>
        <time>2021-01-16T12:52:15.000Z</time>
      </trkpt>
      <trkpt lat="45.59727" lon="6.11133">
        <ele>1260.5999755859</ele>
        <time>2021-01-16T12:52:16.000Z</time>
      </trkpt>
      <trkpt lat="45.59732" lon="6.11137">
        <ele>1261.4000244141</ele>
        <time>2021-01-16T12:52:23.000Z</time>
      </trkpt>
      <trkpt lat="45.59733" lon="6.11139">
        <ele>1261.5999755859</ele>
        <time>2021-01-16T12:52:25.000Z</time>
      </trkpt>
      <trkpt lat="45.59736" lon="6.11144">
        <ele>1262</ele>
        <time>2021-01-16T12:52:30.000Z</time>
      </trkpt>
      <trkpt lat="45.5974" lon="6.11147">
        <ele>1262.5999755859</ele>
        <time>2021-01-16T12:52:34.000Z</time>
      </trkpt>
      <trkpt lat="45.59743" lon="6.11153">
        <ele>1263.4000244141</ele>
        <time>2021-01-16T12:52:40.000Z</time>
      </trkpt>
      <trkpt lat="45.59744" lon="6.11154">
        <ele>1263.5999755859</ele>
        <time>2021-01-16T12:52:42.000Z</time>
      </trkpt>
      <trkpt lat="45.59746" lon="6.11157">
        <ele>1264.4000244141</ele>
        <time>2021-01-16T12:52:49.000Z</time>
      </trkpt>
      <trkpt lat="45.59747" lon="6.11159">
        <ele>1264.8000488281</ele>
        <time>2021-01-16T12:52:51.000Z</time>
      </trkpt>
      <trkpt lat="45.59749" lon="6.11163">
        <ele>1265.5999755859</ele>
        <time>2021-01-16T12:52:57.000Z</time>
      </trkpt>
      <trkpt lat="45.59749" lon="6.11163">
        <ele>1265.8000488281</ele>
        <time>2021-01-16T12:52:58.000Z</time>
      </trkpt>
      <trkpt lat="45.59752" lon="6.1117">
        <ele>1266</ele>
        <time>2021-01-16T12:53:05.000Z</time>
      </trkpt>
      <trkpt lat="45.59756" lon="6.11178">
        <ele>1266.8000488281</ele>
        <time>2021-01-16T12:53:12.000Z</time>
      </trkpt>
      <trkpt lat="45.59758" lon="6.11181">
        <ele>1267.1999511719</ele>
        <time>2021-01-16T12:53:15.000Z</time>
      </trkpt>
      <trkpt lat="45.5976" lon="6.11191">
        <ele>1267.8000488281</ele>
        <time>2021-01-16T12:53:22.000Z</time>
      </trkpt>
      <trkpt lat="45.5976" lon="6.11191">
        <ele>1268.5999755859</ele>
        <time>2021-01-16T12:53:26.000Z</time>
      </trkpt>
      <trkpt lat="45.59767" lon="6.11198">
        <ele>1269</ele>
        <time>2021-01-16T12:53:30.000Z</time>
      </trkpt>
      <trkpt lat="45.59778" lon="6.11202">
        <ele>1269.8000488281</ele>
        <time>2021-01-16T12:53:38.000Z</time>
      </trkpt>
      <trkpt lat="45.59778" lon="6.11203">
        <ele>1270</ele>
        <time>2021-01-16T12:53:39.000Z</time>
      </trkpt>
      <trkpt lat="45.5978" lon="6.11203">
        <ele>1271</ele>
        <time>2021-01-16T12:53:45.000Z</time>
      </trkpt>
      <trkpt lat="45.5978" lon="6.11203">
        <ele>1271.5999755859</ele>
        <time>2021-01-16T12:53:49.000Z</time>
      </trkpt>
      <trkpt lat="45.5978" lon="6.11203">
        <ele>1272.1999511719</ele>
        <time>2021-01-16T12:53:54.000Z</time>
      </trkpt>
      <trkpt lat="45.59782" lon="6.11205">
        <ele>1273</ele>
        <time>2021-01-16T12:54:00.000Z</time>
      </trkpt>
      <trkpt lat="45.59782" lon="6.11205">
        <ele>1273.4000244141</ele>
        <time>2021-01-16T12:54:02.000Z</time>
      </trkpt>
      <trkpt lat="45.59796" lon="6.11211">
        <ele>1274</ele>
        <time>2021-01-16T12:54:09.000Z</time>
      </trkpt>
      <trkpt lat="45.598" lon="6.11213">
        <ele>1274.4000244141</ele>
        <time>2021-01-16T12:54:11.000Z</time>
      </trkpt>
      <trkpt lat="45.59806" lon="6.11218">
        <ele>1275.5999755859</ele>
        <time>2021-01-16T12:54:16.000Z</time>
      </trkpt>
      <trkpt lat="45.59808" lon="6.1122">
        <ele>1275.5999755859</ele>
        <time>2021-01-16T12:54:18.000Z</time>
      </trkpt>
      <trkpt lat="45.59814" lon="6.11227">
        <ele>1276.5999755859</ele>
        <time>2021-01-16T12:54:25.000Z</time>
      </trkpt>
      <trkpt lat="45.59817" lon="6.11229">
        <ele>1277.4000244141</ele>
        <time>2021-01-16T12:54:28.000Z</time>
      </trkpt>
      <trkpt lat="45.59818" lon="6.1123">
        <ele>1277.5999755859</ele>
        <time>2021-01-16T12:54:29.000Z</time>
      </trkpt>
      <trkpt lat="45.59823" lon="6.11238">
        <ele>1278.8000488281</ele>
        <time>2021-01-16T12:54:38.000Z</time>
      </trkpt>
      <trkpt lat="45.59826" lon="6.11246">
        <ele>1280.1999511719</ele>
        <time>2021-01-16T12:54:45.000Z</time>
      </trkpt>
      <trkpt lat="45.59826" lon="6.1125">
        <ele>1280.5999755859</ele>
        <time>2021-01-16T12:54:48.000Z</time>
      </trkpt>
      <trkpt lat="45.59828" lon="6.11253">
        <ele>1281.1999511719</ele>
        <time>2021-01-16T12:54:52.000Z</time>
      </trkpt>
      <trkpt lat="45.59832" lon="6.11258">
        <ele>1281.8000488281</ele>
        <time>2021-01-16T12:54:57.000Z</time>
      </trkpt>
      <trkpt lat="45.59834" lon="6.11259">
        <ele>1282.1999511719</ele>
        <time>2021-01-16T12:54:59.000Z</time>
      </trkpt>
      <trkpt lat="45.59839" lon="6.11263">
        <ele>1283.1999511719</ele>
        <time>2021-01-16T12:55:06.000Z</time>
      </trkpt>
      <trkpt lat="45.5984" lon="6.11264">
        <ele>1283.5999755859</ele>
        <time>2021-01-16T12:55:07.000Z</time>
      </trkpt>
      <trkpt lat="45.59843" lon="6.11269">
        <ele>1284.5999755859</ele>
        <time>2021-01-16T12:55:12.000Z</time>
      </trkpt>
      <trkpt lat="45.59844" lon="6.11272">
        <ele>1285.1999511719</ele>
        <time>2021-01-16T12:55:15.000Z</time>
      </trkpt>
      <trkpt lat="45.59847" lon="6.11273">
        <ele>1285.8000488281</ele>
        <time>2021-01-16T12:55:19.000Z</time>
      </trkpt>
      <trkpt lat="45.59849" lon="6.11278">
        <ele>1286.5999755859</ele>
        <time>2021-01-16T12:55:25.000Z</time>
      </trkpt>
      <trkpt lat="45.5985" lon="6.11278">
        <ele>1286.8000488281</ele>
        <time>2021-01-16T12:55:26.000Z</time>
      </trkpt>
      <trkpt lat="45.59853" lon="6.11283">
        <ele>1288.1999511719</ele>
        <time>2021-01-16T12:55:33.000Z</time>
      </trkpt>
      <trkpt lat="45.59854" lon="6.11285">
        <ele>1288.4000244141</ele>
        <time>2021-01-16T12:55:35.000Z</time>
      </trkpt>
      <trkpt lat="45.59857" lon="6.11288">
        <ele>1289.1999511719</ele>
        <time>2021-01-16T12:55:40.000Z</time>
      </trkpt>
      <trkpt lat="45.5986" lon="6.11291">
        <ele>1289.8000488281</ele>
        <time>2021-01-16T12:55:44.000Z</time>
      </trkpt>
      <trkpt lat="45.59861" lon="6.11292">
        <ele>1290.4000244141</ele>
        <time>2021-01-16T12:55:48.000Z</time>
      </trkpt>
      <trkpt lat="45.59861" lon="6.11292">
        <ele>1290.8000488281</ele>
        <time>2021-01-16T12:55:53.000Z</time>
      </trkpt>
      <trkpt lat="45.59861" lon="6.11292">
        <ele>1290.8000488281</ele>
        <time>2021-01-16T12:56:01.000Z</time>
      </trkpt>
      <trkpt lat="45.59862" lon="6.11293">
        <ele>1291.5999755859</ele>
        <time>2021-01-16T12:56:04.000Z</time>
      </trkpt>
      <trkpt lat="45.59866" lon="6.11302">
        <ele>1292.5999755859</ele>
        <time>2021-01-16T12:56:10.000Z</time>
      </trkpt>
      <trkpt lat="45.59867" lon="6.11303">
        <ele>1292.8000488281</ele>
        <time>2021-01-16T12:56:12.000Z</time>
      </trkpt>
      <trkpt lat="45.59871" lon="6.11307">
        <ele>1293.8000488281</ele>
        <time>2021-01-16T12:56:17.000Z</time>
      </trkpt>
      <trkpt lat="45.59876" lon="6.11311">
        <ele>1294.5999755859</ele>
        <time>2021-01-16T12:56:22.000Z</time>
      </trkpt>
      <trkpt lat="45.59882" lon="6.11315">
        <ele>1295</ele>
        <time>2021-01-16T12:56:27.000Z</time>
      </trkpt>
      <trkpt lat="45.59883" lon="6.11318">
        <ele>1295.4000244141</ele>
        <time>2021-01-16T12:56:31.000Z</time>
      </trkpt>
      <trkpt lat="45.59883" lon="6.11319">
        <ele>1296.1999511719</ele>
        <time>2021-01-16T12:56:35.000Z</time>
      </trkpt>
      <trkpt lat="45.59886" lon="6.11326">
        <ele>1296.8000488281</ele>
        <time>2021-01-16T12:56:40.000Z</time>
      </trkpt>
      <trkpt lat="45.59887" lon="6.11328">
        <ele>1297.1999511719</ele>
        <time>2021-01-16T12:56:42.000Z</time>
      </trkpt>
      <trkpt lat="45.59889" lon="6.11333">
        <ele>1298.1999511719</ele>
        <time>2021-01-16T12:56:48.000Z</time>
      </trkpt>
      <trkpt lat="45.59889" lon="6.11334">
        <ele>1298.1999511719</ele>
        <time>2021-01-16T12:56:49.000Z</time>
      </trkpt>
      <trkpt lat="45.5989" lon="6.11342">
        <ele>1299.4000244141</ele>
        <time>2021-01-16T12:56:54.000Z</time>
      </trkpt>
      <trkpt lat="45.59891" lon="6.11344">
        <ele>1299.8000488281</ele>
        <time>2021-01-16T12:56:56.000Z</time>
      </trkpt>
      <trkpt lat="45.59892" lon="6.11346">
        <ele>1300.4000244141</ele>
        <time>2021-01-16T12:56:58.000Z</time>
      </trkpt>
      <trkpt lat="45.59894" lon="6.11352">
        <ele>1301.1999511719</ele>
        <time>2021-01-16T12:57:04.000Z</time>
      </trkpt>
      <trkpt lat="45.59895" lon="6.11353">
        <ele>1301.4000244141</ele>
        <time>2021-01-16T12:57:06.000Z</time>
      </trkpt>
      <trkpt lat="45.59894" lon="6.11354">
        <ele>1302.4000244141</ele>
        <time>2021-01-16T12:57:10.000Z</time>
      </trkpt>
      <trkpt lat="45.59894" lon="6.11354">
        <ele>1303</ele>
        <time>2021-01-16T12:57:12.000Z</time>
      </trkpt>
      <trkpt lat="45.59895" lon="6.11359">
        <ele>1303.5999755859</ele>
        <time>2021-01-16T12:57:21.000Z</time>
      </trkpt>
      <trkpt lat="45.59898" lon="6.11364">
        <ele>1304.5999755859</ele>
        <time>2021-01-16T12:57:26.000Z</time>
      </trkpt>
      <trkpt lat="45.59899" lon="6.11366">
        <ele>1305.4000244141</ele>
        <time>2021-01-16T12:57:30.000Z</time>
      </trkpt>
      <trkpt lat="45.599" lon="6.11368">
        <ele>1305.8000488281</ele>
        <time>2021-01-16T12:57:32.000Z</time>
      </trkpt>
      <trkpt lat="45.59901" lon="6.1137">
        <ele>1306.8000488281</ele>
        <time>2021-01-16T12:57:36.000Z</time>
      </trkpt>
      <trkpt lat="45.59901" lon="6.1137">
        <ele>1307.4000244141</ele>
        <time>2021-01-16T12:57:38.000Z</time>
      </trkpt>
      <trkpt lat="45.59901" lon="6.11372">
        <ele>1308</ele>
        <time>2021-01-16T12:57:40.000Z</time>
      </trkpt>
      <trkpt lat="45.59896" lon="6.11373">
        <ele>1309</ele>
        <time>2021-01-16T12:57:47.000Z</time>
      </trkpt>
      <trkpt lat="45.59895" lon="6.11373">
        <ele>1309.4000244141</ele>
        <time>2021-01-16T12:57:49.000Z</time>
      </trkpt>
      <trkpt lat="45.59892" lon="6.11371">
        <ele>1310.1999511719</ele>
        <time>2021-01-16T12:57:53.000Z</time>
      </trkpt>
      <trkpt lat="45.59888" lon="6.11371">
        <ele>1311.1999511719</ele>
        <time>2021-01-16T12:57:58.000Z</time>
      </trkpt>
      <trkpt lat="45.59887" lon="6.11371">
        <ele>1311.4000244141</ele>
        <time>2021-01-16T12:57:59.000Z</time>
      </trkpt>
      <trkpt lat="45.59883" lon="6.11368">
        <ele>1312.4000244141</ele>
        <time>2021-01-16T12:58:05.000Z</time>
      </trkpt>
      <trkpt lat="45.59877" lon="6.11365">
        <ele>1312.8000488281</ele>
        <time>2021-01-16T12:58:10.000Z</time>
      </trkpt>
      <trkpt lat="45.59875" lon="6.11365">
        <ele>1313.5999755859</ele>
        <time>2021-01-16T12:58:14.000Z</time>
      </trkpt>
      <trkpt lat="45.5987" lon="6.11363">
        <ele>1314</ele>
        <time>2021-01-16T12:58:18.000Z</time>
      </trkpt>
      <trkpt lat="45.59868" lon="6.11363">
        <ele>1315</ele>
        <time>2021-01-16T12:58:22.000Z</time>
      </trkpt>
      <trkpt lat="45.59863" lon="6.11362">
        <ele>1316.1999511719</ele>
        <time>2021-01-16T12:58:27.000Z</time>
      </trkpt>
      <trkpt lat="45.59862" lon="6.11362">
        <ele>1316.5999755859</ele>
        <time>2021-01-16T12:58:29.000Z</time>
      </trkpt>
      <trkpt lat="45.59862" lon="6.11362">
        <ele>1317.1999511719</ele>
        <time>2021-01-16T12:58:32.000Z</time>
      </trkpt>
      <trkpt lat="45.59857" lon="6.11363">
        <ele>1318</ele>
        <time>2021-01-16T12:58:39.000Z</time>
      </trkpt>
      <trkpt lat="45.59856" lon="6.11362">
        <ele>1318.4000244141</ele>
        <time>2021-01-16T12:58:41.000Z</time>
      </trkpt>
      <trkpt lat="45.59855" lon="6.11362">
        <ele>1319.5999755859</ele>
        <time>2021-01-16T12:58:45.000Z</time>
      </trkpt>
      <trkpt lat="45.59854" lon="6.11363">
        <ele>1320.4000244141</ele>
        <time>2021-01-16T12:58:49.000Z</time>
      </trkpt>
      <trkpt lat="45.59857" lon="6.11369">
        <ele>1320.4000244141</ele>
        <time>2021-01-16T12:58:56.000Z</time>
      </trkpt>
      <trkpt lat="45.59858" lon="6.1137">
        <ele>1320.8000488281</ele>
        <time>2021-01-16T12:58:57.000Z</time>
      </trkpt>
      <trkpt lat="45.59859" lon="6.11374">
        <ele>1322.1999511719</ele>
        <time>2021-01-16T12:59:00.000Z</time>
      </trkpt>
      <trkpt lat="45.5986" lon="6.1138">
        <ele>1323</ele>
        <time>2021-01-16T12:59:05.000Z</time>
      </trkpt>
      <trkpt lat="45.59861" lon="6.11381">
        <ele>1323.1999511719</ele>
        <time>2021-01-16T12:59:07.000Z</time>
      </trkpt>
      <trkpt lat="45.59863" lon="6.11387">
        <ele>1324.4000244141</ele>
        <time>2021-01-16T12:59:11.000Z</time>
      </trkpt>
      <trkpt lat="45.59864" lon="6.1139">
        <ele>1324.5999755859</ele>
        <time>2021-01-16T12:59:13.000Z</time>
      </trkpt>
      <trkpt lat="45.59869" lon="6.11396">
        <ele>1325.5999755859</ele>
        <time>2021-01-16T12:59:20.000Z</time>
      </trkpt>
      <trkpt lat="45.5987" lon="6.11398">
        <ele>1325.8000488281</ele>
        <time>2021-01-16T12:59:21.000Z</time>
      </trkpt>
      <trkpt lat="45.59872" lon="6.114">
        <ele>1326.5999755859</ele>
        <time>2021-01-16T12:59:24.000Z</time>
      </trkpt>
      <trkpt lat="45.59873" lon="6.11402">
        <ele>1327.8000488281</ele>
        <time>2021-01-16T12:59:30.000Z</time>
      </trkpt>
      <trkpt lat="45.59873" lon="6.11403">
        <ele>1328.8000488281</ele>
        <time>2021-01-16T12:59:35.000Z</time>
      </trkpt>
      <trkpt lat="45.59873" lon="6.11403">
        <ele>1330</ele>
        <time>2021-01-16T12:59:40.000Z</time>
      </trkpt>
      <trkpt lat="45.59873" lon="6.11403">
        <ele>1331</ele>
        <time>2021-01-16T12:59:46.000Z</time>
      </trkpt>
      <trkpt lat="45.59873" lon="6.11404">
        <ele>1331.5999755859</ele>
        <time>2021-01-16T12:59:49.000Z</time>
      </trkpt>
      <trkpt lat="45.59874" lon="6.1141">
        <ele>1332.1999511719</ele>
        <time>2021-01-16T12:59:53.000Z</time>
      </trkpt>
      <trkpt lat="45.59875" lon="6.11419">
        <ele>1333</ele>
        <time>2021-01-16T12:59:57.000Z</time>
      </trkpt>
      <trkpt lat="45.59875" lon="6.11421">
        <ele>1333.4000244141</ele>
        <time>2021-01-16T12:59:58.000Z</time>
      </trkpt>
      <trkpt lat="45.59876" lon="6.11426">
        <ele>1334.5999755859</ele>
        <time>2021-01-16T13:00:06.000Z</time>
      </trkpt>
      <trkpt lat="45.59876" lon="6.11427">
        <ele>1334.8000488281</ele>
        <time>2021-01-16T13:00:07.000Z</time>
      </trkpt>
      <trkpt lat="45.59878" lon="6.11431">
        <ele>1335.5999755859</ele>
        <time>2021-01-16T13:00:12.000Z</time>
      </trkpt>
      <trkpt lat="45.59879" lon="6.11436">
        <ele>1336.5999755859</ele>
        <time>2021-01-16T13:00:18.000Z</time>
      </trkpt>
      <trkpt lat="45.59879" lon="6.11436">
        <ele>1336.8000488281</ele>
        <time>2021-01-16T13:00:19.000Z</time>
      </trkpt>
      <trkpt lat="45.5988" lon="6.11436">
        <ele>1337.8000488281</ele>
        <time>2021-01-16T13:00:25.000Z</time>
      </trkpt>
      <trkpt lat="45.59875" lon="6.11435">
        <ele>1338.4000244141</ele>
        <time>2021-01-16T13:00:34.000Z</time>
      </trkpt>
      <trkpt lat="45.59874" lon="6.11434">
        <ele>1338.8000488281</ele>
        <time>2021-01-16T13:00:36.000Z</time>
      </trkpt>
      <trkpt lat="45.5987" lon="6.11432">
        <ele>1339.8000488281</ele>
        <time>2021-01-16T13:00:42.000Z</time>
      </trkpt>
      <trkpt lat="45.59865" lon="6.11429">
        <ele>1340.8000488281</ele>
        <time>2021-01-16T13:00:48.000Z</time>
      </trkpt>
      <trkpt lat="45.59863" lon="6.11428">
        <ele>1341.5999755859</ele>
        <time>2021-01-16T13:00:51.000Z</time>
      </trkpt>
      <trkpt lat="45.59863" lon="6.11428">
        <ele>1342</ele>
        <time>2021-01-16T13:00:53.000Z</time>
      </trkpt>
      <trkpt lat="45.59862" lon="6.11427">
        <ele>1342.8000488281</ele>
        <time>2021-01-16T13:01:00.000Z</time>
      </trkpt>
      <trkpt lat="45.59862" lon="6.11427">
        <ele>1343</ele>
        <time>2021-01-16T13:01:01.000Z</time>
      </trkpt>
      <trkpt lat="45.59858" lon="6.11427">
        <ele>1344</ele>
        <time>2021-01-16T13:01:07.000Z</time>
      </trkpt>
      <trkpt lat="45.59853" lon="6.11427">
        <ele>1344.5999755859</ele>
        <time>2021-01-16T13:01:10.000Z</time>
      </trkpt>
      <trkpt lat="45.59853" lon="6.11427">
        <ele>1345</ele>
        <time>2021-01-16T13:01:12.000Z</time>
      </trkpt>
      <trkpt lat="45.5985" lon="6.11427">
        <ele>1345.5999755859</ele>
        <time>2021-01-16T13:01:18.000Z</time>
      </trkpt>
      <trkpt lat="45.59849" lon="6.11427">
        <ele>1346.4000244141</ele>
        <time>2021-01-16T13:01:21.000Z</time>
      </trkpt>
      <trkpt lat="45.59847" lon="6.11427">
        <ele>1347.1999511719</ele>
        <time>2021-01-16T13:01:28.000Z</time>
      </trkpt>
      <trkpt lat="45.59847" lon="6.11427">
        <ele>1347.4000244141</ele>
        <time>2021-01-16T13:01:30.000Z</time>
      </trkpt>
      <trkpt lat="45.59843" lon="6.11425">
        <ele>1348.1999511719</ele>
        <time>2021-01-16T13:01:36.000Z</time>
      </trkpt>
      <trkpt lat="45.59842" lon="6.11425">
        <ele>1348.4000244141</ele>
        <time>2021-01-16T13:01:37.000Z</time>
      </trkpt>
      <trkpt lat="45.59838" lon="6.11424">
        <ele>1349.1999511719</ele>
        <time>2021-01-16T13:01:45.000Z</time>
      </trkpt>
      <trkpt lat="45.59838" lon="6.11424">
        <ele>1349.4000244141</ele>
        <time>2021-01-16T13:01:46.000Z</time>
      </trkpt>
      <trkpt lat="45.59839" lon="6.11426">
        <ele>1349.1999511719</ele>
        <time>2021-01-16T13:01:52.000Z</time>
      </trkpt>
      <trkpt lat="45.59843" lon="6.11434">
        <ele>1350.8000488281</ele>
        <time>2021-01-16T13:01:58.000Z</time>
      </trkpt>
      <trkpt lat="45.59844" lon="6.11436">
        <ele>1351.1999511719</ele>
        <time>2021-01-16T13:02:02.000Z</time>
      </trkpt>
      <trkpt lat="45.59845" lon="6.11439">
        <ele>1351.8000488281</ele>
        <time>2021-01-16T13:02:07.000Z</time>
      </trkpt>
      <trkpt lat="45.59849" lon="6.11444">
        <ele>1352.4000244141</ele>
        <time>2021-01-16T13:02:11.000Z</time>
      </trkpt>
      <trkpt lat="45.59849" lon="6.11446">
        <ele>1353</ele>
        <time>2021-01-16T13:02:14.000Z</time>
      </trkpt>
      <trkpt lat="45.5985" lon="6.11452">
        <ele>1353.8000488281</ele>
        <time>2021-01-16T13:02:22.000Z</time>
      </trkpt>
      <trkpt lat="45.5985" lon="6.11452">
        <ele>1354.1999511719</ele>
        <time>2021-01-16T13:02:23.000Z</time>
      </trkpt>
      <trkpt lat="45.59852" lon="6.11456">
        <ele>1355.4000244141</ele>
        <time>2021-01-16T13:02:27.000Z</time>
      </trkpt>
      <trkpt lat="45.59856" lon="6.11459">
        <ele>1355.8000488281</ele>
        <time>2021-01-16T13:02:30.000Z</time>
      </trkpt>
      <trkpt lat="45.59859" lon="6.11464">
        <ele>1356.4000244141</ele>
        <time>2021-01-16T13:02:40.000Z</time>
      </trkpt>
      <trkpt lat="45.59859" lon="6.11465">
        <ele>1357.5999755859</ele>
        <time>2021-01-16T13:02:46.000Z</time>
      </trkpt>
      <trkpt lat="45.59859" lon="6.11465">
        <ele>1358.1999511719</ele>
        <time>2021-01-16T13:02:52.000Z</time>
      </trkpt>
      <trkpt lat="45.59859" lon="6.11465">
        <ele>1358.8000488281</ele>
        <time>2021-01-16T13:02:54.000Z</time>
      </trkpt>
      <trkpt lat="45.59856" lon="6.11464">
        <ele>1359.8000488281</ele>
        <time>2021-01-16T13:02:59.000Z</time>
      </trkpt>
      <trkpt lat="45.59855" lon="6.11464">
        <ele>1359.8000488281</ele>
        <time>2021-01-16T13:03:00.000Z</time>
      </trkpt>
      <trkpt lat="45.5985" lon="6.11462">
        <ele>1360.1999511719</ele>
        <time>2021-01-16T13:03:07.000Z</time>
      </trkpt>
      <trkpt lat="45.59846" lon="6.1146">
        <ele>1360.8000488281</ele>
        <time>2021-01-16T13:03:13.000Z</time>
      </trkpt>
      <trkpt lat="45.59846" lon="6.1146">
        <ele>1361</ele>
        <time>2021-01-16T13:03:14.000Z</time>
      </trkpt>
      <trkpt lat="45.5984" lon="6.11459">
        <ele>1362</ele>
        <time>2021-01-16T13:03:21.000Z</time>
      </trkpt>
      <trkpt lat="45.59839" lon="6.11459">
        <ele>1362.4000244141</ele>
        <time>2021-01-16T13:03:22.000Z</time>
      </trkpt>
      <trkpt lat="45.59836" lon="6.11459">
        <ele>1363.1999511719</ele>
        <time>2021-01-16T13:03:25.000Z</time>
      </trkpt>
      <trkpt lat="45.59832" lon="6.11459">
        <ele>1364.1999511719</ele>
        <time>2021-01-16T13:03:31.000Z</time>
      </trkpt>
      <trkpt lat="45.59829" lon="6.11458">
        <ele>1365.1999511719</ele>
        <time>2021-01-16T13:03:36.000Z</time>
      </trkpt>
      <trkpt lat="45.59827" lon="6.11457">
        <ele>1366</ele>
        <time>2021-01-16T13:03:41.000Z</time>
      </trkpt>
      <trkpt lat="45.59826" lon="6.11458">
        <ele>1366.4000244141</ele>
        <time>2021-01-16T13:03:42.000Z</time>
      </trkpt>
      <trkpt lat="45.59823" lon="6.11457">
        <ele>1367.4000244141</ele>
        <time>2021-01-16T13:03:47.000Z</time>
      </trkpt>
      <trkpt lat="45.59821" lon="6.11456">
        <ele>1368.4000244141</ele>
        <time>2021-01-16T13:03:52.000Z</time>
      </trkpt>
      <trkpt lat="45.5982" lon="6.11456">
        <ele>1368.5999755859</ele>
        <time>2021-01-16T13:03:53.000Z</time>
      </trkpt>
      <trkpt lat="45.59817" lon="6.11454">
        <ele>1369.5999755859</ele>
        <time>2021-01-16T13:03:58.000Z</time>
      </trkpt>
      <trkpt lat="45.59814" lon="6.11454">
        <ele>1370</ele>
        <time>2021-01-16T13:04:01.000Z</time>
      </trkpt>
      <trkpt lat="45.59811" lon="6.11452">
        <ele>1370.8000488281</ele>
        <time>2021-01-16T13:04:07.000Z</time>
      </trkpt>
      <trkpt lat="45.59809" lon="6.11452">
        <ele>1371.5999755859</ele>
        <time>2021-01-16T13:04:10.000Z</time>
      </trkpt>
      <trkpt lat="45.5981" lon="6.11452">
        <ele>1372</ele>
        <time>2021-01-16T13:04:12.000Z</time>
      </trkpt>
      <trkpt lat="45.59811" lon="6.11454">
        <ele>1372</ele>
        <time>2021-01-16T13:04:18.000Z</time>
      </trkpt>
      <trkpt lat="45.59815" lon="6.11458">
        <ele>1373.1999511719</ele>
        <time>2021-01-16T13:04:23.000Z</time>
      </trkpt>
      <trkpt lat="45.59815" lon="6.11462">
        <ele>1373.8000488281</ele>
        <time>2021-01-16T13:04:27.000Z</time>
      </trkpt>
      <trkpt lat="45.59816" lon="6.11463">
        <ele>1374.4000244141</ele>
        <time>2021-01-16T13:04:29.000Z</time>
      </trkpt>
      <trkpt lat="45.59819" lon="6.11468">
        <ele>1375.1999511719</ele>
        <time>2021-01-16T13:04:35.000Z</time>
      </trkpt>
      <trkpt lat="45.59819" lon="6.11469">
        <ele>1375.4000244141</ele>
        <time>2021-01-16T13:04:36.000Z</time>
      </trkpt>
      <trkpt lat="45.5982" lon="6.11473">
        <ele>1376.1999511719</ele>
        <time>2021-01-16T13:04:41.000Z</time>
      </trkpt>
      <trkpt lat="45.5982" lon="6.11474">
        <ele>1376.5999755859</ele>
        <time>2021-01-16T13:04:42.000Z</time>
      </trkpt>
      <trkpt lat="45.59822" lon="6.1148">
        <ele>1377.5999755859</ele>
        <time>2021-01-16T13:04:48.000Z</time>
      </trkpt>
      <trkpt lat="45.59822" lon="6.11482">
        <ele>1377.8000488281</ele>
        <time>2021-01-16T13:04:50.000Z</time>
      </trkpt>
      <trkpt lat="45.59823" lon="6.11484">
        <ele>1378.8000488281</ele>
        <time>2021-01-16T13:04:54.000Z</time>
      </trkpt>
      <trkpt lat="45.59826" lon="6.11489">
        <ele>1379.8000488281</ele>
        <time>2021-01-16T13:05:00.000Z</time>
      </trkpt>
      <trkpt lat="45.59826" lon="6.1149">
        <ele>1380</ele>
        <time>2021-01-16T13:05:02.000Z</time>
      </trkpt>
      <trkpt lat="45.59828" lon="6.11494">
        <ele>1381.1999511719</ele>
        <time>2021-01-16T13:05:08.000Z</time>
      </trkpt>
      <trkpt lat="45.59828" lon="6.11495">
        <ele>1381.4000244141</ele>
        <time>2021-01-16T13:05:09.000Z</time>
      </trkpt>
      <trkpt lat="45.59828" lon="6.11497">
        <ele>1382.4000244141</ele>
        <time>2021-01-16T13:05:12.000Z</time>
      </trkpt>
      <trkpt lat="45.59829" lon="6.115">
        <ele>1383.1999511719</ele>
        <time>2021-01-16T13:05:17.000Z</time>
      </trkpt>
      <trkpt lat="45.59829" lon="6.11501">
        <ele>1383.4000244141</ele>
        <time>2021-01-16T13:05:18.000Z</time>
      </trkpt>
      <trkpt lat="45.59831" lon="6.11507">
        <ele>1384.5999755859</ele>
        <time>2021-01-16T13:05:25.000Z</time>
      </trkpt>
      <trkpt lat="45.59833" lon="6.11512">
        <ele>1385.5999755859</ele>
        <time>2021-01-16T13:05:32.000Z</time>
      </trkpt>
      <trkpt lat="45.59834" lon="6.11513">
        <ele>1385.8000488281</ele>
        <time>2021-01-16T13:05:34.000Z</time>
      </trkpt>
      <trkpt lat="45.59834" lon="6.11517">
        <ele>1386.5999755859</ele>
        <time>2021-01-16T13:05:40.000Z</time>
      </trkpt>
      <trkpt lat="45.59834" lon="6.11518">
        <ele>1387</ele>
        <time>2021-01-16T13:05:42.000Z</time>
      </trkpt>
      <trkpt lat="45.59834" lon="6.11522">
        <ele>1387.8000488281</ele>
        <time>2021-01-16T13:05:46.000Z</time>
      </trkpt>
      <trkpt lat="45.59835" lon="6.11526">
        <ele>1388.8000488281</ele>
        <time>2021-01-16T13:05:50.000Z</time>
      </trkpt>
      <trkpt lat="45.59835" lon="6.11527">
        <ele>1389</ele>
        <time>2021-01-16T13:05:51.000Z</time>
      </trkpt>
      <trkpt lat="45.59835" lon="6.1153">
        <ele>1390</ele>
        <time>2021-01-16T13:05:58.000Z</time>
      </trkpt>
      <trkpt lat="45.59835" lon="6.1153">
        <ele>1390.1999511719</ele>
        <time>2021-01-16T13:05:59.000Z</time>
      </trkpt>
      <trkpt lat="45.59831" lon="6.11528">
        <ele>1391</ele>
        <time>2021-01-16T13:06:07.000Z</time>
      </trkpt>
      <trkpt lat="45.59828" lon="6.11526">
        <ele>1392.1999511719</ele>
        <time>2021-01-16T13:06:14.000Z</time>
      </trkpt>
      <trkpt lat="45.59827" lon="6.11526">
        <ele>1393.4000244141</ele>
        <time>2021-01-16T13:06:18.000Z</time>
      </trkpt>
      <trkpt lat="45.59824" lon="6.11526">
        <ele>1394.5999755859</ele>
        <time>2021-01-16T13:06:23.000Z</time>
      </trkpt>
      <trkpt lat="45.59822" lon="6.11532">
        <ele>1395.1999511719</ele>
        <time>2021-01-16T13:06:32.000Z</time>
      </trkpt>
      <trkpt lat="45.59822" lon="6.11534">
        <ele>1395.8000488281</ele>
        <time>2021-01-16T13:06:34.000Z</time>
      </trkpt>
      <trkpt lat="45.59822" lon="6.11534">
        <ele>1396.8000488281</ele>
        <time>2021-01-16T13:06:38.000Z</time>
      </trkpt>
      <trkpt lat="45.59822" lon="6.11534">
        <ele>1396.8000488281</ele>
        <time>2021-01-16T13:06:40.000Z</time>
      </trkpt>
      <trkpt lat="45.59821" lon="6.11541">
        <ele>1397</ele>
        <time>2021-01-16T13:06:48.000Z</time>
      </trkpt>
      <trkpt lat="45.59821" lon="6.11545">
        <ele>1397.8000488281</ele>
        <time>2021-01-16T13:06:52.000Z</time>
      </trkpt>
      <trkpt lat="45.59821" lon="6.11548">
        <ele>1398.4000244141</ele>
        <time>2021-01-16T13:06:56.000Z</time>
      </trkpt>
      <trkpt lat="45.59821" lon="6.1155">
        <ele>1399</ele>
        <time>2021-01-16T13:06:59.000Z</time>
      </trkpt>
      <trkpt lat="45.59821" lon="6.11553">
        <ele>1400</ele>
        <time>2021-01-16T13:07:03.000Z</time>
      </trkpt>
      <trkpt lat="45.59821" lon="6.11554">
        <ele>1400</ele>
        <time>2021-01-16T13:07:04.000Z</time>
      </trkpt>
      <trkpt lat="45.59821" lon="6.11558">
        <ele>1401.1999511719</ele>
        <time>2021-01-16T13:07:08.000Z</time>
      </trkpt>
      <trkpt lat="45.59821" lon="6.11559">
        <ele>1401.8000488281</ele>
        <time>2021-01-16T13:07:10.000Z</time>
      </trkpt>
      <trkpt lat="45.59822" lon="6.11561">
        <ele>1402.1999511719</ele>
        <time>2021-01-16T13:07:13.000Z</time>
      </trkpt>
      <trkpt lat="45.59819" lon="6.11563">
        <ele>1402.8000488281</ele>
        <time>2021-01-16T13:07:17.000Z</time>
      </trkpt>
      <trkpt lat="45.59817" lon="6.11563">
        <ele>1403.4000244141</ele>
        <time>2021-01-16T13:07:20.000Z</time>
      </trkpt>
      <trkpt lat="45.59814" lon="6.11563">
        <ele>1404.1999511719</ele>
        <time>2021-01-16T13:07:24.000Z</time>
      </trkpt>
      <trkpt lat="45.59813" lon="6.11563">
        <ele>1404.5999755859</ele>
        <time>2021-01-16T13:07:25.000Z</time>
      </trkpt>
      <trkpt lat="45.59807" lon="6.11566">
        <ele>1405.5999755859</ele>
        <time>2021-01-16T13:07:32.000Z</time>
      </trkpt>
      <trkpt lat="45.59804" lon="6.11566">
        <ele>1406.8000488281</ele>
        <time>2021-01-16T13:07:37.000Z</time>
      </trkpt>
      <trkpt lat="45.59803" lon="6.11566">
        <ele>1407.1999511719</ele>
        <time>2021-01-16T13:07:39.000Z</time>
      </trkpt>
      <trkpt lat="45.59801" lon="6.11567">
        <ele>1407.8000488281</ele>
        <time>2021-01-16T13:07:42.000Z</time>
      </trkpt>
      <trkpt lat="45.59798" lon="6.11567">
        <ele>1409</ele>
        <time>2021-01-16T13:07:47.000Z</time>
      </trkpt>
      <trkpt lat="45.59796" lon="6.11567">
        <ele>1409.1999511719</ele>
        <time>2021-01-16T13:07:48.000Z</time>
      </trkpt>
      <trkpt lat="45.59794" lon="6.11567">
        <ele>1410</ele>
        <time>2021-01-16T13:07:52.000Z</time>
      </trkpt>
      <trkpt lat="45.59791" lon="6.11567">
        <ele>1410.4000244141</ele>
        <time>2021-01-16T13:07:55.000Z</time>
      </trkpt>
      <trkpt lat="45.59788" lon="6.11567">
        <ele>1411.4000244141</ele>
        <time>2021-01-16T13:07:58.000Z</time>
      </trkpt>
      <trkpt lat="45.59784" lon="6.11567">
        <ele>1412.1999511719</ele>
        <time>2021-01-16T13:08:02.000Z</time>
      </trkpt>
      <trkpt lat="45.59784" lon="6.11567">
        <ele>1412.4000244141</ele>
        <time>2021-01-16T13:08:03.000Z</time>
      </trkpt>
      <trkpt lat="45.59779" lon="6.11568">
        <ele>1412.8000488281</ele>
        <time>2021-01-16T13:08:08.000Z</time>
      </trkpt>
      <trkpt lat="45.59777" lon="6.11567">
        <ele>1413.4000244141</ele>
        <time>2021-01-16T13:08:10.000Z</time>
      </trkpt>
      <trkpt lat="45.59771" lon="6.11567">
        <ele>1414.4000244141</ele>
        <time>2021-01-16T13:08:16.000Z</time>
      </trkpt>
      <trkpt lat="45.59769" lon="6.11567">
        <ele>1414.5999755859</ele>
        <time>2021-01-16T13:08:17.000Z</time>
      </trkpt>
      <trkpt lat="45.59765" lon="6.11567">
        <ele>1415.5999755859</ele>
        <time>2021-01-16T13:08:21.000Z</time>
      </trkpt>
      <trkpt lat="45.59764" lon="6.11567">
        <ele>1416.1999511719</ele>
        <time>2021-01-16T13:08:22.000Z</time>
      </trkpt>
      <trkpt lat="45.59763" lon="6.11567">
        <ele>1416.5999755859</ele>
        <time>2021-01-16T13:08:24.000Z</time>
      </trkpt>
      <trkpt lat="45.59759" lon="6.11566">
        <ele>1417.1999511719</ele>
        <time>2021-01-16T13:08:29.000Z</time>
      </trkpt>
      <trkpt lat="45.59756" lon="6.11566">
        <ele>1417.8000488281</ele>
        <time>2021-01-16T13:08:32.000Z</time>
      </trkpt>
      <trkpt lat="45.59752" lon="6.11566">
        <ele>1419</ele>
        <time>2021-01-16T13:08:36.000Z</time>
      </trkpt>
      <trkpt lat="45.59744" lon="6.11566">
        <ele>1420</ele>
        <time>2021-01-16T13:08:44.000Z</time>
      </trkpt>
      <trkpt lat="45.59741" lon="6.11566">
        <ele>1421.1999511719</ele>
        <time>2021-01-16T13:08:48.000Z</time>
      </trkpt>
      <trkpt lat="45.59739" lon="6.11565">
        <ele>1422</ele>
        <time>2021-01-16T13:08:50.000Z</time>
      </trkpt>
      <trkpt lat="45.59739" lon="6.11565">
        <ele>1422.1999511719</ele>
        <time>2021-01-16T13:08:51.000Z</time>
      </trkpt>
      <trkpt lat="45.59732" lon="6.11564">
        <ele>1423.4000244141</ele>
        <time>2021-01-16T13:08:57.000Z</time>
      </trkpt>
      <trkpt lat="45.59725" lon="6.11561">
        <ele>1424.4000244141</ele>
        <time>2021-01-16T13:09:04.000Z</time>
      </trkpt>
      <trkpt lat="45.5972" lon="6.11558">
        <ele>1425.8000488281</ele>
        <time>2021-01-16T13:09:10.000Z</time>
      </trkpt>
      <trkpt lat="45.59717" lon="6.11558">
        <ele>1426.8000488281</ele>
        <time>2021-01-16T13:09:13.000Z</time>
      </trkpt>
      <trkpt lat="45.59712" lon="6.11557">
        <ele>1427.8000488281</ele>
        <time>2021-01-16T13:09:18.000Z</time>
      </trkpt>
      <trkpt lat="45.59708" lon="6.11557">
        <ele>1429</ele>
        <time>2021-01-16T13:09:22.000Z</time>
      </trkpt>
      <trkpt lat="45.59702" lon="6.11558">
        <ele>1430</ele>
        <time>2021-01-16T13:09:28.000Z</time>
      </trkpt>
      <trkpt lat="45.59701" lon="6.11559">
        <ele>1430.4000244141</ele>
        <time>2021-01-16T13:09:29.000Z</time>
      </trkpt>
      <trkpt lat="45.597" lon="6.11559">
        <ele>1431</ele>
        <time>2021-01-16T13:09:31.000Z</time>
      </trkpt>
      <trkpt lat="45.59694" lon="6.1156">
        <ele>1431.8000488281</ele>
        <time>2021-01-16T13:09:36.000Z</time>
      </trkpt>
      <trkpt lat="45.59693" lon="6.11561">
        <ele>1432.1999511719</ele>
        <time>2021-01-16T13:09:37.000Z</time>
      </trkpt>
      <trkpt lat="45.59691" lon="6.11561">
        <ele>1433.1999511719</ele>
        <time>2021-01-16T13:09:40.000Z</time>
      </trkpt>
      <trkpt lat="45.59687" lon="6.11562">
        <ele>1433.8000488281</ele>
        <time>2021-01-16T13:09:44.000Z</time>
      </trkpt>
      <trkpt lat="45.59686" lon="6.11561">
        <ele>1434.4000244141</ele>
        <time>2021-01-16T13:09:47.000Z</time>
      </trkpt>
      <trkpt lat="45.59686" lon="6.11561">
        <ele>1435.4000244141</ele>
        <time>2021-01-16T13:09:51.000Z</time>
      </trkpt>
      <trkpt lat="45.59686" lon="6.11561">
        <ele>1435.4000244141</ele>
        <time>2021-01-16T13:09:52.000Z</time>
      </trkpt>
      <trkpt lat="45.59681" lon="6.11559">
        <ele>1435.4000244141</ele>
        <time>2021-01-16T13:09:58.000Z</time>
      </trkpt>
      <trkpt lat="45.59677" lon="6.11557">
        <ele>1436.5999755859</ele>
        <time>2021-01-16T13:10:02.000Z</time>
      </trkpt>
      <trkpt lat="45.59674" lon="6.11553">
        <ele>1437.4000244141</ele>
        <time>2021-01-16T13:10:06.000Z</time>
      </trkpt>
      <trkpt lat="45.59673" lon="6.11552">
        <ele>1437.5999755859</ele>
        <time>2021-01-16T13:10:07.000Z</time>
      </trkpt>
      <trkpt lat="45.59668" lon="6.11547">
        <ele>1438.5999755859</ele>
        <time>2021-01-16T13:10:14.000Z</time>
      </trkpt>
      <trkpt lat="45.59663" lon="6.11546">
        <ele>1439.5999755859</ele>
        <time>2021-01-16T13:10:18.000Z</time>
      </trkpt>
      <trkpt lat="45.59659" lon="6.11545">
        <ele>1440.1999511719</ele>
        <time>2021-01-16T13:10:22.000Z</time>
      </trkpt>
      <trkpt lat="45.59657" lon="6.11545">
        <ele>1440.5999755859</ele>
        <time>2021-01-16T13:10:24.000Z</time>
      </trkpt>
      <trkpt lat="45.59653" lon="6.11543">
        <ele>1441.8000488281</ele>
        <time>2021-01-16T13:10:28.000Z</time>
      </trkpt>
      <trkpt lat="45.59652" lon="6.11542">
        <ele>1441.8000488281</ele>
        <time>2021-01-16T13:10:29.000Z</time>
      </trkpt>
      <trkpt lat="45.59646" lon="6.1154">
        <ele>1443</ele>
        <time>2021-01-16T13:10:35.000Z</time>
      </trkpt>
      <trkpt lat="45.59645" lon="6.11539">
        <ele>1443.4000244141</ele>
        <time>2021-01-16T13:10:36.000Z</time>
      </trkpt>
      <trkpt lat="45.5964" lon="6.11539">
        <ele>1444</ele>
        <time>2021-01-16T13:10:40.000Z</time>
      </trkpt>
      <trkpt lat="45.59637" lon="6.11537">
        <ele>1444.8000488281</ele>
        <time>2021-01-16T13:10:43.000Z</time>
      </trkpt>
      <trkpt lat="45.59636" lon="6.11536">
        <ele>1445.1999511719</ele>
        <time>2021-01-16T13:10:46.000Z</time>
      </trkpt>
      <trkpt lat="45.59632" lon="6.11535">
        <ele>1446.1999511719</ele>
        <time>2021-01-16T13:10:49.000Z</time>
      </trkpt>
      <trkpt lat="45.5963" lon="6.11535">
        <ele>1446.8000488281</ele>
        <time>2021-01-16T13:10:51.000Z</time>
      </trkpt>
      <trkpt lat="45.59627" lon="6.11534">
        <ele>1447.1999511719</ele>
        <time>2021-01-16T13:10:53.000Z</time>
      </trkpt>
      <trkpt lat="45.59624" lon="6.11534">
        <ele>1448.1999511719</ele>
        <time>2021-01-16T13:10:57.000Z</time>
      </trkpt>
      <trkpt lat="45.59622" lon="6.11533">
        <ele>1448.8000488281</ele>
        <time>2021-01-16T13:10:59.000Z</time>
      </trkpt>
      <trkpt lat="45.59618" lon="6.11532">
        <ele>1449.1999511719</ele>
        <time>2021-01-16T13:11:03.000Z</time>
      </trkpt>
      <trkpt lat="45.59615" lon="6.11532">
        <ele>1449.8000488281</ele>
        <time>2021-01-16T13:11:06.000Z</time>
      </trkpt>
      <trkpt lat="45.59612" lon="6.11532">
        <ele>1450.4000244141</ele>
        <time>2021-01-16T13:11:08.000Z</time>
      </trkpt>
      <trkpt lat="45.59608" lon="6.11529">
        <ele>1451.4000244141</ele>
        <time>2021-01-16T13:11:13.000Z</time>
      </trkpt>
      <trkpt lat="45.59607" lon="6.11529">
        <ele>1451.5999755859</ele>
        <time>2021-01-16T13:11:14.000Z</time>
      </trkpt>
      <trkpt lat="45.59604" lon="6.11525">
        <ele>1452.5999755859</ele>
        <time>2021-01-16T13:11:18.000Z</time>
      </trkpt>
      <trkpt lat="45.59604" lon="6.11524">
        <ele>1453.4000244141</ele>
        <time>2021-01-16T13:11:22.000Z</time>
      </trkpt>
      <trkpt lat="45.59603" lon="6.11523">
        <ele>1453.5999755859</ele>
        <time>2021-01-16T13:11:24.000Z</time>
      </trkpt>
      <trkpt lat="45.596" lon="6.1152">
        <ele>1453.5999755859</ele>
        <time>2021-01-16T13:11:28.000Z</time>
      </trkpt>
      <trkpt lat="45.59596" lon="6.11515">
        <ele>1454.5999755859</ele>
        <time>2021-01-16T13:11:35.000Z</time>
      </trkpt>
      <trkpt lat="45.59595" lon="6.11513">
        <ele>1454.8000488281</ele>
        <time>2021-01-16T13:11:36.000Z</time>
      </trkpt>
      <trkpt lat="45.5959" lon="6.11508">
        <ele>1455.8000488281</ele>
        <time>2021-01-16T13:11:43.000Z</time>
      </trkpt>
      <trkpt lat="45.59583" lon="6.11502">
        <ele>1456.5999755859</ele>
        <time>2021-01-16T13:11:51.000Z</time>
      </trkpt>
      <trkpt lat="45.59582" lon="6.115">
        <ele>1456.8000488281</ele>
        <time>2021-01-16T13:11:53.000Z</time>
      </trkpt>
      <trkpt lat="45.59579" lon="6.11496">
        <ele>1457.5999755859</ele>
        <time>2021-01-16T13:11:58.000Z</time>
      </trkpt>
      <trkpt lat="45.59575" lon="6.11493">
        <ele>1457.8000488281</ele>
        <time>2021-01-16T13:12:02.000Z</time>
      </trkpt>
      <trkpt lat="45.5957" lon="6.1149">
        <ele>1459</ele>
        <time>2021-01-16T13:12:08.000Z</time>
      </trkpt>
      <trkpt lat="45.5957" lon="6.1149">
        <ele>1459.1999511719</ele>
        <time>2021-01-16T13:12:09.000Z</time>
      </trkpt>
      <trkpt lat="45.59565" lon="6.11486">
        <ele>1460.4000244141</ele>
        <time>2021-01-16T13:12:15.000Z</time>
      </trkpt>
      <trkpt lat="45.59559" lon="6.11484">
        <ele>1461.4000244141</ele>
        <time>2021-01-16T13:12:21.000Z</time>
      </trkpt>
      <trkpt lat="45.59557" lon="6.11483">
        <ele>1461.5999755859</ele>
        <time>2021-01-16T13:12:22.000Z</time>
      </trkpt>
      <trkpt lat="45.59556" lon="6.11483">
        <ele>1462.5999755859</ele>
        <time>2021-01-16T13:12:24.000Z</time>
      </trkpt>
      <trkpt lat="45.59548" lon="6.11479">
        <ele>1463.4000244141</ele>
        <time>2021-01-16T13:12:30.000Z</time>
      </trkpt>
      <trkpt lat="45.59546" lon="6.11478">
        <ele>1463.5999755859</ele>
        <time>2021-01-16T13:12:32.000Z</time>
      </trkpt>
      <trkpt lat="45.59543" lon="6.11475">
        <ele>1464.8000488281</ele>
        <time>2021-01-16T13:12:35.000Z</time>
      </trkpt>
      <trkpt lat="45.59539" lon="6.11473">
        <ele>1465.4000244141</ele>
        <time>2021-01-16T13:12:38.000Z</time>
      </trkpt>
      <trkpt lat="45.59536" lon="6.11471">
        <ele>1465.5999755859</ele>
        <time>2021-01-16T13:12:41.000Z</time>
      </trkpt>
      <trkpt lat="45.59534" lon="6.11469">
        <ele>1465.8000488281</ele>
        <time>2021-01-16T13:12:44.000Z</time>
      </trkpt>
      <trkpt lat="45.59532" lon="6.11467">
        <ele>1466.8000488281</ele>
        <time>2021-01-16T13:12:46.000Z</time>
      </trkpt>
      <trkpt lat="45.59531" lon="6.11467">
        <ele>1467.5999755859</ele>
        <time>2021-01-16T13:12:47.000Z</time>
      </trkpt>
      <trkpt lat="45.59527" lon="6.11461">
        <ele>1468.1999511719</ele>
        <time>2021-01-16T13:12:53.000Z</time>
      </trkpt>
      <trkpt lat="45.59525" lon="6.11461">
        <ele>1468.5999755859</ele>
        <time>2021-01-16T13:12:56.000Z</time>
      </trkpt>
      <trkpt lat="45.5952" lon="6.11458">
        <ele>1469.5999755859</ele>
        <time>2021-01-16T13:13:01.000Z</time>
      </trkpt>
      <trkpt lat="45.59517" lon="6.11456">
        <ele>1471</ele>
        <time>2021-01-16T13:13:05.000Z</time>
      </trkpt>
      <trkpt lat="45.59515" lon="6.11454">
        <ele>1471.4000244141</ele>
        <time>2021-01-16T13:13:08.000Z</time>
      </trkpt>
      <trkpt lat="45.59513" lon="6.11453">
        <ele>1472.1999511719</ele>
        <time>2021-01-16T13:13:11.000Z</time>
      </trkpt>
      <trkpt lat="45.59509" lon="6.1145">
        <ele>1473</ele>
        <time>2021-01-16T13:13:16.000Z</time>
      </trkpt>
      <trkpt lat="45.59507" lon="6.11448">
        <ele>1473.5999755859</ele>
        <time>2021-01-16T13:13:19.000Z</time>
      </trkpt>
      <trkpt lat="45.59503" lon="6.11444">
        <ele>1474.4000244141</ele>
        <time>2021-01-16T13:13:24.000Z</time>
      </trkpt>
      <trkpt lat="45.59501" lon="6.11443">
        <ele>1474.5999755859</ele>
        <time>2021-01-16T13:13:25.000Z</time>
      </trkpt>
      <trkpt lat="45.59495" lon="6.11441">
        <ele>1475.8000488281</ele>
        <time>2021-01-16T13:13:32.000Z</time>
      </trkpt>
      <trkpt lat="45.5949" lon="6.11438">
        <ele>1476.8000488281</ele>
        <time>2021-01-16T13:13:38.000Z</time>
      </trkpt>
      <trkpt lat="45.59489" lon="6.11436">
        <ele>1477.4000244141</ele>
        <time>2021-01-16T13:13:40.000Z</time>
      </trkpt>
      <trkpt lat="45.59484" lon="6.11433">
        <ele>1478</ele>
        <time>2021-01-16T13:13:45.000Z</time>
      </trkpt>
      <trkpt lat="45.59481" lon="6.11432">
        <ele>1478.8000488281</ele>
        <time>2021-01-16T13:13:48.000Z</time>
      </trkpt>
      <trkpt lat="45.5948" lon="6.11431">
        <ele>1479</ele>
        <time>2021-01-16T13:13:49.000Z</time>
      </trkpt>
      <trkpt lat="45.59477" lon="6.11429">
        <ele>1480</ele>
        <time>2021-01-16T13:13:54.000Z</time>
      </trkpt>
      <trkpt lat="45.59475" lon="6.11428">
        <ele>1480.4000244141</ele>
        <time>2021-01-16T13:13:56.000Z</time>
      </trkpt>
      <trkpt lat="45.59472" lon="6.11426">
        <ele>1481.1999511719</ele>
        <time>2021-01-16T13:13:59.000Z</time>
      </trkpt>
      <trkpt lat="45.5947" lon="6.11422">
        <ele>1482</ele>
        <time>2021-01-16T13:14:04.000Z</time>
      </trkpt>
      <trkpt lat="45.5947" lon="6.11421">
        <ele>1482.4000244141</ele>
        <time>2021-01-16T13:14:05.000Z</time>
      </trkpt>
      <trkpt lat="45.59467" lon="6.11416">
        <ele>1483.4000244141</ele>
        <time>2021-01-16T13:14:11.000Z</time>
      </trkpt>
      <trkpt lat="45.5946" lon="6.1141">
        <ele>1484.8000488281</ele>
        <time>2021-01-16T13:14:18.000Z</time>
      </trkpt>
      <trkpt lat="45.59456" lon="6.11409">
        <ele>1485.8000488281</ele>
        <time>2021-01-16T13:14:23.000Z</time>
      </trkpt>
      <trkpt lat="45.59454" lon="6.11409">
        <ele>1486.5999755859</ele>
        <time>2021-01-16T13:14:25.000Z</time>
      </trkpt>
      <trkpt lat="45.59454" lon="6.11409">
        <ele>1487</ele>
        <time>2021-01-16T13:14:26.000Z</time>
      </trkpt>
      <trkpt lat="45.59448" lon="6.11408">
        <ele>1488.1999511719</ele>
        <time>2021-01-16T13:14:32.000Z</time>
      </trkpt>
      <trkpt lat="45.59446" lon="6.11408">
        <ele>1488.8000488281</ele>
        <time>2021-01-16T13:14:34.000Z</time>
      </trkpt>
      <trkpt lat="45.59446" lon="6.11407">
        <ele>1489.1999511719</ele>
        <time>2021-01-16T13:14:36.000Z</time>
      </trkpt>
      <trkpt lat="45.59442" lon="6.11404">
        <ele>1490.1999511719</ele>
        <time>2021-01-16T13:14:42.000Z</time>
      </trkpt>
      <trkpt lat="45.59442" lon="6.11404">
        <ele>1490.4000244141</ele>
        <time>2021-01-16T13:14:43.000Z</time>
      </trkpt>
      <trkpt lat="45.59442" lon="6.11404">
        <ele>1490.5999755859</ele>
        <time>2021-01-16T13:14:55.000Z</time>
      </trkpt>
      <trkpt lat="45.59442" lon="6.11406">
        <ele>1490.8000488281</ele>
        <time>2021-01-16T13:15:02.000Z</time>
      </trkpt>
      <trkpt lat="45.59442" lon="6.11405">
        <ele>1491</ele>
        <time>2021-01-16T13:15:10.000Z</time>
      </trkpt>
      <trkpt lat="45.59442" lon="6.11405">
        <ele>1491</ele>
        <time>2021-01-16T13:15:20.000Z</time>
      </trkpt>
      <trkpt lat="45.59442" lon="6.11405">
        <ele>1490.8000488281</ele>
        <time>2021-01-16T13:15:31.000Z</time>
      </trkpt>
      <trkpt lat="45.59442" lon="6.11405">
        <ele>1490.8000488281</ele>
        <time>2021-01-16T13:15:44.000Z</time>
      </trkpt>
      <trkpt lat="45.59442" lon="6.11405">
        <ele>1491</ele>
        <time>2021-01-16T13:15:57.000Z</time>
      </trkpt>
      <trkpt lat="45.59442" lon="6.11405">
        <ele>1491.1999511719</ele>
        <time>2021-01-16T13:15:58.000Z</time>
      </trkpt>
      <trkpt lat="45.59442" lon="6.11405">
        <ele>1490.8000488281</ele>
        <time>2021-01-16T13:16:08.000Z</time>
      </trkpt>
      <trkpt lat="45.59442" lon="6.11405">
        <ele>1490.8000488281</ele>
        <time>2021-01-16T13:16:22.000Z</time>
      </trkpt>
      <trkpt lat="45.59443" lon="6.11405">
        <ele>1491</ele>
        <time>2021-01-16T13:16:33.000Z</time>
      </trkpt>
      <trkpt lat="45.59443" lon="6.11405">
        <ele>1491</ele>
        <time>2021-01-16T13:16:47.000Z</time>
      </trkpt>
      <trkpt lat="45.59443" lon="6.11405">
        <ele>1491</ele>
        <time>2021-01-16T13:17:01.000Z</time>
      </trkpt>
      <trkpt lat="45.59443" lon="6.11405">
        <ele>1491</ele>
        <time>2021-01-16T13:17:12.000Z</time>
      </trkpt>
      <trkpt lat="45.59443" lon="6.11405">
        <ele>1491</ele>
        <time>2021-01-16T13:17:25.000Z</time>
      </trkpt>
      <trkpt lat="45.59443" lon="6.11405">
        <ele>1491</ele>
        <time>2021-01-16T13:17:37.000Z</time>
      </trkpt>
      <trkpt lat="45.59443" lon="6.11406">
        <ele>1491.4000244141</ele>
        <time>2021-01-16T13:17:49.000Z</time>
      </trkpt>
      <trkpt lat="45.59442" lon="6.11406">
        <ele>1490.5999755859</ele>
        <time>2021-01-16T13:17:56.000Z</time>
      </trkpt>
      <trkpt lat="45.59442" lon="6.11406">
        <ele>1491.4000244141</ele>
        <time>2021-01-16T13:18:02.000Z</time>
      </trkpt>
      <trkpt lat="45.59442" lon="6.11406">
        <ele>1491.4000244141</ele>
        <time>2021-01-16T13:18:09.000Z</time>
      </trkpt>
      <trkpt lat="45.59442" lon="6.11406">
        <ele>1491</ele>
        <time>2021-01-16T13:18:19.000Z</time>
      </trkpt>
      <trkpt lat="45.59442" lon="6.11406">
        <ele>1491.1999511719</ele>
        <time>2021-01-16T13:18:30.000Z</time>
      </trkpt>
      <trkpt lat="45.59442" lon="6.11406">
        <ele>1491.1999511719</ele>
        <time>2021-01-16T13:18:42.000Z</time>
      </trkpt>
      <trkpt lat="45.59443" lon="6.11406">
        <ele>1490.5999755859</ele>
        <time>2021-01-16T13:18:51.000Z</time>
      </trkpt>
      <trkpt lat="45.59443" lon="6.11406">
        <ele>1491.5999755859</ele>
        <time>2021-01-16T13:19:03.000Z</time>
      </trkpt>
      <trkpt lat="45.59443" lon="6.11406">
        <ele>1491.1999511719</ele>
        <time>2021-01-16T13:19:17.000Z</time>
      </trkpt>
      <trkpt lat="45.59443" lon="6.11405">
        <ele>1491</ele>
        <time>2021-01-16T13:19:28.000Z</time>
      </trkpt>
      <trkpt lat="45.59443" lon="6.11405">
        <ele>1491</ele>
        <time>2021-01-16T13:19:42.000Z</time>
      </trkpt>
      <trkpt lat="45.59443" lon="6.11405">
        <ele>1490</ele>
        <time>2021-01-16T13:19:47.000Z</time>
      </trkpt>
      <trkpt lat="45.59443" lon="6.11404">
        <ele>1490.5999755859</ele>
        <time>2021-01-16T13:19:51.000Z</time>
      </trkpt>
      <trkpt lat="45.59443" lon="6.11403">
        <ele>1491.1999511719</ele>
        <time>2021-01-16T13:19:53.000Z</time>
      </trkpt>
      <trkpt lat="45.59443" lon="6.11403">
        <ele>1492.1999511719</ele>
        <time>2021-01-16T13:20:01.000Z</time>
      </trkpt>
      <trkpt lat="45.59443" lon="6.11403">
        <ele>1491.8000488281</ele>
        <time>2021-01-16T13:20:02.000Z</time>
      </trkpt>
      <trkpt lat="45.59443" lon="6.11403">
        <ele>1491</ele>
        <time>2021-01-16T13:20:03.000Z</time>
      </trkpt>
      <trkpt lat="45.59443" lon="6.11403">
        <ele>1490</ele>
        <time>2021-01-16T13:20:05.000Z</time>
      </trkpt>
      <trkpt lat="45.59443" lon="6.11403">
        <ele>1491.1999511719</ele>
        <time>2021-01-16T13:20:12.000Z</time>
      </trkpt>
      <trkpt lat="45.59443" lon="6.11403">
        <ele>1492.1999511719</ele>
        <time>2021-01-16T13:20:14.000Z</time>
      </trkpt>
      <trkpt lat="45.59443" lon="6.11403">
        <ele>1492.4000244141</ele>
        <time>2021-01-16T13:20:15.000Z</time>
      </trkpt>
      <trkpt lat="45.59443" lon="6.11403">
        <ele>1491</ele>
        <time>2021-01-16T13:20:21.000Z</time>
      </trkpt>
      <trkpt lat="45.59443" lon="6.11403">
        <ele>1491</ele>
        <time>2021-01-16T13:20:30.000Z</time>
      </trkpt>
      <trkpt lat="45.59443" lon="6.11404">
        <ele>1491</ele>
        <time>2021-01-16T13:20:47.000Z</time>
      </trkpt>
      <trkpt lat="45.59443" lon="6.11404">
        <ele>1491</ele>
        <time>2021-01-16T13:20:59.000Z</time>
      </trkpt>
      <trkpt lat="45.59443" lon="6.11404">
        <ele>1491</ele>
        <time>2021-01-16T13:21:12.000Z</time>
      </trkpt>
      <trkpt lat="45.59443" lon="6.11404">
        <ele>1491</ele>
        <time>2021-01-16T13:21:23.000Z</time>
      </trkpt>
      <trkpt lat="45.59443" lon="6.11404">
        <ele>1489.5999755859</ele>
        <time>2021-01-16T13:21:32.000Z</time>
      </trkpt>
      <trkpt lat="45.59443" lon="6.11404">
        <ele>1489.8000488281</ele>
        <time>2021-01-16T13:21:35.000Z</time>
      </trkpt>
      <trkpt lat="45.59443" lon="6.11404">
        <ele>1491.4000244141</ele>
        <time>2021-01-16T13:21:36.000Z</time>
      </trkpt>
      <trkpt lat="45.59443" lon="6.11404">
        <ele>1490.5999755859</ele>
        <time>2021-01-16T13:21:48.000Z</time>
      </trkpt>
      <trkpt lat="45.59443" lon="6.11404">
        <ele>1490.8000488281</ele>
        <time>2021-01-16T13:21:58.000Z</time>
      </trkpt>
      <trkpt lat="45.59443" lon="6.11404">
        <ele>1490.5999755859</ele>
        <time>2021-01-16T13:22:09.000Z</time>
      </trkpt>
      <trkpt lat="45.59443" lon="6.11404">
        <ele>1490.8000488281</ele>
        <time>2021-01-16T13:22:23.000Z</time>
      </trkpt>
      <trkpt lat="45.59442" lon="6.11404">
        <ele>1489.5999755859</ele>
        <time>2021-01-16T13:22:30.000Z</time>
      </trkpt>
      <trkpt lat="45.59442" lon="6.11404">
        <ele>1487.1999511719</ele>
        <time>2021-01-16T13:22:31.000Z</time>
      </trkpt>
      <trkpt lat="45.59442" lon="6.11404">
        <ele>1484.5999755859</ele>
        <time>2021-01-16T13:22:32.000Z</time>
      </trkpt>
      <trkpt lat="45.59443" lon="6.11403">
        <ele>1483.4000244141</ele>
        <time>2021-01-16T13:22:33.000Z</time>
      </trkpt>
      <trkpt lat="45.59443" lon="6.11403">
        <ele>1485</ele>
        <time>2021-01-16T13:22:36.000Z</time>
      </trkpt>
      <trkpt lat="45.59443" lon="6.11402">
        <ele>1487.8000488281</ele>
        <time>2021-01-16T13:22:37.000Z</time>
      </trkpt>
      <trkpt lat="45.59444" lon="6.11402">
        <ele>1489.4000244141</ele>
        <time>2021-01-16T13:22:38.000Z</time>
      </trkpt>
      <trkpt lat="45.59444" lon="6.11401">
        <ele>1490.8000488281</ele>
        <time>2021-01-16T13:22:40.000Z</time>
      </trkpt>
      <trkpt lat="45.59445" lon="6.114">
        <ele>1489.5999755859</ele>
        <time>2021-01-16T13:22:44.000Z</time>
      </trkpt>
      <trkpt lat="45.59445" lon="6.114">
        <ele>1487.8000488281</ele>
        <time>2021-01-16T13:22:46.000Z</time>
      </trkpt>
      <trkpt lat="45.59445" lon="6.114">
        <ele>1490.8000488281</ele>
        <time>2021-01-16T13:22:49.000Z</time>
      </trkpt>
      <trkpt lat="45.59445" lon="6.114">
        <ele>1493.8000488281</ele>
        <time>2021-01-16T13:22:50.000Z</time>
      </trkpt>
      <trkpt lat="45.59445" lon="6.114">
        <ele>1495.4000244141</ele>
        <time>2021-01-16T13:22:51.000Z</time>
      </trkpt>
      <trkpt lat="45.59445" lon="6.114">
        <ele>1493.4000244141</ele>
        <time>2021-01-16T13:22:54.000Z</time>
      </trkpt>
      <trkpt lat="45.59445" lon="6.114">
        <ele>1491.4000244141</ele>
        <time>2021-01-16T13:22:55.000Z</time>
      </trkpt>
      <trkpt lat="45.59445" lon="6.114">
        <ele>1490.1999511719</ele>
        <time>2021-01-16T13:22:56.000Z</time>
      </trkpt>
      <trkpt lat="45.59445" lon="6.114">
        <ele>1489</ele>
        <time>2021-01-16T13:23:04.000Z</time>
      </trkpt>
      <trkpt lat="45.59445" lon="6.114">
        <ele>1490.4000244141</ele>
        <time>2021-01-16T13:23:08.000Z</time>
      </trkpt>
      <trkpt lat="45.59445" lon="6.114">
        <ele>1491.1999511719</ele>
        <time>2021-01-16T13:23:09.000Z</time>
      </trkpt>
      <trkpt lat="45.59445" lon="6.114">
        <ele>1491.5999755859</ele>
        <time>2021-01-16T13:23:15.000Z</time>
      </trkpt>
      <trkpt lat="45.59445" lon="6.114">
        <ele>1493</ele>
        <time>2021-01-16T13:23:17.000Z</time>
      </trkpt>
      <trkpt lat="45.59445" lon="6.114">
        <ele>1491</ele>
        <time>2021-01-16T13:23:20.000Z</time>
      </trkpt>
      <trkpt lat="45.59445" lon="6.114">
        <ele>1489.8000488281</ele>
        <time>2021-01-16T13:23:21.000Z</time>
      </trkpt>
      <trkpt lat="45.59445" lon="6.114">
        <ele>1490.8000488281</ele>
        <time>2021-01-16T13:23:25.000Z</time>
      </trkpt>
      <trkpt lat="45.59445" lon="6.114">
        <ele>1491.1999511719</ele>
        <time>2021-01-16T13:23:29.000Z</time>
      </trkpt>
      <trkpt lat="45.59445" lon="6.114">
        <ele>1490.4000244141</ele>
        <time>2021-01-16T13:23:38.000Z</time>
      </trkpt>
      <trkpt lat="45.59445" lon="6.114">
        <ele>1490.5999755859</ele>
        <time>2021-01-16T13:23:52.000Z</time>
      </trkpt>
      <trkpt lat="45.59445" lon="6.114">
        <ele>1490.5999755859</ele>
        <time>2021-01-16T13:24:03.000Z</time>
      </trkpt>
      <trkpt lat="45.59445" lon="6.114">
        <ele>1490.5999755859</ele>
        <time>2021-01-16T13:24:14.000Z</time>
      </trkpt>
      <trkpt lat="45.59445" lon="6.114">
        <ele>1490.5999755859</ele>
        <time>2021-01-16T13:24:23.000Z</time>
      </trkpt>
      <trkpt lat="45.59445" lon="6.114">
        <ele>1490.4000244141</ele>
        <time>2021-01-16T13:24:35.000Z</time>
      </trkpt>
      <trkpt lat="45.59444" lon="6.11401">
        <ele>1490.4000244141</ele>
        <time>2021-01-16T13:24:49.000Z</time>
      </trkpt>
      <trkpt lat="45.59444" lon="6.11401">
        <ele>1490.4000244141</ele>
        <time>2021-01-16T13:25:03.000Z</time>
      </trkpt>
      <trkpt lat="45.59444" lon="6.11401">
        <ele>1490.4000244141</ele>
        <time>2021-01-16T13:25:12.000Z</time>
      </trkpt>
      <trkpt lat="45.59444" lon="6.11401">
        <ele>1490.4000244141</ele>
        <time>2021-01-16T13:25:21.000Z</time>
      </trkpt>
      <trkpt lat="45.59445" lon="6.11402">
        <ele>1490.4000244141</ele>
        <time>2021-01-16T13:25:34.000Z</time>
      </trkpt>
      <trkpt lat="45.59445" lon="6.11402">
        <ele>1490.4000244141</ele>
        <time>2021-01-16T13:25:50.000Z</time>
      </trkpt>
      <trkpt lat="45.59445" lon="6.11402">
        <ele>1488.1999511719</ele>
        <time>2021-01-16T13:26:00.000Z</time>
      </trkpt>
      <trkpt lat="45.59445" lon="6.11402">
        <ele>1486.1999511719</ele>
        <time>2021-01-16T13:26:01.000Z</time>
      </trkpt>
      <trkpt lat="45.59445" lon="6.11402">
        <ele>1485</ele>
        <time>2021-01-16T13:26:02.000Z</time>
      </trkpt>
      <trkpt lat="45.59445" lon="6.11402">
        <ele>1487.8000488281</ele>
        <time>2021-01-16T13:26:06.000Z</time>
      </trkpt>
      <trkpt lat="45.59445" lon="6.11402">
        <ele>1491.8000488281</ele>
        <time>2021-01-16T13:26:07.000Z</time>
      </trkpt>
      <trkpt lat="45.59445" lon="6.11402">
        <ele>1494.1999511719</ele>
        <time>2021-01-16T13:26:08.000Z</time>
      </trkpt>
      <trkpt lat="45.59445" lon="6.11402">
        <ele>1495.4000244141</ele>
        <time>2021-01-16T13:26:09.000Z</time>
      </trkpt>
      <trkpt lat="45.59445" lon="6.11402">
        <ele>1493.1999511719</ele>
        <time>2021-01-16T13:26:12.000Z</time>
      </trkpt>
      <trkpt lat="45.59445" lon="6.11402">
        <ele>1492</ele>
        <time>2021-01-16T13:26:13.000Z</time>
      </trkpt>
      <trkpt lat="45.59445" lon="6.11402">
        <ele>1490.8000488281</ele>
        <time>2021-01-16T13:26:15.000Z</time>
      </trkpt>
      <trkpt lat="45.59445" lon="6.11402">
        <ele>1490.4000244141</ele>
        <time>2021-01-16T13:26:29.000Z</time>
      </trkpt>
      <trkpt lat="45.59445" lon="6.11402">
        <ele>1490.4000244141</ele>
        <time>2021-01-16T13:26:42.000Z</time>
      </trkpt>
      <trkpt lat="45.59445" lon="6.11402">
        <ele>1490.5999755859</ele>
        <time>2021-01-16T13:26:54.000Z</time>
      </trkpt>
      <trkpt lat="45.59445" lon="6.11402">
        <ele>1490.5999755859</ele>
        <time>2021-01-16T13:27:04.000Z</time>
      </trkpt>
      <trkpt lat="45.59445" lon="6.11402">
        <ele>1490.5999755859</ele>
        <time>2021-01-16T13:27:23.000Z</time>
      </trkpt>
      <trkpt lat="45.59445" lon="6.11403">
        <ele>1490.5999755859</ele>
        <time>2021-01-16T13:27:35.000Z</time>
      </trkpt>
      <trkpt lat="45.59445" lon="6.11403">
        <ele>1490.5999755859</ele>
        <time>2021-01-16T13:27:46.000Z</time>
      </trkpt>
      <trkpt lat="45.59445" lon="6.11403">
        <ele>1490.5999755859</ele>
        <time>2021-01-16T13:28:03.000Z</time>
      </trkpt>
      <trkpt lat="45.59445" lon="6.11403">
        <ele>1490.5999755859</ele>
        <time>2021-01-16T13:28:18.000Z</time>
      </trkpt>
      <trkpt lat="45.59445" lon="6.11403">
        <ele>1490.8000488281</ele>
        <time>2021-01-16T13:28:31.000Z</time>
      </trkpt>
      <trkpt lat="45.59445" lon="6.11403">
        <ele>1490.8000488281</ele>
        <time>2021-01-16T13:28:44.000Z</time>
      </trkpt>
      <trkpt lat="45.59445" lon="6.11403">
        <ele>1490.5999755859</ele>
        <time>2021-01-16T13:29:03.000Z</time>
      </trkpt>
      <trkpt lat="45.59445" lon="6.11403">
        <ele>1490.8000488281</ele>
        <time>2021-01-16T13:29:20.000Z</time>
      </trkpt>
      <trkpt lat="45.59445" lon="6.11404">
        <ele>1490.5999755859</ele>
        <time>2021-01-16T13:29:38.000Z</time>
      </trkpt>
      <trkpt lat="45.59445" lon="6.11404">
        <ele>1490.5999755859</ele>
        <time>2021-01-16T13:29:54.000Z</time>
      </trkpt>
      <trkpt lat="45.59445" lon="6.11404">
        <ele>1490.5999755859</ele>
        <time>2021-01-16T13:30:09.000Z</time>
      </trkpt>
      <trkpt lat="45.59445" lon="6.11404">
        <ele>1490.5999755859</ele>
        <time>2021-01-16T13:30:18.000Z</time>
      </trkpt>
      <trkpt lat="45.59445" lon="6.11404">
        <ele>1490.5999755859</ele>
        <time>2021-01-16T13:30:31.000Z</time>
      </trkpt>
      <trkpt lat="45.59445" lon="6.11404">
        <ele>1490.8000488281</ele>
        <time>2021-01-16T13:30:45.000Z</time>
      </trkpt>
      <trkpt lat="45.59445" lon="6.11404">
        <ele>1490.5999755859</ele>
        <time>2021-01-16T13:31:00.000Z</time>
      </trkpt>
      <trkpt lat="45.59445" lon="6.11404">
        <ele>1490.5999755859</ele>
        <time>2021-01-16T13:31:15.000Z</time>
      </trkpt>
      <trkpt lat="45.59445" lon="6.11404">
        <ele>1490.8000488281</ele>
        <time>2021-01-16T13:31:28.000Z</time>
      </trkpt>
      <trkpt lat="45.59445" lon="6.11404">
        <ele>1490.5999755859</ele>
        <time>2021-01-16T13:31:41.000Z</time>
      </trkpt>
      <trkpt lat="45.59445" lon="6.11404">
        <ele>1490.5999755859</ele>
        <time>2021-01-16T13:31:58.000Z</time>
      </trkpt>
      <trkpt lat="45.59444" lon="6.11404">
        <ele>1490.5999755859</ele>
        <time>2021-01-16T13:32:12.000Z</time>
      </trkpt>
      <trkpt lat="45.59445" lon="6.11404">
        <ele>1490.4000244141</ele>
        <time>2021-01-16T13:32:20.000Z</time>
      </trkpt>
      <trkpt lat="45.59445" lon="6.11404">
        <ele>1490.5999755859</ele>
        <time>2021-01-16T13:32:31.000Z</time>
      </trkpt>
      <trkpt lat="45.59446" lon="6.11409">
        <ele>1490.5999755859</ele>
        <time>2021-01-16T13:32:39.000Z</time>
      </trkpt>
      <trkpt lat="45.59449" lon="6.11412">
        <ele>1490.4000244141</ele>
        <time>2021-01-16T13:32:43.000Z</time>
      </trkpt>
      <trkpt lat="45.59457" lon="6.11418">
        <ele>1489.8000488281</ele>
        <time>2021-01-16T13:32:46.000Z</time>
      </trkpt>
      <trkpt lat="45.59461" lon="6.11421">
        <ele>1489.5999755859</ele>
        <time>2021-01-16T13:32:47.000Z</time>
      </trkpt>
      <trkpt lat="45.59469" lon="6.11427">
        <ele>1488</ele>
        <time>2021-01-16T13:32:49.000Z</time>
      </trkpt>
      <trkpt lat="45.59478" lon="6.11434">
        <ele>1486.5999755859</ele>
        <time>2021-01-16T13:32:51.000Z</time>
      </trkpt>
      <trkpt lat="45.59486" lon="6.11438">
        <ele>1484.8000488281</ele>
        <time>2021-01-16T13:32:53.000Z</time>
      </trkpt>
      <trkpt lat="45.59496" lon="6.11443">
        <ele>1483.1999511719</ele>
        <time>2021-01-16T13:32:55.000Z</time>
      </trkpt>
      <trkpt lat="45.59506" lon="6.1145">
        <ele>1481.4000244141</ele>
        <time>2021-01-16T13:32:57.000Z</time>
      </trkpt>
      <trkpt lat="45.5951" lon="6.11454">
        <ele>1480.4000244141</ele>
        <time>2021-01-16T13:32:58.000Z</time>
      </trkpt>
      <trkpt lat="45.59514" lon="6.11458">
        <ele>1479.1999511719</ele>
        <time>2021-01-16T13:32:59.000Z</time>
      </trkpt>
      <trkpt lat="45.59519" lon="6.1146">
        <ele>1477.8000488281</ele>
        <time>2021-01-16T13:33:00.000Z</time>
      </trkpt>
      <trkpt lat="45.59523" lon="6.11463">
        <ele>1476.8000488281</ele>
        <time>2021-01-16T13:33:01.000Z</time>
      </trkpt>
      <trkpt lat="45.59532" lon="6.1147">
        <ele>1475.4000244141</ele>
        <time>2021-01-16T13:33:03.000Z</time>
      </trkpt>
      <trkpt lat="45.59536" lon="6.11473">
        <ele>1474.4000244141</ele>
        <time>2021-01-16T13:33:04.000Z</time>
      </trkpt>
      <trkpt lat="45.5954" lon="6.11476">
        <ele>1473.4000244141</ele>
        <time>2021-01-16T13:33:05.000Z</time>
      </trkpt>
      <trkpt lat="45.59544" lon="6.11479">
        <ele>1472.4000244141</ele>
        <time>2021-01-16T13:33:06.000Z</time>
      </trkpt>
      <trkpt lat="45.59549" lon="6.11483">
        <ele>1471.4000244141</ele>
        <time>2021-01-16T13:33:07.000Z</time>
      </trkpt>
      <trkpt lat="45.59559" lon="6.11491">
        <ele>1469.4000244141</ele>
        <time>2021-01-16T13:33:09.000Z</time>
      </trkpt>
      <trkpt lat="45.59568" lon="6.11496">
        <ele>1467.5999755859</ele>
        <time>2021-01-16T13:33:11.000Z</time>
      </trkpt>
      <trkpt lat="45.59576" lon="6.11499">
        <ele>1464.4000244141</ele>
        <time>2021-01-16T13:33:13.000Z</time>
      </trkpt>
      <trkpt lat="45.5958" lon="6.11501">
        <ele>1463.1999511719</ele>
        <time>2021-01-16T13:33:14.000Z</time>
      </trkpt>
      <trkpt lat="45.59584" lon="6.11502">
        <ele>1462.1999511719</ele>
        <time>2021-01-16T13:33:15.000Z</time>
      </trkpt>
      <trkpt lat="45.59588" lon="6.11504">
        <ele>1461.1999511719</ele>
        <time>2021-01-16T13:33:16.000Z</time>
      </trkpt>
      <trkpt lat="45.59594" lon="6.11508">
        <ele>1459.5999755859</ele>
        <time>2021-01-16T13:33:18.000Z</time>
      </trkpt>
      <trkpt lat="45.59597" lon="6.1151">
        <ele>1459</ele>
        <time>2021-01-16T13:33:19.000Z</time>
      </trkpt>
      <trkpt lat="45.596" lon="6.11511">
        <ele>1458.1999511719</ele>
        <time>2021-01-16T13:33:20.000Z</time>
      </trkpt>
      <trkpt lat="45.59604" lon="6.11513">
        <ele>1457.1999511719</ele>
        <time>2021-01-16T13:33:22.000Z</time>
      </trkpt>
      <trkpt lat="45.5961" lon="6.11517">
        <ele>1455.8000488281</ele>
        <time>2021-01-16T13:33:25.000Z</time>
      </trkpt>
      <trkpt lat="45.59611" lon="6.11518">
        <ele>1455.4000244141</ele>
        <time>2021-01-16T13:33:26.000Z</time>
      </trkpt>
      <trkpt lat="45.59612" lon="6.11519">
        <ele>1455</ele>
        <time>2021-01-16T13:33:27.000Z</time>
      </trkpt>
      <trkpt lat="45.59613" lon="6.11519">
        <ele>1454.8000488281</ele>
        <time>2021-01-16T13:33:28.000Z</time>
      </trkpt>
      <trkpt lat="45.59613" lon="6.11519">
        <ele>1454.4000244141</ele>
        <time>2021-01-16T13:33:30.000Z</time>
      </trkpt>
      <trkpt lat="45.59613" lon="6.11519">
        <ele>1453.8000488281</ele>
        <time>2021-01-16T13:33:34.000Z</time>
      </trkpt>
      <trkpt lat="45.59613" lon="6.11519">
        <ele>1453.1999511719</ele>
        <time>2021-01-16T13:33:38.000Z</time>
      </trkpt>
      <trkpt lat="45.59613" lon="6.11519">
        <ele>1453.1999511719</ele>
        <time>2021-01-16T13:33:51.000Z</time>
      </trkpt>
      <trkpt lat="45.59613" lon="6.11519">
        <ele>1453.1999511719</ele>
        <time>2021-01-16T13:34:04.000Z</time>
      </trkpt>
      <trkpt lat="45.59614" lon="6.11519">
        <ele>1453.1999511719</ele>
        <time>2021-01-16T13:34:23.000Z</time>
      </trkpt>
      <trkpt lat="45.59614" lon="6.11519">
        <ele>1453.1999511719</ele>
        <time>2021-01-16T13:34:37.000Z</time>
      </trkpt>
      <trkpt lat="45.59615" lon="6.11519">
        <ele>1453.1999511719</ele>
        <time>2021-01-16T13:34:55.000Z</time>
      </trkpt>
      <trkpt lat="45.59615" lon="6.11519">
        <ele>1453.1999511719</ele>
        <time>2021-01-16T13:35:09.000Z</time>
      </trkpt>
      <trkpt lat="45.59615" lon="6.11519">
        <ele>1453</ele>
        <time>2021-01-16T13:35:22.000Z</time>
      </trkpt>
      <trkpt lat="45.59617" lon="6.11519">
        <ele>1453.1999511719</ele>
        <time>2021-01-16T13:35:32.000Z</time>
      </trkpt>
      <trkpt lat="45.59627" lon="6.11512">
        <ele>1452.5999755859</ele>
        <time>2021-01-16T13:35:37.000Z</time>
      </trkpt>
      <trkpt lat="45.59631" lon="6.1151">
        <ele>1452.4000244141</ele>
        <time>2021-01-16T13:35:38.000Z</time>
      </trkpt>
      <trkpt lat="45.59639" lon="6.11504">
        <ele>1451.8000488281</ele>
        <time>2021-01-16T13:35:40.000Z</time>
      </trkpt>
      <trkpt lat="45.59644" lon="6.115">
        <ele>1451.4000244141</ele>
        <time>2021-01-16T13:35:41.000Z</time>
      </trkpt>
      <trkpt lat="45.59649" lon="6.11499">
        <ele>1450.8000488281</ele>
        <time>2021-01-16T13:35:42.000Z</time>
      </trkpt>
      <trkpt lat="45.59654" lon="6.11496">
        <ele>1450</ele>
        <time>2021-01-16T13:35:43.000Z</time>
      </trkpt>
      <trkpt lat="45.59658" lon="6.11493">
        <ele>1448.8000488281</ele>
        <time>2021-01-16T13:35:44.000Z</time>
      </trkpt>
      <trkpt lat="45.59663" lon="6.11493">
        <ele>1447.8000488281</ele>
        <time>2021-01-16T13:35:45.000Z</time>
      </trkpt>
      <trkpt lat="45.59668" lon="6.11491">
        <ele>1446.5999755859</ele>
        <time>2021-01-16T13:35:46.000Z</time>
      </trkpt>
      <trkpt lat="45.59674" lon="6.11491">
        <ele>1444.5999755859</ele>
        <time>2021-01-16T13:35:47.000Z</time>
      </trkpt>
      <trkpt lat="45.59679" lon="6.11493">
        <ele>1442.8000488281</ele>
        <time>2021-01-16T13:35:48.000Z</time>
      </trkpt>
      <trkpt lat="45.59685" lon="6.11497">
        <ele>1441.4000244141</ele>
        <time>2021-01-16T13:35:49.000Z</time>
      </trkpt>
      <trkpt lat="45.5969" lon="6.11502">
        <ele>1440.4000244141</ele>
        <time>2021-01-16T13:35:50.000Z</time>
      </trkpt>
      <trkpt lat="45.59695" lon="6.11507">
        <ele>1439.5999755859</ele>
        <time>2021-01-16T13:35:51.000Z</time>
      </trkpt>
      <trkpt lat="45.59699" lon="6.11511">
        <ele>1439</ele>
        <time>2021-01-16T13:35:52.000Z</time>
      </trkpt>
      <trkpt lat="45.59708" lon="6.11518">
        <ele>1437.1999511719</ele>
        <time>2021-01-16T13:35:54.000Z</time>
      </trkpt>
      <trkpt lat="45.59712" lon="6.11522">
        <ele>1436</ele>
        <time>2021-01-16T13:35:55.000Z</time>
      </trkpt>
      <trkpt lat="45.59716" lon="6.11525">
        <ele>1434.5999755859</ele>
        <time>2021-01-16T13:35:56.000Z</time>
      </trkpt>
      <trkpt lat="45.59719" lon="6.11528">
        <ele>1433.1999511719</ele>
        <time>2021-01-16T13:35:57.000Z</time>
      </trkpt>
      <trkpt lat="45.59724" lon="6.11531">
        <ele>1432</ele>
        <time>2021-01-16T13:35:58.000Z</time>
      </trkpt>
      <trkpt lat="45.59728" lon="6.11534">
        <ele>1430.8000488281</ele>
        <time>2021-01-16T13:35:59.000Z</time>
      </trkpt>
      <trkpt lat="45.5974" lon="6.1154">
        <ele>1428.4000244141</ele>
        <time>2021-01-16T13:36:01.000Z</time>
      </trkpt>
      <trkpt lat="45.5975" lon="6.11545">
        <ele>1426.1999511719</ele>
        <time>2021-01-16T13:36:03.000Z</time>
      </trkpt>
      <trkpt lat="45.59756" lon="6.11548">
        <ele>1424.8000488281</ele>
        <time>2021-01-16T13:36:04.000Z</time>
      </trkpt>
      <trkpt lat="45.59761" lon="6.11551">
        <ele>1423.8000488281</ele>
        <time>2021-01-16T13:36:05.000Z</time>
      </trkpt>
      <trkpt lat="45.59766" lon="6.11554">
        <ele>1422.5999755859</ele>
        <time>2021-01-16T13:36:06.000Z</time>
      </trkpt>
      <trkpt lat="45.59772" lon="6.11556">
        <ele>1421.5999755859</ele>
        <time>2021-01-16T13:36:07.000Z</time>
      </trkpt>
      <trkpt lat="45.59782" lon="6.1156">
        <ele>1419.8000488281</ele>
        <time>2021-01-16T13:36:09.000Z</time>
      </trkpt>
      <trkpt lat="45.59787" lon="6.11562">
        <ele>1418.8000488281</ele>
        <time>2021-01-16T13:36:10.000Z</time>
      </trkpt>
      <trkpt lat="45.59792" lon="6.11564">
        <ele>1417.5999755859</ele>
        <time>2021-01-16T13:36:11.000Z</time>
      </trkpt>
      <trkpt lat="45.59797" lon="6.11566">
        <ele>1416.4000244141</ele>
        <time>2021-01-16T13:36:12.000Z</time>
      </trkpt>
      <trkpt lat="45.59803" lon="6.11568">
        <ele>1415.4000244141</ele>
        <time>2021-01-16T13:36:13.000Z</time>
      </trkpt>
      <trkpt lat="45.59813" lon="6.1157">
        <ele>1413.5999755859</ele>
        <time>2021-01-16T13:36:15.000Z</time>
      </trkpt>
      <trkpt lat="45.59818" lon="6.1157">
        <ele>1412.4000244141</ele>
        <time>2021-01-16T13:36:16.000Z</time>
      </trkpt>
      <trkpt lat="45.59823" lon="6.1157">
        <ele>1411.1999511719</ele>
        <time>2021-01-16T13:36:17.000Z</time>
      </trkpt>
      <trkpt lat="45.59827" lon="6.11569">
        <ele>1410</ele>
        <time>2021-01-16T13:36:18.000Z</time>
      </trkpt>
      <trkpt lat="45.59829" lon="6.11565">
        <ele>1409</ele>
        <time>2021-01-16T13:36:19.000Z</time>
      </trkpt>
      <trkpt lat="45.59829" lon="6.1156">
        <ele>1408.1999511719</ele>
        <time>2021-01-16T13:36:20.000Z</time>
      </trkpt>
      <trkpt lat="45.59832" lon="6.11548">
        <ele>1406.5999755859</ele>
        <time>2021-01-16T13:36:22.000Z</time>
      </trkpt>
      <trkpt lat="45.59834" lon="6.11541">
        <ele>1405.1999511719</ele>
        <time>2021-01-16T13:36:23.000Z</time>
      </trkpt>
      <trkpt lat="45.59833" lon="6.11533">
        <ele>1403.5999755859</ele>
        <time>2021-01-16T13:36:24.000Z</time>
      </trkpt>
      <trkpt lat="45.59831" lon="6.11527">
        <ele>1401</ele>
        <time>2021-01-16T13:36:25.000Z</time>
      </trkpt>
      <trkpt lat="45.5983" lon="6.11521">
        <ele>1399.8000488281</ele>
        <time>2021-01-16T13:36:26.000Z</time>
      </trkpt>
      <trkpt lat="45.59827" lon="6.11516">
        <ele>1398.1999511719</ele>
        <time>2021-01-16T13:36:27.000Z</time>
      </trkpt>
      <trkpt lat="45.59826" lon="6.11511">
        <ele>1396.8000488281</ele>
        <time>2021-01-16T13:36:28.000Z</time>
      </trkpt>
      <trkpt lat="45.59824" lon="6.11506">
        <ele>1395.1999511719</ele>
        <time>2021-01-16T13:36:29.000Z</time>
      </trkpt>
      <trkpt lat="45.59822" lon="6.11503">
        <ele>1393.8000488281</ele>
        <time>2021-01-16T13:36:30.000Z</time>
      </trkpt>
      <trkpt lat="45.5982" lon="6.11501">
        <ele>1392.8000488281</ele>
        <time>2021-01-16T13:36:31.000Z</time>
      </trkpt>
      <trkpt lat="45.59819" lon="6.11501">
        <ele>1391.5999755859</ele>
        <time>2021-01-16T13:36:32.000Z</time>
      </trkpt>
      <trkpt lat="45.59819" lon="6.11501">
        <ele>1389.8000488281</ele>
        <time>2021-01-16T13:36:34.000Z</time>
      </trkpt>
      <trkpt lat="45.59819" lon="6.11501">
        <ele>1388.5999755859</ele>
        <time>2021-01-16T13:36:37.000Z</time>
      </trkpt>
      <trkpt lat="45.59819" lon="6.115">
        <ele>1388.4000244141</ele>
        <time>2021-01-16T13:36:39.000Z</time>
      </trkpt>
      <trkpt lat="45.59825" lon="6.11501">
        <ele>1388.4000244141</ele>
        <time>2021-01-16T13:36:41.000Z</time>
      </trkpt>
      <trkpt lat="45.59829" lon="6.11503">
        <ele>1387.4000244141</ele>
        <time>2021-01-16T13:36:43.000Z</time>
      </trkpt>
      <trkpt lat="45.59829" lon="6.11503">
        <ele>1387</ele>
        <time>2021-01-16T13:36:44.000Z</time>
      </trkpt>
      <trkpt lat="45.59829" lon="6.11503">
        <ele>1386.4000244141</ele>
        <time>2021-01-16T13:36:47.000Z</time>
      </trkpt>
      <trkpt lat="45.59829" lon="6.11503">
        <ele>1385.1999511719</ele>
        <time>2021-01-16T13:36:52.000Z</time>
      </trkpt>
      <trkpt lat="45.59829" lon="6.11503">
        <ele>1384</ele>
        <time>2021-01-16T13:36:57.000Z</time>
      </trkpt>
      <trkpt lat="45.59829" lon="6.11503">
        <ele>1384.4000244141</ele>
        <time>2021-01-16T13:37:05.000Z</time>
      </trkpt>
      <trkpt lat="45.59829" lon="6.11503">
        <ele>1385.1999511719</ele>
        <time>2021-01-16T13:37:19.000Z</time>
      </trkpt>
      <trkpt lat="45.59829" lon="6.11503">
        <ele>1385.5999755859</ele>
        <time>2021-01-16T13:37:20.000Z</time>
      </trkpt>
      <trkpt lat="45.59829" lon="6.11502">
        <ele>1384</ele>
        <time>2021-01-16T13:37:26.000Z</time>
      </trkpt>
      <trkpt lat="45.59829" lon="6.11502">
        <ele>1382.8000488281</ele>
        <time>2021-01-16T13:37:31.000Z</time>
      </trkpt>
      <trkpt lat="45.59829" lon="6.11502">
        <ele>1384.4000244141</ele>
        <time>2021-01-16T13:37:33.000Z</time>
      </trkpt>
      <trkpt lat="45.59829" lon="6.11502">
        <ele>1385.8000488281</ele>
        <time>2021-01-16T13:37:34.000Z</time>
      </trkpt>
      <trkpt lat="45.59829" lon="6.11501">
        <ele>1384.8000488281</ele>
        <time>2021-01-16T13:37:38.000Z</time>
      </trkpt>
      <trkpt lat="45.5983" lon="6.115">
        <ele>1384.5999755859</ele>
        <time>2021-01-16T13:37:39.000Z</time>
      </trkpt>
      <trkpt lat="45.59832" lon="6.11499">
        <ele>1384.1999511719</ele>
        <time>2021-01-16T13:37:40.000Z</time>
      </trkpt>
      <trkpt lat="45.59836" lon="6.11498">
        <ele>1383.1999511719</ele>
        <time>2021-01-16T13:37:42.000Z</time>
      </trkpt>
      <trkpt lat="45.59838" lon="6.11494">
        <ele>1382.4000244141</ele>
        <time>2021-01-16T13:37:43.000Z</time>
      </trkpt>
      <trkpt lat="45.59838" lon="6.11488">
        <ele>1381.4000244141</ele>
        <time>2021-01-16T13:37:45.000Z</time>
      </trkpt>
      <trkpt lat="45.5984" lon="6.11486">
        <ele>1380.1999511719</ele>
        <time>2021-01-16T13:37:46.000Z</time>
      </trkpt>
      <trkpt lat="45.59843" lon="6.11487">
        <ele>1378.4000244141</ele>
        <time>2021-01-16T13:37:47.000Z</time>
      </trkpt>
      <trkpt lat="45.59845" lon="6.11488">
        <ele>1377.4000244141</ele>
        <time>2021-01-16T13:37:48.000Z</time>
      </trkpt>
      <trkpt lat="45.59848" lon="6.11489">
        <ele>1376</ele>
        <time>2021-01-16T13:37:49.000Z</time>
      </trkpt>
      <trkpt lat="45.5985" lon="6.1149">
        <ele>1374.5999755859</ele>
        <time>2021-01-16T13:37:50.000Z</time>
      </trkpt>
      <trkpt lat="45.59854" lon="6.1149">
        <ele>1373.4000244141</ele>
        <time>2021-01-16T13:37:51.000Z</time>
      </trkpt>
      <trkpt lat="45.59862" lon="6.1149">
        <ele>1371.5999755859</ele>
        <time>2021-01-16T13:37:53.000Z</time>
      </trkpt>
      <trkpt lat="45.59863" lon="6.11487">
        <ele>1370.8000488281</ele>
        <time>2021-01-16T13:37:54.000Z</time>
      </trkpt>
      <trkpt lat="45.59865" lon="6.11484">
        <ele>1369.4000244141</ele>
        <time>2021-01-16T13:37:55.000Z</time>
      </trkpt>
      <trkpt lat="45.59868" lon="6.11482">
        <ele>1367.8000488281</ele>
        <time>2021-01-16T13:37:56.000Z</time>
      </trkpt>
      <trkpt lat="45.59871" lon="6.1148">
        <ele>1366.4000244141</ele>
        <time>2021-01-16T13:37:57.000Z</time>
      </trkpt>
      <trkpt lat="45.59871" lon="6.11475">
        <ele>1364.1999511719</ele>
        <time>2021-01-16T13:37:58.000Z</time>
      </trkpt>
      <trkpt lat="45.59871" lon="6.11472">
        <ele>1363.1999511719</ele>
        <time>2021-01-16T13:37:59.000Z</time>
      </trkpt>
      <trkpt lat="45.5987" lon="6.1147">
        <ele>1361.1999511719</ele>
        <time>2021-01-16T13:38:00.000Z</time>
      </trkpt>
      <trkpt lat="45.59869" lon="6.11468">
        <ele>1356.8000488281</ele>
        <time>2021-01-16T13:38:01.000Z</time>
      </trkpt>
      <trkpt lat="45.5987" lon="6.11467">
        <ele>1355.1999511719</ele>
        <time>2021-01-16T13:38:03.000Z</time>
      </trkpt>
      <trkpt lat="45.5987" lon="6.11466">
        <ele>1353.4000244141</ele>
        <time>2021-01-16T13:38:05.000Z</time>
      </trkpt>
      <trkpt lat="45.59871" lon="6.11463">
        <ele>1352.5999755859</ele>
        <time>2021-01-16T13:38:06.000Z</time>
      </trkpt>
      <trkpt lat="45.59872" lon="6.11462">
        <ele>1352.1999511719</ele>
        <time>2021-01-16T13:38:07.000Z</time>
      </trkpt>
      <trkpt lat="45.59876" lon="6.11459">
        <ele>1350.8000488281</ele>
        <time>2021-01-16T13:38:09.000Z</time>
      </trkpt>
      <trkpt lat="45.59875" lon="6.1145">
        <ele>1349.4000244141</ele>
        <time>2021-01-16T13:38:11.000Z</time>
      </trkpt>
      <trkpt lat="45.59876" lon="6.11447">
        <ele>1348.5999755859</ele>
        <time>2021-01-16T13:38:12.000Z</time>
      </trkpt>
      <trkpt lat="45.59878" lon="6.11447">
        <ele>1347.5999755859</ele>
        <time>2021-01-16T13:38:13.000Z</time>
      </trkpt>
      <trkpt lat="45.5988" lon="6.11446">
        <ele>1346</ele>
        <time>2021-01-16T13:38:14.000Z</time>
      </trkpt>
      <trkpt lat="45.59882" lon="6.11443">
        <ele>1345.4000244141</ele>
        <time>2021-01-16T13:38:15.000Z</time>
      </trkpt>
      <trkpt lat="45.59882" lon="6.11438">
        <ele>1344.4000244141</ele>
        <time>2021-01-16T13:38:16.000Z</time>
      </trkpt>
      <trkpt lat="45.59882" lon="6.11436">
        <ele>1342.8000488281</ele>
        <time>2021-01-16T13:38:17.000Z</time>
      </trkpt>
      <trkpt lat="45.59883" lon="6.11436">
        <ele>1341.1999511719</ele>
        <time>2021-01-16T13:38:18.000Z</time>
      </trkpt>
      <trkpt lat="45.59886" lon="6.11431">
        <ele>1339</ele>
        <time>2021-01-16T13:38:20.000Z</time>
      </trkpt>
      <trkpt lat="45.59886" lon="6.11426">
        <ele>1338.1999511719</ele>
        <time>2021-01-16T13:38:21.000Z</time>
      </trkpt>
      <trkpt lat="45.59886" lon="6.11424">
        <ele>1336.4000244141</ele>
        <time>2021-01-16T13:38:22.000Z</time>
      </trkpt>
      <trkpt lat="45.59887" lon="6.11424">
        <ele>1334.8000488281</ele>
        <time>2021-01-16T13:38:23.000Z</time>
      </trkpt>
      <trkpt lat="45.59887" lon="6.11423">
        <ele>1333.4000244141</ele>
        <time>2021-01-16T13:38:24.000Z</time>
      </trkpt>
      <trkpt lat="45.59887" lon="6.11423">
        <ele>1331.8000488281</ele>
        <time>2021-01-16T13:38:25.000Z</time>
      </trkpt>
      <trkpt lat="45.59888" lon="6.11419">
        <ele>1331</ele>
        <time>2021-01-16T13:38:26.000Z</time>
      </trkpt>
      <trkpt lat="45.5989" lon="6.11417">
        <ele>1330.4000244141</ele>
        <time>2021-01-16T13:38:27.000Z</time>
      </trkpt>
      <trkpt lat="45.59896" lon="6.11409">
        <ele>1329</ele>
        <time>2021-01-16T13:38:29.000Z</time>
      </trkpt>
      <trkpt lat="45.599" lon="6.11404">
        <ele>1327.5999755859</ele>
        <time>2021-01-16T13:38:30.000Z</time>
      </trkpt>
      <trkpt lat="45.59905" lon="6.11401">
        <ele>1326.1999511719</ele>
        <time>2021-01-16T13:38:31.000Z</time>
      </trkpt>
      <trkpt lat="45.59913" lon="6.11398">
        <ele>1324.8000488281</ele>
        <time>2021-01-16T13:38:33.000Z</time>
      </trkpt>
      <trkpt lat="45.59916" lon="6.11396">
        <ele>1323.4000244141</ele>
        <time>2021-01-16T13:38:35.000Z</time>
      </trkpt>
      <trkpt lat="45.59917" lon="6.11396">
        <ele>1323</ele>
        <time>2021-01-16T13:38:36.000Z</time>
      </trkpt>
      <trkpt lat="45.59918" lon="6.11395">
        <ele>1322</ele>
        <time>2021-01-16T13:38:37.000Z</time>
      </trkpt>
      <trkpt lat="45.5992" lon="6.11394">
        <ele>1320.4000244141</ele>
        <time>2021-01-16T13:38:38.000Z</time>
      </trkpt>
      <trkpt lat="45.59922" lon="6.11392">
        <ele>1319</ele>
        <time>2021-01-16T13:38:39.000Z</time>
      </trkpt>
      <trkpt lat="45.59925" lon="6.11392">
        <ele>1317.8000488281</ele>
        <time>2021-01-16T13:38:40.000Z</time>
      </trkpt>
      <trkpt lat="45.5993" lon="6.1139">
        <ele>1316.4000244141</ele>
        <time>2021-01-16T13:38:42.000Z</time>
      </trkpt>
      <trkpt lat="45.5993" lon="6.11385">
        <ele>1315.4000244141</ele>
        <time>2021-01-16T13:38:44.000Z</time>
      </trkpt>
      <trkpt lat="45.5993" lon="6.11383">
        <ele>1314.5999755859</ele>
        <time>2021-01-16T13:38:45.000Z</time>
      </trkpt>
      <trkpt lat="45.59929" lon="6.11381">
        <ele>1314.1999511719</ele>
        <time>2021-01-16T13:38:46.000Z</time>
      </trkpt>
      <trkpt lat="45.59931" lon="6.11378">
        <ele>1313.4000244141</ele>
        <time>2021-01-16T13:38:48.000Z</time>
      </trkpt>
      <trkpt lat="45.59932" lon="6.11375">
        <ele>1311</ele>
        <time>2021-01-16T13:38:49.000Z</time>
      </trkpt>
      <trkpt lat="45.5993" lon="6.1137">
        <ele>1308.5999755859</ele>
        <time>2021-01-16T13:38:51.000Z</time>
      </trkpt>
      <trkpt lat="45.59931" lon="6.11369">
        <ele>1307.1999511719</ele>
        <time>2021-01-16T13:38:52.000Z</time>
      </trkpt>
      <trkpt lat="45.59932" lon="6.11368">
        <ele>1306.1999511719</ele>
        <time>2021-01-16T13:38:53.000Z</time>
      </trkpt>
      <trkpt lat="45.59934" lon="6.11366">
        <ele>1305.5999755859</ele>
        <time>2021-01-16T13:38:54.000Z</time>
      </trkpt>
      <trkpt lat="45.59935" lon="6.11358">
        <ele>1303.8000488281</ele>
        <time>2021-01-16T13:38:57.000Z</time>
      </trkpt>
      <trkpt lat="45.59935" lon="6.11355">
        <ele>1303</ele>
        <time>2021-01-16T13:38:58.000Z</time>
      </trkpt>
      <trkpt lat="45.59935" lon="6.11351">
        <ele>1302</ele>
        <time>2021-01-16T13:38:59.000Z</time>
      </trkpt>
      <trkpt lat="45.59935" lon="6.11349">
        <ele>1301</ele>
        <time>2021-01-16T13:39:00.000Z</time>
      </trkpt>
      <trkpt lat="45.59934" lon="6.11346">
        <ele>1299.5999755859</ele>
        <time>2021-01-16T13:39:01.000Z</time>
      </trkpt>
      <trkpt lat="45.59934" lon="6.11345">
        <ele>1298.4000244141</ele>
        <time>2021-01-16T13:39:02.000Z</time>
      </trkpt>
      <trkpt lat="45.59934" lon="6.11344">
        <ele>1297.5999755859</ele>
        <time>2021-01-16T13:39:03.000Z</time>
      </trkpt>
      <trkpt lat="45.59934" lon="6.11344">
        <ele>1297</ele>
        <time>2021-01-16T13:39:04.000Z</time>
      </trkpt>
      <trkpt lat="45.59934" lon="6.11344">
        <ele>1295</ele>
        <time>2021-01-16T13:39:06.000Z</time>
      </trkpt>
      <trkpt lat="45.59934" lon="6.11341">
        <ele>1293.8000488281</ele>
        <time>2021-01-16T13:39:08.000Z</time>
      </trkpt>
      <trkpt lat="45.59935" lon="6.11338">
        <ele>1293.5999755859</ele>
        <time>2021-01-16T13:39:09.000Z</time>
      </trkpt>
      <trkpt lat="45.59937" lon="6.11332">
        <ele>1292.1999511719</ele>
        <time>2021-01-16T13:39:11.000Z</time>
      </trkpt>
      <trkpt lat="45.59937" lon="6.1133">
        <ele>1291.8000488281</ele>
        <time>2021-01-16T13:39:12.000Z</time>
      </trkpt>
      <trkpt lat="45.59938" lon="6.11327">
        <ele>1290.8000488281</ele>
        <time>2021-01-16T13:39:13.000Z</time>
      </trkpt>
      <trkpt lat="45.59938" lon="6.11324">
        <ele>1289.4000244141</ele>
        <time>2021-01-16T13:39:15.000Z</time>
      </trkpt>
      <trkpt lat="45.59938" lon="6.11323">
        <ele>1287.8000488281</ele>
        <time>2021-01-16T13:39:18.000Z</time>
      </trkpt>
      <trkpt lat="45.59938" lon="6.11323">
        <ele>1286.8000488281</ele>
        <time>2021-01-16T13:39:21.000Z</time>
      </trkpt>
      <trkpt lat="45.59938" lon="6.11323">
        <ele>1286.5999755859</ele>
        <time>2021-01-16T13:39:22.000Z</time>
      </trkpt>
      <trkpt lat="45.59939" lon="6.11323">
        <ele>1286.4000244141</ele>
        <time>2021-01-16T13:39:24.000Z</time>
      </trkpt>
      <trkpt lat="45.59939" lon="6.11322">
        <ele>1286.4000244141</ele>
        <time>2021-01-16T13:39:25.000Z</time>
      </trkpt>
      <trkpt lat="45.59941" lon="6.11319">
        <ele>1285.4000244141</ele>
        <time>2021-01-16T13:39:27.000Z</time>
      </trkpt>
      <trkpt lat="45.5994" lon="6.11317">
        <ele>1285.4000244141</ele>
        <time>2021-01-16T13:39:28.000Z</time>
      </trkpt>
      <trkpt lat="45.5994" lon="6.11314">
        <ele>1284.4000244141</ele>
        <time>2021-01-16T13:39:30.000Z</time>
      </trkpt>
      <trkpt lat="45.59939" lon="6.11312">
        <ele>1283.8000488281</ele>
        <time>2021-01-16T13:39:32.000Z</time>
      </trkpt>
      <trkpt lat="45.59939" lon="6.11311">
        <ele>1282.4000244141</ele>
        <time>2021-01-16T13:39:34.000Z</time>
      </trkpt>
      <trkpt lat="45.59939" lon="6.11311">
        <ele>1281.1999511719</ele>
        <time>2021-01-16T13:39:35.000Z</time>
      </trkpt>
      <trkpt lat="45.59939" lon="6.11311">
        <ele>1280</ele>
        <time>2021-01-16T13:39:36.000Z</time>
      </trkpt>
      <trkpt lat="45.59939" lon="6.1131">
        <ele>1278.8000488281</ele>
        <time>2021-01-16T13:39:37.000Z</time>
      </trkpt>
      <trkpt lat="45.59938" lon="6.11309">
        <ele>1278.5999755859</ele>
        <time>2021-01-16T13:39:38.000Z</time>
      </trkpt>
      <trkpt lat="45.59936" lon="6.11304">
        <ele>1278.5999755859</ele>
        <time>2021-01-16T13:39:41.000Z</time>
      </trkpt>
      <trkpt lat="45.59936" lon="6.11304">
        <ele>1277.5999755859</ele>
        <time>2021-01-16T13:39:43.000Z</time>
      </trkpt>
      <trkpt lat="45.59936" lon="6.11303">
        <ele>1276.1999511719</ele>
        <time>2021-01-16T13:39:44.000Z</time>
      </trkpt>
      <trkpt lat="45.59938" lon="6.11302">
        <ele>1274.8000488281</ele>
        <time>2021-01-16T13:39:45.000Z</time>
      </trkpt>
      <trkpt lat="45.5994" lon="6.11302">
        <ele>1273.1999511719</ele>
        <time>2021-01-16T13:39:46.000Z</time>
      </trkpt>
      <trkpt lat="45.59941" lon="6.11302">
        <ele>1271.8000488281</ele>
        <time>2021-01-16T13:39:47.000Z</time>
      </trkpt>
      <trkpt lat="45.59942" lon="6.11302">
        <ele>1270</ele>
        <time>2021-01-16T13:39:48.000Z</time>
      </trkpt>
      <trkpt lat="45.59943" lon="6.11302">
        <ele>1268.4000244141</ele>
        <time>2021-01-16T13:39:50.000Z</time>
      </trkpt>
      <trkpt lat="45.59942" lon="6.11301">
        <ele>1269.8000488281</ele>
        <time>2021-01-16T13:39:52.000Z</time>
      </trkpt>
      <trkpt lat="45.59942" lon="6.11301">
        <ele>1271.1999511719</ele>
        <time>2021-01-16T13:39:53.000Z</time>
      </trkpt>
      <trkpt lat="45.59943" lon="6.11299">
        <ele>1272</ele>
        <time>2021-01-16T13:39:54.000Z</time>
      </trkpt>
      <trkpt lat="45.59943" lon="6.11297">
        <ele>1272.4000244141</ele>
        <time>2021-01-16T13:39:55.000Z</time>
      </trkpt>
      <trkpt lat="45.59941" lon="6.11295">
        <ele>1272</ele>
        <time>2021-01-16T13:39:56.000Z</time>
      </trkpt>
      <trkpt lat="45.59941" lon="6.11293">
        <ele>1271.1999511719</ele>
        <time>2021-01-16T13:39:58.000Z</time>
      </trkpt>
      <trkpt lat="45.59942" lon="6.11291">
        <ele>1269.8000488281</ele>
        <time>2021-01-16T13:39:59.000Z</time>
      </trkpt>
      <trkpt lat="45.59942" lon="6.11289">
        <ele>1267.8000488281</ele>
        <time>2021-01-16T13:40:00.000Z</time>
      </trkpt>
      <trkpt lat="45.59941" lon="6.11288">
        <ele>1265.8000488281</ele>
        <time>2021-01-16T13:40:01.000Z</time>
      </trkpt>
      <trkpt lat="45.59942" lon="6.11285">
        <ele>1264.1999511719</ele>
        <time>2021-01-16T13:40:02.000Z</time>
      </trkpt>
      <trkpt lat="45.59942" lon="6.11284">
        <ele>1262</ele>
        <time>2021-01-16T13:40:03.000Z</time>
      </trkpt>
      <trkpt lat="45.59942" lon="6.11283">
        <ele>1260.8000488281</ele>
        <time>2021-01-16T13:40:04.000Z</time>
      </trkpt>
      <trkpt lat="45.59942" lon="6.11282">
        <ele>1262</ele>
        <time>2021-01-16T13:40:05.000Z</time>
      </trkpt>
      <trkpt lat="45.59941" lon="6.11281">
        <ele>1261.8000488281</ele>
        <time>2021-01-16T13:40:07.000Z</time>
      </trkpt>
      <trkpt lat="45.59941" lon="6.11281">
        <ele>1260.4000244141</ele>
        <time>2021-01-16T13:40:08.000Z</time>
      </trkpt>
      <trkpt lat="45.59941" lon="6.11277">
        <ele>1259.8000488281</ele>
        <time>2021-01-16T13:40:09.000Z</time>
      </trkpt>
      <trkpt lat="45.59943" lon="6.11268">
        <ele>1259.4000244141</ele>
        <time>2021-01-16T13:40:11.000Z</time>
      </trkpt>
      <trkpt lat="45.59939" lon="6.1126">
        <ele>1258</ele>
        <time>2021-01-16T13:40:14.000Z</time>
      </trkpt>
      <trkpt lat="45.59938" lon="6.11259">
        <ele>1257.4000244141</ele>
        <time>2021-01-16T13:40:15.000Z</time>
      </trkpt>
      <trkpt lat="45.59937" lon="6.11258">
        <ele>1256.4000244141</ele>
        <time>2021-01-16T13:40:16.000Z</time>
      </trkpt>
      <trkpt lat="45.59935" lon="6.11258">
        <ele>1254.4000244141</ele>
        <time>2021-01-16T13:40:18.000Z</time>
      </trkpt>
      <trkpt lat="45.59933" lon="6.11257">
        <ele>1253</ele>
        <time>2021-01-16T13:40:19.000Z</time>
      </trkpt>
      <trkpt lat="45.5993" lon="6.11257">
        <ele>1252</ele>
        <time>2021-01-16T13:40:20.000Z</time>
      </trkpt>
      <trkpt lat="45.59928" lon="6.11257">
        <ele>1251.4000244141</ele>
        <time>2021-01-16T13:40:21.000Z</time>
      </trkpt>
      <trkpt lat="45.59926" lon="6.11256">
        <ele>1251</ele>
        <time>2021-01-16T13:40:22.000Z</time>
      </trkpt>
      <trkpt lat="45.59924" lon="6.11252">
        <ele>1249</ele>
        <time>2021-01-16T13:40:25.000Z</time>
      </trkpt>
      <trkpt lat="45.59923" lon="6.1125">
        <ele>1248.4000244141</ele>
        <time>2021-01-16T13:40:26.000Z</time>
      </trkpt>
      <trkpt lat="45.59922" lon="6.11249">
        <ele>1247.8000488281</ele>
        <time>2021-01-16T13:40:27.000Z</time>
      </trkpt>
      <trkpt lat="45.59918" lon="6.11248">
        <ele>1246.4000244141</ele>
        <time>2021-01-16T13:40:30.000Z</time>
      </trkpt>
      <trkpt lat="45.59919" lon="6.11246">
        <ele>1245.8000488281</ele>
        <time>2021-01-16T13:40:32.000Z</time>
      </trkpt>
      <trkpt lat="45.5992" lon="6.11247">
        <ele>1245.4000244141</ele>
        <time>2021-01-16T13:40:34.000Z</time>
      </trkpt>
      <trkpt lat="45.59922" lon="6.11248">
        <ele>1245.1999511719</ele>
        <time>2021-01-16T13:40:37.000Z</time>
      </trkpt>
      <trkpt lat="45.59924" lon="6.11249">
        <ele>1245</ele>
        <time>2021-01-16T13:40:38.000Z</time>
      </trkpt>
      <trkpt lat="45.5993" lon="6.11251">
        <ele>1244</ele>
        <time>2021-01-16T13:40:40.000Z</time>
      </trkpt>
      <trkpt lat="45.59933" lon="6.11251">
        <ele>1242.5999755859</ele>
        <time>2021-01-16T13:40:42.000Z</time>
      </trkpt>
      <trkpt lat="45.59934" lon="6.11247">
        <ele>1242.1999511719</ele>
        <time>2021-01-16T13:40:45.000Z</time>
      </trkpt>
      <trkpt lat="45.59933" lon="6.11244">
        <ele>1242.4000244141</ele>
        <time>2021-01-16T13:40:46.000Z</time>
      </trkpt>
      <trkpt lat="45.59933" lon="6.11239">
        <ele>1240.5999755859</ele>
        <time>2021-01-16T13:40:49.000Z</time>
      </trkpt>
      <trkpt lat="45.59934" lon="6.11238">
        <ele>1239.1999511719</ele>
        <time>2021-01-16T13:40:50.000Z</time>
      </trkpt>
      <trkpt lat="45.59935" lon="6.11239">
        <ele>1237.4000244141</ele>
        <time>2021-01-16T13:40:51.000Z</time>
      </trkpt>
      <trkpt lat="45.59936" lon="6.11238">
        <ele>1236.1999511719</ele>
        <time>2021-01-16T13:40:52.000Z</time>
      </trkpt>
      <trkpt lat="45.59938" lon="6.11237">
        <ele>1234.8000488281</ele>
        <time>2021-01-16T13:40:54.000Z</time>
      </trkpt>
      <trkpt lat="45.59939" lon="6.11236">
        <ele>1234.5999755859</ele>
        <time>2021-01-16T13:40:55.000Z</time>
      </trkpt>
      <trkpt lat="45.5994" lon="6.11235">
        <ele>1234</ele>
        <time>2021-01-16T13:40:59.000Z</time>
      </trkpt>
      <trkpt lat="45.5994" lon="6.11235">
        <ele>1233.4000244141</ele>
        <time>2021-01-16T13:41:00.000Z</time>
      </trkpt>
      <trkpt lat="45.5994" lon="6.11234">
        <ele>1233</ele>
        <time>2021-01-16T13:41:01.000Z</time>
      </trkpt>
      <trkpt lat="45.59939" lon="6.11227">
        <ele>1232.5999755859</ele>
        <time>2021-01-16T13:41:03.000Z</time>
      </trkpt>
      <trkpt lat="45.59939" lon="6.11221">
        <ele>1232.4000244141</ele>
        <time>2021-01-16T13:41:05.000Z</time>
      </trkpt>
      <trkpt lat="45.5994" lon="6.11219">
        <ele>1232.1999511719</ele>
        <time>2021-01-16T13:41:06.000Z</time>
      </trkpt>
      <trkpt lat="45.59944" lon="6.11216">
        <ele>1230</ele>
        <time>2021-01-16T13:41:08.000Z</time>
      </trkpt>
      <trkpt lat="45.59946" lon="6.11213">
        <ele>1229</ele>
        <time>2021-01-16T13:41:09.000Z</time>
      </trkpt>
      <trkpt lat="45.59946" lon="6.1121">
        <ele>1228.4000244141</ele>
        <time>2021-01-16T13:41:10.000Z</time>
      </trkpt>
      <trkpt lat="45.59947" lon="6.11206">
        <ele>1228</ele>
        <time>2021-01-16T13:41:12.000Z</time>
      </trkpt>
      <trkpt lat="45.59949" lon="6.11205">
        <ele>1227.8000488281</ele>
        <time>2021-01-16T13:41:13.000Z</time>
      </trkpt>
      <trkpt lat="45.59951" lon="6.11205">
        <ele>1227.1999511719</ele>
        <time>2021-01-16T13:41:14.000Z</time>
      </trkpt>
      <trkpt lat="45.59953" lon="6.11204">
        <ele>1226.1999511719</ele>
        <time>2021-01-16T13:41:15.000Z</time>
      </trkpt>
      <trkpt lat="45.59956" lon="6.11203">
        <ele>1225</ele>
        <time>2021-01-16T13:41:16.000Z</time>
      </trkpt>
      <trkpt lat="45.59956" lon="6.112">
        <ele>1223.8000488281</ele>
        <time>2021-01-16T13:41:17.000Z</time>
      </trkpt>
      <trkpt lat="45.59955" lon="6.11196">
        <ele>1223</ele>
        <time>2021-01-16T13:41:18.000Z</time>
      </trkpt>
      <trkpt lat="45.59955" lon="6.11193">
        <ele>1222.5999755859</ele>
        <time>2021-01-16T13:41:19.000Z</time>
      </trkpt>
      <trkpt lat="45.59961" lon="6.11192">
        <ele>1220.8000488281</ele>
        <time>2021-01-16T13:41:21.000Z</time>
      </trkpt>
      <trkpt lat="45.59962" lon="6.11192">
        <ele>1219.8000488281</ele>
        <time>2021-01-16T13:41:22.000Z</time>
      </trkpt>
      <trkpt lat="45.59963" lon="6.11192">
        <ele>1218.5999755859</ele>
        <time>2021-01-16T13:41:23.000Z</time>
      </trkpt>
      <trkpt lat="45.59964" lon="6.11192">
        <ele>1217.1999511719</ele>
        <time>2021-01-16T13:41:24.000Z</time>
      </trkpt>
      <trkpt lat="45.59964" lon="6.11192">
        <ele>1215.8000488281</ele>
        <time>2021-01-16T13:41:25.000Z</time>
      </trkpt>
      <trkpt lat="45.59964" lon="6.11192">
        <ele>1214.8000488281</ele>
        <time>2021-01-16T13:41:27.000Z</time>
      </trkpt>
      <trkpt lat="45.59964" lon="6.11192">
        <ele>1213.4000244141</ele>
        <time>2021-01-16T13:41:30.000Z</time>
      </trkpt>
      <trkpt lat="45.59964" lon="6.11192">
        <ele>1212.8000488281</ele>
        <time>2021-01-16T13:41:38.000Z</time>
      </trkpt>
      <trkpt lat="45.59966" lon="6.11192">
        <ele>1212.8000488281</ele>
        <time>2021-01-16T13:41:40.000Z</time>
      </trkpt>
      <trkpt lat="45.59971" lon="6.11191">
        <ele>1212.1999511719</ele>
        <time>2021-01-16T13:41:42.000Z</time>
      </trkpt>
      <trkpt lat="45.59976" lon="6.11192">
        <ele>1211.4000244141</ele>
        <time>2021-01-16T13:41:46.000Z</time>
      </trkpt>
      <trkpt lat="45.59978" lon="6.11192">
        <ele>1211.1999511719</ele>
        <time>2021-01-16T13:41:47.000Z</time>
      </trkpt>
      <trkpt lat="45.5998" lon="6.11192">
        <ele>1211</ele>
        <time>2021-01-16T13:41:48.000Z</time>
      </trkpt>
      <trkpt lat="45.59989" lon="6.11194">
        <ele>1210.5999755859</ele>
        <time>2021-01-16T13:41:51.000Z</time>
      </trkpt>
      <trkpt lat="45.59992" lon="6.11195">
        <ele>1210</ele>
        <time>2021-01-16T13:41:52.000Z</time>
      </trkpt>
      <trkpt lat="45.59998" lon="6.11196">
        <ele>1208.8000488281</ele>
        <time>2021-01-16T13:41:54.000Z</time>
      </trkpt>
      <trkpt lat="45.60001" lon="6.11197">
        <ele>1207.5999755859</ele>
        <time>2021-01-16T13:41:56.000Z</time>
      </trkpt>
      <trkpt lat="45.60002" lon="6.11197">
        <ele>1206.4000244141</ele>
        <time>2021-01-16T13:42:00.000Z</time>
      </trkpt>
      <trkpt lat="45.60002" lon="6.11197">
        <ele>1205.5999755859</ele>
        <time>2021-01-16T13:42:01.000Z</time>
      </trkpt>
      <trkpt lat="45.60002" lon="6.11197">
        <ele>1205.1999511719</ele>
        <time>2021-01-16T13:42:02.000Z</time>
      </trkpt>
      <trkpt lat="45.60003" lon="6.11195">
        <ele>1204.5999755859</ele>
        <time>2021-01-16T13:42:06.000Z</time>
      </trkpt>
      <trkpt lat="45.60003" lon="6.11191">
        <ele>1204.5999755859</ele>
        <time>2021-01-16T13:42:07.000Z</time>
      </trkpt>
      <trkpt lat="45.60001" lon="6.11187">
        <ele>1204.1999511719</ele>
        <time>2021-01-16T13:42:09.000Z</time>
      </trkpt>
      <trkpt lat="45.60001" lon="6.11186">
        <ele>1204</ele>
        <time>2021-01-16T13:42:10.000Z</time>
      </trkpt>
      <trkpt lat="45.60001" lon="6.11186">
        <ele>1203.1999511719</ele>
        <time>2021-01-16T13:42:12.000Z</time>
      </trkpt>
      <trkpt lat="45.60001" lon="6.11185">
        <ele>1202</ele>
        <time>2021-01-16T13:42:14.000Z</time>
      </trkpt>
      <trkpt lat="45.60001" lon="6.11185">
        <ele>1201.8000488281</ele>
        <time>2021-01-16T13:42:15.000Z</time>
      </trkpt>
      <trkpt lat="45.60004" lon="6.11185">
        <ele>1201</ele>
        <time>2021-01-16T13:42:17.000Z</time>
      </trkpt>
      <trkpt lat="45.60009" lon="6.11187">
        <ele>1199.5999755859</ele>
        <time>2021-01-16T13:42:19.000Z</time>
      </trkpt>
      <trkpt lat="45.60015" lon="6.11193">
        <ele>1199.1999511719</ele>
        <time>2021-01-16T13:42:22.000Z</time>
      </trkpt>
      <trkpt lat="45.60021" lon="6.11196">
        <ele>1198.1999511719</ele>
        <time>2021-01-16T13:42:25.000Z</time>
      </trkpt>
      <trkpt lat="45.60024" lon="6.11194">
        <ele>1196.4000244141</ele>
        <time>2021-01-16T13:42:27.000Z</time>
      </trkpt>
      <trkpt lat="45.60024" lon="6.11193">
        <ele>1195.4000244141</ele>
        <time>2021-01-16T13:42:29.000Z</time>
      </trkpt>
      <trkpt lat="45.60024" lon="6.11193">
        <ele>1194.1999511719</ele>
        <time>2021-01-16T13:42:31.000Z</time>
      </trkpt>
      <trkpt lat="45.60024" lon="6.11193">
        <ele>1193.4000244141</ele>
        <time>2021-01-16T13:42:32.000Z</time>
      </trkpt>
      <trkpt lat="45.60024" lon="6.11193">
        <ele>1192.8000488281</ele>
        <time>2021-01-16T13:42:33.000Z</time>
      </trkpt>
      <trkpt lat="45.60027" lon="6.11192">
        <ele>1192.1999511719</ele>
        <time>2021-01-16T13:42:36.000Z</time>
      </trkpt>
      <trkpt lat="45.6003" lon="6.11191">
        <ele>1190.8000488281</ele>
        <time>2021-01-16T13:42:38.000Z</time>
      </trkpt>
      <trkpt lat="45.60032" lon="6.11187">
        <ele>1190.1999511719</ele>
        <time>2021-01-16T13:42:40.000Z</time>
      </trkpt>
      <trkpt lat="45.60034" lon="6.11187">
        <ele>1188.5999755859</ele>
        <time>2021-01-16T13:42:41.000Z</time>
      </trkpt>
      <trkpt lat="45.60036" lon="6.11186">
        <ele>1186.5999755859</ele>
        <time>2021-01-16T13:42:42.000Z</time>
      </trkpt>
      <trkpt lat="45.60036" lon="6.11183">
        <ele>1186</ele>
        <time>2021-01-16T13:42:43.000Z</time>
      </trkpt>
      <trkpt lat="45.60038" lon="6.11179">
        <ele>1185.4000244141</ele>
        <time>2021-01-16T13:42:46.000Z</time>
      </trkpt>
      <trkpt lat="45.6004" lon="6.1118">
        <ele>1183.8000488281</ele>
        <time>2021-01-16T13:42:47.000Z</time>
      </trkpt>
      <trkpt lat="45.60042" lon="6.11182">
        <ele>1181.4000244141</ele>
        <time>2021-01-16T13:42:49.000Z</time>
      </trkpt>
      <trkpt lat="45.60045" lon="6.11185">
        <ele>1179.5999755859</ele>
        <time>2021-01-16T13:42:51.000Z</time>
      </trkpt>
      <trkpt lat="45.60049" lon="6.11188">
        <ele>1178.8000488281</ele>
        <time>2021-01-16T13:42:54.000Z</time>
      </trkpt>
      <trkpt lat="45.6005" lon="6.11193">
        <ele>1178.4000244141</ele>
        <time>2021-01-16T13:42:55.000Z</time>
      </trkpt>
      <trkpt lat="45.60052" lon="6.11195">
        <ele>1177.5999755859</ele>
        <time>2021-01-16T13:42:57.000Z</time>
      </trkpt>
      <trkpt lat="45.60053" lon="6.11196">
        <ele>1177</ele>
        <time>2021-01-16T13:42:58.000Z</time>
      </trkpt>
      <trkpt lat="45.60053" lon="6.11196">
        <ele>1175.5999755859</ele>
        <time>2021-01-16T13:43:01.000Z</time>
      </trkpt>
      <trkpt lat="45.60053" lon="6.11196">
        <ele>1174.8000488281</ele>
        <time>2021-01-16T13:43:06.000Z</time>
      </trkpt>
      <trkpt lat="45.60053" lon="6.11196">
        <ele>1174.5999755859</ele>
        <time>2021-01-16T13:43:12.000Z</time>
      </trkpt>
      <trkpt lat="45.60057" lon="6.11201">
        <ele>1174.4000244141</ele>
        <time>2021-01-16T13:43:14.000Z</time>
      </trkpt>
      <trkpt lat="45.60072" lon="6.11216">
        <ele>1173.1999511719</ele>
        <time>2021-01-16T13:43:20.000Z</time>
      </trkpt>
      <trkpt lat="45.60074" lon="6.11218">
        <ele>1172.5999755859</ele>
        <time>2021-01-16T13:43:21.000Z</time>
      </trkpt>
      <trkpt lat="45.60077" lon="6.1122">
        <ele>1172</ele>
        <time>2021-01-16T13:43:22.000Z</time>
      </trkpt>
      <trkpt lat="45.60083" lon="6.11223">
        <ele>1170.8000488281</ele>
        <time>2021-01-16T13:43:24.000Z</time>
      </trkpt>
      <trkpt lat="45.6009" lon="6.11223">
        <ele>1169.8000488281</ele>
        <time>2021-01-16T13:43:26.000Z</time>
      </trkpt>
      <trkpt lat="45.60094" lon="6.11223">
        <ele>1169.4000244141</ele>
        <time>2021-01-16T13:43:27.000Z</time>
      </trkpt>
      <trkpt lat="45.60101" lon="6.11223">
        <ele>1168</ele>
        <time>2021-01-16T13:43:29.000Z</time>
      </trkpt>
      <trkpt lat="45.60107" lon="6.11223">
        <ele>1167</ele>
        <time>2021-01-16T13:43:31.000Z</time>
      </trkpt>
      <trkpt lat="45.60111" lon="6.11224">
        <ele>1165.5999755859</ele>
        <time>2021-01-16T13:43:33.000Z</time>
      </trkpt>
      <trkpt lat="45.60111" lon="6.11225">
        <ele>1165.4000244141</ele>
        <time>2021-01-16T13:43:34.000Z</time>
      </trkpt>
      <trkpt lat="45.60117" lon="6.11229">
        <ele>1164.4000244141</ele>
        <time>2021-01-16T13:43:37.000Z</time>
      </trkpt>
      <trkpt lat="45.60123" lon="6.11235">
        <ele>1163.1999511719</ele>
        <time>2021-01-16T13:43:40.000Z</time>
      </trkpt>
      <trkpt lat="45.60124" lon="6.11235">
        <ele>1162.8000488281</ele>
        <time>2021-01-16T13:43:41.000Z</time>
      </trkpt>
      <trkpt lat="45.60129" lon="6.11237">
        <ele>1161.8000488281</ele>
        <time>2021-01-16T13:43:43.000Z</time>
      </trkpt>
      <trkpt lat="45.60136" lon="6.1124">
        <ele>1161</ele>
        <time>2021-01-16T13:43:45.000Z</time>
      </trkpt>
      <trkpt lat="45.6014" lon="6.11242">
        <ele>1160.1999511719</ele>
        <time>2021-01-16T13:43:47.000Z</time>
      </trkpt>
      <trkpt lat="45.60145" lon="6.11243">
        <ele>1159</ele>
        <time>2021-01-16T13:43:48.000Z</time>
      </trkpt>
      <trkpt lat="45.60149" lon="6.11246">
        <ele>1158</ele>
        <time>2021-01-16T13:43:49.000Z</time>
      </trkpt>
      <trkpt lat="45.60154" lon="6.11247">
        <ele>1157</ele>
        <time>2021-01-16T13:43:50.000Z</time>
      </trkpt>
      <trkpt lat="45.60163" lon="6.11249">
        <ele>1155</ele>
        <time>2021-01-16T13:43:52.000Z</time>
      </trkpt>
      <trkpt lat="45.60167" lon="6.11249">
        <ele>1153</ele>
        <time>2021-01-16T13:43:53.000Z</time>
      </trkpt>
      <trkpt lat="45.60172" lon="6.11248">
        <ele>1150.4000244141</ele>
        <time>2021-01-16T13:43:54.000Z</time>
      </trkpt>
      <trkpt lat="45.60177" lon="6.11247">
        <ele>1147.8000488281</ele>
        <time>2021-01-16T13:43:55.000Z</time>
      </trkpt>
      <trkpt lat="45.60181" lon="6.11246">
        <ele>1145.8000488281</ele>
        <time>2021-01-16T13:43:56.000Z</time>
      </trkpt>
      <trkpt lat="45.60185" lon="6.11243">
        <ele>1144.1999511719</ele>
        <time>2021-01-16T13:43:57.000Z</time>
      </trkpt>
      <trkpt lat="45.6019" lon="6.11241">
        <ele>1143.1999511719</ele>
        <time>2021-01-16T13:43:58.000Z</time>
      </trkpt>
      <trkpt lat="45.60194" lon="6.11238">
        <ele>1141.8000488281</ele>
        <time>2021-01-16T13:43:59.000Z</time>
      </trkpt>
      <trkpt lat="45.60198" lon="6.11237">
        <ele>1140</ele>
        <time>2021-01-16T13:44:00.000Z</time>
      </trkpt>
      <trkpt lat="45.60201" lon="6.11235">
        <ele>1138.5999755859</ele>
        <time>2021-01-16T13:44:01.000Z</time>
      </trkpt>
      <trkpt lat="45.60205" lon="6.11234">
        <ele>1134.8000488281</ele>
        <time>2021-01-16T13:44:02.000Z</time>
      </trkpt>
      <trkpt lat="45.60208" lon="6.11233">
        <ele>1133.4000244141</ele>
        <time>2021-01-16T13:44:03.000Z</time>
      </trkpt>
      <trkpt lat="45.60211" lon="6.11232">
        <ele>1131.5999755859</ele>
        <time>2021-01-16T13:44:04.000Z</time>
      </trkpt>
      <trkpt lat="45.60214" lon="6.11232">
        <ele>1129.1999511719</ele>
        <time>2021-01-16T13:44:05.000Z</time>
      </trkpt>
      <trkpt lat="45.60217" lon="6.11232">
        <ele>1126.5999755859</ele>
        <time>2021-01-16T13:44:06.000Z</time>
      </trkpt>
      <trkpt lat="45.60221" lon="6.1123">
        <ele>1124.5999755859</ele>
        <time>2021-01-16T13:44:07.000Z</time>
      </trkpt>
      <trkpt lat="45.60226" lon="6.11228">
        <ele>1123.4000244141</ele>
        <time>2021-01-16T13:44:08.000Z</time>
      </trkpt>
      <trkpt lat="45.6023" lon="6.11229">
        <ele>1122.1999511719</ele>
        <time>2021-01-16T13:44:09.000Z</time>
      </trkpt>
      <trkpt lat="45.60234" lon="6.11231">
        <ele>1120.5999755859</ele>
        <time>2021-01-16T13:44:10.000Z</time>
      </trkpt>
      <trkpt lat="45.60241" lon="6.11232">
        <ele>1119</ele>
        <time>2021-01-16T13:44:11.000Z</time>
      </trkpt>
      <trkpt lat="45.60246" lon="6.11233">
        <ele>1118</ele>
        <time>2021-01-16T13:44:12.000Z</time>
      </trkpt>
      <trkpt lat="45.60259" lon="6.11232">
        <ele>1116</ele>
        <time>2021-01-16T13:44:14.000Z</time>
      </trkpt>
      <trkpt lat="45.60265" lon="6.11232">
        <ele>1114.8000488281</ele>
        <time>2021-01-16T13:44:15.000Z</time>
      </trkpt>
      <trkpt lat="45.60271" lon="6.11233">
        <ele>1113.5999755859</ele>
        <time>2021-01-16T13:44:16.000Z</time>
      </trkpt>
      <trkpt lat="45.60278" lon="6.11234">
        <ele>1112.1999511719</ele>
        <time>2021-01-16T13:44:17.000Z</time>
      </trkpt>
      <trkpt lat="45.60283" lon="6.11236">
        <ele>1110.8000488281</ele>
        <time>2021-01-16T13:44:18.000Z</time>
      </trkpt>
      <trkpt lat="45.60291" lon="6.11236">
        <ele>1109.5999755859</ele>
        <time>2021-01-16T13:44:19.000Z</time>
      </trkpt>
      <trkpt lat="45.60299" lon="6.11242">
        <ele>1108.1999511719</ele>
        <time>2021-01-16T13:44:20.000Z</time>
      </trkpt>
      <trkpt lat="45.60305" lon="6.11247">
        <ele>1106.4000244141</ele>
        <time>2021-01-16T13:44:21.000Z</time>
      </trkpt>
      <trkpt lat="45.60311" lon="6.11252">
        <ele>1104.1999511719</ele>
        <time>2021-01-16T13:44:22.000Z</time>
      </trkpt>
      <trkpt lat="45.60317" lon="6.11254">
        <ele>1101.5999755859</ele>
        <time>2021-01-16T13:44:23.000Z</time>
      </trkpt>
      <trkpt lat="45.60322" lon="6.11254">
        <ele>1099.5999755859</ele>
        <time>2021-01-16T13:44:24.000Z</time>
      </trkpt>
      <trkpt lat="45.60324" lon="6.11254">
        <ele>1098.4000244141</ele>
        <time>2021-01-16T13:44:25.000Z</time>
      </trkpt>
      <trkpt lat="45.60325" lon="6.11253">
        <ele>1096.1999511719</ele>
        <time>2021-01-16T13:44:26.000Z</time>
      </trkpt>
      <trkpt lat="45.60325" lon="6.11255">
        <ele>1094.8000488281</ele>
        <time>2021-01-16T13:44:27.000Z</time>
      </trkpt>
      <trkpt lat="45.60325" lon="6.11255">
        <ele>1093.5999755859</ele>
        <time>2021-01-16T13:44:28.000Z</time>
      </trkpt>
      <trkpt lat="45.60325" lon="6.11257">
        <ele>1092.4000244141</ele>
        <time>2021-01-16T13:44:30.000Z</time>
      </trkpt>
      <trkpt lat="45.60324" lon="6.11261">
        <ele>1091.8000488281</ele>
        <time>2021-01-16T13:44:40.000Z</time>
      </trkpt>
      <trkpt lat="45.60321" lon="6.1126">
        <ele>1091.5999755859</ele>
        <time>2021-01-16T13:44:50.000Z</time>
      </trkpt>
      <trkpt lat="45.60321" lon="6.11261">
        <ele>1091.5999755859</ele>
        <time>2021-01-16T13:45:02.000Z</time>
      </trkpt>
      <trkpt lat="45.6033" lon="6.11255">
        <ele>1091.4000244141</ele>
        <time>2021-01-16T13:45:06.000Z</time>
      </trkpt>
      <trkpt lat="45.60334" lon="6.11253">
        <ele>1091.4000244141</ele>
        <time>2021-01-16T13:45:07.000Z</time>
      </trkpt>
      <trkpt lat="45.60346" lon="6.11249">
        <ele>1090.1999511719</ele>
        <time>2021-01-16T13:45:10.000Z</time>
      </trkpt>
      <trkpt lat="45.60356" lon="6.11249">
        <ele>1089</ele>
        <time>2021-01-16T13:45:12.000Z</time>
      </trkpt>
      <trkpt lat="45.60366" lon="6.11247">
        <ele>1087.8000488281</ele>
        <time>2021-01-16T13:45:14.000Z</time>
      </trkpt>
      <trkpt lat="45.6037" lon="6.11246">
        <ele>1086.8000488281</ele>
        <time>2021-01-16T13:45:15.000Z</time>
      </trkpt>
      <trkpt lat="45.60375" lon="6.11246">
        <ele>1085.5999755859</ele>
        <time>2021-01-16T13:45:16.000Z</time>
      </trkpt>
      <trkpt lat="45.60379" lon="6.11246">
        <ele>1084.5999755859</ele>
        <time>2021-01-16T13:45:17.000Z</time>
      </trkpt>
      <trkpt lat="45.60384" lon="6.11247">
        <ele>1083.8000488281</ele>
        <time>2021-01-16T13:45:18.000Z</time>
      </trkpt>
      <trkpt lat="45.60394" lon="6.11248">
        <ele>1082.1999511719</ele>
        <time>2021-01-16T13:45:20.000Z</time>
      </trkpt>
      <trkpt lat="45.60404" lon="6.11247">
        <ele>1080.1999511719</ele>
        <time>2021-01-16T13:45:22.000Z</time>
      </trkpt>
      <trkpt lat="45.60408" lon="6.11244">
        <ele>1078.8000488281</ele>
        <time>2021-01-16T13:45:23.000Z</time>
      </trkpt>
      <trkpt lat="45.60412" lon="6.11242">
        <ele>1077</ele>
        <time>2021-01-16T13:45:24.000Z</time>
      </trkpt>
      <trkpt lat="45.60416" lon="6.11242">
        <ele>1074.8000488281</ele>
        <time>2021-01-16T13:45:25.000Z</time>
      </trkpt>
      <trkpt lat="45.60421" lon="6.11241">
        <ele>1073.4000244141</ele>
        <time>2021-01-16T13:45:26.000Z</time>
      </trkpt>
      <trkpt lat="45.60426" lon="6.11241">
        <ele>1072.8000488281</ele>
        <time>2021-01-16T13:45:27.000Z</time>
      </trkpt>
      <trkpt lat="45.60429" lon="6.11243">
        <ele>1071.5999755859</ele>
        <time>2021-01-16T13:45:28.000Z</time>
      </trkpt>
      <trkpt lat="45.60432" lon="6.11244">
        <ele>1070.4000244141</ele>
        <time>2021-01-16T13:45:29.000Z</time>
      </trkpt>
      <trkpt lat="45.60435" lon="6.11245">
        <ele>1068.8000488281</ele>
        <time>2021-01-16T13:45:30.000Z</time>
      </trkpt>
      <trkpt lat="45.60438" lon="6.11245">
        <ele>1066.5999755859</ele>
        <time>2021-01-16T13:45:31.000Z</time>
      </trkpt>
      <trkpt lat="45.60443" lon="6.11247">
        <ele>1064.5999755859</ele>
        <time>2021-01-16T13:45:32.000Z</time>
      </trkpt>
      <trkpt lat="45.60448" lon="6.11251">
        <ele>1063</ele>
        <time>2021-01-16T13:45:33.000Z</time>
      </trkpt>
      <trkpt lat="45.60452" lon="6.11254">
        <ele>1062</ele>
        <time>2021-01-16T13:45:34.000Z</time>
      </trkpt>
      <trkpt lat="45.60456" lon="6.11257">
        <ele>1060.8000488281</ele>
        <time>2021-01-16T13:45:35.000Z</time>
      </trkpt>
      <trkpt lat="45.6046" lon="6.1126">
        <ele>1059.4000244141</ele>
        <time>2021-01-16T13:45:36.000Z</time>
      </trkpt>
      <trkpt lat="45.60463" lon="6.11261">
        <ele>1058</ele>
        <time>2021-01-16T13:45:37.000Z</time>
      </trkpt>
      <trkpt lat="45.60467" lon="6.1126">
        <ele>1055.8000488281</ele>
        <time>2021-01-16T13:45:38.000Z</time>
      </trkpt>
      <trkpt lat="45.60467" lon="6.11255">
        <ele>1054.1999511719</ele>
        <time>2021-01-16T13:45:39.000Z</time>
      </trkpt>
      <trkpt lat="45.60466" lon="6.11252">
        <ele>1052.5999755859</ele>
        <time>2021-01-16T13:45:40.000Z</time>
      </trkpt>
      <trkpt lat="45.60466" lon="6.11249">
        <ele>1051.1999511719</ele>
        <time>2021-01-16T13:45:41.000Z</time>
      </trkpt>
      <trkpt lat="45.60466" lon="6.11247">
        <ele>1050</ele>
        <time>2021-01-16T13:45:42.000Z</time>
      </trkpt>
      <trkpt lat="45.60467" lon="6.11243">
        <ele>1048.5999755859</ele>
        <time>2021-01-16T13:45:43.000Z</time>
      </trkpt>
      <trkpt lat="45.60471" lon="6.1123">
        <ele>1047</ele>
        <time>2021-01-16T13:45:45.000Z</time>
      </trkpt>
      <trkpt lat="45.60472" lon="6.11217">
        <ele>1045.8000488281</ele>
        <time>2021-01-16T13:45:47.000Z</time>
      </trkpt>
      <trkpt lat="45.60472" lon="6.11214">
        <ele>1045</ele>
        <time>2021-01-16T13:45:48.000Z</time>
      </trkpt>
      <trkpt lat="45.60471" lon="6.11211">
        <ele>1043.5999755859</ele>
        <time>2021-01-16T13:45:49.000Z</time>
      </trkpt>
      <trkpt lat="45.6047" lon="6.11212">
        <ele>1041.4000244141</ele>
        <time>2021-01-16T13:45:50.000Z</time>
      </trkpt>
      <trkpt lat="45.60473" lon="6.11215">
        <ele>1039.1999511719</ele>
        <time>2021-01-16T13:45:51.000Z</time>
      </trkpt>
      <trkpt lat="45.60476" lon="6.11217">
        <ele>1038</ele>
        <time>2021-01-16T13:45:52.000Z</time>
      </trkpt>
      <trkpt lat="45.60482" lon="6.11221">
        <ele>1036.1999511719</ele>
        <time>2021-01-16T13:45:54.000Z</time>
      </trkpt>
      <trkpt lat="45.60485" lon="6.11223">
        <ele>1034.5999755859</ele>
        <time>2021-01-16T13:45:55.000Z</time>
      </trkpt>
      <trkpt lat="45.6049" lon="6.11224">
        <ele>1032.5999755859</ele>
        <time>2021-01-16T13:45:57.000Z</time>
      </trkpt>
      <trkpt lat="45.60495" lon="6.11215">
        <ele>1030.5999755859</ele>
        <time>2021-01-16T13:45:58.000Z</time>
      </trkpt>
      <trkpt lat="45.60499" lon="6.11207">
        <ele>1029</ele>
        <time>2021-01-16T13:45:59.000Z</time>
      </trkpt>
      <trkpt lat="45.60504" lon="6.11197">
        <ele>1027.5999755859</ele>
        <time>2021-01-16T13:46:00.000Z</time>
      </trkpt>
      <trkpt lat="45.60506" lon="6.11192">
        <ele>1026</ele>
        <time>2021-01-16T13:46:01.000Z</time>
      </trkpt>
      <trkpt lat="45.60508" lon="6.11188">
        <ele>1022.799987793</ele>
        <time>2021-01-16T13:46:02.000Z</time>
      </trkpt>
      <trkpt lat="45.6051" lon="6.11186">
        <ele>1021.200012207</ele>
        <time>2021-01-16T13:46:03.000Z</time>
      </trkpt>
      <trkpt lat="45.60511" lon="6.11186">
        <ele>1019.4000244141</ele>
        <time>2021-01-16T13:46:04.000Z</time>
      </trkpt>
      <trkpt lat="45.60517" lon="6.11187">
        <ele>1017.200012207</ele>
        <time>2021-01-16T13:46:06.000Z</time>
      </trkpt>
      <trkpt lat="45.6052" lon="6.11185">
        <ele>1015.799987793</ele>
        <time>2021-01-16T13:46:07.000Z</time>
      </trkpt>
      <trkpt lat="45.60526" lon="6.11179">
        <ele>1014.4000244141</ele>
        <time>2021-01-16T13:46:08.000Z</time>
      </trkpt>
      <trkpt lat="45.60536" lon="6.11165">
        <ele>1012</ele>
        <time>2021-01-16T13:46:10.000Z</time>
      </trkpt>
      <trkpt lat="45.60539" lon="6.11157">
        <ele>1010</ele>
        <time>2021-01-16T13:46:11.000Z</time>
      </trkpt>
      <trkpt lat="45.60543" lon="6.11149">
        <ele>1008</ele>
        <time>2021-01-16T13:46:12.000Z</time>
      </trkpt>
      <trkpt lat="45.60546" lon="6.11141">
        <ele>1006.5999755859</ele>
        <time>2021-01-16T13:46:13.000Z</time>
      </trkpt>
      <trkpt lat="45.60553" lon="6.11128">
        <ele>1005</ele>
        <time>2021-01-16T13:46:15.000Z</time>
      </trkpt>
      <trkpt lat="45.60557" lon="6.11127">
        <ele>1004.200012207</ele>
        <time>2021-01-16T13:46:16.000Z</time>
      </trkpt>
      <trkpt lat="45.60562" lon="6.11126">
        <ele>1003</ele>
        <time>2021-01-16T13:46:17.000Z</time>
      </trkpt>
      <trkpt lat="45.60568" lon="6.11125">
        <ele>1001.4000244141</ele>
        <time>2021-01-16T13:46:18.000Z</time>
      </trkpt>
      <trkpt lat="45.60575" lon="6.11122">
        <ele>1000</ele>
        <time>2021-01-16T13:46:19.000Z</time>
      </trkpt>
      <trkpt lat="45.60581" lon="6.11118">
        <ele>998.79998779297</ele>
        <time>2021-01-16T13:46:20.000Z</time>
      </trkpt>
      <trkpt lat="45.60587" lon="6.11114">
        <ele>997.79998779297</ele>
        <time>2021-01-16T13:46:21.000Z</time>
      </trkpt>
      <trkpt lat="45.60594" lon="6.11111">
        <ele>996.59997558594</ele>
        <time>2021-01-16T13:46:22.000Z</time>
      </trkpt>
      <trkpt lat="45.606" lon="6.11108">
        <ele>995.40002441406</ele>
        <time>2021-01-16T13:46:23.000Z</time>
      </trkpt>
      <trkpt lat="45.60603" lon="6.111">
        <ele>994</ele>
        <time>2021-01-16T13:46:24.000Z</time>
      </trkpt>
      <trkpt lat="45.60607" lon="6.11093">
        <ele>993</ele>
        <time>2021-01-16T13:46:25.000Z</time>
      </trkpt>
      <trkpt lat="45.60614" lon="6.11083">
        <ele>990.40002441406</ele>
        <time>2021-01-16T13:46:27.000Z</time>
      </trkpt>
      <trkpt lat="45.60616" lon="6.11082">
        <ele>989</ele>
        <time>2021-01-16T13:46:28.000Z</time>
      </trkpt>
      <trkpt lat="45.6062" lon="6.11081">
        <ele>987.20001220703</ele>
        <time>2021-01-16T13:46:29.000Z</time>
      </trkpt>
      <trkpt lat="45.60624" lon="6.11079">
        <ele>985.79998779297</ele>
        <time>2021-01-16T13:46:30.000Z</time>
      </trkpt>
      <trkpt lat="45.60626" lon="6.11072">
        <ele>984.79998779297</ele>
        <time>2021-01-16T13:46:31.000Z</time>
      </trkpt>
      <trkpt lat="45.60629" lon="6.11065">
        <ele>983.59997558594</ele>
        <time>2021-01-16T13:46:32.000Z</time>
      </trkpt>
      <trkpt lat="45.60635" lon="6.1105">
        <ele>981.79998779297</ele>
        <time>2021-01-16T13:46:34.000Z</time>
      </trkpt>
      <trkpt lat="45.60637" lon="6.11046">
        <ele>980.40002441406</ele>
        <time>2021-01-16T13:46:35.000Z</time>
      </trkpt>
      <trkpt lat="45.6064" lon="6.11044">
        <ele>978.79998779297</ele>
        <time>2021-01-16T13:46:36.000Z</time>
      </trkpt>
      <trkpt lat="45.60642" lon="6.11047">
        <ele>977.40002441406</ele>
        <time>2021-01-16T13:46:37.000Z</time>
      </trkpt>
      <trkpt lat="45.60644" lon="6.1105">
        <ele>976.59997558594</ele>
        <time>2021-01-16T13:46:38.000Z</time>
      </trkpt>
      <trkpt lat="45.60645" lon="6.11051">
        <ele>976</ele>
        <time>2021-01-16T13:46:39.000Z</time>
      </trkpt>
      <trkpt lat="45.60646" lon="6.11052">
        <ele>975.40002441406</ele>
        <time>2021-01-16T13:46:40.000Z</time>
      </trkpt>
      <trkpt lat="45.60646" lon="6.11052">
        <ele>974.59997558594</ele>
        <time>2021-01-16T13:46:41.000Z</time>
      </trkpt>
      <trkpt lat="45.60646" lon="6.11053">
        <ele>974.20001220703</ele>
        <time>2021-01-16T13:46:42.000Z</time>
      </trkpt>
      <trkpt lat="45.60645" lon="6.11054">
        <ele>973.40002441406</ele>
        <time>2021-01-16T13:46:45.000Z</time>
      </trkpt>
      <trkpt lat="45.60648" lon="6.11054">
        <ele>972.79998779297</ele>
        <time>2021-01-16T13:46:48.000Z</time>
      </trkpt>
      <trkpt lat="45.60661" lon="6.11052">
        <ele>972.20001220703</ele>
        <time>2021-01-16T13:46:51.000Z</time>
      </trkpt>
      <trkpt lat="45.60667" lon="6.11049">
        <ele>970.20001220703</ele>
        <time>2021-01-16T13:46:53.000Z</time>
      </trkpt>
      <trkpt lat="45.60668" lon="6.11049">
        <ele>969.40002441406</ele>
        <time>2021-01-16T13:46:54.000Z</time>
      </trkpt>
      <trkpt lat="45.60668" lon="6.11049">
        <ele>968.79998779297</ele>
        <time>2021-01-16T13:46:55.000Z</time>
      </trkpt>
      <trkpt lat="45.60672" lon="6.11044">
        <ele>967.59997558594</ele>
        <time>2021-01-16T13:46:59.000Z</time>
      </trkpt>
      <trkpt lat="45.60679" lon="6.11024">
        <ele>966.79998779297</ele>
        <time>2021-01-16T13:47:03.000Z</time>
      </trkpt>
      <trkpt lat="45.6068" lon="6.11019">
        <ele>966.40002441406</ele>
        <time>2021-01-16T13:47:04.000Z</time>
      </trkpt>
      <trkpt lat="45.60685" lon="6.11008">
        <ele>965.40002441406</ele>
        <time>2021-01-16T13:47:06.000Z</time>
      </trkpt>
      <trkpt lat="45.60688" lon="6.11004">
        <ele>965</ele>
        <time>2021-01-16T13:47:07.000Z</time>
      </trkpt>
      <trkpt lat="45.6069" lon="6.11002">
        <ele>964.40002441406</ele>
        <time>2021-01-16T13:47:08.000Z</time>
      </trkpt>
      <trkpt lat="45.60693" lon="6.11001">
        <ele>964</ele>
        <time>2021-01-16T13:47:09.000Z</time>
      </trkpt>
      <trkpt lat="45.60697" lon="6.11002">
        <ele>962</ele>
        <time>2021-01-16T13:47:11.000Z</time>
      </trkpt>
      <trkpt lat="45.60698" lon="6.11001">
        <ele>961.40002441406</ele>
        <time>2021-01-16T13:47:12.000Z</time>
      </trkpt>
      <trkpt lat="45.60699" lon="6.10995">
        <ele>960.40002441406</ele>
        <time>2021-01-16T13:47:13.000Z</time>
      </trkpt>
      <trkpt lat="45.607" lon="6.1099">
        <ele>959.40002441406</ele>
        <time>2021-01-16T13:47:14.000Z</time>
      </trkpt>
      <trkpt lat="45.60701" lon="6.10986">
        <ele>957.59997558594</ele>
        <time>2021-01-16T13:47:15.000Z</time>
      </trkpt>
      <trkpt lat="45.60705" lon="6.10978">
        <ele>955.20001220703</ele>
        <time>2021-01-16T13:47:17.000Z</time>
      </trkpt>
      <trkpt lat="45.60707" lon="6.10976">
        <ele>954</ele>
        <time>2021-01-16T13:47:18.000Z</time>
      </trkpt>
      <trkpt lat="45.60709" lon="6.10977">
        <ele>952.40002441406</ele>
        <time>2021-01-16T13:47:19.000Z</time>
      </trkpt>
      <trkpt lat="45.60715" lon="6.10974">
        <ele>951</ele>
        <time>2021-01-16T13:47:21.000Z</time>
      </trkpt>
      <trkpt lat="45.60717" lon="6.10969">
        <ele>949.79998779297</ele>
        <time>2021-01-16T13:47:22.000Z</time>
      </trkpt>
      <trkpt lat="45.6072" lon="6.10964">
        <ele>948.20001220703</ele>
        <time>2021-01-16T13:47:23.000Z</time>
      </trkpt>
      <trkpt lat="45.60723" lon="6.10958">
        <ele>947.20001220703</ele>
        <time>2021-01-16T13:47:24.000Z</time>
      </trkpt>
      <trkpt lat="45.60724" lon="6.10955">
        <ele>946.79998779297</ele>
        <time>2021-01-16T13:47:25.000Z</time>
      </trkpt>
      <trkpt lat="45.60725" lon="6.10952">
        <ele>945.59997558594</ele>
        <time>2021-01-16T13:47:26.000Z</time>
      </trkpt>
      <trkpt lat="45.60727" lon="6.1095">
        <ele>944</ele>
        <time>2021-01-16T13:47:27.000Z</time>
      </trkpt>
      <trkpt lat="45.60728" lon="6.10949">
        <ele>943</ele>
        <time>2021-01-16T13:47:28.000Z</time>
      </trkpt>
      <trkpt lat="45.60728" lon="6.10948">
        <ele>942.40002441406</ele>
        <time>2021-01-16T13:47:29.000Z</time>
      </trkpt>
      <trkpt lat="45.60728" lon="6.10948">
        <ele>941.40002441406</ele>
        <time>2021-01-16T13:47:30.000Z</time>
      </trkpt>
      <trkpt lat="45.60728" lon="6.10948">
        <ele>940.59997558594</ele>
        <time>2021-01-16T13:47:31.000Z</time>
      </trkpt>
      <trkpt lat="45.60732" lon="6.10946">
        <ele>939.40002441406</ele>
        <time>2021-01-16T13:47:35.000Z</time>
      </trkpt>
      <trkpt lat="45.60735" lon="6.10942">
        <ele>939.20001220703</ele>
        <time>2021-01-16T13:47:36.000Z</time>
      </trkpt>
      <trkpt lat="45.60746" lon="6.10925">
        <ele>937</ele>
        <time>2021-01-16T13:47:39.000Z</time>
      </trkpt>
      <trkpt lat="45.60751" lon="6.10919">
        <ele>936.20001220703</ele>
        <time>2021-01-16T13:47:40.000Z</time>
      </trkpt>
      <trkpt lat="45.60757" lon="6.10917">
        <ele>935.40002441406</ele>
        <time>2021-01-16T13:47:41.000Z</time>
      </trkpt>
      <trkpt lat="45.60764" lon="6.10918">
        <ele>934.20001220703</ele>
        <time>2021-01-16T13:47:42.000Z</time>
      </trkpt>
      <trkpt lat="45.60771" lon="6.10921">
        <ele>932.79998779297</ele>
        <time>2021-01-16T13:47:43.000Z</time>
      </trkpt>
      <trkpt lat="45.60776" lon="6.10924">
        <ele>931.40002441406</ele>
        <time>2021-01-16T13:47:44.000Z</time>
      </trkpt>
      <trkpt lat="45.60787" lon="6.10926">
        <ele>930.20001220703</ele>
        <time>2021-01-16T13:47:46.000Z</time>
      </trkpt>
      <trkpt lat="45.60795" lon="6.10917">
        <ele>929</ele>
        <time>2021-01-16T13:47:49.000Z</time>
      </trkpt>
      <trkpt lat="45.60795" lon="6.10906">
        <ele>927</ele>
        <time>2021-01-16T13:47:51.000Z</time>
      </trkpt>
      <trkpt lat="45.60796" lon="6.10902">
        <ele>925.79998779297</ele>
        <time>2021-01-16T13:47:52.000Z</time>
      </trkpt>
      <trkpt lat="45.60798" lon="6.109">
        <ele>924.79998779297</ele>
        <time>2021-01-16T13:47:53.000Z</time>
      </trkpt>
      <trkpt lat="45.608" lon="6.109">
        <ele>923.59997558594</ele>
        <time>2021-01-16T13:47:54.000Z</time>
      </trkpt>
      <trkpt lat="45.60802" lon="6.10901">
        <ele>922.40002441406</ele>
        <time>2021-01-16T13:47:55.000Z</time>
      </trkpt>
      <trkpt lat="45.60804" lon="6.10904">
        <ele>921.20001220703</ele>
        <time>2021-01-16T13:47:56.000Z</time>
      </trkpt>
      <trkpt lat="45.60807" lon="6.10909">
        <ele>920.59997558594</ele>
        <time>2021-01-16T13:47:57.000Z</time>
      </trkpt>
      <trkpt lat="45.60813" lon="6.10919">
        <ele>919.79998779297</ele>
        <time>2021-01-16T13:47:59.000Z</time>
      </trkpt>
      <trkpt lat="45.60819" lon="6.10927">
        <ele>919.20001220703</ele>
        <time>2021-01-16T13:48:01.000Z</time>
      </trkpt>
      <trkpt lat="45.60824" lon="6.10932">
        <ele>917.79998779297</ele>
        <time>2021-01-16T13:48:03.000Z</time>
      </trkpt>
      <trkpt lat="45.60829" lon="6.10936">
        <ele>917</ele>
        <time>2021-01-16T13:48:05.000Z</time>
      </trkpt>
      <trkpt lat="45.60831" lon="6.10936">
        <ele>916.79998779297</ele>
        <time>2021-01-16T13:48:06.000Z</time>
      </trkpt>
      <trkpt lat="45.60838" lon="6.10936">
        <ele>915.79998779297</ele>
        <time>2021-01-16T13:48:09.000Z</time>
      </trkpt>
      <trkpt lat="45.60847" lon="6.10937">
        <ele>914.59997558594</ele>
        <time>2021-01-16T13:48:12.000Z</time>
      </trkpt>
      <trkpt lat="45.60855" lon="6.10936">
        <ele>913.20001220703</ele>
        <time>2021-01-16T13:48:15.000Z</time>
      </trkpt>
      <trkpt lat="45.60859" lon="6.10936">
        <ele>912.59997558594</ele>
        <time>2021-01-16T13:48:17.000Z</time>
      </trkpt>
      <trkpt lat="45.60874" lon="6.10932">
        <ele>912</ele>
        <time>2021-01-16T13:48:25.000Z</time>
      </trkpt>
      <trkpt lat="45.60875" lon="6.1093">
        <ele>912</ele>
        <time>2021-01-16T13:48:26.000Z</time>
      </trkpt>
      <trkpt lat="45.60877" lon="6.10931">
        <ele>911</ele>
        <time>2021-01-16T13:48:27.000Z</time>
      </trkpt>
      <trkpt lat="45.6088" lon="6.1093">
        <ele>910.40002441406</ele>
        <time>2021-01-16T13:48:28.000Z</time>
      </trkpt>
      <trkpt lat="45.60881" lon="6.1093">
        <ele>910</ele>
        <time>2021-01-16T13:48:29.000Z</time>
      </trkpt>
      <trkpt lat="45.60882" lon="6.1093">
        <ele>909.79998779297</ele>
        <time>2021-01-16T13:48:30.000Z</time>
      </trkpt>
      <trkpt lat="45.60881" lon="6.10928">
        <ele>909.40002441406</ele>
        <time>2021-01-16T13:48:34.000Z</time>
      </trkpt>
      <trkpt lat="45.60887" lon="6.10935">
        <ele>909</ele>
        <time>2021-01-16T13:48:38.000Z</time>
      </trkpt>
      <trkpt lat="45.60888" lon="6.10938">
        <ele>908.40002441406</ele>
        <time>2021-01-16T13:48:39.000Z</time>
      </trkpt>
      <trkpt lat="45.6089" lon="6.10944">
        <ele>907.40002441406</ele>
        <time>2021-01-16T13:48:41.000Z</time>
      </trkpt>
      <trkpt lat="45.60893" lon="6.10949">
        <ele>906.40002441406</ele>
        <time>2021-01-16T13:48:42.000Z</time>
      </trkpt>
      <trkpt lat="45.60896" lon="6.10952">
        <ele>905.79998779297</ele>
        <time>2021-01-16T13:48:43.000Z</time>
      </trkpt>
      <trkpt lat="45.60908" lon="6.10954">
        <ele>905</ele>
        <time>2021-01-16T13:48:46.000Z</time>
      </trkpt>
      <trkpt lat="45.60912" lon="6.10954">
        <ele>904.59997558594</ele>
        <time>2021-01-16T13:48:47.000Z</time>
      </trkpt>
      <trkpt lat="45.60921" lon="6.10949">
        <ele>903.40002441406</ele>
        <time>2021-01-16T13:48:50.000Z</time>
      </trkpt>
      <trkpt lat="45.60927" lon="6.10946">
        <ele>902.40002441406</ele>
        <time>2021-01-16T13:48:52.000Z</time>
      </trkpt>
      <trkpt lat="45.6093" lon="6.10945">
        <ele>902.20001220703</ele>
        <time>2021-01-16T13:48:53.000Z</time>
      </trkpt>
      <trkpt lat="45.6094" lon="6.10943">
        <ele>901.40002441406</ele>
        <time>2021-01-16T13:48:57.000Z</time>
      </trkpt>
      <trkpt lat="45.60943" lon="6.10942">
        <ele>901</ele>
        <time>2021-01-16T13:48:59.000Z</time>
      </trkpt>
      <trkpt lat="45.60944" lon="6.10941">
        <ele>900.79998779297</ele>
        <time>2021-01-16T13:49:00.000Z</time>
      </trkpt>
      <trkpt lat="45.60947" lon="6.10939">
        <ele>900.40002441406</ele>
        <time>2021-01-16T13:49:06.000Z</time>
      </trkpt>
      <trkpt lat="45.60947" lon="6.10939">
        <ele>900.20001220703</ele>
        <time>2021-01-16T13:49:08.000Z</time>
      </trkpt>
      <trkpt lat="45.60947" lon="6.10939">
        <ele>900.40002441406</ele>
        <time>2021-01-16T13:49:15.000Z</time>
      </trkpt>
      <trkpt lat="45.60947" lon="6.10939">
        <ele>900.40002441406</ele>
        <time>2021-01-16T13:49:21.000Z</time>
      </trkpt>
      <trkpt lat="45.6095" lon="6.10936">
        <ele>900.20001220703</ele>
        <time>2021-01-16T13:49:32.000Z</time>
      </trkpt>
      <trkpt lat="45.60954" lon="6.10926">
        <ele>899.59997558594</ele>
        <time>2021-01-16T13:49:38.000Z</time>
      </trkpt>
      <trkpt lat="45.60953" lon="6.10925">
        <ele>899.40002441406</ele>
        <time>2021-01-16T13:49:40.000Z</time>
      </trkpt>
      <trkpt lat="45.60949" lon="6.10915">
        <ele>899.20001220703</ele>
        <time>2021-01-16T13:49:43.000Z</time>
      </trkpt>
      <trkpt lat="45.60944" lon="6.10912">
        <ele>897.79998779297</ele>
        <time>2021-01-16T13:49:46.000Z</time>
      </trkpt>
      <trkpt lat="45.60943" lon="6.10911">
        <ele>896.79998779297</ele>
        <time>2021-01-16T13:49:48.000Z</time>
      </trkpt>
      <trkpt lat="45.60945" lon="6.10909">
        <ele>896.79998779297</ele>
        <time>2021-01-16T13:49:57.000Z</time>
      </trkpt>
      <trkpt lat="45.60945" lon="6.10909">
        <ele>895.20001220703</ele>
        <time>2021-01-16T13:50:00.000Z</time>
      </trkpt>
      <trkpt lat="45.60945" lon="6.10909">
        <ele>893.59997558594</ele>
        <time>2021-01-16T13:50:02.000Z</time>
      </trkpt>
      <trkpt lat="45.60945" lon="6.10909">
        <ele>894.20001220703</ele>
        <time>2021-01-16T13:50:05.000Z</time>
      </trkpt>
      <trkpt lat="45.60945" lon="6.10909">
        <ele>895</ele>
        <time>2021-01-16T13:50:06.000Z</time>
      </trkpt>
      <trkpt lat="45.60945" lon="6.10909">
        <ele>896</ele>
        <time>2021-01-16T13:50:08.000Z</time>
      </trkpt>
      <trkpt lat="45.60944" lon="6.10909">
        <ele>896</ele>
        <time>2021-01-16T13:50:14.000Z</time>
      </trkpt>
      <trkpt lat="45.60944" lon="6.10909">
        <ele>896.20001220703</ele>
        <time>2021-01-16T13:50:27.000Z</time>
      </trkpt>
      <trkpt lat="45.60944" lon="6.10909">
        <ele>894.40002441406</ele>
        <time>2021-01-16T13:50:34.000Z</time>
      </trkpt>
      <trkpt lat="45.60944" lon="6.10909">
        <ele>893.20001220703</ele>
        <time>2021-01-16T13:50:36.000Z</time>
      </trkpt>
      <trkpt lat="45.60944" lon="6.10909">
        <ele>891.79998779297</ele>
        <time>2021-01-16T13:50:38.000Z</time>
      </trkpt>
      <trkpt lat="45.60944" lon="6.10909">
        <ele>891.59997558594</ele>
        <time>2021-01-16T13:50:39.000Z</time>
      </trkpt>
      <trkpt lat="45.60944" lon="6.10909">
        <ele>895.79998779297</ele>
        <time>2021-01-16T13:50:43.000Z</time>
      </trkpt>
      <trkpt lat="45.60944" lon="6.10909">
        <ele>898.59997558594</ele>
        <time>2021-01-16T13:50:44.000Z</time>
      </trkpt>
      <trkpt lat="45.60944" lon="6.10909">
        <ele>900</ele>
        <time>2021-01-16T13:50:45.000Z</time>
      </trkpt>
      <trkpt lat="45.60943" lon="6.10908">
        <ele>901</ele>
        <time>2021-01-16T13:50:47.000Z</time>
      </trkpt>
      <trkpt lat="45.60941" lon="6.10906">
        <ele>898.20001220703</ele>
        <time>2021-01-16T13:50:49.000Z</time>
      </trkpt>
      <trkpt lat="45.60939" lon="6.10904">
        <ele>896.40002441406</ele>
        <time>2021-01-16T13:50:51.000Z</time>
      </trkpt>
      <trkpt lat="45.60936" lon="6.10903">
        <ele>896</ele>
        <time>2021-01-16T13:50:54.000Z</time>
      </trkpt>
      <trkpt lat="45.60934" lon="6.10902">
        <ele>896</ele>
        <time>2021-01-16T13:51:02.000Z</time>
      </trkpt>
      <trkpt lat="45.60934" lon="6.10902">
        <ele>896</ele>
        <time>2021-01-16T13:51:13.000Z</time>
      </trkpt>
      <trkpt lat="45.60934" lon="6.10902">
        <ele>895</ele>
        <time>2021-01-16T13:51:23.000Z</time>
      </trkpt>
      <trkpt lat="45.60934" lon="6.10902">
        <ele>894.20001220703</ele>
        <time>2021-01-16T13:51:24.000Z</time>
      </trkpt>
      <trkpt lat="45.60934" lon="6.10902">
        <ele>893.59997558594</ele>
        <time>2021-01-16T13:51:25.000Z</time>
      </trkpt>
      <trkpt lat="45.60934" lon="6.10902">
        <ele>894.59997558594</ele>
        <time>2021-01-16T13:51:30.000Z</time>
      </trkpt>
      <trkpt lat="45.60934" lon="6.10902">
        <ele>892</ele>
        <time>2021-01-16T13:51:35.000Z</time>
      </trkpt>
      <trkpt lat="45.60934" lon="6.10902">
        <ele>890.79998779297</ele>
        <time>2021-01-16T13:51:36.000Z</time>
      </trkpt>
      <trkpt lat="45.60934" lon="6.10902">
        <ele>890.20001220703</ele>
        <time>2021-01-16T13:51:38.000Z</time>
      </trkpt>
      <trkpt lat="45.60934" lon="6.10902">
        <ele>895.20001220703</ele>
        <time>2021-01-16T13:51:39.000Z</time>
      </trkpt>
      <trkpt lat="45.60934" lon="6.10902">
        <ele>896.79998779297</ele>
        <time>2021-01-16T13:51:40.000Z</time>
      </trkpt>
      <trkpt lat="45.60934" lon="6.10902">
        <ele>898.59997558594</ele>
        <time>2021-01-16T13:51:42.000Z</time>
      </trkpt>
      <trkpt lat="45.60933" lon="6.10902">
        <ele>900</ele>
        <time>2021-01-16T13:51:43.000Z</time>
      </trkpt>
      <trkpt lat="45.60933" lon="6.10902">
        <ele>901.20001220703</ele>
        <time>2021-01-16T13:51:44.000Z</time>
      </trkpt>
      <trkpt lat="45.60933" lon="6.10902">
        <ele>900.59997558594</ele>
        <time>2021-01-16T13:51:45.000Z</time>
      </trkpt>
      <trkpt lat="45.60933" lon="6.10902">
        <ele>899.79998779297</ele>
        <time>2021-01-16T13:51:46.000Z</time>
      </trkpt>
      <trkpt lat="45.60933" lon="6.10902">
        <ele>898.40002441406</ele>
        <time>2021-01-16T13:51:49.000Z</time>
      </trkpt>
      <trkpt lat="45.60933" lon="6.10902">
        <ele>897.20001220703</ele>
        <time>2021-01-16T13:51:51.000Z</time>
      </trkpt>
      <trkpt lat="45.60933" lon="6.10902">
        <ele>896.20001220703</ele>
        <time>2021-01-16T13:51:55.000Z</time>
      </trkpt>
      <trkpt lat="45.60933" lon="6.10902">
        <ele>896.79998779297</ele>
        <time>2021-01-16T13:52:05.000Z</time>
      </trkpt>
      <trkpt lat="45.60933" lon="6.10901">
        <ele>896.59997558594</ele>
        <time>2021-01-16T13:52:30.000Z</time>
      </trkpt>
    </trkseg>
  </trk>
</gpx>